<?xml version="1.0" encoding="UTF-8" standalone="no" ?>
<gpx xmlns="http://www.topografix.com/GPX/1/1" xmlns:xsi="http://www.w3.org/2001/XMLSchema-instance" xsi:schemaLocation="http://www.topografix.com/GPX/1/1 http://www.topografix.com/GPX/1/1/gpx.xsd" version="1.1" creator="VisuGPX - https://www.visugpx.com">
  <metadata>
    <name>Graye-et-Charnay Cyclisme sur route</name>
  </metadata>
  <trk>
    <name><![CDATA[Graye-et-Charnay Cyclisme sur route_1]]></name>
    <trkseg>
      <trkpt lat="46.46446" lon="5.45217">
        <ele>376.2</ele>
        <time>2022-07-14T04:28:21Z</time>
      </trkpt>
      <trkpt lat="46.46446" lon="5.45217">
        <ele>370</ele>
        <time>2022-07-14T04:28:22Z</time>
      </trkpt>
      <trkpt lat="46.46438" lon="5.45215">
        <ele>369.2</ele>
        <time>2022-07-14T04:28:31Z</time>
      </trkpt>
      <trkpt lat="46.46435" lon="5.45215">
        <ele>369</ele>
        <time>2022-07-14T04:28:32Z</time>
      </trkpt>
      <trkpt lat="46.46432" lon="5.45213">
        <ele>369.2</ele>
        <time>2022-07-14T04:28:33Z</time>
      </trkpt>
      <trkpt lat="46.46405" lon="5.45207">
        <ele>369.2</ele>
        <time>2022-07-14T04:28:40Z</time>
      </trkpt>
      <trkpt lat="46.46377" lon="5.45214">
        <ele>369.8</ele>
        <time>2022-07-14T04:28:47Z</time>
      </trkpt>
      <trkpt lat="46.46352" lon="5.4523">
        <ele>370</ele>
        <time>2022-07-14T04:28:53Z</time>
      </trkpt>
      <trkpt lat="46.46313" lon="5.4526">
        <ele>370.4</ele>
        <time>2022-07-14T04:29:02Z</time>
      </trkpt>
      <trkpt lat="46.46271" lon="5.45294">
        <ele>370.6</ele>
        <time>2022-07-14T04:29:11Z</time>
      </trkpt>
      <trkpt lat="46.46226" lon="5.45328">
        <ele>371</ele>
        <time>2022-07-14T04:29:21Z</time>
      </trkpt>
      <trkpt lat="46.46221" lon="5.45331">
        <ele>371</ele>
        <time>2022-07-14T04:29:22Z</time>
      </trkpt>
      <trkpt lat="46.46178" lon="5.45363">
        <ele>371</ele>
        <time>2022-07-14T04:29:31Z</time>
      </trkpt>
      <trkpt lat="46.46168" lon="5.4537">
        <ele>371</ele>
        <time>2022-07-14T04:29:33Z</time>
      </trkpt>
      <trkpt lat="46.46119" lon="5.45404">
        <ele>371.2</ele>
        <time>2022-07-14T04:29:43Z</time>
      </trkpt>
      <trkpt lat="46.46072" lon="5.45433">
        <ele>372</ele>
        <time>2022-07-14T04:29:53Z</time>
      </trkpt>
      <trkpt lat="46.46057" lon="5.45442">
        <ele>372.4</ele>
        <time>2022-07-14T04:29:56Z</time>
      </trkpt>
      <trkpt lat="46.46033" lon="5.45456">
        <ele>373.2</ele>
        <time>2022-07-14T04:30:01Z</time>
      </trkpt>
      <trkpt lat="46.46019" lon="5.45464">
        <ele>373.4</ele>
        <time>2022-07-14T04:30:04Z</time>
      </trkpt>
      <trkpt lat="46.45985" lon="5.45484">
        <ele>374.2</ele>
        <time>2022-07-14T04:30:11Z</time>
      </trkpt>
      <trkpt lat="46.45976" lon="5.4549">
        <ele>374.2</ele>
        <time>2022-07-14T04:30:13Z</time>
      </trkpt>
      <trkpt lat="46.45967" lon="5.45495">
        <ele>374.2</ele>
        <time>2022-07-14T04:30:15Z</time>
      </trkpt>
      <trkpt lat="46.45929" lon="5.45517">
        <ele>375</ele>
        <time>2022-07-14T04:30:23Z</time>
      </trkpt>
      <trkpt lat="46.45924" lon="5.4552">
        <ele>375.2</ele>
        <time>2022-07-14T04:30:24Z</time>
      </trkpt>
      <trkpt lat="46.45891" lon="5.45539">
        <ele>376.2</ele>
        <time>2022-07-14T04:30:31Z</time>
      </trkpt>
      <trkpt lat="46.45883" lon="5.45544">
        <ele>376.4</ele>
        <time>2022-07-14T04:30:33Z</time>
      </trkpt>
      <trkpt lat="46.45839" lon="5.45565">
        <ele>377.4</ele>
        <time>2022-07-14T04:30:42Z</time>
      </trkpt>
      <trkpt lat="46.45831" lon="5.4557">
        <ele>377.8</ele>
        <time>2022-07-14T04:30:44Z</time>
      </trkpt>
      <trkpt lat="46.45821" lon="5.45576">
        <ele>378</ele>
        <time>2022-07-14T04:30:46Z</time>
      </trkpt>
      <trkpt lat="46.45802" lon="5.45586">
        <ele>378.4</ele>
        <time>2022-07-14T04:30:50Z</time>
      </trkpt>
      <trkpt lat="46.45797" lon="5.45589">
        <ele>378.6</ele>
        <time>2022-07-14T04:30:51Z</time>
      </trkpt>
      <trkpt lat="46.45748" lon="5.45617">
        <ele>379.6</ele>
        <time>2022-07-14T04:31:01Z</time>
      </trkpt>
      <trkpt lat="46.45696" lon="5.45648">
        <ele>379</ele>
        <time>2022-07-14T04:31:10Z</time>
      </trkpt>
      <trkpt lat="46.4564" lon="5.45681">
        <ele>378.6</ele>
        <time>2022-07-14T04:31:19Z</time>
      </trkpt>
      <trkpt lat="46.45633" lon="5.45685">
        <ele>378.4</ele>
        <time>2022-07-14T04:31:20Z</time>
      </trkpt>
      <trkpt lat="46.45619" lon="5.45691">
        <ele>378.2</ele>
        <time>2022-07-14T04:31:22Z</time>
      </trkpt>
      <trkpt lat="46.45587" lon="5.45698">
        <ele>377.2</ele>
        <time>2022-07-14T04:31:26Z</time>
      </trkpt>
      <trkpt lat="46.45565" lon="5.45695">
        <ele>376.4</ele>
        <time>2022-07-14T04:31:29Z</time>
      </trkpt>
      <trkpt lat="46.45556" lon="5.45691">
        <ele>376</ele>
        <time>2022-07-14T04:31:30Z</time>
      </trkpt>
      <trkpt lat="46.45535" lon="5.45681">
        <ele>374.8</ele>
        <time>2022-07-14T04:31:32Z</time>
      </trkpt>
      <trkpt lat="46.45528" lon="5.45677">
        <ele>373.6</ele>
        <time>2022-07-14T04:31:33Z</time>
      </trkpt>
      <trkpt lat="46.45499" lon="5.45661">
        <ele>372.8</ele>
        <time>2022-07-14T04:31:36Z</time>
      </trkpt>
      <trkpt lat="46.4549" lon="5.45656">
        <ele>372.2</ele>
        <time>2022-07-14T04:31:37Z</time>
      </trkpt>
      <trkpt lat="46.45472" lon="5.45644">
        <ele>371</ele>
        <time>2022-07-14T04:31:39Z</time>
      </trkpt>
      <trkpt lat="46.45463" lon="5.45637">
        <ele>370</ele>
        <time>2022-07-14T04:31:40Z</time>
      </trkpt>
      <trkpt lat="46.45446" lon="5.45623">
        <ele>368.8</ele>
        <time>2022-07-14T04:31:42Z</time>
      </trkpt>
      <trkpt lat="46.45411" lon="5.45596">
        <ele>367.8</ele>
        <time>2022-07-14T04:31:46Z</time>
      </trkpt>
      <trkpt lat="46.45393" lon="5.45591">
        <ele>367.2</ele>
        <time>2022-07-14T04:31:48Z</time>
      </trkpt>
      <trkpt lat="46.45384" lon="5.45591">
        <ele>366.8</ele>
        <time>2022-07-14T04:31:49Z</time>
      </trkpt>
      <trkpt lat="46.45375" lon="5.45593">
        <ele>366.6</ele>
        <time>2022-07-14T04:31:50Z</time>
      </trkpt>
      <trkpt lat="46.45367" lon="5.45597">
        <ele>366.4</ele>
        <time>2022-07-14T04:31:51Z</time>
      </trkpt>
      <trkpt lat="46.45359" lon="5.45602">
        <ele>366.2</ele>
        <time>2022-07-14T04:31:52Z</time>
      </trkpt>
      <trkpt lat="46.45347" lon="5.45617">
        <ele>366</ele>
        <time>2022-07-14T04:31:54Z</time>
      </trkpt>
      <trkpt lat="46.45338" lon="5.45639">
        <ele>365.6</ele>
        <time>2022-07-14T04:31:56Z</time>
      </trkpt>
      <trkpt lat="46.45335" lon="5.4565">
        <ele>365.6</ele>
        <time>2022-07-14T04:31:57Z</time>
      </trkpt>
      <trkpt lat="46.45326" lon="5.45722">
        <ele>365.4</ele>
        <time>2022-07-14T04:32:03Z</time>
      </trkpt>
      <trkpt lat="46.45317" lon="5.45786">
        <ele>365.6</ele>
        <time>2022-07-14T04:32:09Z</time>
      </trkpt>
      <trkpt lat="46.45304" lon="5.45837">
        <ele>365.8</ele>
        <time>2022-07-14T04:32:14Z</time>
      </trkpt>
      <trkpt lat="46.45282" lon="5.45908">
        <ele>366</ele>
        <time>2022-07-14T04:32:22Z</time>
      </trkpt>
      <trkpt lat="46.45279" lon="5.45924">
        <ele>366.2</ele>
        <time>2022-07-14T04:32:24Z</time>
      </trkpt>
      <trkpt lat="46.45277" lon="5.45941">
        <ele>366.8</ele>
        <time>2022-07-14T04:32:26Z</time>
      </trkpt>
      <trkpt lat="46.45274" lon="5.45953">
        <ele>367.4</ele>
        <time>2022-07-14T04:32:28Z</time>
      </trkpt>
      <trkpt lat="46.45271" lon="5.45974">
        <ele>367.8</ele>
        <time>2022-07-14T04:32:30Z</time>
      </trkpt>
      <trkpt lat="46.45271" lon="5.4598">
        <ele>367.8</ele>
        <time>2022-07-14T04:32:31Z</time>
      </trkpt>
      <trkpt lat="46.45268" lon="5.45987">
        <ele>368.2</ele>
        <time>2022-07-14T04:32:32Z</time>
      </trkpt>
      <trkpt lat="46.45264" lon="5.45999">
        <ele>369</ele>
        <time>2022-07-14T04:32:34Z</time>
      </trkpt>
      <trkpt lat="46.45261" lon="5.46006">
        <ele>369.4</ele>
        <time>2022-07-14T04:32:35Z</time>
      </trkpt>
      <trkpt lat="46.45259" lon="5.4601">
        <ele>369.8</ele>
        <time>2022-07-14T04:32:36Z</time>
      </trkpt>
      <trkpt lat="46.45257" lon="5.46015">
        <ele>370.2</ele>
        <time>2022-07-14T04:32:37Z</time>
      </trkpt>
      <trkpt lat="46.45252" lon="5.46024">
        <ele>371</ele>
        <time>2022-07-14T04:32:39Z</time>
      </trkpt>
      <trkpt lat="46.4525" lon="5.46029">
        <ele>371.2</ele>
        <time>2022-07-14T04:32:40Z</time>
      </trkpt>
      <trkpt lat="46.45248" lon="5.46033">
        <ele>371.8</ele>
        <time>2022-07-14T04:32:41Z</time>
      </trkpt>
      <trkpt lat="46.45245" lon="5.46036">
        <ele>372.2</ele>
        <time>2022-07-14T04:32:42Z</time>
      </trkpt>
      <trkpt lat="46.45234" lon="5.46039">
        <ele>372.8</ele>
        <time>2022-07-14T04:32:45Z</time>
      </trkpt>
      <trkpt lat="46.4523" lon="5.46036">
        <ele>373</ele>
        <time>2022-07-14T04:32:46Z</time>
      </trkpt>
      <trkpt lat="46.45225" lon="5.46033">
        <ele>373</ele>
        <time>2022-07-14T04:32:47Z</time>
      </trkpt>
      <trkpt lat="46.45214" lon="5.46024">
        <ele>373.2</ele>
        <time>2022-07-14T04:32:49Z</time>
      </trkpt>
      <trkpt lat="46.45208" lon="5.46018">
        <ele>373.2</ele>
        <time>2022-07-14T04:32:50Z</time>
      </trkpt>
      <trkpt lat="46.45195" lon="5.46005">
        <ele>373</ele>
        <time>2022-07-14T04:32:52Z</time>
      </trkpt>
      <trkpt lat="46.45177" lon="5.45991">
        <ele>372</ele>
        <time>2022-07-14T04:32:55Z</time>
      </trkpt>
      <trkpt lat="46.45163" lon="5.45983">
        <ele>371.2</ele>
        <time>2022-07-14T04:32:57Z</time>
      </trkpt>
      <trkpt lat="46.45156" lon="5.45977">
        <ele>370.6</ele>
        <time>2022-07-14T04:32:58Z</time>
      </trkpt>
      <trkpt lat="46.45142" lon="5.45966">
        <ele>369.6</ele>
        <time>2022-07-14T04:33:00Z</time>
      </trkpt>
      <trkpt lat="46.45135" lon="5.4596">
        <ele>369.4</ele>
        <time>2022-07-14T04:33:01Z</time>
      </trkpt>
      <trkpt lat="46.45105" lon="5.4594">
        <ele>368.4</ele>
        <time>2022-07-14T04:33:05Z</time>
      </trkpt>
      <trkpt lat="46.45097" lon="5.45936">
        <ele>368.4</ele>
        <time>2022-07-14T04:33:06Z</time>
      </trkpt>
      <trkpt lat="46.45067" lon="5.45923">
        <ele>367.8</ele>
        <time>2022-07-14T04:33:10Z</time>
      </trkpt>
      <trkpt lat="46.4502" lon="5.45893">
        <ele>367.6</ele>
        <time>2022-07-14T04:33:17Z</time>
      </trkpt>
      <trkpt lat="46.44984" lon="5.45871">
        <ele>368.2</ele>
        <time>2022-07-14T04:33:23Z</time>
      </trkpt>
      <trkpt lat="46.44957" lon="5.45855">
        <ele>369.4</ele>
        <time>2022-07-14T04:33:28Z</time>
      </trkpt>
      <trkpt lat="46.4494" lon="5.45845">
        <ele>369.8</ele>
        <time>2022-07-14T04:33:31Z</time>
      </trkpt>
      <trkpt lat="46.44924" lon="5.45836">
        <ele>370.4</ele>
        <time>2022-07-14T04:33:34Z</time>
      </trkpt>
      <trkpt lat="46.44891" lon="5.45816">
        <ele>371</ele>
        <time>2022-07-14T04:33:40Z</time>
      </trkpt>
      <trkpt lat="46.4486" lon="5.45799">
        <ele>371.4</ele>
        <time>2022-07-14T04:33:45Z</time>
      </trkpt>
      <trkpt lat="46.44848" lon="5.45792">
        <ele>371.6</ele>
        <time>2022-07-14T04:33:47Z</time>
      </trkpt>
      <trkpt lat="46.44804" lon="5.45767">
        <ele>371.8</ele>
        <time>2022-07-14T04:33:55Z</time>
      </trkpt>
      <trkpt lat="46.44751" lon="5.45738">
        <ele>371.4</ele>
        <time>2022-07-14T04:34:02Z</time>
      </trkpt>
      <trkpt lat="46.44737" lon="5.4573">
        <ele>371.2</ele>
        <time>2022-07-14T04:34:04Z</time>
      </trkpt>
      <trkpt lat="46.44682" lon="5.45706">
        <ele>370.6</ele>
        <time>2022-07-14T04:34:12Z</time>
      </trkpt>
      <trkpt lat="46.44675" lon="5.45703">
        <ele>370.4</ele>
        <time>2022-07-14T04:34:13Z</time>
      </trkpt>
      <trkpt lat="46.44668" lon="5.45701">
        <ele>370.2</ele>
        <time>2022-07-14T04:34:14Z</time>
      </trkpt>
      <trkpt lat="46.44612" lon="5.45682">
        <ele>369.8</ele>
        <time>2022-07-14T04:34:22Z</time>
      </trkpt>
      <trkpt lat="46.44558" lon="5.45665">
        <ele>370</ele>
        <time>2022-07-14T04:34:30Z</time>
      </trkpt>
      <trkpt lat="46.44551" lon="5.45663">
        <ele>370</ele>
        <time>2022-07-14T04:34:31Z</time>
      </trkpt>
      <trkpt lat="46.44544" lon="5.45661">
        <ele>370</ele>
        <time>2022-07-14T04:34:32Z</time>
      </trkpt>
      <trkpt lat="46.44487" lon="5.45646">
        <ele>370.8</ele>
        <time>2022-07-14T04:34:41Z</time>
      </trkpt>
      <trkpt lat="46.44432" lon="5.45639">
        <ele>371</ele>
        <time>2022-07-14T04:34:49Z</time>
      </trkpt>
      <trkpt lat="46.44409" lon="5.45637">
        <ele>370.4</ele>
        <time>2022-07-14T04:34:52Z</time>
      </trkpt>
      <trkpt lat="46.44364" lon="5.45631">
        <ele>369</ele>
        <time>2022-07-14T04:34:58Z</time>
      </trkpt>
      <trkpt lat="46.44356" lon="5.4563">
        <ele>369</ele>
        <time>2022-07-14T04:34:59Z</time>
      </trkpt>
      <trkpt lat="46.44327" lon="5.45627">
        <ele>368</ele>
        <time>2022-07-14T04:35:02Z</time>
      </trkpt>
      <trkpt lat="46.44294" lon="5.45624">
        <ele>366.8</ele>
        <time>2022-07-14T04:35:06Z</time>
      </trkpt>
      <trkpt lat="46.44285" lon="5.45624">
        <ele>366.6</ele>
        <time>2022-07-14T04:35:07Z</time>
      </trkpt>
      <trkpt lat="46.44236" lon="5.45625">
        <ele>366</ele>
        <time>2022-07-14T04:35:13Z</time>
      </trkpt>
      <trkpt lat="46.44211" lon="5.45629">
        <ele>365.8</ele>
        <time>2022-07-14T04:35:16Z</time>
      </trkpt>
      <trkpt lat="46.44153" lon="5.45641">
        <ele>365</ele>
        <time>2022-07-14T04:35:23Z</time>
      </trkpt>
      <trkpt lat="46.44137" lon="5.45644">
        <ele>364.6</ele>
        <time>2022-07-14T04:35:25Z</time>
      </trkpt>
      <trkpt lat="46.4409" lon="5.45653">
        <ele>364.4</ele>
        <time>2022-07-14T04:35:31Z</time>
      </trkpt>
      <trkpt lat="46.44035" lon="5.45663">
        <ele>363.8</ele>
        <time>2022-07-14T04:35:38Z</time>
      </trkpt>
      <trkpt lat="46.44003" lon="5.45669">
        <ele>363.6</ele>
        <time>2022-07-14T04:35:42Z</time>
      </trkpt>
      <trkpt lat="46.43948" lon="5.4568">
        <ele>363.2</ele>
        <time>2022-07-14T04:35:49Z</time>
      </trkpt>
      <trkpt lat="46.43924" lon="5.45683">
        <ele>363</ele>
        <time>2022-07-14T04:35:52Z</time>
      </trkpt>
      <trkpt lat="46.4388" lon="5.45691">
        <ele>362.6</ele>
        <time>2022-07-14T04:35:58Z</time>
      </trkpt>
      <trkpt lat="46.43873" lon="5.45692">
        <ele>362.6</ele>
        <time>2022-07-14T04:35:59Z</time>
      </trkpt>
      <trkpt lat="46.43817" lon="5.45695">
        <ele>363</ele>
        <time>2022-07-14T04:36:06Z</time>
      </trkpt>
      <trkpt lat="46.43756" lon="5.45694">
        <ele>362.6</ele>
        <time>2022-07-14T04:36:14Z</time>
      </trkpt>
      <trkpt lat="46.43733" lon="5.45694">
        <ele>362.2</ele>
        <time>2022-07-14T04:36:17Z</time>
      </trkpt>
      <trkpt lat="46.43708" lon="5.45695">
        <ele>362.2</ele>
        <time>2022-07-14T04:36:20Z</time>
      </trkpt>
      <trkpt lat="46.43687" lon="5.45692">
        <ele>361.8</ele>
        <time>2022-07-14T04:36:23Z</time>
      </trkpt>
      <trkpt lat="46.43624" lon="5.45691">
        <ele>361.8</ele>
        <time>2022-07-14T04:36:31Z</time>
      </trkpt>
      <trkpt lat="46.43565" lon="5.4569">
        <ele>361.8</ele>
        <time>2022-07-14T04:36:39Z</time>
      </trkpt>
      <trkpt lat="46.4355" lon="5.4569">
        <ele>361.6</ele>
        <time>2022-07-14T04:36:41Z</time>
      </trkpt>
      <trkpt lat="46.43543" lon="5.4569">
        <ele>361.6</ele>
        <time>2022-07-14T04:36:42Z</time>
      </trkpt>
      <trkpt lat="46.43483" lon="5.45688">
        <ele>361.2</ele>
        <time>2022-07-14T04:36:50Z</time>
      </trkpt>
      <trkpt lat="46.43454" lon="5.45687">
        <ele>361.2</ele>
        <time>2022-07-14T04:36:54Z</time>
      </trkpt>
      <trkpt lat="46.43395" lon="5.45687">
        <ele>361.6</ele>
        <time>2022-07-14T04:37:02Z</time>
      </trkpt>
      <trkpt lat="46.43351" lon="5.45686">
        <ele>361.6</ele>
        <time>2022-07-14T04:37:08Z</time>
      </trkpt>
      <trkpt lat="46.43293" lon="5.45684">
        <ele>361.4</ele>
        <time>2022-07-14T04:37:16Z</time>
      </trkpt>
      <trkpt lat="46.43264" lon="5.45684">
        <ele>361.4</ele>
        <time>2022-07-14T04:37:20Z</time>
      </trkpt>
      <trkpt lat="46.43204" lon="5.45682">
        <ele>361.2</ele>
        <time>2022-07-14T04:37:28Z</time>
      </trkpt>
      <trkpt lat="46.4319" lon="5.45682">
        <ele>361.2</ele>
        <time>2022-07-14T04:37:30Z</time>
      </trkpt>
      <trkpt lat="46.43183" lon="5.45682">
        <ele>361.2</ele>
        <time>2022-07-14T04:37:31Z</time>
      </trkpt>
      <trkpt lat="46.43123" lon="5.45681">
        <ele>361.6</ele>
        <time>2022-07-14T04:37:40Z</time>
      </trkpt>
      <trkpt lat="46.4311" lon="5.45681">
        <ele>361.8</ele>
        <time>2022-07-14T04:37:42Z</time>
      </trkpt>
      <trkpt lat="46.43079" lon="5.45682">
        <ele>362.6</ele>
        <time>2022-07-14T04:37:47Z</time>
      </trkpt>
      <trkpt lat="46.43059" lon="5.45681">
        <ele>363</ele>
        <time>2022-07-14T04:37:50Z</time>
      </trkpt>
      <trkpt lat="46.43041" lon="5.45681">
        <ele>363.6</ele>
        <time>2022-07-14T04:37:53Z</time>
      </trkpt>
      <trkpt lat="46.43013" lon="5.45679">
        <ele>364.4</ele>
        <time>2022-07-14T04:37:58Z</time>
      </trkpt>
      <trkpt lat="46.43007" lon="5.45679">
        <ele>364.8</ele>
        <time>2022-07-14T04:37:59Z</time>
      </trkpt>
      <trkpt lat="46.42963" lon="5.45677">
        <ele>365.8</ele>
        <time>2022-07-14T04:38:06Z</time>
      </trkpt>
      <trkpt lat="46.42957" lon="5.45676">
        <ele>365.8</ele>
        <time>2022-07-14T04:38:07Z</time>
      </trkpt>
      <trkpt lat="46.42908" lon="5.45675">
        <ele>366.8</ele>
        <time>2022-07-14T04:38:15Z</time>
      </trkpt>
      <trkpt lat="46.42897" lon="5.45675">
        <ele>367.2</ele>
        <time>2022-07-14T04:38:17Z</time>
      </trkpt>
      <trkpt lat="46.42869" lon="5.45676">
        <ele>368</ele>
        <time>2022-07-14T04:38:22Z</time>
      </trkpt>
      <trkpt lat="46.42848" lon="5.45675">
        <ele>368.8</ele>
        <time>2022-07-14T04:38:26Z</time>
      </trkpt>
      <trkpt lat="46.42843" lon="5.45675">
        <ele>369</ele>
        <time>2022-07-14T04:38:27Z</time>
      </trkpt>
      <trkpt lat="46.42798" lon="5.45671">
        <ele>370</ele>
        <time>2022-07-14T04:38:35Z</time>
      </trkpt>
      <trkpt lat="46.42787" lon="5.4567">
        <ele>370.2</ele>
        <time>2022-07-14T04:38:37Z</time>
      </trkpt>
      <trkpt lat="46.42729" lon="5.45658">
        <ele>371</ele>
        <time>2022-07-14T04:38:47Z</time>
      </trkpt>
      <trkpt lat="46.42675" lon="5.45642">
        <ele>370.8</ele>
        <time>2022-07-14T04:38:56Z</time>
      </trkpt>
      <trkpt lat="46.4262" lon="5.45624">
        <ele>370.4</ele>
        <time>2022-07-14T04:39:04Z</time>
      </trkpt>
      <trkpt lat="46.42613" lon="5.45622">
        <ele>370</ele>
        <time>2022-07-14T04:39:05Z</time>
      </trkpt>
      <trkpt lat="46.4256" lon="5.45604">
        <ele>369</ele>
        <time>2022-07-14T04:39:12Z</time>
      </trkpt>
      <trkpt lat="46.42552" lon="5.45602">
        <ele>368.8</ele>
        <time>2022-07-14T04:39:13Z</time>
      </trkpt>
      <trkpt lat="46.42494" lon="5.45583">
        <ele>368.6</ele>
        <time>2022-07-14T04:39:21Z</time>
      </trkpt>
      <trkpt lat="46.42455" lon="5.45571">
        <ele>368.8</ele>
        <time>2022-07-14T04:39:27Z</time>
      </trkpt>
      <trkpt lat="46.42409" lon="5.45557">
        <ele>369.4</ele>
        <time>2022-07-14T04:39:34Z</time>
      </trkpt>
      <trkpt lat="46.42391" lon="5.4555">
        <ele>370</ele>
        <time>2022-07-14T04:39:37Z</time>
      </trkpt>
      <trkpt lat="46.42357" lon="5.4554">
        <ele>371</ele>
        <time>2022-07-14T04:39:43Z</time>
      </trkpt>
      <trkpt lat="46.42321" lon="5.4553">
        <ele>372.2</ele>
        <time>2022-07-14T04:39:49Z</time>
      </trkpt>
      <trkpt lat="46.42309" lon="5.45526">
        <ele>372.4</ele>
        <time>2022-07-14T04:39:51Z</time>
      </trkpt>
      <trkpt lat="46.42271" lon="5.45512">
        <ele>373.2</ele>
        <time>2022-07-14T04:39:57Z</time>
      </trkpt>
      <trkpt lat="46.42245" lon="5.45505">
        <ele>373.4</ele>
        <time>2022-07-14T04:40:01Z</time>
      </trkpt>
      <trkpt lat="46.42191" lon="5.45487">
        <ele>373.2</ele>
        <time>2022-07-14T04:40:09Z</time>
      </trkpt>
      <trkpt lat="46.42178" lon="5.45482">
        <ele>373</ele>
        <time>2022-07-14T04:40:11Z</time>
      </trkpt>
      <trkpt lat="46.42124" lon="5.45461">
        <ele>373.4</ele>
        <time>2022-07-14T04:40:19Z</time>
      </trkpt>
      <trkpt lat="46.42092" lon="5.45449">
        <ele>373.8</ele>
        <time>2022-07-14T04:40:24Z</time>
      </trkpt>
      <trkpt lat="46.42035" lon="5.45425">
        <ele>374</ele>
        <time>2022-07-14T04:40:33Z</time>
      </trkpt>
      <trkpt lat="46.42009" lon="5.45414">
        <ele>374</ele>
        <time>2022-07-14T04:40:37Z</time>
      </trkpt>
      <trkpt lat="46.4196" lon="5.45394">
        <ele>373.4</ele>
        <time>2022-07-14T04:40:44Z</time>
      </trkpt>
      <trkpt lat="46.41921" lon="5.45381">
        <ele>372.6</ele>
        <time>2022-07-14T04:40:49Z</time>
      </trkpt>
      <trkpt lat="46.41883" lon="5.4537">
        <ele>371.8</ele>
        <time>2022-07-14T04:40:54Z</time>
      </trkpt>
      <trkpt lat="46.41833" lon="5.45358">
        <ele>371.4</ele>
        <time>2022-07-14T04:41:01Z</time>
      </trkpt>
      <trkpt lat="46.41776" lon="5.45345">
        <ele>371.4</ele>
        <time>2022-07-14T04:41:09Z</time>
      </trkpt>
      <trkpt lat="46.41769" lon="5.45344">
        <ele>371.4</ele>
        <time>2022-07-14T04:41:10Z</time>
      </trkpt>
      <trkpt lat="46.41712" lon="5.45331">
        <ele>371.6</ele>
        <time>2022-07-14T04:41:18Z</time>
      </trkpt>
      <trkpt lat="46.41698" lon="5.45328">
        <ele>371.6</ele>
        <time>2022-07-14T04:41:20Z</time>
      </trkpt>
      <trkpt lat="46.41652" lon="5.45316">
        <ele>370.8</ele>
        <time>2022-07-14T04:41:26Z</time>
      </trkpt>
      <trkpt lat="46.4162" lon="5.45308">
        <ele>369.8</ele>
        <time>2022-07-14T04:41:30Z</time>
      </trkpt>
      <trkpt lat="46.41612" lon="5.45306">
        <ele>369.8</ele>
        <time>2022-07-14T04:41:31Z</time>
      </trkpt>
      <trkpt lat="46.41563" lon="5.45295">
        <ele>368.6</ele>
        <time>2022-07-14T04:41:37Z</time>
      </trkpt>
      <trkpt lat="46.41547" lon="5.45291">
        <ele>368.4</ele>
        <time>2022-07-14T04:41:39Z</time>
      </trkpt>
      <trkpt lat="46.41507" lon="5.45281">
        <ele>367.4</ele>
        <time>2022-07-14T04:41:44Z</time>
      </trkpt>
      <trkpt lat="46.41451" lon="5.45267">
        <ele>366.8</ele>
        <time>2022-07-14T04:41:51Z</time>
      </trkpt>
      <trkpt lat="46.4142" lon="5.4526">
        <ele>366.2</ele>
        <time>2022-07-14T04:41:55Z</time>
      </trkpt>
      <trkpt lat="46.41387" lon="5.45252">
        <ele>366.2</ele>
        <time>2022-07-14T04:42:00Z</time>
      </trkpt>
      <trkpt lat="46.41332" lon="5.45239">
        <ele>366.6</ele>
        <time>2022-07-14T04:42:07Z</time>
      </trkpt>
      <trkpt lat="46.4131" lon="5.45234">
        <ele>366.4</ele>
        <time>2022-07-14T04:42:10Z</time>
      </trkpt>
      <trkpt lat="46.41251" lon="5.4522">
        <ele>366.2</ele>
        <time>2022-07-14T04:42:18Z</time>
      </trkpt>
      <trkpt lat="46.41244" lon="5.45219">
        <ele>366.2</ele>
        <time>2022-07-14T04:42:19Z</time>
      </trkpt>
      <trkpt lat="46.41185" lon="5.45207">
        <ele>366.2</ele>
        <time>2022-07-14T04:42:27Z</time>
      </trkpt>
      <trkpt lat="46.41171" lon="5.45204">
        <ele>366</ele>
        <time>2022-07-14T04:42:29Z</time>
      </trkpt>
      <trkpt lat="46.41111" lon="5.45193">
        <ele>365.4</ele>
        <time>2022-07-14T04:42:37Z</time>
      </trkpt>
      <trkpt lat="46.41096" lon="5.4519">
        <ele>365.2</ele>
        <time>2022-07-14T04:42:39Z</time>
      </trkpt>
      <trkpt lat="46.41088" lon="5.45188">
        <ele>365.2</ele>
        <time>2022-07-14T04:42:40Z</time>
      </trkpt>
      <trkpt lat="46.41033" lon="5.45172">
        <ele>364.4</ele>
        <time>2022-07-14T04:42:47Z</time>
      </trkpt>
      <trkpt lat="46.41024" lon="5.45169">
        <ele>364.2</ele>
        <time>2022-07-14T04:42:48Z</time>
      </trkpt>
      <trkpt lat="46.41016" lon="5.45166">
        <ele>363.8</ele>
        <time>2022-07-14T04:42:49Z</time>
      </trkpt>
      <trkpt lat="46.40983" lon="5.4515">
        <ele>363</ele>
        <time>2022-07-14T04:42:53Z</time>
      </trkpt>
      <trkpt lat="46.40959" lon="5.45135">
        <ele>362.4</ele>
        <time>2022-07-14T04:42:56Z</time>
      </trkpt>
      <trkpt lat="46.40916" lon="5.45103">
        <ele>361.8</ele>
        <time>2022-07-14T04:43:02Z</time>
      </trkpt>
      <trkpt lat="46.409" lon="5.4509">
        <ele>361.8</ele>
        <time>2022-07-14T04:43:04Z</time>
      </trkpt>
      <trkpt lat="46.40863" lon="5.4506">
        <ele>360.8</ele>
        <time>2022-07-14T04:43:09Z</time>
      </trkpt>
      <trkpt lat="46.40831" lon="5.45037">
        <ele>359.6</ele>
        <time>2022-07-14T04:43:13Z</time>
      </trkpt>
      <trkpt lat="46.40822" lon="5.45032">
        <ele>359.2</ele>
        <time>2022-07-14T04:43:14Z</time>
      </trkpt>
      <trkpt lat="46.40807" lon="5.45024">
        <ele>358.6</ele>
        <time>2022-07-14T04:43:16Z</time>
      </trkpt>
      <trkpt lat="46.40773" lon="5.4501">
        <ele>357.6</ele>
        <time>2022-07-14T04:43:20Z</time>
      </trkpt>
      <trkpt lat="46.40763" lon="5.45006">
        <ele>357.2</ele>
        <time>2022-07-14T04:43:21Z</time>
      </trkpt>
      <trkpt lat="46.40707" lon="5.4499">
        <ele>356.8</ele>
        <time>2022-07-14T04:43:28Z</time>
      </trkpt>
      <trkpt lat="46.40699" lon="5.44989">
        <ele>356.8</ele>
        <time>2022-07-14T04:43:29Z</time>
      </trkpt>
      <trkpt lat="46.40658" lon="5.44994">
        <ele>356.4</ele>
        <time>2022-07-14T04:43:34Z</time>
      </trkpt>
      <trkpt lat="46.40612" lon="5.45016">
        <ele>356</ele>
        <time>2022-07-14T04:43:40Z</time>
      </trkpt>
      <trkpt lat="46.4056" lon="5.45044">
        <ele>356</ele>
        <time>2022-07-14T04:43:47Z</time>
      </trkpt>
      <trkpt lat="46.40502" lon="5.45075">
        <ele>356.4</ele>
        <time>2022-07-14T04:43:55Z</time>
      </trkpt>
      <trkpt lat="46.4048" lon="5.45087">
        <ele>356.6</ele>
        <time>2022-07-14T04:43:58Z</time>
      </trkpt>
      <trkpt lat="46.40425" lon="5.45115">
        <ele>356</ele>
        <time>2022-07-14T04:44:05Z</time>
      </trkpt>
      <trkpt lat="46.40401" lon="5.45128">
        <ele>355.8</ele>
        <time>2022-07-14T04:44:08Z</time>
      </trkpt>
      <trkpt lat="46.40377" lon="5.45141">
        <ele>355.4</ele>
        <time>2022-07-14T04:44:11Z</time>
      </trkpt>
      <trkpt lat="46.40336" lon="5.45161">
        <ele>354</ele>
        <time>2022-07-14T04:44:16Z</time>
      </trkpt>
      <trkpt lat="46.40328" lon="5.45166">
        <ele>353.8</ele>
        <time>2022-07-14T04:44:17Z</time>
      </trkpt>
      <trkpt lat="46.40276" lon="5.45193">
        <ele>353.2</ele>
        <time>2022-07-14T04:44:24Z</time>
      </trkpt>
      <trkpt lat="46.40262" lon="5.45202">
        <ele>353.2</ele>
        <time>2022-07-14T04:44:26Z</time>
      </trkpt>
      <trkpt lat="46.40214" lon="5.45224">
        <ele>353.2</ele>
        <time>2022-07-14T04:44:33Z</time>
      </trkpt>
      <trkpt lat="46.40204" lon="5.45229">
        <ele>353.2</ele>
        <time>2022-07-14T04:44:35Z</time>
      </trkpt>
      <trkpt lat="46.40199" lon="5.45236">
        <ele>353.2</ele>
        <time>2022-07-14T04:44:36Z</time>
      </trkpt>
      <trkpt lat="46.40197" lon="5.45243">
        <ele>353.2</ele>
        <time>2022-07-14T04:44:37Z</time>
      </trkpt>
      <trkpt lat="46.40196" lon="5.45259">
        <ele>353</ele>
        <time>2022-07-14T04:44:39Z</time>
      </trkpt>
      <trkpt lat="46.40198" lon="5.45268">
        <ele>353</ele>
        <time>2022-07-14T04:44:40Z</time>
      </trkpt>
      <trkpt lat="46.40202" lon="5.45278">
        <ele>353</ele>
        <time>2022-07-14T04:44:41Z</time>
      </trkpt>
      <trkpt lat="46.40206" lon="5.45283">
        <ele>353</ele>
        <time>2022-07-14T04:44:42Z</time>
      </trkpt>
      <trkpt lat="46.40234" lon="5.45314">
        <ele>352.8</ele>
        <time>2022-07-14T04:44:47Z</time>
      </trkpt>
      <trkpt lat="46.40238" lon="5.45321">
        <ele>352.8</ele>
        <time>2022-07-14T04:44:48Z</time>
      </trkpt>
      <trkpt lat="46.40242" lon="5.45339">
        <ele>352.8</ele>
        <time>2022-07-14T04:44:50Z</time>
      </trkpt>
      <trkpt lat="46.4024" lon="5.45357">
        <ele>352.8</ele>
        <time>2022-07-14T04:44:52Z</time>
      </trkpt>
      <trkpt lat="46.40237" lon="5.45365">
        <ele>353</ele>
        <time>2022-07-14T04:44:53Z</time>
      </trkpt>
      <trkpt lat="46.40212" lon="5.45407">
        <ele>353.2</ele>
        <time>2022-07-14T04:44:59Z</time>
      </trkpt>
      <trkpt lat="46.40184" lon="5.45461">
        <ele>353.2</ele>
        <time>2022-07-14T04:45:06Z</time>
      </trkpt>
      <trkpt lat="46.4016" lon="5.45519">
        <ele>352.8</ele>
        <time>2022-07-14T04:45:13Z</time>
      </trkpt>
      <trkpt lat="46.40158" lon="5.45537">
        <ele>352.8</ele>
        <time>2022-07-14T04:45:15Z</time>
      </trkpt>
      <trkpt lat="46.40158" lon="5.45557">
        <ele>352.8</ele>
        <time>2022-07-14T04:45:17Z</time>
      </trkpt>
      <trkpt lat="46.40163" lon="5.45642">
        <ele>353</ele>
        <time>2022-07-14T04:45:26Z</time>
      </trkpt>
      <trkpt lat="46.40164" lon="5.45652">
        <ele>353</ele>
        <time>2022-07-14T04:45:27Z</time>
      </trkpt>
      <trkpt lat="46.40164" lon="5.45704">
        <ele>353</ele>
        <time>2022-07-14T04:45:33Z</time>
      </trkpt>
      <trkpt lat="46.40162" lon="5.45714">
        <ele>353</ele>
        <time>2022-07-14T04:45:34Z</time>
      </trkpt>
      <trkpt lat="46.4016" lon="5.45721">
        <ele>353</ele>
        <time>2022-07-14T04:45:35Z</time>
      </trkpt>
      <trkpt lat="46.40152" lon="5.45731">
        <ele>353.4</ele>
        <time>2022-07-14T04:45:37Z</time>
      </trkpt>
      <trkpt lat="46.4014" lon="5.45732">
        <ele>353.8</ele>
        <time>2022-07-14T04:45:39Z</time>
      </trkpt>
      <trkpt lat="46.40136" lon="5.4573">
        <ele>354</ele>
        <time>2022-07-14T04:45:40Z</time>
      </trkpt>
      <trkpt lat="46.40117" lon="5.45721">
        <ele>354.8</ele>
        <time>2022-07-14T04:45:44Z</time>
      </trkpt>
      <trkpt lat="46.40113" lon="5.45719">
        <ele>355</ele>
        <time>2022-07-14T04:45:45Z</time>
      </trkpt>
      <trkpt lat="46.40096" lon="5.45712">
        <ele>356</ele>
        <time>2022-07-14T04:45:49Z</time>
      </trkpt>
      <trkpt lat="46.40088" lon="5.45708">
        <ele>356.4</ele>
        <time>2022-07-14T04:45:51Z</time>
      </trkpt>
      <trkpt lat="46.40084" lon="5.45707">
        <ele>356.6</ele>
        <time>2022-07-14T04:45:52Z</time>
      </trkpt>
      <trkpt lat="46.40076" lon="5.45704">
        <ele>357.2</ele>
        <time>2022-07-14T04:45:54Z</time>
      </trkpt>
      <trkpt lat="46.40059" lon="5.45702">
        <ele>358.2</ele>
        <time>2022-07-14T04:45:58Z</time>
      </trkpt>
      <trkpt lat="46.40055" lon="5.45702">
        <ele>358.6</ele>
        <time>2022-07-14T04:45:59Z</time>
      </trkpt>
      <trkpt lat="46.40047" lon="5.45703">
        <ele>359</ele>
        <time>2022-07-14T04:46:01Z</time>
      </trkpt>
      <trkpt lat="46.40031" lon="5.45709">
        <ele>359.6</ele>
        <time>2022-07-14T04:46:05Z</time>
      </trkpt>
      <trkpt lat="46.40027" lon="5.4571">
        <ele>359.6</ele>
        <time>2022-07-14T04:46:06Z</time>
      </trkpt>
      <trkpt lat="46.4" lon="5.45721">
        <ele>360.8</ele>
        <time>2022-07-14T04:46:13Z</time>
      </trkpt>
      <trkpt lat="46.39996" lon="5.45721">
        <ele>361</ele>
        <time>2022-07-14T04:46:14Z</time>
      </trkpt>
      <trkpt lat="46.3998" lon="5.45722">
        <ele>361.8</ele>
        <time>2022-07-14T04:46:18Z</time>
      </trkpt>
      <trkpt lat="46.39971" lon="5.45721">
        <ele>362.2</ele>
        <time>2022-07-14T04:46:20Z</time>
      </trkpt>
      <trkpt lat="46.39941" lon="5.4572">
        <ele>363</ele>
        <time>2022-07-14T04:46:27Z</time>
      </trkpt>
      <trkpt lat="46.39934" lon="5.4572">
        <ele>363</ele>
        <time>2022-07-14T04:46:29Z</time>
      </trkpt>
      <trkpt lat="46.39891" lon="5.45716">
        <ele>363.6</ele>
        <time>2022-07-14T04:46:37Z</time>
      </trkpt>
      <trkpt lat="46.39851" lon="5.45718">
        <ele>363.8</ele>
        <time>2022-07-14T04:46:45Z</time>
      </trkpt>
      <trkpt lat="46.39842" lon="5.45719">
        <ele>364</ele>
        <time>2022-07-14T04:46:47Z</time>
      </trkpt>
      <trkpt lat="46.39809" lon="5.4573">
        <ele>365.2</ele>
        <time>2022-07-14T04:46:54Z</time>
      </trkpt>
      <trkpt lat="46.39804" lon="5.45731">
        <ele>365.2</ele>
        <time>2022-07-14T04:46:55Z</time>
      </trkpt>
      <trkpt lat="46.39791" lon="5.45737">
        <ele>365.8</ele>
        <time>2022-07-14T04:46:58Z</time>
      </trkpt>
      <trkpt lat="46.39778" lon="5.45742">
        <ele>366.4</ele>
        <time>2022-07-14T04:47:01Z</time>
      </trkpt>
      <trkpt lat="46.39774" lon="5.45744">
        <ele>366.6</ele>
        <time>2022-07-14T04:47:02Z</time>
      </trkpt>
      <trkpt lat="46.39763" lon="5.45749">
        <ele>367.4</ele>
        <time>2022-07-14T04:47:05Z</time>
      </trkpt>
      <trkpt lat="46.39748" lon="5.45756">
        <ele>368.4</ele>
        <time>2022-07-14T04:47:09Z</time>
      </trkpt>
      <trkpt lat="46.39744" lon="5.45757">
        <ele>368.8</ele>
        <time>2022-07-14T04:47:10Z</time>
      </trkpt>
      <trkpt lat="46.39732" lon="5.45761">
        <ele>369.8</ele>
        <time>2022-07-14T04:47:13Z</time>
      </trkpt>
      <trkpt lat="46.39718" lon="5.45765">
        <ele>370.4</ele>
        <time>2022-07-14T04:47:16Z</time>
      </trkpt>
      <trkpt lat="46.3971" lon="5.45767">
        <ele>370.8</ele>
        <time>2022-07-14T04:47:18Z</time>
      </trkpt>
      <trkpt lat="46.39678" lon="5.45776">
        <ele>371.4</ele>
        <time>2022-07-14T04:47:25Z</time>
      </trkpt>
      <trkpt lat="46.39669" lon="5.45779">
        <ele>371.8</ele>
        <time>2022-07-14T04:47:27Z</time>
      </trkpt>
      <trkpt lat="46.39635" lon="5.45787">
        <ele>372.8</ele>
        <time>2022-07-14T04:47:35Z</time>
      </trkpt>
      <trkpt lat="46.39606" lon="5.45787">
        <ele>373.8</ele>
        <time>2022-07-14T04:47:42Z</time>
      </trkpt>
      <trkpt lat="46.39601" lon="5.45786">
        <ele>373.8</ele>
        <time>2022-07-14T04:47:43Z</time>
      </trkpt>
      <trkpt lat="46.39597" lon="5.45786">
        <ele>373.8</ele>
        <time>2022-07-14T04:47:44Z</time>
      </trkpt>
      <trkpt lat="46.39581" lon="5.45785">
        <ele>374.6</ele>
        <time>2022-07-14T04:47:48Z</time>
      </trkpt>
      <trkpt lat="46.39573" lon="5.45784">
        <ele>375.2</ele>
        <time>2022-07-14T04:47:50Z</time>
      </trkpt>
      <trkpt lat="46.3956" lon="5.45785">
        <ele>376.2</ele>
        <time>2022-07-14T04:47:54Z</time>
      </trkpt>
      <trkpt lat="46.39536" lon="5.45776">
        <ele>377.2</ele>
        <time>2022-07-14T04:47:59Z</time>
      </trkpt>
      <trkpt lat="46.39502" lon="5.45761">
        <ele>377.4</ele>
        <time>2022-07-14T04:48:05Z</time>
      </trkpt>
      <trkpt lat="46.39496" lon="5.45759">
        <ele>377.4</ele>
        <time>2022-07-14T04:48:06Z</time>
      </trkpt>
      <trkpt lat="46.39475" lon="5.45757">
        <ele>377</ele>
        <time>2022-07-14T04:48:09Z</time>
      </trkpt>
      <trkpt lat="46.39441" lon="5.45749">
        <ele>376.2</ele>
        <time>2022-07-14T04:48:14Z</time>
      </trkpt>
      <trkpt lat="46.39416" lon="5.45743">
        <ele>375.6</ele>
        <time>2022-07-14T04:48:18Z</time>
      </trkpt>
      <trkpt lat="46.39372" lon="5.45734">
        <ele>375.6</ele>
        <time>2022-07-14T04:48:25Z</time>
      </trkpt>
      <trkpt lat="46.39343" lon="5.4573">
        <ele>375.8</ele>
        <time>2022-07-14T04:48:30Z</time>
      </trkpt>
      <trkpt lat="46.39335" lon="5.45726">
        <ele>375.8</ele>
        <time>2022-07-14T04:48:31Z</time>
      </trkpt>
      <trkpt lat="46.3933" lon="5.45719">
        <ele>375.8</ele>
        <time>2022-07-14T04:48:32Z</time>
      </trkpt>
      <trkpt lat="46.39325" lon="5.45704">
        <ele>375.6</ele>
        <time>2022-07-14T04:48:34Z</time>
      </trkpt>
      <trkpt lat="46.39324" lon="5.45657">
        <ele>376</ele>
        <time>2022-07-14T04:48:39Z</time>
      </trkpt>
      <trkpt lat="46.39327" lon="5.45623">
        <ele>376</ele>
        <time>2022-07-14T04:48:43Z</time>
      </trkpt>
      <trkpt lat="46.39329" lon="5.45606">
        <ele>376.2</ele>
        <time>2022-07-14T04:48:45Z</time>
      </trkpt>
      <trkpt lat="46.39333" lon="5.45565">
        <ele>377.6</ele>
        <time>2022-07-14T04:48:51Z</time>
      </trkpt>
      <trkpt lat="46.39333" lon="5.45557">
        <ele>378.2</ele>
        <time>2022-07-14T04:48:52Z</time>
      </trkpt>
      <trkpt lat="46.3933" lon="5.45546">
        <ele>378.6</ele>
        <time>2022-07-14T04:48:54Z</time>
      </trkpt>
      <trkpt lat="46.39324" lon="5.45541">
        <ele>379</ele>
        <time>2022-07-14T04:48:56Z</time>
      </trkpt>
      <trkpt lat="46.39319" lon="5.45542">
        <ele>379.2</ele>
        <time>2022-07-14T04:48:57Z</time>
      </trkpt>
      <trkpt lat="46.39314" lon="5.45545">
        <ele>379.6</ele>
        <time>2022-07-14T04:48:58Z</time>
      </trkpt>
      <trkpt lat="46.3931" lon="5.45548">
        <ele>380</ele>
        <time>2022-07-14T04:48:59Z</time>
      </trkpt>
      <trkpt lat="46.39305" lon="5.45551">
        <ele>380</ele>
        <time>2022-07-14T04:49:00Z</time>
      </trkpt>
      <trkpt lat="46.39294" lon="5.45556">
        <ele>380.2</ele>
        <time>2022-07-14T04:49:02Z</time>
      </trkpt>
      <trkpt lat="46.39257" lon="5.45571">
        <ele>380.6</ele>
        <time>2022-07-14T04:49:08Z</time>
      </trkpt>
      <trkpt lat="46.39217" lon="5.45592">
        <ele>380.6</ele>
        <time>2022-07-14T04:49:15Z</time>
      </trkpt>
      <trkpt lat="46.39174" lon="5.45604">
        <ele>381</ele>
        <time>2022-07-14T04:49:22Z</time>
      </trkpt>
      <trkpt lat="46.3912" lon="5.45624">
        <ele>380.8</ele>
        <time>2022-07-14T04:49:31Z</time>
      </trkpt>
      <trkpt lat="46.39115" lon="5.45626">
        <ele>381</ele>
        <time>2022-07-14T04:49:32Z</time>
      </trkpt>
      <trkpt lat="46.39089" lon="5.45634">
        <ele>382</ele>
        <time>2022-07-14T04:49:37Z</time>
      </trkpt>
      <trkpt lat="46.39074" lon="5.45638">
        <ele>382.2</ele>
        <time>2022-07-14T04:49:40Z</time>
      </trkpt>
      <trkpt lat="46.39047" lon="5.45643">
        <ele>383</ele>
        <time>2022-07-14T04:49:45Z</time>
      </trkpt>
      <trkpt lat="46.3902" lon="5.45649">
        <ele>383.6</ele>
        <time>2022-07-14T04:49:50Z</time>
      </trkpt>
      <trkpt lat="46.39" lon="5.45652">
        <ele>384</ele>
        <time>2022-07-14T04:49:54Z</time>
      </trkpt>
      <trkpt lat="46.38971" lon="5.45652">
        <ele>384.4</ele>
        <time>2022-07-14T04:49:59Z</time>
      </trkpt>
      <trkpt lat="46.38955" lon="5.4565">
        <ele>385</ele>
        <time>2022-07-14T04:50:02Z</time>
      </trkpt>
      <trkpt lat="46.38923" lon="5.45646">
        <ele>386.2</ele>
        <time>2022-07-14T04:50:08Z</time>
      </trkpt>
      <trkpt lat="46.38918" lon="5.45646">
        <ele>386.4</ele>
        <time>2022-07-14T04:50:09Z</time>
      </trkpt>
      <trkpt lat="46.38875" lon="5.45644">
        <ele>387</ele>
        <time>2022-07-14T04:50:17Z</time>
      </trkpt>
      <trkpt lat="46.38826" lon="5.45648">
        <ele>386.6</ele>
        <time>2022-07-14T04:50:25Z</time>
      </trkpt>
      <trkpt lat="46.38802" lon="5.45646">
        <ele>386.4</ele>
        <time>2022-07-14T04:50:29Z</time>
      </trkpt>
      <trkpt lat="46.38779" lon="5.4564">
        <ele>386</ele>
        <time>2022-07-14T04:50:32Z</time>
      </trkpt>
      <trkpt lat="46.38742" lon="5.45637">
        <ele>385</ele>
        <time>2022-07-14T04:50:37Z</time>
      </trkpt>
      <trkpt lat="46.38728" lon="5.45637">
        <ele>384.8</ele>
        <time>2022-07-14T04:50:39Z</time>
      </trkpt>
      <trkpt lat="46.38696" lon="5.45634">
        <ele>384.6</ele>
        <time>2022-07-14T04:50:44Z</time>
      </trkpt>
      <trkpt lat="46.3867" lon="5.4563">
        <ele>384.8</ele>
        <time>2022-07-14T04:50:48Z</time>
      </trkpt>
      <trkpt lat="46.38651" lon="5.45632">
        <ele>385.2</ele>
        <time>2022-07-14T04:50:51Z</time>
      </trkpt>
      <trkpt lat="46.386" lon="5.45642">
        <ele>385.2</ele>
        <time>2022-07-14T04:50:59Z</time>
      </trkpt>
      <trkpt lat="46.38593" lon="5.45642">
        <ele>385.2</ele>
        <time>2022-07-14T04:51:00Z</time>
      </trkpt>
      <trkpt lat="46.38555" lon="5.45648">
        <ele>385</ele>
        <time>2022-07-14T04:51:06Z</time>
      </trkpt>
      <trkpt lat="46.38527" lon="5.45651">
        <ele>385.6</ele>
        <time>2022-07-14T04:51:11Z</time>
      </trkpt>
      <trkpt lat="46.38522" lon="5.45652">
        <ele>385.8</ele>
        <time>2022-07-14T04:51:12Z</time>
      </trkpt>
      <trkpt lat="46.38511" lon="5.45652">
        <ele>386</ele>
        <time>2022-07-14T04:51:14Z</time>
      </trkpt>
      <trkpt lat="46.38496" lon="5.45652">
        <ele>386.4</ele>
        <time>2022-07-14T04:51:17Z</time>
      </trkpt>
      <trkpt lat="46.38492" lon="5.45652">
        <ele>387</ele>
        <time>2022-07-14T04:51:18Z</time>
      </trkpt>
      <trkpt lat="46.38487" lon="5.45651">
        <ele>387.4</ele>
        <time>2022-07-14T04:51:19Z</time>
      </trkpt>
      <trkpt lat="46.38482" lon="5.45651">
        <ele>387.6</ele>
        <time>2022-07-14T04:51:20Z</time>
      </trkpt>
      <trkpt lat="46.38473" lon="5.45651">
        <ele>388</ele>
        <time>2022-07-14T04:51:22Z</time>
      </trkpt>
      <trkpt lat="46.38463" lon="5.4565">
        <ele>388.4</ele>
        <time>2022-07-14T04:51:24Z</time>
      </trkpt>
      <trkpt lat="46.38454" lon="5.45649">
        <ele>389.6</ele>
        <time>2022-07-14T04:51:26Z</time>
      </trkpt>
      <trkpt lat="46.38438" lon="5.45647">
        <ele>390.6</ele>
        <time>2022-07-14T04:51:30Z</time>
      </trkpt>
      <trkpt lat="46.38432" lon="5.45647">
        <ele>390.8</ele>
        <time>2022-07-14T04:51:31Z</time>
      </trkpt>
      <trkpt lat="46.38418" lon="5.45645">
        <ele>391.4</ele>
        <time>2022-07-14T04:51:34Z</time>
      </trkpt>
      <trkpt lat="46.38413" lon="5.45643">
        <ele>391.8</ele>
        <time>2022-07-14T04:51:35Z</time>
      </trkpt>
      <trkpt lat="46.38409" lon="5.45642">
        <ele>392</ele>
        <time>2022-07-14T04:51:36Z</time>
      </trkpt>
      <trkpt lat="46.38371" lon="5.45632">
        <ele>392.6</ele>
        <time>2022-07-14T04:51:44Z</time>
      </trkpt>
      <trkpt lat="46.38366" lon="5.45632">
        <ele>392.8</ele>
        <time>2022-07-14T04:51:45Z</time>
      </trkpt>
      <trkpt lat="46.38326" lon="5.45627">
        <ele>393.8</ele>
        <time>2022-07-14T04:51:53Z</time>
      </trkpt>
      <trkpt lat="46.38301" lon="5.45624">
        <ele>395</ele>
        <time>2022-07-14T04:51:58Z</time>
      </trkpt>
      <trkpt lat="46.38283" lon="5.45622">
        <ele>396</ele>
        <time>2022-07-14T04:52:02Z</time>
      </trkpt>
      <trkpt lat="46.38273" lon="5.45621">
        <ele>396.2</ele>
        <time>2022-07-14T04:52:04Z</time>
      </trkpt>
      <trkpt lat="46.38264" lon="5.4562">
        <ele>396.2</ele>
        <time>2022-07-14T04:52:06Z</time>
      </trkpt>
      <trkpt lat="46.38239" lon="5.45619">
        <ele>397</ele>
        <time>2022-07-14T04:52:11Z</time>
      </trkpt>
      <trkpt lat="46.3822" lon="5.45618">
        <ele>397.2</ele>
        <time>2022-07-14T04:52:15Z</time>
      </trkpt>
      <trkpt lat="46.38206" lon="5.45616">
        <ele>397.4</ele>
        <time>2022-07-14T04:52:18Z</time>
      </trkpt>
      <trkpt lat="46.38191" lon="5.45615">
        <ele>398</ele>
        <time>2022-07-14T04:52:21Z</time>
      </trkpt>
      <trkpt lat="46.3816" lon="5.45611">
        <ele>399.2</ele>
        <time>2022-07-14T04:52:28Z</time>
      </trkpt>
      <trkpt lat="46.38127" lon="5.45609">
        <ele>400.2</ele>
        <time>2022-07-14T04:52:35Z</time>
      </trkpt>
      <trkpt lat="46.38102" lon="5.45603">
        <ele>401.4</ele>
        <time>2022-07-14T04:52:41Z</time>
      </trkpt>
      <trkpt lat="46.38094" lon="5.456">
        <ele>402</ele>
        <time>2022-07-14T04:52:43Z</time>
      </trkpt>
      <trkpt lat="46.38085" lon="5.45597">
        <ele>402.4</ele>
        <time>2022-07-14T04:52:45Z</time>
      </trkpt>
      <trkpt lat="46.38058" lon="5.45587">
        <ele>403.2</ele>
        <time>2022-07-14T04:52:51Z</time>
      </trkpt>
      <trkpt lat="46.38047" lon="5.45584">
        <ele>403.4</ele>
        <time>2022-07-14T04:52:53Z</time>
      </trkpt>
      <trkpt lat="46.38025" lon="5.4558">
        <ele>403.6</ele>
        <time>2022-07-14T04:52:57Z</time>
      </trkpt>
      <trkpt lat="46.37987" lon="5.45576">
        <ele>403.8</ele>
        <time>2022-07-14T04:53:04Z</time>
      </trkpt>
      <trkpt lat="46.37949" lon="5.4558">
        <ele>404.2</ele>
        <time>2022-07-14T04:53:11Z</time>
      </trkpt>
      <trkpt lat="46.37944" lon="5.45581">
        <ele>404.4</ele>
        <time>2022-07-14T04:53:12Z</time>
      </trkpt>
      <trkpt lat="46.37938" lon="5.45582">
        <ele>404.6</ele>
        <time>2022-07-14T04:53:13Z</time>
      </trkpt>
      <trkpt lat="46.37892" lon="5.45592">
        <ele>404.8</ele>
        <time>2022-07-14T04:53:21Z</time>
      </trkpt>
      <trkpt lat="46.37858" lon="5.45593">
        <ele>404.4</ele>
        <time>2022-07-14T04:53:26Z</time>
      </trkpt>
      <trkpt lat="46.37818" lon="5.45592">
        <ele>403.2</ele>
        <time>2022-07-14T04:53:31Z</time>
      </trkpt>
      <trkpt lat="46.37809" lon="5.45592">
        <ele>402.6</ele>
        <time>2022-07-14T04:53:32Z</time>
      </trkpt>
      <trkpt lat="46.37792" lon="5.45591">
        <ele>401.4</ele>
        <time>2022-07-14T04:53:34Z</time>
      </trkpt>
      <trkpt lat="46.37774" lon="5.4559">
        <ele>400.4</ele>
        <time>2022-07-14T04:53:36Z</time>
      </trkpt>
      <trkpt lat="46.37764" lon="5.45589">
        <ele>399.8</ele>
        <time>2022-07-14T04:53:37Z</time>
      </trkpt>
      <trkpt lat="46.37745" lon="5.45589">
        <ele>399</ele>
        <time>2022-07-14T04:53:39Z</time>
      </trkpt>
      <trkpt lat="46.37708" lon="5.45586">
        <ele>397.2</ele>
        <time>2022-07-14T04:53:43Z</time>
      </trkpt>
      <trkpt lat="46.37679" lon="5.45585">
        <ele>396.2</ele>
        <time>2022-07-14T04:53:46Z</time>
      </trkpt>
      <trkpt lat="46.37652" lon="5.45585">
        <ele>394.4</ele>
        <time>2022-07-14T04:53:49Z</time>
      </trkpt>
      <trkpt lat="46.37631" lon="5.45584">
        <ele>393.2</ele>
        <time>2022-07-14T04:53:51Z</time>
      </trkpt>
      <trkpt lat="46.37575" lon="5.45583">
        <ele>392.2</ele>
        <time>2022-07-14T04:53:57Z</time>
      </trkpt>
      <trkpt lat="46.37556" lon="5.45586">
        <ele>392</ele>
        <time>2022-07-14T04:53:59Z</time>
      </trkpt>
      <trkpt lat="46.37526" lon="5.45595">
        <ele>390.4</ele>
        <time>2022-07-14T04:54:02Z</time>
      </trkpt>
      <trkpt lat="46.37515" lon="5.456">
        <ele>390.2</ele>
        <time>2022-07-14T04:54:03Z</time>
      </trkpt>
      <trkpt lat="46.37505" lon="5.45605">
        <ele>389.4</ele>
        <time>2022-07-14T04:54:04Z</time>
      </trkpt>
      <trkpt lat="46.37484" lon="5.45615">
        <ele>388</ele>
        <time>2022-07-14T04:54:06Z</time>
      </trkpt>
      <trkpt lat="46.37463" lon="5.45625">
        <ele>386.8</ele>
        <time>2022-07-14T04:54:08Z</time>
      </trkpt>
      <trkpt lat="46.3744" lon="5.45633">
        <ele>386</ele>
        <time>2022-07-14T04:54:10Z</time>
      </trkpt>
      <trkpt lat="46.37428" lon="5.45634">
        <ele>385.2</ele>
        <time>2022-07-14T04:54:11Z</time>
      </trkpt>
      <trkpt lat="46.37406" lon="5.45635">
        <ele>383.6</ele>
        <time>2022-07-14T04:54:13Z</time>
      </trkpt>
      <trkpt lat="46.37397" lon="5.45634">
        <ele>383</ele>
        <time>2022-07-14T04:54:14Z</time>
      </trkpt>
      <trkpt lat="46.37373" lon="5.45632">
        <ele>382.4</ele>
        <time>2022-07-14T04:54:16Z</time>
      </trkpt>
      <trkpt lat="46.37342" lon="5.45631">
        <ele>381.4</ele>
        <time>2022-07-14T04:54:19Z</time>
      </trkpt>
      <trkpt lat="46.3731" lon="5.45631">
        <ele>380.2</ele>
        <time>2022-07-14T04:54:22Z</time>
      </trkpt>
      <trkpt lat="46.37266" lon="5.45634">
        <ele>379</ele>
        <time>2022-07-14T04:54:26Z</time>
      </trkpt>
      <trkpt lat="46.37204" lon="5.45639">
        <ele>377.8</ele>
        <time>2022-07-14T04:54:32Z</time>
      </trkpt>
      <trkpt lat="46.37155" lon="5.45643">
        <ele>376.6</ele>
        <time>2022-07-14T04:54:37Z</time>
      </trkpt>
      <trkpt lat="46.37117" lon="5.45645">
        <ele>376</ele>
        <time>2022-07-14T04:54:41Z</time>
      </trkpt>
      <trkpt lat="46.37096" lon="5.45645">
        <ele>375.6</ele>
        <time>2022-07-14T04:54:43Z</time>
      </trkpt>
      <trkpt lat="46.37057" lon="5.45643">
        <ele>374.8</ele>
        <time>2022-07-14T04:54:47Z</time>
      </trkpt>
      <trkpt lat="46.37031" lon="5.45637">
        <ele>374.4</ele>
        <time>2022-07-14T04:54:50Z</time>
      </trkpt>
      <trkpt lat="46.37011" lon="5.45629">
        <ele>373.6</ele>
        <time>2022-07-14T04:54:52Z</time>
      </trkpt>
      <trkpt lat="46.37002" lon="5.45624">
        <ele>373.2</ele>
        <time>2022-07-14T04:54:53Z</time>
      </trkpt>
      <trkpt lat="46.36951" lon="5.45603">
        <ele>372.4</ele>
        <time>2022-07-14T04:54:59Z</time>
      </trkpt>
      <trkpt lat="46.36942" lon="5.45601">
        <ele>372</ele>
        <time>2022-07-14T04:55:00Z</time>
      </trkpt>
      <trkpt lat="46.36895" lon="5.45593">
        <ele>371.4</ele>
        <time>2022-07-14T04:55:05Z</time>
      </trkpt>
      <trkpt lat="46.36844" lon="5.45589">
        <ele>371.6</ele>
        <time>2022-07-14T04:55:11Z</time>
      </trkpt>
      <trkpt lat="46.36786" lon="5.45588">
        <ele>371.4</ele>
        <time>2022-07-14T04:55:18Z</time>
      </trkpt>
      <trkpt lat="46.3678" lon="5.45588">
        <ele>371.4</ele>
        <time>2022-07-14T04:55:19Z</time>
      </trkpt>
      <trkpt lat="46.36736" lon="5.4559">
        <ele>371</ele>
        <time>2022-07-14T04:55:24Z</time>
      </trkpt>
      <trkpt lat="46.36704" lon="5.45594">
        <ele>370.4</ele>
        <time>2022-07-14T04:55:28Z</time>
      </trkpt>
      <trkpt lat="46.36651" lon="5.45603">
        <ele>370</ele>
        <time>2022-07-14T04:55:34Z</time>
      </trkpt>
      <trkpt lat="46.36642" lon="5.45604">
        <ele>369.8</ele>
        <time>2022-07-14T04:55:35Z</time>
      </trkpt>
      <trkpt lat="46.36614" lon="5.45611">
        <ele>368.4</ele>
        <time>2022-07-14T04:55:38Z</time>
      </trkpt>
      <trkpt lat="46.36597" lon="5.45613">
        <ele>367.6</ele>
        <time>2022-07-14T04:55:40Z</time>
      </trkpt>
      <trkpt lat="46.36577" lon="5.45614">
        <ele>367.2</ele>
        <time>2022-07-14T04:55:42Z</time>
      </trkpt>
      <trkpt lat="46.36552" lon="5.45612">
        <ele>366</ele>
        <time>2022-07-14T04:55:45Z</time>
      </trkpt>
      <trkpt lat="46.36541" lon="5.45611">
        <ele>365.8</ele>
        <time>2022-07-14T04:55:46Z</time>
      </trkpt>
      <trkpt lat="46.36501" lon="5.45608">
        <ele>365.2</ele>
        <time>2022-07-14T04:55:51Z</time>
      </trkpt>
      <trkpt lat="46.36458" lon="5.45614">
        <ele>365</ele>
        <time>2022-07-14T04:55:56Z</time>
      </trkpt>
      <trkpt lat="46.36446" lon="5.45618">
        <ele>364.8</ele>
        <time>2022-07-14T04:55:58Z</time>
      </trkpt>
      <trkpt lat="46.36426" lon="5.45625">
        <ele>364.4</ele>
        <time>2022-07-14T04:56:00Z</time>
      </trkpt>
      <trkpt lat="46.36403" lon="5.45637">
        <ele>364.2</ele>
        <time>2022-07-14T04:56:03Z</time>
      </trkpt>
      <trkpt lat="46.36364" lon="5.45648">
        <ele>364.2</ele>
        <time>2022-07-14T04:56:08Z</time>
      </trkpt>
      <trkpt lat="46.36303" lon="5.45648">
        <ele>364.4</ele>
        <time>2022-07-14T04:56:16Z</time>
      </trkpt>
      <trkpt lat="46.3624" lon="5.4564">
        <ele>364</ele>
        <time>2022-07-14T04:56:24Z</time>
      </trkpt>
      <trkpt lat="46.36216" lon="5.4564">
        <ele>363.6</ele>
        <time>2022-07-14T04:56:27Z</time>
      </trkpt>
      <trkpt lat="46.3616" lon="5.4564">
        <ele>362.8</ele>
        <time>2022-07-14T04:56:34Z</time>
      </trkpt>
      <trkpt lat="46.36153" lon="5.4564">
        <ele>362.8</ele>
        <time>2022-07-14T04:56:35Z</time>
      </trkpt>
      <trkpt lat="46.36145" lon="5.45641">
        <ele>362.6</ele>
        <time>2022-07-14T04:56:36Z</time>
      </trkpt>
      <trkpt lat="46.36112" lon="5.4564">
        <ele>361.6</ele>
        <time>2022-07-14T04:56:40Z</time>
      </trkpt>
      <trkpt lat="46.36088" lon="5.4564">
        <ele>361.2</ele>
        <time>2022-07-14T04:56:43Z</time>
      </trkpt>
      <trkpt lat="46.3603" lon="5.45638">
        <ele>361</ele>
        <time>2022-07-14T04:56:50Z</time>
      </trkpt>
      <trkpt lat="46.35974" lon="5.45632">
        <ele>360.8</ele>
        <time>2022-07-14T04:56:58Z</time>
      </trkpt>
      <trkpt lat="46.35965" lon="5.45631">
        <ele>360.8</ele>
        <time>2022-07-14T04:56:59Z</time>
      </trkpt>
      <trkpt lat="46.35916" lon="5.45638">
        <ele>360.8</ele>
        <time>2022-07-14T04:57:05Z</time>
      </trkpt>
      <trkpt lat="46.35881" lon="5.45649">
        <ele>360.6</ele>
        <time>2022-07-14T04:57:10Z</time>
      </trkpt>
      <trkpt lat="46.35859" lon="5.45658">
        <ele>360</ele>
        <time>2022-07-14T04:57:13Z</time>
      </trkpt>
      <trkpt lat="46.35825" lon="5.45667">
        <ele>359.6</ele>
        <time>2022-07-14T04:57:17Z</time>
      </trkpt>
      <trkpt lat="46.35816" lon="5.45666">
        <ele>359.4</ele>
        <time>2022-07-14T04:57:18Z</time>
      </trkpt>
      <trkpt lat="46.35785" lon="5.4566">
        <ele>357.8</ele>
        <time>2022-07-14T04:57:22Z</time>
      </trkpt>
      <trkpt lat="46.35778" lon="5.4566">
        <ele>357.6</ele>
        <time>2022-07-14T04:57:23Z</time>
      </trkpt>
      <trkpt lat="46.35766" lon="5.45671">
        <ele>356.6</ele>
        <time>2022-07-14T04:57:25Z</time>
      </trkpt>
      <trkpt lat="46.35766" lon="5.45686">
        <ele>356</ele>
        <time>2022-07-14T04:57:27Z</time>
      </trkpt>
      <trkpt lat="46.3577" lon="5.45705">
        <ele>355.6</ele>
        <time>2022-07-14T04:57:29Z</time>
      </trkpt>
      <trkpt lat="46.35773" lon="5.45724">
        <ele>355.6</ele>
        <time>2022-07-14T04:57:31Z</time>
      </trkpt>
      <trkpt lat="46.35788" lon="5.45794">
        <ele>355.8</ele>
        <time>2022-07-14T04:57:38Z</time>
      </trkpt>
      <trkpt lat="46.35791" lon="5.4586">
        <ele>355.2</ele>
        <time>2022-07-14T04:57:44Z</time>
      </trkpt>
      <trkpt lat="46.35789" lon="5.45881">
        <ele>354.8</ele>
        <time>2022-07-14T04:57:46Z</time>
      </trkpt>
      <trkpt lat="46.35785" lon="5.45901">
        <ele>354.6</ele>
        <time>2022-07-14T04:57:48Z</time>
      </trkpt>
      <trkpt lat="46.35779" lon="5.4593">
        <ele>354.4</ele>
        <time>2022-07-14T04:57:51Z</time>
      </trkpt>
      <trkpt lat="46.35772" lon="5.45959">
        <ele>354.2</ele>
        <time>2022-07-14T04:57:54Z</time>
      </trkpt>
      <trkpt lat="46.35769" lon="5.45968">
        <ele>354</ele>
        <time>2022-07-14T04:57:55Z</time>
      </trkpt>
      <trkpt lat="46.35756" lon="5.45983">
        <ele>353.8</ele>
        <time>2022-07-14T04:57:57Z</time>
      </trkpt>
      <trkpt lat="46.35748" lon="5.45985">
        <ele>353.6</ele>
        <time>2022-07-14T04:57:59Z</time>
      </trkpt>
      <trkpt lat="46.35736" lon="5.45981">
        <ele>353.2</ele>
        <time>2022-07-14T04:58:00Z</time>
      </trkpt>
      <trkpt lat="46.35722" lon="5.45978">
        <ele>352.4</ele>
        <time>2022-07-14T04:58:02Z</time>
      </trkpt>
      <trkpt lat="46.35684" lon="5.45975">
        <ele>351.6</ele>
        <time>2022-07-14T04:58:07Z</time>
      </trkpt>
      <trkpt lat="46.3564" lon="5.45984">
        <ele>351.6</ele>
        <time>2022-07-14T04:58:13Z</time>
      </trkpt>
      <trkpt lat="46.35633" lon="5.45985">
        <ele>351.6</ele>
        <time>2022-07-14T04:58:14Z</time>
      </trkpt>
      <trkpt lat="46.3562" lon="5.45988">
        <ele>351.8</ele>
        <time>2022-07-14T04:58:16Z</time>
      </trkpt>
      <trkpt lat="46.35614" lon="5.45987">
        <ele>352</ele>
        <time>2022-07-14T04:58:17Z</time>
      </trkpt>
      <trkpt lat="46.35605" lon="5.45985">
        <ele>352</ele>
        <time>2022-07-14T04:58:19Z</time>
      </trkpt>
      <trkpt lat="46.35598" lon="5.45981">
        <ele>352.8</ele>
        <time>2022-07-14T04:58:21Z</time>
      </trkpt>
      <trkpt lat="46.35595" lon="5.45979">
        <ele>353.8</ele>
        <time>2022-07-14T04:58:22Z</time>
      </trkpt>
      <trkpt lat="46.35583" lon="5.45975">
        <ele>355.2</ele>
        <time>2022-07-14T04:58:25Z</time>
      </trkpt>
      <trkpt lat="46.35568" lon="5.45968">
        <ele>356.6</ele>
        <time>2022-07-14T04:58:29Z</time>
      </trkpt>
      <trkpt lat="46.35546" lon="5.45962">
        <ele>357.8</ele>
        <time>2022-07-14T04:58:34Z</time>
      </trkpt>
      <trkpt lat="46.35542" lon="5.45961">
        <ele>357.8</ele>
        <time>2022-07-14T04:58:35Z</time>
      </trkpt>
      <trkpt lat="46.35535" lon="5.4596">
        <ele>358.2</ele>
        <time>2022-07-14T04:58:37Z</time>
      </trkpt>
      <trkpt lat="46.35525" lon="5.45959">
        <ele>359</ele>
        <time>2022-07-14T04:58:40Z</time>
      </trkpt>
      <trkpt lat="46.35518" lon="5.4596">
        <ele>359.6</ele>
        <time>2022-07-14T04:58:42Z</time>
      </trkpt>
      <trkpt lat="46.35515" lon="5.45961">
        <ele>360</ele>
        <time>2022-07-14T04:58:43Z</time>
      </trkpt>
      <trkpt lat="46.35501" lon="5.45961">
        <ele>361</ele>
        <time>2022-07-14T04:58:47Z</time>
      </trkpt>
      <trkpt lat="46.35494" lon="5.45962">
        <ele>361.2</ele>
        <time>2022-07-14T04:58:49Z</time>
      </trkpt>
      <trkpt lat="46.35476" lon="5.45963">
        <ele>362.2</ele>
        <time>2022-07-14T04:58:54Z</time>
      </trkpt>
      <trkpt lat="46.35473" lon="5.45964">
        <ele>362.4</ele>
        <time>2022-07-14T04:58:55Z</time>
      </trkpt>
      <trkpt lat="46.35461" lon="5.45965">
        <ele>363.6</ele>
        <time>2022-07-14T04:58:59Z</time>
      </trkpt>
      <trkpt lat="46.35447" lon="5.45968">
        <ele>364.6</ele>
        <time>2022-07-14T04:59:03Z</time>
      </trkpt>
      <trkpt lat="46.35437" lon="5.45968">
        <ele>365.4</ele>
        <time>2022-07-14T04:59:06Z</time>
      </trkpt>
      <trkpt lat="46.35431" lon="5.45968">
        <ele>365.8</ele>
        <time>2022-07-14T04:59:08Z</time>
      </trkpt>
      <trkpt lat="46.35414" lon="5.4597">
        <ele>367</ele>
        <time>2022-07-14T04:59:14Z</time>
      </trkpt>
      <trkpt lat="46.35402" lon="5.45971">
        <ele>368.2</ele>
        <time>2022-07-14T04:59:18Z</time>
      </trkpt>
      <trkpt lat="46.35393" lon="5.45972">
        <ele>368.6</ele>
        <time>2022-07-14T04:59:21Z</time>
      </trkpt>
      <trkpt lat="46.35379" lon="5.45973">
        <ele>369.4</ele>
        <time>2022-07-14T04:59:25Z</time>
      </trkpt>
      <trkpt lat="46.35362" lon="5.45972">
        <ele>370.2</ele>
        <time>2022-07-14T04:59:30Z</time>
      </trkpt>
      <trkpt lat="46.35359" lon="5.45972">
        <ele>370.4</ele>
        <time>2022-07-14T04:59:31Z</time>
      </trkpt>
      <trkpt lat="46.35343" lon="5.45971">
        <ele>371.4</ele>
        <time>2022-07-14T04:59:36Z</time>
      </trkpt>
      <trkpt lat="46.35326" lon="5.4597">
        <ele>372.6</ele>
        <time>2022-07-14T04:59:41Z</time>
      </trkpt>
      <trkpt lat="46.35308" lon="5.45969">
        <ele>373.8</ele>
        <time>2022-07-14T04:59:47Z</time>
      </trkpt>
      <trkpt lat="46.353" lon="5.45969">
        <ele>374.6</ele>
        <time>2022-07-14T04:59:50Z</time>
      </trkpt>
      <trkpt lat="46.35295" lon="5.45968">
        <ele>374.8</ele>
        <time>2022-07-14T04:59:52Z</time>
      </trkpt>
      <trkpt lat="46.35281" lon="5.45967">
        <ele>376.2</ele>
        <time>2022-07-14T04:59:57Z</time>
      </trkpt>
      <trkpt lat="46.35273" lon="5.45967">
        <ele>376.6</ele>
        <time>2022-07-14T05:00:00Z</time>
      </trkpt>
      <trkpt lat="46.35263" lon="5.45966">
        <ele>377.4</ele>
        <time>2022-07-14T05:00:03Z</time>
      </trkpt>
      <trkpt lat="46.35255" lon="5.45966">
        <ele>378.4</ele>
        <time>2022-07-14T05:00:06Z</time>
      </trkpt>
      <trkpt lat="46.35251" lon="5.45965">
        <ele>378.6</ele>
        <time>2022-07-14T05:00:07Z</time>
      </trkpt>
      <trkpt lat="46.35237" lon="5.45966">
        <ele>379.4</ele>
        <time>2022-07-14T05:00:12Z</time>
      </trkpt>
      <trkpt lat="46.35222" lon="5.45966">
        <ele>380.6</ele>
        <time>2022-07-14T05:00:17Z</time>
      </trkpt>
      <trkpt lat="46.35219" lon="5.45966">
        <ele>380.8</ele>
        <time>2022-07-14T05:00:18Z</time>
      </trkpt>
      <trkpt lat="46.35208" lon="5.45967">
        <ele>381.8</ele>
        <time>2022-07-14T05:00:22Z</time>
      </trkpt>
      <trkpt lat="46.35198" lon="5.45967">
        <ele>382.6</ele>
        <time>2022-07-14T05:00:25Z</time>
      </trkpt>
      <trkpt lat="46.35195" lon="5.45968">
        <ele>383</ele>
        <time>2022-07-14T05:00:26Z</time>
      </trkpt>
      <trkpt lat="46.3518" lon="5.45969">
        <ele>384.2</ele>
        <time>2022-07-14T05:00:31Z</time>
      </trkpt>
      <trkpt lat="46.35172" lon="5.4597">
        <ele>384.6</ele>
        <time>2022-07-14T05:00:34Z</time>
      </trkpt>
      <trkpt lat="46.3516" lon="5.4597">
        <ele>385.4</ele>
        <time>2022-07-14T05:00:38Z</time>
      </trkpt>
      <trkpt lat="46.35141" lon="5.45971">
        <ele>386.4</ele>
        <time>2022-07-14T05:00:44Z</time>
      </trkpt>
      <trkpt lat="46.35137" lon="5.45972">
        <ele>386.6</ele>
        <time>2022-07-14T05:00:45Z</time>
      </trkpt>
      <trkpt lat="46.35123" lon="5.45972">
        <ele>387.4</ele>
        <time>2022-07-14T05:00:50Z</time>
      </trkpt>
      <trkpt lat="46.35113" lon="5.45973">
        <ele>387.8</ele>
        <time>2022-07-14T05:00:53Z</time>
      </trkpt>
      <trkpt lat="46.35105" lon="5.45973">
        <ele>388.6</ele>
        <time>2022-07-14T05:00:56Z</time>
      </trkpt>
      <trkpt lat="46.35084" lon="5.45976">
        <ele>390</ele>
        <time>2022-07-14T05:01:03Z</time>
      </trkpt>
      <trkpt lat="46.35076" lon="5.45977">
        <ele>391.2</ele>
        <time>2022-07-14T05:01:06Z</time>
      </trkpt>
      <trkpt lat="46.35061" lon="5.45978">
        <ele>392</ele>
        <time>2022-07-14T05:01:11Z</time>
      </trkpt>
      <trkpt lat="46.35058" lon="5.45978">
        <ele>392.2</ele>
        <time>2022-07-14T05:01:12Z</time>
      </trkpt>
      <trkpt lat="46.35039" lon="5.45981">
        <ele>393.4</ele>
        <time>2022-07-14T05:01:18Z</time>
      </trkpt>
      <trkpt lat="46.35028" lon="5.45982">
        <ele>394.4</ele>
        <time>2022-07-14T05:01:22Z</time>
      </trkpt>
      <trkpt lat="46.35025" lon="5.45982">
        <ele>394.6</ele>
        <time>2022-07-14T05:01:23Z</time>
      </trkpt>
      <trkpt lat="46.35006" lon="5.45984">
        <ele>395.8</ele>
        <time>2022-07-14T05:01:29Z</time>
      </trkpt>
      <trkpt lat="46.35003" lon="5.45984">
        <ele>396</ele>
        <time>2022-07-14T05:01:30Z</time>
      </trkpt>
      <trkpt lat="46.34985" lon="5.45984">
        <ele>397</ele>
        <time>2022-07-14T05:01:35Z</time>
      </trkpt>
      <trkpt lat="46.34973" lon="5.45984">
        <ele>398</ele>
        <time>2022-07-14T05:01:39Z</time>
      </trkpt>
      <trkpt lat="46.34955" lon="5.45988">
        <ele>399.2</ele>
        <time>2022-07-14T05:01:45Z</time>
      </trkpt>
      <trkpt lat="46.34941" lon="5.45989">
        <ele>400.2</ele>
        <time>2022-07-14T05:01:49Z</time>
      </trkpt>
      <trkpt lat="46.34925" lon="5.4599">
        <ele>401.2</ele>
        <time>2022-07-14T05:01:54Z</time>
      </trkpt>
      <trkpt lat="46.34911" lon="5.45992">
        <ele>402.4</ele>
        <time>2022-07-14T05:01:59Z</time>
      </trkpt>
      <trkpt lat="46.34898" lon="5.45992">
        <ele>403.6</ele>
        <time>2022-07-14T05:02:03Z</time>
      </trkpt>
      <trkpt lat="46.34895" lon="5.45992">
        <ele>403.6</ele>
        <time>2022-07-14T05:02:04Z</time>
      </trkpt>
      <trkpt lat="46.34877" lon="5.45994">
        <ele>404.6</ele>
        <time>2022-07-14T05:02:10Z</time>
      </trkpt>
      <trkpt lat="46.34871" lon="5.45994">
        <ele>405</ele>
        <time>2022-07-14T05:02:12Z</time>
      </trkpt>
      <trkpt lat="46.34863" lon="5.45994">
        <ele>405.8</ele>
        <time>2022-07-14T05:02:15Z</time>
      </trkpt>
      <trkpt lat="46.34851" lon="5.45995">
        <ele>406.8</ele>
        <time>2022-07-14T05:02:19Z</time>
      </trkpt>
      <trkpt lat="46.34845" lon="5.45996">
        <ele>407.2</ele>
        <time>2022-07-14T05:02:21Z</time>
      </trkpt>
      <trkpt lat="46.34832" lon="5.45997">
        <ele>407.8</ele>
        <time>2022-07-14T05:02:25Z</time>
      </trkpt>
      <trkpt lat="46.3482" lon="5.45998">
        <ele>409</ele>
        <time>2022-07-14T05:02:29Z</time>
      </trkpt>
      <trkpt lat="46.34817" lon="5.45999">
        <ele>409.2</ele>
        <time>2022-07-14T05:02:30Z</time>
      </trkpt>
      <trkpt lat="46.34803" lon="5.46">
        <ele>410.2</ele>
        <time>2022-07-14T05:02:35Z</time>
      </trkpt>
      <trkpt lat="46.34792" lon="5.46002">
        <ele>411.2</ele>
        <time>2022-07-14T05:02:39Z</time>
      </trkpt>
      <trkpt lat="46.34789" lon="5.46002">
        <ele>411.6</ele>
        <time>2022-07-14T05:02:40Z</time>
      </trkpt>
      <trkpt lat="46.34771" lon="5.46006">
        <ele>412.6</ele>
        <time>2022-07-14T05:02:46Z</time>
      </trkpt>
      <trkpt lat="46.34766" lon="5.46008">
        <ele>412.8</ele>
        <time>2022-07-14T05:02:48Z</time>
      </trkpt>
      <trkpt lat="46.34755" lon="5.4601">
        <ele>413.8</ele>
        <time>2022-07-14T05:02:52Z</time>
      </trkpt>
      <trkpt lat="46.3474" lon="5.46013">
        <ele>414.8</ele>
        <time>2022-07-14T05:02:57Z</time>
      </trkpt>
      <trkpt lat="46.34737" lon="5.46014">
        <ele>415</ele>
        <time>2022-07-14T05:02:58Z</time>
      </trkpt>
      <trkpt lat="46.34725" lon="5.46016">
        <ele>416.2</ele>
        <time>2022-07-14T05:03:02Z</time>
      </trkpt>
      <trkpt lat="46.3471" lon="5.46019">
        <ele>417.4</ele>
        <time>2022-07-14T05:03:07Z</time>
      </trkpt>
      <trkpt lat="46.34696" lon="5.46022">
        <ele>418.6</ele>
        <time>2022-07-14T05:03:12Z</time>
      </trkpt>
      <trkpt lat="46.34681" lon="5.46025">
        <ele>419.8</ele>
        <time>2022-07-14T05:03:17Z</time>
      </trkpt>
      <trkpt lat="46.34675" lon="5.46026">
        <ele>420.4</ele>
        <time>2022-07-14T05:03:19Z</time>
      </trkpt>
      <trkpt lat="46.34666" lon="5.46028">
        <ele>420.8</ele>
        <time>2022-07-14T05:03:22Z</time>
      </trkpt>
      <trkpt lat="46.3465" lon="5.4603">
        <ele>421.6</ele>
        <time>2022-07-14T05:03:27Z</time>
      </trkpt>
      <trkpt lat="46.34649" lon="5.4603">
        <ele>421.8</ele>
        <time>2022-07-14T05:03:28Z</time>
      </trkpt>
      <trkpt lat="46.34632" lon="5.46032">
        <ele>423</ele>
        <time>2022-07-14T05:03:33Z</time>
      </trkpt>
      <trkpt lat="46.34614" lon="5.46035">
        <ele>423.8</ele>
        <time>2022-07-14T05:03:39Z</time>
      </trkpt>
      <trkpt lat="46.34611" lon="5.46036">
        <ele>424</ele>
        <time>2022-07-14T05:03:40Z</time>
      </trkpt>
      <trkpt lat="46.34605" lon="5.46036">
        <ele>424.6</ele>
        <time>2022-07-14T05:03:42Z</time>
      </trkpt>
      <trkpt lat="46.34597" lon="5.46037">
        <ele>425</ele>
        <time>2022-07-14T05:03:45Z</time>
      </trkpt>
      <trkpt lat="46.34588" lon="5.46038">
        <ele>425.6</ele>
        <time>2022-07-14T05:03:48Z</time>
      </trkpt>
      <trkpt lat="46.3458" lon="5.46039">
        <ele>426.2</ele>
        <time>2022-07-14T05:03:51Z</time>
      </trkpt>
      <trkpt lat="46.34565" lon="5.46039">
        <ele>427.4</ele>
        <time>2022-07-14T05:03:56Z</time>
      </trkpt>
      <trkpt lat="46.34559" lon="5.46039">
        <ele>427.6</ele>
        <time>2022-07-14T05:03:58Z</time>
      </trkpt>
      <trkpt lat="46.34549" lon="5.4604">
        <ele>428.4</ele>
        <time>2022-07-14T05:04:01Z</time>
      </trkpt>
      <trkpt lat="46.34533" lon="5.46041">
        <ele>429.4</ele>
        <time>2022-07-14T05:04:06Z</time>
      </trkpt>
      <trkpt lat="46.3453" lon="5.46042">
        <ele>429.6</ele>
        <time>2022-07-14T05:04:07Z</time>
      </trkpt>
      <trkpt lat="46.34518" lon="5.46054">
        <ele>430.2</ele>
        <time>2022-07-14T05:04:11Z</time>
      </trkpt>
      <trkpt lat="46.34515" lon="5.46071">
        <ele>430.6</ele>
        <time>2022-07-14T05:04:15Z</time>
      </trkpt>
      <trkpt lat="46.34514" lon="5.46075">
        <ele>430.6</ele>
        <time>2022-07-14T05:04:16Z</time>
      </trkpt>
      <trkpt lat="46.34513" lon="5.46083">
        <ele>430.8</ele>
        <time>2022-07-14T05:04:18Z</time>
      </trkpt>
      <trkpt lat="46.34513" lon="5.46094">
        <ele>431.6</ele>
        <time>2022-07-14T05:04:21Z</time>
      </trkpt>
      <trkpt lat="46.34514" lon="5.46102">
        <ele>432</ele>
        <time>2022-07-14T05:04:23Z</time>
      </trkpt>
      <trkpt lat="46.34513" lon="5.46115">
        <ele>432.2</ele>
        <time>2022-07-14T05:04:26Z</time>
      </trkpt>
      <trkpt lat="46.34512" lon="5.46119">
        <ele>432.8</ele>
        <time>2022-07-14T05:04:27Z</time>
      </trkpt>
      <trkpt lat="46.3451" lon="5.46135">
        <ele>434</ele>
        <time>2022-07-14T05:04:31Z</time>
      </trkpt>
      <trkpt lat="46.3451" lon="5.46141">
        <ele>434.4</ele>
        <time>2022-07-14T05:04:32Z</time>
      </trkpt>
      <trkpt lat="46.34509" lon="5.46149">
        <ele>434.6</ele>
        <time>2022-07-14T05:04:34Z</time>
      </trkpt>
      <trkpt lat="46.34505" lon="5.46156">
        <ele>435</ele>
        <time>2022-07-14T05:04:36Z</time>
      </trkpt>
      <trkpt lat="46.34503" lon="5.46161">
        <ele>435.2</ele>
        <time>2022-07-14T05:04:37Z</time>
      </trkpt>
      <trkpt lat="46.34492" lon="5.46176">
        <ele>435.4</ele>
        <time>2022-07-14T05:04:41Z</time>
      </trkpt>
      <trkpt lat="46.34485" lon="5.4618">
        <ele>436</ele>
        <time>2022-07-14T05:04:43Z</time>
      </trkpt>
      <trkpt lat="46.34476" lon="5.46178">
        <ele>436.8</ele>
        <time>2022-07-14T05:04:46Z</time>
      </trkpt>
      <trkpt lat="46.34469" lon="5.46175">
        <ele>437.2</ele>
        <time>2022-07-14T05:04:48Z</time>
      </trkpt>
      <trkpt lat="46.34459" lon="5.46167">
        <ele>437.8</ele>
        <time>2022-07-14T05:04:51Z</time>
      </trkpt>
      <trkpt lat="46.34446" lon="5.46156">
        <ele>438.4</ele>
        <time>2022-07-14T05:04:55Z</time>
      </trkpt>
      <trkpt lat="46.34442" lon="5.46153">
        <ele>438.4</ele>
        <time>2022-07-14T05:04:56Z</time>
      </trkpt>
      <trkpt lat="46.34425" lon="5.46145">
        <ele>438.6</ele>
        <time>2022-07-14T05:05:00Z</time>
      </trkpt>
      <trkpt lat="46.34416" lon="5.46144">
        <ele>438.6</ele>
        <time>2022-07-14T05:05:02Z</time>
      </trkpt>
      <trkpt lat="46.34406" lon="5.46145">
        <ele>438.6</ele>
        <time>2022-07-14T05:05:04Z</time>
      </trkpt>
      <trkpt lat="46.34397" lon="5.46149">
        <ele>438.6</ele>
        <time>2022-07-14T05:05:06Z</time>
      </trkpt>
      <trkpt lat="46.34392" lon="5.46153">
        <ele>438.6</ele>
        <time>2022-07-14T05:05:07Z</time>
      </trkpt>
      <trkpt lat="46.34385" lon="5.4616">
        <ele>439</ele>
        <time>2022-07-14T05:05:09Z</time>
      </trkpt>
      <trkpt lat="46.34368" lon="5.46179">
        <ele>439.2</ele>
        <time>2022-07-14T05:05:13Z</time>
      </trkpt>
      <trkpt lat="46.34361" lon="5.46188">
        <ele>439.4</ele>
        <time>2022-07-14T05:05:15Z</time>
      </trkpt>
      <trkpt lat="46.34345" lon="5.46207">
        <ele>439.8</ele>
        <time>2022-07-14T05:05:19Z</time>
      </trkpt>
      <trkpt lat="46.34331" lon="5.46221">
        <ele>440</ele>
        <time>2022-07-14T05:05:22Z</time>
      </trkpt>
      <trkpt lat="46.3432" lon="5.46236">
        <ele>439.8</ele>
        <time>2022-07-14T05:05:25Z</time>
      </trkpt>
      <trkpt lat="46.34314" lon="5.46253">
        <ele>439.6</ele>
        <time>2022-07-14T05:05:27Z</time>
      </trkpt>
      <trkpt lat="46.3431" lon="5.46261">
        <ele>439.6</ele>
        <time>2022-07-14T05:05:28Z</time>
      </trkpt>
      <trkpt lat="46.34307" lon="5.46273">
        <ele>439.6</ele>
        <time>2022-07-14T05:05:30Z</time>
      </trkpt>
      <trkpt lat="46.34306" lon="5.4629">
        <ele>439.8</ele>
        <time>2022-07-14T05:05:32Z</time>
      </trkpt>
      <trkpt lat="46.34304" lon="5.46297">
        <ele>439.8</ele>
        <time>2022-07-14T05:05:33Z</time>
      </trkpt>
      <trkpt lat="46.34295" lon="5.4636">
        <ele>439.8</ele>
        <time>2022-07-14T05:05:41Z</time>
      </trkpt>
      <trkpt lat="46.3429" lon="5.46402">
        <ele>439.4</ele>
        <time>2022-07-14T05:05:46Z</time>
      </trkpt>
      <trkpt lat="46.3429" lon="5.46411">
        <ele>439.4</ele>
        <time>2022-07-14T05:05:47Z</time>
      </trkpt>
      <trkpt lat="46.34291" lon="5.4642">
        <ele>439.4</ele>
        <time>2022-07-14T05:05:48Z</time>
      </trkpt>
      <trkpt lat="46.34294" lon="5.46435">
        <ele>439.2</ele>
        <time>2022-07-14T05:05:50Z</time>
      </trkpt>
      <trkpt lat="46.34296" lon="5.46443">
        <ele>439.2</ele>
        <time>2022-07-14T05:05:51Z</time>
      </trkpt>
      <trkpt lat="46.34298" lon="5.46458">
        <ele>439.4</ele>
        <time>2022-07-14T05:05:53Z</time>
      </trkpt>
      <trkpt lat="46.34298" lon="5.46473">
        <ele>439.6</ele>
        <time>2022-07-14T05:05:55Z</time>
      </trkpt>
      <trkpt lat="46.34293" lon="5.4649">
        <ele>439.8</ele>
        <time>2022-07-14T05:05:57Z</time>
      </trkpt>
      <trkpt lat="46.34289" lon="5.465">
        <ele>440</ele>
        <time>2022-07-14T05:05:59Z</time>
      </trkpt>
      <trkpt lat="46.34284" lon="5.46512">
        <ele>439.8</ele>
        <time>2022-07-14T05:06:00Z</time>
      </trkpt>
      <trkpt lat="46.34277" lon="5.46524">
        <ele>439.8</ele>
        <time>2022-07-14T05:06:02Z</time>
      </trkpt>
      <trkpt lat="46.34268" lon="5.46534">
        <ele>439.8</ele>
        <time>2022-07-14T05:06:04Z</time>
      </trkpt>
      <trkpt lat="46.34263" lon="5.46539">
        <ele>439.8</ele>
        <time>2022-07-14T05:06:05Z</time>
      </trkpt>
      <trkpt lat="46.34247" lon="5.46552">
        <ele>439.6</ele>
        <time>2022-07-14T05:06:08Z</time>
      </trkpt>
      <trkpt lat="46.34241" lon="5.46555">
        <ele>439.4</ele>
        <time>2022-07-14T05:06:09Z</time>
      </trkpt>
      <trkpt lat="46.34228" lon="5.46562">
        <ele>439.4</ele>
        <time>2022-07-14T05:06:11Z</time>
      </trkpt>
      <trkpt lat="46.34218" lon="5.46567">
        <ele>439.2</ele>
        <time>2022-07-14T05:06:13Z</time>
      </trkpt>
      <trkpt lat="46.34211" lon="5.46577">
        <ele>439</ele>
        <time>2022-07-14T05:06:15Z</time>
      </trkpt>
      <trkpt lat="46.34208" lon="5.46584">
        <ele>438.8</ele>
        <time>2022-07-14T05:06:16Z</time>
      </trkpt>
      <trkpt lat="46.34204" lon="5.46601">
        <ele>438.8</ele>
        <time>2022-07-14T05:06:18Z</time>
      </trkpt>
      <trkpt lat="46.34201" lon="5.46619">
        <ele>438.8</ele>
        <time>2022-07-14T05:06:20Z</time>
      </trkpt>
      <trkpt lat="46.342" lon="5.46636">
        <ele>439</ele>
        <time>2022-07-14T05:06:22Z</time>
      </trkpt>
      <trkpt lat="46.34203" lon="5.46654">
        <ele>439</ele>
        <time>2022-07-14T05:06:24Z</time>
      </trkpt>
      <trkpt lat="46.34206" lon="5.46667">
        <ele>439.2</ele>
        <time>2022-07-14T05:06:26Z</time>
      </trkpt>
      <trkpt lat="46.34213" lon="5.46674">
        <ele>439.6</ele>
        <time>2022-07-14T05:06:28Z</time>
      </trkpt>
      <trkpt lat="46.34222" lon="5.46679">
        <ele>440</ele>
        <time>2022-07-14T05:06:30Z</time>
      </trkpt>
      <trkpt lat="46.34239" lon="5.46696">
        <ele>441</ele>
        <time>2022-07-14T05:06:34Z</time>
      </trkpt>
      <trkpt lat="46.34272" lon="5.46725">
        <ele>441.6</ele>
        <time>2022-07-14T05:06:41Z</time>
      </trkpt>
      <trkpt lat="46.3428" lon="5.46733">
        <ele>442</ele>
        <time>2022-07-14T05:06:43Z</time>
      </trkpt>
      <trkpt lat="46.34291" lon="5.46741">
        <ele>442.2</ele>
        <time>2022-07-14T05:06:45Z</time>
      </trkpt>
      <trkpt lat="46.34303" lon="5.46746">
        <ele>442.2</ele>
        <time>2022-07-14T05:06:46Z</time>
      </trkpt>
      <trkpt lat="46.34318" lon="5.46754">
        <ele>442.4</ele>
        <time>2022-07-14T05:06:48Z</time>
      </trkpt>
      <trkpt lat="46.34324" lon="5.46758">
        <ele>442.6</ele>
        <time>2022-07-14T05:06:49Z</time>
      </trkpt>
      <trkpt lat="46.34335" lon="5.46775">
        <ele>442.8</ele>
        <time>2022-07-14T05:06:52Z</time>
      </trkpt>
      <trkpt lat="46.34335" lon="5.46783">
        <ele>443</ele>
        <time>2022-07-14T05:06:53Z</time>
      </trkpt>
      <trkpt lat="46.34335" lon="5.46791">
        <ele>443.2</ele>
        <time>2022-07-14T05:06:54Z</time>
      </trkpt>
      <trkpt lat="46.34334" lon="5.46809">
        <ele>443.2</ele>
        <time>2022-07-14T05:06:56Z</time>
      </trkpt>
      <trkpt lat="46.34331" lon="5.46819">
        <ele>443.4</ele>
        <time>2022-07-14T05:06:58Z</time>
      </trkpt>
      <trkpt lat="46.34329" lon="5.46826">
        <ele>443.6</ele>
        <time>2022-07-14T05:06:59Z</time>
      </trkpt>
      <trkpt lat="46.34328" lon="5.46841">
        <ele>444.4</ele>
        <time>2022-07-14T05:07:01Z</time>
      </trkpt>
      <trkpt lat="46.34328" lon="5.46848">
        <ele>444.6</ele>
        <time>2022-07-14T05:07:02Z</time>
      </trkpt>
      <trkpt lat="46.34329" lon="5.4687">
        <ele>445.6</ele>
        <time>2022-07-14T05:07:05Z</time>
      </trkpt>
      <trkpt lat="46.34329" lon="5.46878">
        <ele>446</ele>
        <time>2022-07-14T05:07:06Z</time>
      </trkpt>
      <trkpt lat="46.34341" lon="5.46898">
        <ele>446.6</ele>
        <time>2022-07-14T05:07:10Z</time>
      </trkpt>
      <trkpt lat="46.34345" lon="5.46901">
        <ele>446.8</ele>
        <time>2022-07-14T05:07:11Z</time>
      </trkpt>
      <trkpt lat="46.34366" lon="5.46908">
        <ele>447.6</ele>
        <time>2022-07-14T05:07:16Z</time>
      </trkpt>
      <trkpt lat="46.3437" lon="5.46908">
        <ele>448</ele>
        <time>2022-07-14T05:07:17Z</time>
      </trkpt>
      <trkpt lat="46.34382" lon="5.46914">
        <ele>448.6</ele>
        <time>2022-07-14T05:07:21Z</time>
      </trkpt>
      <trkpt lat="46.34397" lon="5.46925">
        <ele>449.6</ele>
        <time>2022-07-14T05:07:26Z</time>
      </trkpt>
      <trkpt lat="46.344" lon="5.46927">
        <ele>449.8</ele>
        <time>2022-07-14T05:07:27Z</time>
      </trkpt>
      <trkpt lat="46.34411" lon="5.46933">
        <ele>450.8</ele>
        <time>2022-07-14T05:07:30Z</time>
      </trkpt>
      <trkpt lat="46.34422" lon="5.46939">
        <ele>451.2</ele>
        <time>2022-07-14T05:07:33Z</time>
      </trkpt>
      <trkpt lat="46.34435" lon="5.4695">
        <ele>451.8</ele>
        <time>2022-07-14T05:07:37Z</time>
      </trkpt>
      <trkpt lat="46.34445" lon="5.46959">
        <ele>452.6</ele>
        <time>2022-07-14T05:07:40Z</time>
      </trkpt>
      <trkpt lat="46.34451" lon="5.46968">
        <ele>453</ele>
        <time>2022-07-14T05:07:42Z</time>
      </trkpt>
      <trkpt lat="46.34458" lon="5.46983">
        <ele>453.6</ele>
        <time>2022-07-14T05:07:45Z</time>
      </trkpt>
      <trkpt lat="46.34459" lon="5.46988">
        <ele>454</ele>
        <time>2022-07-14T05:07:46Z</time>
      </trkpt>
      <trkpt lat="46.34462" lon="5.47008">
        <ele>455.2</ele>
        <time>2022-07-14T05:07:50Z</time>
      </trkpt>
      <trkpt lat="46.34462" lon="5.47013">
        <ele>455.4</ele>
        <time>2022-07-14T05:07:51Z</time>
      </trkpt>
      <trkpt lat="46.34465" lon="5.47021">
        <ele>456.4</ele>
        <time>2022-07-14T05:07:54Z</time>
      </trkpt>
      <trkpt lat="46.34468" lon="5.47031">
        <ele>457</ele>
        <time>2022-07-14T05:07:56Z</time>
      </trkpt>
      <trkpt lat="46.3447" lon="5.47043">
        <ele>457.4</ele>
        <time>2022-07-14T05:07:58Z</time>
      </trkpt>
      <trkpt lat="46.34471" lon="5.47047">
        <ele>457.6</ele>
        <time>2022-07-14T05:07:59Z</time>
      </trkpt>
      <trkpt lat="46.34474" lon="5.47061">
        <ele>458</ele>
        <time>2022-07-14T05:08:02Z</time>
      </trkpt>
      <trkpt lat="46.34475" lon="5.47065">
        <ele>458.6</ele>
        <time>2022-07-14T05:08:03Z</time>
      </trkpt>
      <trkpt lat="46.34484" lon="5.4708">
        <ele>459.8</ele>
        <time>2022-07-14T05:08:07Z</time>
      </trkpt>
      <trkpt lat="46.34493" lon="5.47096">
        <ele>461</ele>
        <time>2022-07-14T05:08:12Z</time>
      </trkpt>
      <trkpt lat="46.34495" lon="5.471">
        <ele>461</ele>
        <time>2022-07-14T05:08:13Z</time>
      </trkpt>
      <trkpt lat="46.34506" lon="5.47108">
        <ele>461.8</ele>
        <time>2022-07-14T05:08:16Z</time>
      </trkpt>
      <trkpt lat="46.34509" lon="5.47111">
        <ele>462</ele>
        <time>2022-07-14T05:08:17Z</time>
      </trkpt>
      <trkpt lat="46.34525" lon="5.47125">
        <ele>462.4</ele>
        <time>2022-07-14T05:08:22Z</time>
      </trkpt>
      <trkpt lat="46.34547" lon="5.47142">
        <ele>463</ele>
        <time>2022-07-14T05:08:29Z</time>
      </trkpt>
      <trkpt lat="46.34552" lon="5.47145">
        <ele>463.2</ele>
        <time>2022-07-14T05:08:30Z</time>
      </trkpt>
      <trkpt lat="46.34563" lon="5.47153">
        <ele>463.8</ele>
        <time>2022-07-14T05:08:34Z</time>
      </trkpt>
      <trkpt lat="46.34574" lon="5.4716">
        <ele>464.2</ele>
        <time>2022-07-14T05:08:37Z</time>
      </trkpt>
      <trkpt lat="46.34579" lon="5.47163">
        <ele>464.4</ele>
        <time>2022-07-14T05:08:38Z</time>
      </trkpt>
      <trkpt lat="46.34594" lon="5.47174">
        <ele>465</ele>
        <time>2022-07-14T05:08:42Z</time>
      </trkpt>
      <trkpt lat="46.34602" lon="5.47181">
        <ele>465.2</ele>
        <time>2022-07-14T05:08:44Z</time>
      </trkpt>
      <trkpt lat="46.34621" lon="5.47199">
        <ele>465.6</ele>
        <time>2022-07-14T05:08:49Z</time>
      </trkpt>
      <trkpt lat="46.34631" lon="5.47213">
        <ele>466.2</ele>
        <time>2022-07-14T05:08:53Z</time>
      </trkpt>
      <trkpt lat="46.34635" lon="5.47221">
        <ele>466.6</ele>
        <time>2022-07-14T05:08:55Z</time>
      </trkpt>
      <trkpt lat="46.34645" lon="5.47241">
        <ele>467.8</ele>
        <time>2022-07-14T05:09:00Z</time>
      </trkpt>
      <trkpt lat="46.34648" lon="5.4725">
        <ele>468.4</ele>
        <time>2022-07-14T05:09:02Z</time>
      </trkpt>
      <trkpt lat="46.34651" lon="5.47258">
        <ele>468.8</ele>
        <time>2022-07-14T05:09:04Z</time>
      </trkpt>
      <trkpt lat="46.34656" lon="5.47271">
        <ele>469.6</ele>
        <time>2022-07-14T05:09:07Z</time>
      </trkpt>
      <trkpt lat="46.34658" lon="5.47281">
        <ele>470.2</ele>
        <time>2022-07-14T05:09:09Z</time>
      </trkpt>
      <trkpt lat="46.34657" lon="5.473">
        <ele>471.2</ele>
        <time>2022-07-14T05:09:13Z</time>
      </trkpt>
      <trkpt lat="46.34654" lon="5.47315">
        <ele>472.6</ele>
        <time>2022-07-14T05:09:17Z</time>
      </trkpt>
      <trkpt lat="46.34653" lon="5.47319">
        <ele>472.8</ele>
        <time>2022-07-14T05:09:18Z</time>
      </trkpt>
      <trkpt lat="46.34648" lon="5.47348">
        <ele>473.6</ele>
        <time>2022-07-14T05:09:23Z</time>
      </trkpt>
      <trkpt lat="46.3464" lon="5.47392">
        <ele>473.6</ele>
        <time>2022-07-14T05:09:29Z</time>
      </trkpt>
      <trkpt lat="46.34628" lon="5.47431">
        <ele>473.2</ele>
        <time>2022-07-14T05:09:34Z</time>
      </trkpt>
      <trkpt lat="46.3462" lon="5.47456">
        <ele>473.2</ele>
        <time>2022-07-14T05:09:38Z</time>
      </trkpt>
      <trkpt lat="46.34617" lon="5.47461">
        <ele>473.2</ele>
        <time>2022-07-14T05:09:39Z</time>
      </trkpt>
      <trkpt lat="46.34602" lon="5.47482">
        <ele>474.2</ele>
        <time>2022-07-14T05:09:44Z</time>
      </trkpt>
      <trkpt lat="46.34596" lon="5.47488">
        <ele>475</ele>
        <time>2022-07-14T05:09:46Z</time>
      </trkpt>
      <trkpt lat="46.34589" lon="5.47497">
        <ele>476</ele>
        <time>2022-07-14T05:09:49Z</time>
      </trkpt>
      <trkpt lat="46.34586" lon="5.475">
        <ele>476.2</ele>
        <time>2022-07-14T05:09:50Z</time>
      </trkpt>
      <trkpt lat="46.3458" lon="5.47508">
        <ele>477.2</ele>
        <time>2022-07-14T05:09:53Z</time>
      </trkpt>
      <trkpt lat="46.34575" lon="5.47514">
        <ele>477.6</ele>
        <time>2022-07-14T05:09:55Z</time>
      </trkpt>
      <trkpt lat="46.34567" lon="5.47522">
        <ele>478.4</ele>
        <time>2022-07-14T05:09:58Z</time>
      </trkpt>
      <trkpt lat="46.3456" lon="5.4753">
        <ele>478.8</ele>
        <time>2022-07-14T05:10:01Z</time>
      </trkpt>
      <trkpt lat="46.34555" lon="5.47536">
        <ele>479.6</ele>
        <time>2022-07-14T05:10:03Z</time>
      </trkpt>
      <trkpt lat="46.34541" lon="5.47553">
        <ele>480.6</ele>
        <time>2022-07-14T05:10:08Z</time>
      </trkpt>
      <trkpt lat="46.34538" lon="5.47557">
        <ele>481</ele>
        <time>2022-07-14T05:10:09Z</time>
      </trkpt>
      <trkpt lat="46.34531" lon="5.47568">
        <ele>481.8</ele>
        <time>2022-07-14T05:10:12Z</time>
      </trkpt>
      <trkpt lat="46.34521" lon="5.47583">
        <ele>482.6</ele>
        <time>2022-07-14T05:10:16Z</time>
      </trkpt>
      <trkpt lat="46.34517" lon="5.47592">
        <ele>482.8</ele>
        <time>2022-07-14T05:10:18Z</time>
      </trkpt>
      <trkpt lat="46.34506" lon="5.47613">
        <ele>483.8</ele>
        <time>2022-07-14T05:10:23Z</time>
      </trkpt>
      <trkpt lat="46.34504" lon="5.47619">
        <ele>484</ele>
        <time>2022-07-14T05:10:24Z</time>
      </trkpt>
      <trkpt lat="46.34496" lon="5.47633">
        <ele>485</ele>
        <time>2022-07-14T05:10:28Z</time>
      </trkpt>
      <trkpt lat="46.34488" lon="5.47648">
        <ele>485.6</ele>
        <time>2022-07-14T05:10:31Z</time>
      </trkpt>
      <trkpt lat="46.34472" lon="5.47677">
        <ele>486.2</ele>
        <time>2022-07-14T05:10:37Z</time>
      </trkpt>
      <trkpt lat="46.34466" lon="5.47688">
        <ele>486.4</ele>
        <time>2022-07-14T05:10:39Z</time>
      </trkpt>
      <trkpt lat="46.34445" lon="5.47729">
        <ele>486.8</ele>
        <time>2022-07-14T05:10:47Z</time>
      </trkpt>
      <trkpt lat="46.3444" lon="5.47738">
        <ele>487.2</ele>
        <time>2022-07-14T05:10:49Z</time>
      </trkpt>
      <trkpt lat="46.34426" lon="5.47759">
        <ele>487.8</ele>
        <time>2022-07-14T05:10:54Z</time>
      </trkpt>
      <trkpt lat="46.34415" lon="5.47771">
        <ele>488.6</ele>
        <time>2022-07-14T05:10:58Z</time>
      </trkpt>
      <trkpt lat="46.3441" lon="5.47777">
        <ele>489</ele>
        <time>2022-07-14T05:11:00Z</time>
      </trkpt>
      <trkpt lat="46.34399" lon="5.47784">
        <ele>489.6</ele>
        <time>2022-07-14T05:11:04Z</time>
      </trkpt>
      <trkpt lat="46.34396" lon="5.47785">
        <ele>489.8</ele>
        <time>2022-07-14T05:11:05Z</time>
      </trkpt>
      <trkpt lat="46.34381" lon="5.47787">
        <ele>491</ele>
        <time>2022-07-14T05:11:09Z</time>
      </trkpt>
      <trkpt lat="46.3437" lon="5.4779">
        <ele>491.4</ele>
        <time>2022-07-14T05:11:12Z</time>
      </trkpt>
      <trkpt lat="46.34364" lon="5.47792">
        <ele>492.2</ele>
        <time>2022-07-14T05:11:14Z</time>
      </trkpt>
      <trkpt lat="46.3434" lon="5.47792">
        <ele>493.6</ele>
        <time>2022-07-14T05:11:20Z</time>
      </trkpt>
      <trkpt lat="46.34325" lon="5.47793">
        <ele>495</ele>
        <time>2022-07-14T05:11:25Z</time>
      </trkpt>
      <trkpt lat="46.34317" lon="5.47794">
        <ele>495.8</ele>
        <time>2022-07-14T05:11:28Z</time>
      </trkpt>
      <trkpt lat="46.34313" lon="5.47793">
        <ele>496</ele>
        <time>2022-07-14T05:11:29Z</time>
      </trkpt>
      <trkpt lat="46.34293" lon="5.4779">
        <ele>497</ele>
        <time>2022-07-14T05:11:35Z</time>
      </trkpt>
      <trkpt lat="46.34288" lon="5.47789">
        <ele>497.8</ele>
        <time>2022-07-14T05:11:37Z</time>
      </trkpt>
      <trkpt lat="46.34282" lon="5.47787">
        <ele>498.2</ele>
        <time>2022-07-14T05:11:39Z</time>
      </trkpt>
      <trkpt lat="46.34268" lon="5.47784">
        <ele>499.2</ele>
        <time>2022-07-14T05:11:44Z</time>
      </trkpt>
      <trkpt lat="46.3426" lon="5.47781">
        <ele>500</ele>
        <time>2022-07-14T05:11:47Z</time>
      </trkpt>
      <trkpt lat="46.34254" lon="5.47778">
        <ele>500.2</ele>
        <time>2022-07-14T05:11:49Z</time>
      </trkpt>
      <trkpt lat="46.34243" lon="5.47775">
        <ele>501.4</ele>
        <time>2022-07-14T05:11:53Z</time>
      </trkpt>
      <trkpt lat="46.34231" lon="5.47772">
        <ele>502.4</ele>
        <time>2022-07-14T05:11:57Z</time>
      </trkpt>
      <trkpt lat="46.34218" lon="5.47768">
        <ele>503.6</ele>
        <time>2022-07-14T05:12:02Z</time>
      </trkpt>
      <trkpt lat="46.34209" lon="5.47766">
        <ele>504</ele>
        <time>2022-07-14T05:12:05Z</time>
      </trkpt>
      <trkpt lat="46.34203" lon="5.47765">
        <ele>504.6</ele>
        <time>2022-07-14T05:12:07Z</time>
      </trkpt>
      <trkpt lat="46.34186" lon="5.47761">
        <ele>505.6</ele>
        <time>2022-07-14T05:12:13Z</time>
      </trkpt>
      <trkpt lat="46.34176" lon="5.47758">
        <ele>506.6</ele>
        <time>2022-07-14T05:12:16Z</time>
      </trkpt>
      <trkpt lat="46.3417" lon="5.47756">
        <ele>507</ele>
        <time>2022-07-14T05:12:18Z</time>
      </trkpt>
      <trkpt lat="46.34151" lon="5.47751">
        <ele>508.2</ele>
        <time>2022-07-14T05:12:24Z</time>
      </trkpt>
      <trkpt lat="46.34148" lon="5.4775">
        <ele>508.2</ele>
        <time>2022-07-14T05:12:25Z</time>
      </trkpt>
      <trkpt lat="46.34131" lon="5.47749">
        <ele>509.2</ele>
        <time>2022-07-14T05:12:30Z</time>
      </trkpt>
      <trkpt lat="46.34117" lon="5.47749">
        <ele>509.6</ele>
        <time>2022-07-14T05:12:34Z</time>
      </trkpt>
      <trkpt lat="46.3409" lon="5.47757">
        <ele>509.8</ele>
        <time>2022-07-14T05:12:41Z</time>
      </trkpt>
      <trkpt lat="46.34062" lon="5.47784">
        <ele>508.6</ele>
        <time>2022-07-14T05:12:49Z</time>
      </trkpt>
      <trkpt lat="46.34048" lon="5.47802">
        <ele>508.2</ele>
        <time>2022-07-14T05:12:53Z</time>
      </trkpt>
      <trkpt lat="46.3404" lon="5.47814">
        <ele>508.2</ele>
        <time>2022-07-14T05:12:55Z</time>
      </trkpt>
      <trkpt lat="46.34012" lon="5.47848">
        <ele>507.6</ele>
        <time>2022-07-14T05:13:02Z</time>
      </trkpt>
      <trkpt lat="46.34004" lon="5.47857">
        <ele>507.6</ele>
        <time>2022-07-14T05:13:04Z</time>
      </trkpt>
      <trkpt lat="46.33987" lon="5.47871">
        <ele>507.8</ele>
        <time>2022-07-14T05:13:08Z</time>
      </trkpt>
      <trkpt lat="46.33952" lon="5.47893">
        <ele>508.8</ele>
        <time>2022-07-14T05:13:16Z</time>
      </trkpt>
      <trkpt lat="46.33937" lon="5.47902">
        <ele>509.4</ele>
        <time>2022-07-14T05:13:19Z</time>
      </trkpt>
      <trkpt lat="46.3392" lon="5.47907">
        <ele>509.4</ele>
        <time>2022-07-14T05:13:22Z</time>
      </trkpt>
      <trkpt lat="46.33864" lon="5.47911">
        <ele>508.2</ele>
        <time>2022-07-14T05:13:30Z</time>
      </trkpt>
      <trkpt lat="46.33858" lon="5.47911">
        <ele>507.8</ele>
        <time>2022-07-14T05:13:31Z</time>
      </trkpt>
      <trkpt lat="46.3382" lon="5.47908">
        <ele>506.6</ele>
        <time>2022-07-14T05:13:36Z</time>
      </trkpt>
      <trkpt lat="46.33769" lon="5.47892">
        <ele>505.6</ele>
        <time>2022-07-14T05:13:43Z</time>
      </trkpt>
      <trkpt lat="46.33762" lon="5.4789">
        <ele>505.6</ele>
        <time>2022-07-14T05:13:44Z</time>
      </trkpt>
      <trkpt lat="46.33721" lon="5.47878">
        <ele>505.6</ele>
        <time>2022-07-14T05:13:50Z</time>
      </trkpt>
      <trkpt lat="46.33697" lon="5.47872">
        <ele>505.8</ele>
        <time>2022-07-14T05:13:54Z</time>
      </trkpt>
      <trkpt lat="46.33692" lon="5.47873">
        <ele>505.8</ele>
        <time>2022-07-14T05:13:55Z</time>
      </trkpt>
      <trkpt lat="46.33687" lon="5.47877">
        <ele>505.8</ele>
        <time>2022-07-14T05:13:56Z</time>
      </trkpt>
      <trkpt lat="46.3368" lon="5.47892">
        <ele>506</ele>
        <time>2022-07-14T05:13:58Z</time>
      </trkpt>
      <trkpt lat="46.33674" lon="5.47933">
        <ele>506</ele>
        <time>2022-07-14T05:14:02Z</time>
      </trkpt>
      <trkpt lat="46.33672" lon="5.47952">
        <ele>505.6</ele>
        <time>2022-07-14T05:14:04Z</time>
      </trkpt>
      <trkpt lat="46.33673" lon="5.47971">
        <ele>504.8</ele>
        <time>2022-07-14T05:14:06Z</time>
      </trkpt>
      <trkpt lat="46.33676" lon="5.47981">
        <ele>504.6</ele>
        <time>2022-07-14T05:14:07Z</time>
      </trkpt>
      <trkpt lat="46.33679" lon="5.47992">
        <ele>504.2</ele>
        <time>2022-07-14T05:14:08Z</time>
      </trkpt>
      <trkpt lat="46.33688" lon="5.48015">
        <ele>503.8</ele>
        <time>2022-07-14T05:14:10Z</time>
      </trkpt>
      <trkpt lat="46.33698" lon="5.48034">
        <ele>503.4</ele>
        <time>2022-07-14T05:14:12Z</time>
      </trkpt>
      <trkpt lat="46.33702" lon="5.48046">
        <ele>503</ele>
        <time>2022-07-14T05:14:13Z</time>
      </trkpt>
      <trkpt lat="46.33711" lon="5.48071">
        <ele>501.8</ele>
        <time>2022-07-14T05:14:15Z</time>
      </trkpt>
      <trkpt lat="46.33722" lon="5.4811">
        <ele>500.4</ele>
        <time>2022-07-14T05:14:18Z</time>
      </trkpt>
      <trkpt lat="46.33728" lon="5.48136">
        <ele>499</ele>
        <time>2022-07-14T05:14:20Z</time>
      </trkpt>
      <trkpt lat="46.33732" lon="5.48163">
        <ele>498.2</ele>
        <time>2022-07-14T05:14:22Z</time>
      </trkpt>
      <trkpt lat="46.33736" lon="5.48188">
        <ele>497.8</ele>
        <time>2022-07-14T05:14:24Z</time>
      </trkpt>
      <trkpt lat="46.33746" lon="5.48231">
        <ele>497.6</ele>
        <time>2022-07-14T05:14:28Z</time>
      </trkpt>
      <trkpt lat="46.33761" lon="5.483">
        <ele>497.8</ele>
        <time>2022-07-14T05:14:34Z</time>
      </trkpt>
      <trkpt lat="46.33769" lon="5.48345">
        <ele>499</ele>
        <time>2022-07-14T05:14:39Z</time>
      </trkpt>
      <trkpt lat="46.33773" lon="5.48362">
        <ele>500</ele>
        <time>2022-07-14T05:14:41Z</time>
      </trkpt>
      <trkpt lat="46.33778" lon="5.48398">
        <ele>501</ele>
        <time>2022-07-14T05:14:45Z</time>
      </trkpt>
      <trkpt lat="46.33786" lon="5.48435">
        <ele>501.4</ele>
        <time>2022-07-14T05:14:49Z</time>
      </trkpt>
      <trkpt lat="46.33801" lon="5.48478">
        <ele>502</ele>
        <time>2022-07-14T05:14:54Z</time>
      </trkpt>
      <trkpt lat="46.33805" lon="5.48486">
        <ele>502</ele>
        <time>2022-07-14T05:14:55Z</time>
      </trkpt>
      <trkpt lat="46.33831" lon="5.48527">
        <ele>502.2</ele>
        <time>2022-07-14T05:15:01Z</time>
      </trkpt>
      <trkpt lat="46.33862" lon="5.48581">
        <ele>502.2</ele>
        <time>2022-07-14T05:15:08Z</time>
      </trkpt>
      <trkpt lat="46.33888" lon="5.4865">
        <ele>501.6</ele>
        <time>2022-07-14T05:15:16Z</time>
      </trkpt>
      <trkpt lat="46.33915" lon="5.48714">
        <ele>501</ele>
        <time>2022-07-14T05:15:23Z</time>
      </trkpt>
      <trkpt lat="46.33919" lon="5.48722">
        <ele>501</ele>
        <time>2022-07-14T05:15:24Z</time>
      </trkpt>
      <trkpt lat="46.33951" lon="5.48759">
        <ele>500.6</ele>
        <time>2022-07-14T05:15:30Z</time>
      </trkpt>
      <trkpt lat="46.33994" lon="5.4881">
        <ele>500.6</ele>
        <time>2022-07-14T05:15:38Z</time>
      </trkpt>
      <trkpt lat="46.34" lon="5.48821">
        <ele>501</ele>
        <time>2022-07-14T05:15:40Z</time>
      </trkpt>
      <trkpt lat="46.34006" lon="5.48837">
        <ele>501.4</ele>
        <time>2022-07-14T05:15:42Z</time>
      </trkpt>
      <trkpt lat="46.34012" lon="5.48865">
        <ele>502.2</ele>
        <time>2022-07-14T05:15:46Z</time>
      </trkpt>
      <trkpt lat="46.34013" lon="5.48872">
        <ele>502.8</ele>
        <time>2022-07-14T05:15:47Z</time>
      </trkpt>
      <trkpt lat="46.34015" lon="5.48878">
        <ele>503.2</ele>
        <time>2022-07-14T05:15:48Z</time>
      </trkpt>
      <trkpt lat="46.34017" lon="5.48885">
        <ele>503.6</ele>
        <time>2022-07-14T05:15:49Z</time>
      </trkpt>
      <trkpt lat="46.34022" lon="5.48898">
        <ele>504.4</ele>
        <time>2022-07-14T05:15:51Z</time>
      </trkpt>
      <trkpt lat="46.34034" lon="5.48924">
        <ele>505</ele>
        <time>2022-07-14T05:15:55Z</time>
      </trkpt>
      <trkpt lat="46.34054" lon="5.48961">
        <ele>505.6</ele>
        <time>2022-07-14T05:16:01Z</time>
      </trkpt>
      <trkpt lat="46.34078" lon="5.49015">
        <ele>506.4</ele>
        <time>2022-07-14T05:16:09Z</time>
      </trkpt>
      <trkpt lat="46.3408" lon="5.49023">
        <ele>506.6</ele>
        <time>2022-07-14T05:16:10Z</time>
      </trkpt>
      <trkpt lat="46.34081" lon="5.49031">
        <ele>506.6</ele>
        <time>2022-07-14T05:16:11Z</time>
      </trkpt>
      <trkpt lat="46.34082" lon="5.49047">
        <ele>507</ele>
        <time>2022-07-14T05:16:13Z</time>
      </trkpt>
      <trkpt lat="46.34081" lon="5.49062">
        <ele>507.6</ele>
        <time>2022-07-14T05:16:15Z</time>
      </trkpt>
      <trkpt lat="46.34079" lon="5.49088">
        <ele>508</ele>
        <time>2022-07-14T05:16:19Z</time>
      </trkpt>
      <trkpt lat="46.34081" lon="5.49105">
        <ele>508.6</ele>
        <time>2022-07-14T05:16:22Z</time>
      </trkpt>
      <trkpt lat="46.34084" lon="5.49117">
        <ele>509.4</ele>
        <time>2022-07-14T05:16:24Z</time>
      </trkpt>
      <trkpt lat="46.34086" lon="5.49122">
        <ele>509.6</ele>
        <time>2022-07-14T05:16:25Z</time>
      </trkpt>
      <trkpt lat="46.34088" lon="5.49127">
        <ele>510</ele>
        <time>2022-07-14T05:16:26Z</time>
      </trkpt>
      <trkpt lat="46.3409" lon="5.49133">
        <ele>510</ele>
        <time>2022-07-14T05:16:27Z</time>
      </trkpt>
      <trkpt lat="46.34097" lon="5.49144">
        <ele>510.4</ele>
        <time>2022-07-14T05:16:29Z</time>
      </trkpt>
      <trkpt lat="46.34112" lon="5.49165">
        <ele>511</ele>
        <time>2022-07-14T05:16:33Z</time>
      </trkpt>
      <trkpt lat="46.3412" lon="5.49176">
        <ele>511.4</ele>
        <time>2022-07-14T05:16:35Z</time>
      </trkpt>
      <trkpt lat="46.34151" lon="5.49223">
        <ele>511.6</ele>
        <time>2022-07-14T05:16:43Z</time>
      </trkpt>
      <trkpt lat="46.3418" lon="5.4927">
        <ele>511.6</ele>
        <time>2022-07-14T05:16:51Z</time>
      </trkpt>
      <trkpt lat="46.34193" lon="5.49291">
        <ele>512</ele>
        <time>2022-07-14T05:16:54Z</time>
      </trkpt>
      <trkpt lat="46.34211" lon="5.49322">
        <ele>512.6</ele>
        <time>2022-07-14T05:17:00Z</time>
      </trkpt>
      <trkpt lat="46.34228" lon="5.49349">
        <ele>513.2</ele>
        <time>2022-07-14T05:17:05Z</time>
      </trkpt>
      <trkpt lat="46.3424" lon="5.49368">
        <ele>513.6</ele>
        <time>2022-07-14T05:17:09Z</time>
      </trkpt>
      <trkpt lat="46.34245" lon="5.49378">
        <ele>514.2</ele>
        <time>2022-07-14T05:17:11Z</time>
      </trkpt>
      <trkpt lat="46.34257" lon="5.49396">
        <ele>515</ele>
        <time>2022-07-14T05:17:15Z</time>
      </trkpt>
      <trkpt lat="46.34262" lon="5.49406">
        <ele>515.4</ele>
        <time>2022-07-14T05:17:17Z</time>
      </trkpt>
      <trkpt lat="46.34273" lon="5.49426">
        <ele>516.6</ele>
        <time>2022-07-14T05:17:21Z</time>
      </trkpt>
      <trkpt lat="46.34299" lon="5.49453">
        <ele>517.6</ele>
        <time>2022-07-14T05:17:28Z</time>
      </trkpt>
      <trkpt lat="46.34322" lon="5.49468">
        <ele>518.8</ele>
        <time>2022-07-14T05:17:33Z</time>
      </trkpt>
      <trkpt lat="46.3433" lon="5.49472">
        <ele>519.2</ele>
        <time>2022-07-14T05:17:35Z</time>
      </trkpt>
      <trkpt lat="46.3435" lon="5.49481">
        <ele>520</ele>
        <time>2022-07-14T05:17:39Z</time>
      </trkpt>
      <trkpt lat="46.34375" lon="5.49493">
        <ele>520.6</ele>
        <time>2022-07-14T05:17:44Z</time>
      </trkpt>
      <trkpt lat="46.34421" lon="5.49509">
        <ele>519.8</ele>
        <time>2022-07-14T05:17:51Z</time>
      </trkpt>
      <trkpt lat="46.34465" lon="5.49524">
        <ele>518.6</ele>
        <time>2022-07-14T05:17:57Z</time>
      </trkpt>
      <trkpt lat="46.34471" lon="5.49526">
        <ele>518.4</ele>
        <time>2022-07-14T05:17:58Z</time>
      </trkpt>
      <trkpt lat="46.34506" lon="5.49541">
        <ele>517.6</ele>
        <time>2022-07-14T05:18:03Z</time>
      </trkpt>
      <trkpt lat="46.34527" lon="5.4955">
        <ele>517.6</ele>
        <time>2022-07-14T05:18:06Z</time>
      </trkpt>
      <trkpt lat="46.34584" lon="5.49576">
        <ele>518</ele>
        <time>2022-07-14T05:18:15Z</time>
      </trkpt>
      <trkpt lat="46.34639" lon="5.49601">
        <ele>518.4</ele>
        <time>2022-07-14T05:18:24Z</time>
      </trkpt>
      <trkpt lat="46.34651" lon="5.49605">
        <ele>518.6</ele>
        <time>2022-07-14T05:18:26Z</time>
      </trkpt>
      <trkpt lat="46.34657" lon="5.49608">
        <ele>518.6</ele>
        <time>2022-07-14T05:18:27Z</time>
      </trkpt>
      <trkpt lat="46.34698" lon="5.49626">
        <ele>519</ele>
        <time>2022-07-14T05:18:34Z</time>
      </trkpt>
      <trkpt lat="46.34734" lon="5.49642">
        <ele>519.4</ele>
        <time>2022-07-14T05:18:40Z</time>
      </trkpt>
      <trkpt lat="46.34757" lon="5.49652">
        <ele>519.8</ele>
        <time>2022-07-14T05:18:44Z</time>
      </trkpt>
      <trkpt lat="46.34785" lon="5.49665">
        <ele>520.2</ele>
        <time>2022-07-14T05:18:49Z</time>
      </trkpt>
      <trkpt lat="46.34807" lon="5.49675">
        <ele>520.8</ele>
        <time>2022-07-14T05:18:53Z</time>
      </trkpt>
      <trkpt lat="46.34836" lon="5.49688">
        <ele>521.8</ele>
        <time>2022-07-14T05:18:59Z</time>
      </trkpt>
      <trkpt lat="46.34842" lon="5.49691">
        <ele>522</ele>
        <time>2022-07-14T05:19:00Z</time>
      </trkpt>
      <trkpt lat="46.34872" lon="5.4971">
        <ele>523</ele>
        <time>2022-07-14T05:19:06Z</time>
      </trkpt>
      <trkpt lat="46.34877" lon="5.49714">
        <ele>523.2</ele>
        <time>2022-07-14T05:19:07Z</time>
      </trkpt>
      <trkpt lat="46.34897" lon="5.49742">
        <ele>524.2</ele>
        <time>2022-07-14T05:19:13Z</time>
      </trkpt>
      <trkpt lat="46.34917" lon="5.49775">
        <ele>525.4</ele>
        <time>2022-07-14T05:19:19Z</time>
      </trkpt>
      <trkpt lat="46.34928" lon="5.49794">
        <ele>526.2</ele>
        <time>2022-07-14T05:19:23Z</time>
      </trkpt>
      <trkpt lat="46.3493" lon="5.49798">
        <ele>526.4</ele>
        <time>2022-07-14T05:19:24Z</time>
      </trkpt>
      <trkpt lat="46.34937" lon="5.49812">
        <ele>527.2</ele>
        <time>2022-07-14T05:19:27Z</time>
      </trkpt>
      <trkpt lat="46.34939" lon="5.49817">
        <ele>527.8</ele>
        <time>2022-07-14T05:19:28Z</time>
      </trkpt>
      <trkpt lat="46.34944" lon="5.49831">
        <ele>528.6</ele>
        <time>2022-07-14T05:19:31Z</time>
      </trkpt>
      <trkpt lat="46.34946" lon="5.49837">
        <ele>529</ele>
        <time>2022-07-14T05:19:32Z</time>
      </trkpt>
      <trkpt lat="46.34952" lon="5.49861">
        <ele>530.2</ele>
        <time>2022-07-14T05:19:36Z</time>
      </trkpt>
      <trkpt lat="46.34954" lon="5.49875">
        <ele>530.6</ele>
        <time>2022-07-14T05:19:38Z</time>
      </trkpt>
      <trkpt lat="46.34962" lon="5.4991">
        <ele>531.2</ele>
        <time>2022-07-14T05:19:43Z</time>
      </trkpt>
      <trkpt lat="46.34964" lon="5.49917">
        <ele>531.4</ele>
        <time>2022-07-14T05:19:44Z</time>
      </trkpt>
      <trkpt lat="46.34967" lon="5.49924">
        <ele>531.4</ele>
        <time>2022-07-14T05:19:45Z</time>
      </trkpt>
      <trkpt lat="46.34969" lon="5.4993">
        <ele>531.4</ele>
        <time>2022-07-14T05:19:46Z</time>
      </trkpt>
      <trkpt lat="46.34981" lon="5.49954">
        <ele>531.6</ele>
        <time>2022-07-14T05:19:50Z</time>
      </trkpt>
      <trkpt lat="46.34985" lon="5.4996">
        <ele>531.6</ele>
        <time>2022-07-14T05:19:51Z</time>
      </trkpt>
      <trkpt lat="46.35012" lon="5.50004">
        <ele>532.2</ele>
        <time>2022-07-14T05:19:59Z</time>
      </trkpt>
      <trkpt lat="46.35019" lon="5.50018">
        <ele>532.4</ele>
        <time>2022-07-14T05:20:01Z</time>
      </trkpt>
      <trkpt lat="46.35039" lon="5.50053">
        <ele>532.8</ele>
        <time>2022-07-14T05:20:07Z</time>
      </trkpt>
      <trkpt lat="46.35049" lon="5.50065">
        <ele>533</ele>
        <time>2022-07-14T05:20:09Z</time>
      </trkpt>
      <trkpt lat="46.35075" lon="5.50102">
        <ele>532.8</ele>
        <time>2022-07-14T05:20:15Z</time>
      </trkpt>
      <trkpt lat="46.35108" lon="5.50154">
        <ele>532.6</ele>
        <time>2022-07-14T05:20:23Z</time>
      </trkpt>
      <trkpt lat="46.35133" lon="5.50204">
        <ele>532.6</ele>
        <time>2022-07-14T05:20:30Z</time>
      </trkpt>
      <trkpt lat="46.35153" lon="5.50262">
        <ele>533.2</ele>
        <time>2022-07-14T05:20:38Z</time>
      </trkpt>
      <trkpt lat="46.35154" lon="5.5027">
        <ele>533.4</ele>
        <time>2022-07-14T05:20:39Z</time>
      </trkpt>
      <trkpt lat="46.35161" lon="5.50312">
        <ele>534.2</ele>
        <time>2022-07-14T05:20:45Z</time>
      </trkpt>
      <trkpt lat="46.35161" lon="5.50319">
        <ele>534.6</ele>
        <time>2022-07-14T05:20:46Z</time>
      </trkpt>
      <trkpt lat="46.35162" lon="5.50353">
        <ele>535.6</ele>
        <time>2022-07-14T05:20:51Z</time>
      </trkpt>
      <trkpt lat="46.35164" lon="5.50373">
        <ele>536.2</ele>
        <time>2022-07-14T05:20:54Z</time>
      </trkpt>
      <trkpt lat="46.35164" lon="5.5038">
        <ele>536.4</ele>
        <time>2022-07-14T05:20:55Z</time>
      </trkpt>
      <trkpt lat="46.35168" lon="5.50397">
        <ele>536.8</ele>
        <time>2022-07-14T05:20:57Z</time>
      </trkpt>
      <trkpt lat="46.35171" lon="5.50404">
        <ele>537.2</ele>
        <time>2022-07-14T05:20:59Z</time>
      </trkpt>
      <trkpt lat="46.3518" lon="5.50424">
        <ele>538</ele>
        <time>2022-07-14T05:21:02Z</time>
      </trkpt>
      <trkpt lat="46.35193" lon="5.50445">
        <ele>538.8</ele>
        <time>2022-07-14T05:21:06Z</time>
      </trkpt>
      <trkpt lat="46.35217" lon="5.50473">
        <ele>539.8</ele>
        <time>2022-07-14T05:21:12Z</time>
      </trkpt>
      <trkpt lat="46.35226" lon="5.50483">
        <ele>540.2</ele>
        <time>2022-07-14T05:21:14Z</time>
      </trkpt>
      <trkpt lat="46.35244" lon="5.50505">
        <ele>541</ele>
        <time>2022-07-14T05:21:19Z</time>
      </trkpt>
      <trkpt lat="46.35259" lon="5.50523">
        <ele>542.2</ele>
        <time>2022-07-14T05:21:23Z</time>
      </trkpt>
      <trkpt lat="46.35263" lon="5.50526">
        <ele>542.4</ele>
        <time>2022-07-14T05:21:24Z</time>
      </trkpt>
      <trkpt lat="46.3528" lon="5.50539">
        <ele>543</ele>
        <time>2022-07-14T05:21:28Z</time>
      </trkpt>
      <trkpt lat="46.35284" lon="5.50541">
        <ele>543.4</ele>
        <time>2022-07-14T05:21:29Z</time>
      </trkpt>
      <trkpt lat="46.35288" lon="5.50543">
        <ele>543.8</ele>
        <time>2022-07-14T05:21:30Z</time>
      </trkpt>
      <trkpt lat="46.35299" lon="5.50547">
        <ele>544.2</ele>
        <time>2022-07-14T05:21:32Z</time>
      </trkpt>
      <trkpt lat="46.35302" lon="5.50548">
        <ele>544.2</ele>
        <time>2022-07-14T05:21:33Z</time>
      </trkpt>
      <trkpt lat="46.35316" lon="5.50553">
        <ele>545</ele>
        <time>2022-07-14T05:21:36Z</time>
      </trkpt>
      <trkpt lat="46.35325" lon="5.50553">
        <ele>545.4</ele>
        <time>2022-07-14T05:21:38Z</time>
      </trkpt>
      <trkpt lat="46.35335" lon="5.50555">
        <ele>545.6</ele>
        <time>2022-07-14T05:21:40Z</time>
      </trkpt>
      <trkpt lat="46.35349" lon="5.50558">
        <ele>546.4</ele>
        <time>2022-07-14T05:21:43Z</time>
      </trkpt>
      <trkpt lat="46.35358" lon="5.50561">
        <ele>546.8</ele>
        <time>2022-07-14T05:21:45Z</time>
      </trkpt>
      <trkpt lat="46.35363" lon="5.50563">
        <ele>547.2</ele>
        <time>2022-07-14T05:21:46Z</time>
      </trkpt>
      <trkpt lat="46.35372" lon="5.50566">
        <ele>547.4</ele>
        <time>2022-07-14T05:21:48Z</time>
      </trkpt>
      <trkpt lat="46.35401" lon="5.50573">
        <ele>548</ele>
        <time>2022-07-14T05:21:54Z</time>
      </trkpt>
      <trkpt lat="46.35425" lon="5.5057">
        <ele>548</ele>
        <time>2022-07-14T05:21:57Z</time>
      </trkpt>
      <trkpt lat="46.35432" lon="5.50568">
        <ele>548</ele>
        <time>2022-07-14T05:21:58Z</time>
      </trkpt>
      <trkpt lat="46.35471" lon="5.50556">
        <ele>545.8</ele>
        <time>2022-07-14T05:22:04Z</time>
      </trkpt>
      <trkpt lat="46.35478" lon="5.50556">
        <ele>545.4</ele>
        <time>2022-07-14T05:22:05Z</time>
      </trkpt>
      <trkpt lat="46.35499" lon="5.50559">
        <ele>544.4</ele>
        <time>2022-07-14T05:22:07Z</time>
      </trkpt>
      <trkpt lat="46.35518" lon="5.50566">
        <ele>543.4</ele>
        <time>2022-07-14T05:22:09Z</time>
      </trkpt>
      <trkpt lat="46.35527" lon="5.50571">
        <ele>543.2</ele>
        <time>2022-07-14T05:22:10Z</time>
      </trkpt>
      <trkpt lat="46.3554" lon="5.50576">
        <ele>541.6</ele>
        <time>2022-07-14T05:22:11Z</time>
      </trkpt>
      <trkpt lat="46.35563" lon="5.50584">
        <ele>540</ele>
        <time>2022-07-14T05:22:13Z</time>
      </trkpt>
      <trkpt lat="46.35572" lon="5.50587">
        <ele>538.8</ele>
        <time>2022-07-14T05:22:14Z</time>
      </trkpt>
      <trkpt lat="46.35598" lon="5.50593">
        <ele>537.2</ele>
        <time>2022-07-14T05:22:16Z</time>
      </trkpt>
      <trkpt lat="46.3562" lon="5.50602">
        <ele>536</ele>
        <time>2022-07-14T05:22:18Z</time>
      </trkpt>
      <trkpt lat="46.35643" lon="5.5061">
        <ele>534.6</ele>
        <time>2022-07-14T05:22:20Z</time>
      </trkpt>
      <trkpt lat="46.35665" lon="5.50616">
        <ele>533.2</ele>
        <time>2022-07-14T05:22:22Z</time>
      </trkpt>
      <trkpt lat="46.35677" lon="5.5062">
        <ele>532.2</ele>
        <time>2022-07-14T05:22:23Z</time>
      </trkpt>
      <trkpt lat="46.357" lon="5.50631">
        <ele>531</ele>
        <time>2022-07-14T05:22:25Z</time>
      </trkpt>
      <trkpt lat="46.35718" lon="5.50635">
        <ele>530</ele>
        <time>2022-07-14T05:22:27Z</time>
      </trkpt>
      <trkpt lat="46.35737" lon="5.50636">
        <ele>528.6</ele>
        <time>2022-07-14T05:22:29Z</time>
      </trkpt>
      <trkpt lat="46.35759" lon="5.50635">
        <ele>527.4</ele>
        <time>2022-07-14T05:22:31Z</time>
      </trkpt>
      <trkpt lat="46.3577" lon="5.50634">
        <ele>526.8</ele>
        <time>2022-07-14T05:22:32Z</time>
      </trkpt>
      <trkpt lat="46.35778" lon="5.50633">
        <ele>526.6</ele>
        <time>2022-07-14T05:22:33Z</time>
      </trkpt>
      <trkpt lat="46.35782" lon="5.50632">
        <ele>526</ele>
        <time>2022-07-14T05:22:34Z</time>
      </trkpt>
      <trkpt lat="46.35789" lon="5.50631">
        <ele>525.8</ele>
        <time>2022-07-14T05:22:35Z</time>
      </trkpt>
      <trkpt lat="46.35808" lon="5.5063">
        <ele>525</ele>
        <time>2022-07-14T05:22:38Z</time>
      </trkpt>
      <trkpt lat="46.35825" lon="5.50627">
        <ele>523.8</ele>
        <time>2022-07-14T05:22:40Z</time>
      </trkpt>
      <trkpt lat="46.35841" lon="5.50624">
        <ele>522.8</ele>
        <time>2022-07-14T05:22:42Z</time>
      </trkpt>
      <trkpt lat="46.35852" lon="5.50624">
        <ele>521.8</ele>
        <time>2022-07-14T05:22:43Z</time>
      </trkpt>
      <trkpt lat="46.35862" lon="5.50624">
        <ele>521.2</ele>
        <time>2022-07-14T05:22:44Z</time>
      </trkpt>
      <trkpt lat="46.35883" lon="5.50623">
        <ele>520</ele>
        <time>2022-07-14T05:22:46Z</time>
      </trkpt>
      <trkpt lat="46.35905" lon="5.50623">
        <ele>518</ele>
        <time>2022-07-14T05:22:48Z</time>
      </trkpt>
      <trkpt lat="46.35926" lon="5.50624">
        <ele>517</ele>
        <time>2022-07-14T05:22:50Z</time>
      </trkpt>
      <trkpt lat="46.35958" lon="5.50625">
        <ele>515.8</ele>
        <time>2022-07-14T05:22:53Z</time>
      </trkpt>
      <trkpt lat="46.35969" lon="5.50624">
        <ele>515.2</ele>
        <time>2022-07-14T05:22:54Z</time>
      </trkpt>
      <trkpt lat="46.35981" lon="5.50624">
        <ele>514.2</ele>
        <time>2022-07-14T05:22:55Z</time>
      </trkpt>
      <trkpt lat="46.36005" lon="5.50626">
        <ele>512</ele>
        <time>2022-07-14T05:22:57Z</time>
      </trkpt>
      <trkpt lat="46.3603" lon="5.50631">
        <ele>509.8</ele>
        <time>2022-07-14T05:22:59Z</time>
      </trkpt>
      <trkpt lat="46.36042" lon="5.50633">
        <ele>508.2</ele>
        <time>2022-07-14T05:23:00Z</time>
      </trkpt>
      <trkpt lat="46.36068" lon="5.50638">
        <ele>507.2</ele>
        <time>2022-07-14T05:23:02Z</time>
      </trkpt>
      <trkpt lat="46.36092" lon="5.50644">
        <ele>505.4</ele>
        <time>2022-07-14T05:23:04Z</time>
      </trkpt>
      <trkpt lat="46.36119" lon="5.50651">
        <ele>503.4</ele>
        <time>2022-07-14T05:23:06Z</time>
      </trkpt>
      <trkpt lat="46.36132" lon="5.50655">
        <ele>502.2</ele>
        <time>2022-07-14T05:23:07Z</time>
      </trkpt>
      <trkpt lat="46.36159" lon="5.50662">
        <ele>500.4</ele>
        <time>2022-07-14T05:23:09Z</time>
      </trkpt>
      <trkpt lat="46.36171" lon="5.50663">
        <ele>500</ele>
        <time>2022-07-14T05:23:10Z</time>
      </trkpt>
      <trkpt lat="46.36184" lon="5.50666">
        <ele>498.4</ele>
        <time>2022-07-14T05:23:11Z</time>
      </trkpt>
      <trkpt lat="46.36211" lon="5.50676">
        <ele>496.8</ele>
        <time>2022-07-14T05:23:13Z</time>
      </trkpt>
      <trkpt lat="46.36249" lon="5.50697">
        <ele>494.8</ele>
        <time>2022-07-14T05:23:16Z</time>
      </trkpt>
      <trkpt lat="46.36273" lon="5.50708">
        <ele>492.6</ele>
        <time>2022-07-14T05:23:18Z</time>
      </trkpt>
      <trkpt lat="46.36297" lon="5.50716">
        <ele>490.8</ele>
        <time>2022-07-14T05:23:20Z</time>
      </trkpt>
      <trkpt lat="46.36309" lon="5.50722">
        <ele>489.6</ele>
        <time>2022-07-14T05:23:21Z</time>
      </trkpt>
      <trkpt lat="46.36321" lon="5.50728">
        <ele>489.2</ele>
        <time>2022-07-14T05:23:22Z</time>
      </trkpt>
      <trkpt lat="46.36334" lon="5.50734">
        <ele>487.8</ele>
        <time>2022-07-14T05:23:23Z</time>
      </trkpt>
      <trkpt lat="46.36357" lon="5.50745">
        <ele>486.6</ele>
        <time>2022-07-14T05:23:25Z</time>
      </trkpt>
      <trkpt lat="46.36382" lon="5.50756">
        <ele>484.4</ele>
        <time>2022-07-14T05:23:27Z</time>
      </trkpt>
      <trkpt lat="46.36394" lon="5.50761">
        <ele>483.4</ele>
        <time>2022-07-14T05:23:28Z</time>
      </trkpt>
      <trkpt lat="46.36407" lon="5.50765">
        <ele>483</ele>
        <time>2022-07-14T05:23:29Z</time>
      </trkpt>
      <trkpt lat="46.3642" lon="5.50771">
        <ele>481.4</ele>
        <time>2022-07-14T05:23:30Z</time>
      </trkpt>
      <trkpt lat="46.36446" lon="5.50779">
        <ele>479.4</ele>
        <time>2022-07-14T05:23:32Z</time>
      </trkpt>
      <trkpt lat="46.36472" lon="5.50789">
        <ele>478</ele>
        <time>2022-07-14T05:23:34Z</time>
      </trkpt>
      <trkpt lat="46.36498" lon="5.50801">
        <ele>476.4</ele>
        <time>2022-07-14T05:23:36Z</time>
      </trkpt>
      <trkpt lat="46.3651" lon="5.50809">
        <ele>475.8</ele>
        <time>2022-07-14T05:23:37Z</time>
      </trkpt>
      <trkpt lat="46.36522" lon="5.50817">
        <ele>475.4</ele>
        <time>2022-07-14T05:23:38Z</time>
      </trkpt>
      <trkpt lat="46.36535" lon="5.50825">
        <ele>474.6</ele>
        <time>2022-07-14T05:23:39Z</time>
      </trkpt>
      <trkpt lat="46.36559" lon="5.50843">
        <ele>472.4</ele>
        <time>2022-07-14T05:23:41Z</time>
      </trkpt>
      <trkpt lat="46.36571" lon="5.50849">
        <ele>472.2</ele>
        <time>2022-07-14T05:23:42Z</time>
      </trkpt>
      <trkpt lat="46.36582" lon="5.50855">
        <ele>471.2</ele>
        <time>2022-07-14T05:23:43Z</time>
      </trkpt>
      <trkpt lat="46.36595" lon="5.50858">
        <ele>470.4</ele>
        <time>2022-07-14T05:23:44Z</time>
      </trkpt>
      <trkpt lat="46.36607" lon="5.50862">
        <ele>469.8</ele>
        <time>2022-07-14T05:23:45Z</time>
      </trkpt>
      <trkpt lat="46.3662" lon="5.50865">
        <ele>468.2</ele>
        <time>2022-07-14T05:23:46Z</time>
      </trkpt>
      <trkpt lat="46.36646" lon="5.50877">
        <ele>465.8</ele>
        <time>2022-07-14T05:23:48Z</time>
      </trkpt>
      <trkpt lat="46.36656" lon="5.50892">
        <ele>465</ele>
        <time>2022-07-14T05:23:49Z</time>
      </trkpt>
      <trkpt lat="46.36666" lon="5.50904">
        <ele>463.8</ele>
        <time>2022-07-14T05:23:50Z</time>
      </trkpt>
      <trkpt lat="46.36677" lon="5.50913">
        <ele>463.4</ele>
        <time>2022-07-14T05:23:51Z</time>
      </trkpt>
      <trkpt lat="46.36688" lon="5.50922">
        <ele>462.8</ele>
        <time>2022-07-14T05:23:52Z</time>
      </trkpt>
      <trkpt lat="46.36712" lon="5.50937">
        <ele>461.4</ele>
        <time>2022-07-14T05:23:54Z</time>
      </trkpt>
      <trkpt lat="46.36725" lon="5.50946">
        <ele>460</ele>
        <time>2022-07-14T05:23:55Z</time>
      </trkpt>
      <trkpt lat="46.36751" lon="5.50957">
        <ele>458.4</ele>
        <time>2022-07-14T05:23:57Z</time>
      </trkpt>
      <trkpt lat="46.36763" lon="5.50962">
        <ele>457.8</ele>
        <time>2022-07-14T05:23:58Z</time>
      </trkpt>
      <trkpt lat="46.36774" lon="5.50964">
        <ele>456.6</ele>
        <time>2022-07-14T05:23:59Z</time>
      </trkpt>
      <trkpt lat="46.36786" lon="5.50966">
        <ele>455.6</ele>
        <time>2022-07-14T05:24:00Z</time>
      </trkpt>
      <trkpt lat="46.36798" lon="5.5097">
        <ele>454.8</ele>
        <time>2022-07-14T05:24:01Z</time>
      </trkpt>
      <trkpt lat="46.36809" lon="5.50979">
        <ele>453.6</ele>
        <time>2022-07-14T05:24:02Z</time>
      </trkpt>
      <trkpt lat="46.36819" lon="5.5099">
        <ele>453.2</ele>
        <time>2022-07-14T05:24:03Z</time>
      </trkpt>
      <trkpt lat="46.36828" lon="5.50999">
        <ele>452.4</ele>
        <time>2022-07-14T05:24:04Z</time>
      </trkpt>
      <trkpt lat="46.36835" lon="5.51006">
        <ele>452</ele>
        <time>2022-07-14T05:24:05Z</time>
      </trkpt>
      <trkpt lat="46.36845" lon="5.51014">
        <ele>451.2</ele>
        <time>2022-07-14T05:24:06Z</time>
      </trkpt>
      <trkpt lat="46.36878" lon="5.51038">
        <ele>448.8</ele>
        <time>2022-07-14T05:24:09Z</time>
      </trkpt>
      <trkpt lat="46.36889" lon="5.51044">
        <ele>448.2</ele>
        <time>2022-07-14T05:24:10Z</time>
      </trkpt>
      <trkpt lat="46.369" lon="5.51049">
        <ele>447.2</ele>
        <time>2022-07-14T05:24:11Z</time>
      </trkpt>
      <trkpt lat="46.3691" lon="5.51051">
        <ele>447</ele>
        <time>2022-07-14T05:24:12Z</time>
      </trkpt>
      <trkpt lat="46.3692" lon="5.5105">
        <ele>445.4</ele>
        <time>2022-07-14T05:24:13Z</time>
      </trkpt>
      <trkpt lat="46.36929" lon="5.51047">
        <ele>444</ele>
        <time>2022-07-14T05:24:14Z</time>
      </trkpt>
      <trkpt lat="46.36942" lon="5.51039">
        <ele>443.8</ele>
        <time>2022-07-14T05:24:15Z</time>
      </trkpt>
      <trkpt lat="46.36948" lon="5.51031">
        <ele>442.6</ele>
        <time>2022-07-14T05:24:16Z</time>
      </trkpt>
      <trkpt lat="46.36959" lon="5.51021">
        <ele>442.2</ele>
        <time>2022-07-14T05:24:17Z</time>
      </trkpt>
      <trkpt lat="46.36968" lon="5.51014">
        <ele>441.2</ele>
        <time>2022-07-14T05:24:18Z</time>
      </trkpt>
      <trkpt lat="46.36988" lon="5.51003">
        <ele>440.4</ele>
        <time>2022-07-14T05:24:20Z</time>
      </trkpt>
      <trkpt lat="46.36998" lon="5.50998">
        <ele>438.8</ele>
        <time>2022-07-14T05:24:21Z</time>
      </trkpt>
      <trkpt lat="46.3701" lon="5.50996">
        <ele>438.2</ele>
        <time>2022-07-14T05:24:22Z</time>
      </trkpt>
      <trkpt lat="46.37023" lon="5.50996">
        <ele>437</ele>
        <time>2022-07-14T05:24:23Z</time>
      </trkpt>
      <trkpt lat="46.37039" lon="5.51">
        <ele>436.6</ele>
        <time>2022-07-14T05:24:24Z</time>
      </trkpt>
      <trkpt lat="46.37052" lon="5.51005">
        <ele>435.8</ele>
        <time>2022-07-14T05:24:25Z</time>
      </trkpt>
      <trkpt lat="46.37063" lon="5.51015">
        <ele>435.4</ele>
        <time>2022-07-14T05:24:26Z</time>
      </trkpt>
      <trkpt lat="46.37073" lon="5.51027">
        <ele>434.6</ele>
        <time>2022-07-14T05:24:27Z</time>
      </trkpt>
      <trkpt lat="46.37083" lon="5.51042">
        <ele>434.2</ele>
        <time>2022-07-14T05:24:28Z</time>
      </trkpt>
      <trkpt lat="46.37089" lon="5.51054">
        <ele>433.4</ele>
        <time>2022-07-14T05:24:29Z</time>
      </trkpt>
      <trkpt lat="46.37098" lon="5.51071">
        <ele>432</ele>
        <time>2022-07-14T05:24:30Z</time>
      </trkpt>
      <trkpt lat="46.37112" lon="5.51102">
        <ele>430.6</ele>
        <time>2022-07-14T05:24:32Z</time>
      </trkpt>
      <trkpt lat="46.37125" lon="5.51132">
        <ele>428.4</ele>
        <time>2022-07-14T05:24:34Z</time>
      </trkpt>
      <trkpt lat="46.37133" lon="5.51149">
        <ele>428</ele>
        <time>2022-07-14T05:24:35Z</time>
      </trkpt>
      <trkpt lat="46.37138" lon="5.51167">
        <ele>427</ele>
        <time>2022-07-14T05:24:36Z</time>
      </trkpt>
      <trkpt lat="46.3714" lon="5.51186">
        <ele>426.2</ele>
        <time>2022-07-14T05:24:37Z</time>
      </trkpt>
      <trkpt lat="46.37141" lon="5.51204">
        <ele>425.8</ele>
        <time>2022-07-14T05:24:38Z</time>
      </trkpt>
      <trkpt lat="46.37143" lon="5.51219">
        <ele>424.8</ele>
        <time>2022-07-14T05:24:39Z</time>
      </trkpt>
      <trkpt lat="46.37146" lon="5.51236">
        <ele>424.6</ele>
        <time>2022-07-14T05:24:40Z</time>
      </trkpt>
      <trkpt lat="46.3715" lon="5.51256">
        <ele>423.8</ele>
        <time>2022-07-14T05:24:41Z</time>
      </trkpt>
      <trkpt lat="46.37154" lon="5.51269">
        <ele>423.4</ele>
        <time>2022-07-14T05:24:42Z</time>
      </trkpt>
      <trkpt lat="46.37158" lon="5.51288">
        <ele>422.2</ele>
        <time>2022-07-14T05:24:43Z</time>
      </trkpt>
      <trkpt lat="46.37159" lon="5.51303">
        <ele>420.8</ele>
        <time>2022-07-14T05:24:44Z</time>
      </trkpt>
      <trkpt lat="46.37159" lon="5.51315">
        <ele>420.4</ele>
        <time>2022-07-14T05:24:45Z</time>
      </trkpt>
      <trkpt lat="46.37159" lon="5.51329">
        <ele>419.2</ele>
        <time>2022-07-14T05:24:46Z</time>
      </trkpt>
      <trkpt lat="46.3716" lon="5.51341">
        <ele>418.8</ele>
        <time>2022-07-14T05:24:47Z</time>
      </trkpt>
      <trkpt lat="46.37164" lon="5.51351">
        <ele>418.2</ele>
        <time>2022-07-14T05:24:48Z</time>
      </trkpt>
      <trkpt lat="46.37172" lon="5.51357">
        <ele>417.8</ele>
        <time>2022-07-14T05:24:49Z</time>
      </trkpt>
      <trkpt lat="46.3718" lon="5.51361">
        <ele>417</ele>
        <time>2022-07-14T05:24:50Z</time>
      </trkpt>
      <trkpt lat="46.37187" lon="5.51359">
        <ele>416</ele>
        <time>2022-07-14T05:24:51Z</time>
      </trkpt>
      <trkpt lat="46.37198" lon="5.51357">
        <ele>415.6</ele>
        <time>2022-07-14T05:24:52Z</time>
      </trkpt>
      <trkpt lat="46.3721" lon="5.51357">
        <ele>414.8</ele>
        <time>2022-07-14T05:24:53Z</time>
      </trkpt>
      <trkpt lat="46.37222" lon="5.51363">
        <ele>414.4</ele>
        <time>2022-07-14T05:24:54Z</time>
      </trkpt>
      <trkpt lat="46.3723" lon="5.51368">
        <ele>413.6</ele>
        <time>2022-07-14T05:24:55Z</time>
      </trkpt>
      <trkpt lat="46.3725" lon="5.5138">
        <ele>411.8</ele>
        <time>2022-07-14T05:24:57Z</time>
      </trkpt>
      <trkpt lat="46.37258" lon="5.51386">
        <ele>411.4</ele>
        <time>2022-07-14T05:24:58Z</time>
      </trkpt>
      <trkpt lat="46.37265" lon="5.51394">
        <ele>410.8</ele>
        <time>2022-07-14T05:24:59Z</time>
      </trkpt>
      <trkpt lat="46.37272" lon="5.51404">
        <ele>410.2</ele>
        <time>2022-07-14T05:25:00Z</time>
      </trkpt>
      <trkpt lat="46.37285" lon="5.51426">
        <ele>408.6</ele>
        <time>2022-07-14T05:25:02Z</time>
      </trkpt>
      <trkpt lat="46.37279" lon="5.5144">
        <ele>408</ele>
        <time>2022-07-14T05:25:03Z</time>
      </trkpt>
      <trkpt lat="46.37275" lon="5.51452">
        <ele>407.2</ele>
        <time>2022-07-14T05:25:04Z</time>
      </trkpt>
      <trkpt lat="46.37272" lon="5.51465">
        <ele>407</ele>
        <time>2022-07-14T05:25:05Z</time>
      </trkpt>
      <trkpt lat="46.37258" lon="5.51488">
        <ele>405.8</ele>
        <time>2022-07-14T05:25:07Z</time>
      </trkpt>
      <trkpt lat="46.3725" lon="5.51499">
        <ele>405.4</ele>
        <time>2022-07-14T05:25:08Z</time>
      </trkpt>
      <trkpt lat="46.37232" lon="5.51523">
        <ele>404.6</ele>
        <time>2022-07-14T05:25:10Z</time>
      </trkpt>
      <trkpt lat="46.37225" lon="5.51536">
        <ele>403.4</ele>
        <time>2022-07-14T05:25:11Z</time>
      </trkpt>
      <trkpt lat="46.37218" lon="5.51551">
        <ele>402.6</ele>
        <time>2022-07-14T05:25:12Z</time>
      </trkpt>
      <trkpt lat="46.37212" lon="5.51566">
        <ele>401.6</ele>
        <time>2022-07-14T05:25:13Z</time>
      </trkpt>
      <trkpt lat="46.37207" lon="5.51577">
        <ele>400.4</ele>
        <time>2022-07-14T05:25:14Z</time>
      </trkpt>
      <trkpt lat="46.37199" lon="5.51594">
        <ele>399.8</ele>
        <time>2022-07-14T05:25:15Z</time>
      </trkpt>
      <trkpt lat="46.3719" lon="5.51605">
        <ele>398.8</ele>
        <time>2022-07-14T05:25:16Z</time>
      </trkpt>
      <trkpt lat="46.37169" lon="5.51623">
        <ele>397.4</ele>
        <time>2022-07-14T05:25:18Z</time>
      </trkpt>
      <trkpt lat="46.3716" lon="5.51634">
        <ele>397</ele>
        <time>2022-07-14T05:25:19Z</time>
      </trkpt>
      <trkpt lat="46.37152" lon="5.51647">
        <ele>395.8</ele>
        <time>2022-07-14T05:25:20Z</time>
      </trkpt>
      <trkpt lat="46.37146" lon="5.51662">
        <ele>395</ele>
        <time>2022-07-14T05:25:21Z</time>
      </trkpt>
      <trkpt lat="46.37142" lon="5.51678">
        <ele>394.2</ele>
        <time>2022-07-14T05:25:22Z</time>
      </trkpt>
      <trkpt lat="46.37133" lon="5.51723">
        <ele>392.8</ele>
        <time>2022-07-14T05:25:24Z</time>
      </trkpt>
      <trkpt lat="46.37133" lon="5.51723">
        <ele>391.8</ele>
        <time>2022-07-14T05:25:25Z</time>
      </trkpt>
      <trkpt lat="46.37128" lon="5.51739">
        <ele>391.2</ele>
        <time>2022-07-14T05:25:26Z</time>
      </trkpt>
      <trkpt lat="46.37121" lon="5.51756">
        <ele>390.2</ele>
        <time>2022-07-14T05:25:27Z</time>
      </trkpt>
      <trkpt lat="46.3711" lon="5.51767">
        <ele>389.4</ele>
        <time>2022-07-14T05:25:28Z</time>
      </trkpt>
      <trkpt lat="46.371" lon="5.51773">
        <ele>388.2</ele>
        <time>2022-07-14T05:25:29Z</time>
      </trkpt>
      <trkpt lat="46.3709" lon="5.51775">
        <ele>387.2</ele>
        <time>2022-07-14T05:25:30Z</time>
      </trkpt>
      <trkpt lat="46.3708" lon="5.51772">
        <ele>386.8</ele>
        <time>2022-07-14T05:25:31Z</time>
      </trkpt>
      <trkpt lat="46.37072" lon="5.5177">
        <ele>386.2</ele>
        <time>2022-07-14T05:25:32Z</time>
      </trkpt>
      <trkpt lat="46.37065" lon="5.51768">
        <ele>385.8</ele>
        <time>2022-07-14T05:25:33Z</time>
      </trkpt>
      <trkpt lat="46.37057" lon="5.51771">
        <ele>384.2</ele>
        <time>2022-07-14T05:25:34Z</time>
      </trkpt>
      <trkpt lat="46.37052" lon="5.51778">
        <ele>383.6</ele>
        <time>2022-07-14T05:25:35Z</time>
      </trkpt>
      <trkpt lat="46.37047" lon="5.51789">
        <ele>382.8</ele>
        <time>2022-07-14T05:25:36Z</time>
      </trkpt>
      <trkpt lat="46.37045" lon="5.51801">
        <ele>381.8</ele>
        <time>2022-07-14T05:25:37Z</time>
      </trkpt>
      <trkpt lat="46.37044" lon="5.51815">
        <ele>381.4</ele>
        <time>2022-07-14T05:25:38Z</time>
      </trkpt>
      <trkpt lat="46.3704" lon="5.51843">
        <ele>380.4</ele>
        <time>2022-07-14T05:25:40Z</time>
      </trkpt>
      <trkpt lat="46.37036" lon="5.51857">
        <ele>379.8</ele>
        <time>2022-07-14T05:25:41Z</time>
      </trkpt>
      <trkpt lat="46.37031" lon="5.51871">
        <ele>379.4</ele>
        <time>2022-07-14T05:25:42Z</time>
      </trkpt>
      <trkpt lat="46.37027" lon="5.51883">
        <ele>377.8</ele>
        <time>2022-07-14T05:25:43Z</time>
      </trkpt>
      <trkpt lat="46.37017" lon="5.51913">
        <ele>376.2</ele>
        <time>2022-07-14T05:25:45Z</time>
      </trkpt>
      <trkpt lat="46.37012" lon="5.51923">
        <ele>375</ele>
        <time>2022-07-14T05:25:46Z</time>
      </trkpt>
      <trkpt lat="46.36998" lon="5.51943">
        <ele>373.4</ele>
        <time>2022-07-14T05:25:48Z</time>
      </trkpt>
      <trkpt lat="46.3699" lon="5.51948">
        <ele>373</ele>
        <time>2022-07-14T05:25:49Z</time>
      </trkpt>
      <trkpt lat="46.36983" lon="5.5195">
        <ele>371.8</ele>
        <time>2022-07-14T05:25:50Z</time>
      </trkpt>
      <trkpt lat="46.36967" lon="5.51957">
        <ele>370.4</ele>
        <time>2022-07-14T05:25:52Z</time>
      </trkpt>
      <trkpt lat="46.36953" lon="5.51971">
        <ele>368.8</ele>
        <time>2022-07-14T05:25:54Z</time>
      </trkpt>
      <trkpt lat="46.36948" lon="5.5198">
        <ele>367.4</ele>
        <time>2022-07-14T05:25:55Z</time>
      </trkpt>
      <trkpt lat="46.36943" lon="5.5199">
        <ele>366.8</ele>
        <time>2022-07-14T05:25:56Z</time>
      </trkpt>
      <trkpt lat="46.36938" lon="5.52002">
        <ele>365.8</ele>
        <time>2022-07-14T05:25:57Z</time>
      </trkpt>
      <trkpt lat="46.36931" lon="5.52022">
        <ele>365</ele>
        <time>2022-07-14T05:25:59Z</time>
      </trkpt>
      <trkpt lat="46.36928" lon="5.52034">
        <ele>364.6</ele>
        <time>2022-07-14T05:26:00Z</time>
      </trkpt>
      <trkpt lat="46.36913" lon="5.52091">
        <ele>363.8</ele>
        <time>2022-07-14T05:26:05Z</time>
      </trkpt>
      <trkpt lat="46.36911" lon="5.52102">
        <ele>363.2</ele>
        <time>2022-07-14T05:26:06Z</time>
      </trkpt>
      <trkpt lat="46.36906" lon="5.52138">
        <ele>362.4</ele>
        <time>2022-07-14T05:26:09Z</time>
      </trkpt>
      <trkpt lat="46.36906" lon="5.52164">
        <ele>362.2</ele>
        <time>2022-07-14T05:26:11Z</time>
      </trkpt>
      <trkpt lat="46.36905" lon="5.52217">
        <ele>360.8</ele>
        <time>2022-07-14T05:26:15Z</time>
      </trkpt>
      <trkpt lat="46.36904" lon="5.52233">
        <ele>360.2</ele>
        <time>2022-07-14T05:26:16Z</time>
      </trkpt>
      <trkpt lat="46.36903" lon="5.52258">
        <ele>359.2</ele>
        <time>2022-07-14T05:26:18Z</time>
      </trkpt>
      <trkpt lat="46.36902" lon="5.52316">
        <ele>358</ele>
        <time>2022-07-14T05:26:22Z</time>
      </trkpt>
      <trkpt lat="46.36902" lon="5.52326">
        <ele>357.6</ele>
        <time>2022-07-14T05:26:23Z</time>
      </trkpt>
      <trkpt lat="46.36901" lon="5.52354">
        <ele>356.8</ele>
        <time>2022-07-14T05:26:25Z</time>
      </trkpt>
      <trkpt lat="46.36896" lon="5.52384">
        <ele>356.6</ele>
        <time>2022-07-14T05:26:27Z</time>
      </trkpt>
      <trkpt lat="46.36894" lon="5.52396">
        <ele>356.4</ele>
        <time>2022-07-14T05:26:28Z</time>
      </trkpt>
      <trkpt lat="46.36887" lon="5.52433">
        <ele>356.4</ele>
        <time>2022-07-14T05:26:32Z</time>
      </trkpt>
      <trkpt lat="46.36886" lon="5.52445">
        <ele>356.6</ele>
        <time>2022-07-14T05:26:33Z</time>
      </trkpt>
      <trkpt lat="46.36887" lon="5.52456">
        <ele>356.6</ele>
        <time>2022-07-14T05:26:34Z</time>
      </trkpt>
      <trkpt lat="46.3689" lon="5.52485">
        <ele>357</ele>
        <time>2022-07-14T05:26:37Z</time>
      </trkpt>
      <trkpt lat="46.36891" lon="5.52495">
        <ele>357</ele>
        <time>2022-07-14T05:26:38Z</time>
      </trkpt>
      <trkpt lat="46.36902" lon="5.5253">
        <ele>357</ele>
        <time>2022-07-14T05:26:41Z</time>
      </trkpt>
      <trkpt lat="46.3691" lon="5.52549">
        <ele>357</ele>
        <time>2022-07-14T05:26:43Z</time>
      </trkpt>
      <trkpt lat="46.36929" lon="5.52591">
        <ele>356.8</ele>
        <time>2022-07-14T05:26:47Z</time>
      </trkpt>
      <trkpt lat="46.36954" lon="5.5265">
        <ele>355.6</ele>
        <time>2022-07-14T05:26:53Z</time>
      </trkpt>
      <trkpt lat="46.36961" lon="5.5267">
        <ele>355.6</ele>
        <time>2022-07-14T05:26:55Z</time>
      </trkpt>
      <trkpt lat="46.36981" lon="5.52719">
        <ele>355.6</ele>
        <time>2022-07-14T05:27:00Z</time>
      </trkpt>
      <trkpt lat="46.37002" lon="5.5276">
        <ele>356</ele>
        <time>2022-07-14T05:27:05Z</time>
      </trkpt>
      <trkpt lat="46.37011" lon="5.52783">
        <ele>356.6</ele>
        <time>2022-07-14T05:27:08Z</time>
      </trkpt>
      <trkpt lat="46.37017" lon="5.52802">
        <ele>356.8</ele>
        <time>2022-07-14T05:27:10Z</time>
      </trkpt>
      <trkpt lat="46.37021" lon="5.52824">
        <ele>357</ele>
        <time>2022-07-14T05:27:12Z</time>
      </trkpt>
      <trkpt lat="46.37023" lon="5.52848">
        <ele>357.2</ele>
        <time>2022-07-14T05:27:14Z</time>
      </trkpt>
      <trkpt lat="46.37024" lon="5.52899">
        <ele>355.4</ele>
        <time>2022-07-14T05:27:18Z</time>
      </trkpt>
      <trkpt lat="46.3702" lon="5.52926">
        <ele>354.4</ele>
        <time>2022-07-14T05:27:20Z</time>
      </trkpt>
      <trkpt lat="46.37015" lon="5.52939">
        <ele>354.2</ele>
        <time>2022-07-14T05:27:21Z</time>
      </trkpt>
      <trkpt lat="46.37009" lon="5.52951">
        <ele>353.2</ele>
        <time>2022-07-14T05:27:22Z</time>
      </trkpt>
      <trkpt lat="46.37002" lon="5.52962">
        <ele>351.6</ele>
        <time>2022-07-14T05:27:23Z</time>
      </trkpt>
      <trkpt lat="46.36989" lon="5.52985">
        <ele>350.2</ele>
        <time>2022-07-14T05:27:25Z</time>
      </trkpt>
      <trkpt lat="46.36983" lon="5.52998">
        <ele>349.8</ele>
        <time>2022-07-14T05:27:26Z</time>
      </trkpt>
      <trkpt lat="46.36976" lon="5.53021">
        <ele>348.6</ele>
        <time>2022-07-14T05:27:27Z</time>
      </trkpt>
      <trkpt lat="46.36973" lon="5.53037">
        <ele>348.2</ele>
        <time>2022-07-14T05:27:28Z</time>
      </trkpt>
      <trkpt lat="46.36973" lon="5.53037">
        <ele>347.2</ele>
        <time>2022-07-14T05:27:29Z</time>
      </trkpt>
      <trkpt lat="46.36974" lon="5.53063">
        <ele>346.6</ele>
        <time>2022-07-14T05:27:30Z</time>
      </trkpt>
      <trkpt lat="46.36979" lon="5.5309">
        <ele>345.2</ele>
        <time>2022-07-14T05:27:32Z</time>
      </trkpt>
      <trkpt lat="46.36987" lon="5.53119">
        <ele>343.6</ele>
        <time>2022-07-14T05:27:34Z</time>
      </trkpt>
      <trkpt lat="46.36994" lon="5.53147">
        <ele>342.6</ele>
        <time>2022-07-14T05:27:36Z</time>
      </trkpt>
      <trkpt lat="46.37002" lon="5.53175">
        <ele>342</ele>
        <time>2022-07-14T05:27:38Z</time>
      </trkpt>
      <trkpt lat="46.37004" lon="5.53188">
        <ele>342</ele>
        <time>2022-07-14T05:27:39Z</time>
      </trkpt>
      <trkpt lat="46.3701" lon="5.53228">
        <ele>341.8</ele>
        <time>2022-07-14T05:27:42Z</time>
      </trkpt>
      <trkpt lat="46.37012" lon="5.53254">
        <ele>341.8</ele>
        <time>2022-07-14T05:27:44Z</time>
      </trkpt>
      <trkpt lat="46.37021" lon="5.53309">
        <ele>341.6</ele>
        <time>2022-07-14T05:27:48Z</time>
      </trkpt>
      <trkpt lat="46.37023" lon="5.53336">
        <ele>341</ele>
        <time>2022-07-14T05:27:50Z</time>
      </trkpt>
      <trkpt lat="46.37025" lon="5.53363">
        <ele>340.4</ele>
        <time>2022-07-14T05:27:52Z</time>
      </trkpt>
      <trkpt lat="46.37027" lon="5.53411">
        <ele>340</ele>
        <time>2022-07-14T05:27:56Z</time>
      </trkpt>
      <trkpt lat="46.37032" lon="5.53499">
        <ele>339.8</ele>
        <time>2022-07-14T05:28:03Z</time>
      </trkpt>
      <trkpt lat="46.37033" lon="5.53527">
        <ele>339.4</ele>
        <time>2022-07-14T05:28:05Z</time>
      </trkpt>
      <trkpt lat="46.37034" lon="5.53568">
        <ele>338</ele>
        <time>2022-07-14T05:28:08Z</time>
      </trkpt>
      <trkpt lat="46.37035" lon="5.5361">
        <ele>337</ele>
        <time>2022-07-14T05:28:11Z</time>
      </trkpt>
      <trkpt lat="46.37036" lon="5.53666">
        <ele>335.6</ele>
        <time>2022-07-14T05:28:15Z</time>
      </trkpt>
      <trkpt lat="46.37037" lon="5.53722">
        <ele>334.4</ele>
        <time>2022-07-14T05:28:19Z</time>
      </trkpt>
      <trkpt lat="46.37037" lon="5.53736">
        <ele>334.2</ele>
        <time>2022-07-14T05:28:20Z</time>
      </trkpt>
      <trkpt lat="46.37037" lon="5.53778">
        <ele>333.2</ele>
        <time>2022-07-14T05:28:23Z</time>
      </trkpt>
      <trkpt lat="46.37037" lon="5.53872">
        <ele>332.4</ele>
        <time>2022-07-14T05:28:30Z</time>
      </trkpt>
      <trkpt lat="46.37038" lon="5.53895">
        <ele>332</ele>
        <time>2022-07-14T05:28:32Z</time>
      </trkpt>
      <trkpt lat="46.3704" lon="5.53931">
        <ele>332</ele>
        <time>2022-07-14T05:28:35Z</time>
      </trkpt>
      <trkpt lat="46.37042" lon="5.53943">
        <ele>332</ele>
        <time>2022-07-14T05:28:36Z</time>
      </trkpt>
      <trkpt lat="46.37045" lon="5.53957">
        <ele>332</ele>
        <time>2022-07-14T05:28:37Z</time>
      </trkpt>
      <trkpt lat="46.37054" lon="5.53977">
        <ele>332</ele>
        <time>2022-07-14T05:28:39Z</time>
      </trkpt>
      <trkpt lat="46.37076" lon="5.54011">
        <ele>332</ele>
        <time>2022-07-14T05:28:43Z</time>
      </trkpt>
      <trkpt lat="46.37081" lon="5.54017">
        <ele>332</ele>
        <time>2022-07-14T05:28:44Z</time>
      </trkpt>
      <trkpt lat="46.37108" lon="5.54048">
        <ele>332.6</ele>
        <time>2022-07-14T05:28:49Z</time>
      </trkpt>
      <trkpt lat="46.37123" lon="5.54064">
        <ele>333</ele>
        <time>2022-07-14T05:28:52Z</time>
      </trkpt>
      <trkpt lat="46.37131" lon="5.54072">
        <ele>333.4</ele>
        <time>2022-07-14T05:28:54Z</time>
      </trkpt>
      <trkpt lat="46.37136" lon="5.54076">
        <ele>334</ele>
        <time>2022-07-14T05:28:55Z</time>
      </trkpt>
      <trkpt lat="46.37152" lon="5.54089">
        <ele>335.2</ele>
        <time>2022-07-14T05:28:59Z</time>
      </trkpt>
      <trkpt lat="46.37165" lon="5.54098">
        <ele>336.2</ele>
        <time>2022-07-14T05:29:02Z</time>
      </trkpt>
      <trkpt lat="46.3717" lon="5.54101">
        <ele>336.6</ele>
        <time>2022-07-14T05:29:03Z</time>
      </trkpt>
      <trkpt lat="46.37185" lon="5.54113">
        <ele>337.4</ele>
        <time>2022-07-14T05:29:06Z</time>
      </trkpt>
      <trkpt lat="46.37189" lon="5.54116">
        <ele>337.4</ele>
        <time>2022-07-14T05:29:07Z</time>
      </trkpt>
      <trkpt lat="46.37204" lon="5.54129">
        <ele>337.8</ele>
        <time>2022-07-14T05:29:11Z</time>
      </trkpt>
      <trkpt lat="46.37213" lon="5.54135">
        <ele>338.2</ele>
        <time>2022-07-14T05:29:13Z</time>
      </trkpt>
      <trkpt lat="46.37226" lon="5.54143">
        <ele>339.2</ele>
        <time>2022-07-14T05:29:16Z</time>
      </trkpt>
      <trkpt lat="46.37243" lon="5.54152">
        <ele>340.2</ele>
        <time>2022-07-14T05:29:21Z</time>
      </trkpt>
      <trkpt lat="46.37257" lon="5.54158">
        <ele>340.8</ele>
        <time>2022-07-14T05:29:24Z</time>
      </trkpt>
      <trkpt lat="46.37261" lon="5.54158">
        <ele>341.2</ele>
        <time>2022-07-14T05:29:25Z</time>
      </trkpt>
      <trkpt lat="46.37274" lon="5.54161">
        <ele>342</ele>
        <time>2022-07-14T05:29:28Z</time>
      </trkpt>
      <trkpt lat="46.3728" lon="5.54161">
        <ele>342</ele>
        <time>2022-07-14T05:29:29Z</time>
      </trkpt>
      <trkpt lat="46.37293" lon="5.54162">
        <ele>342.4</ele>
        <time>2022-07-14T05:29:32Z</time>
      </trkpt>
      <trkpt lat="46.37303" lon="5.54163">
        <ele>342.8</ele>
        <time>2022-07-14T05:29:35Z</time>
      </trkpt>
      <trkpt lat="46.37309" lon="5.54164">
        <ele>343.4</ele>
        <time>2022-07-14T05:29:37Z</time>
      </trkpt>
      <trkpt lat="46.37324" lon="5.54166">
        <ele>345</ele>
        <time>2022-07-14T05:29:41Z</time>
      </trkpt>
      <trkpt lat="46.37337" lon="5.54166">
        <ele>346.2</ele>
        <time>2022-07-14T05:29:45Z</time>
      </trkpt>
      <trkpt lat="46.3736" lon="5.54161">
        <ele>347.4</ele>
        <time>2022-07-14T05:29:51Z</time>
      </trkpt>
      <trkpt lat="46.37388" lon="5.54148">
        <ele>348.6</ele>
        <time>2022-07-14T05:29:59Z</time>
      </trkpt>
      <trkpt lat="46.37405" lon="5.5414">
        <ele>349.6</ele>
        <time>2022-07-14T05:30:04Z</time>
      </trkpt>
      <trkpt lat="46.37414" lon="5.54134">
        <ele>350.6</ele>
        <time>2022-07-14T05:30:07Z</time>
      </trkpt>
      <trkpt lat="46.37417" lon="5.54132">
        <ele>350.8</ele>
        <time>2022-07-14T05:30:08Z</time>
      </trkpt>
      <trkpt lat="46.37424" lon="5.54128">
        <ele>351</ele>
        <time>2022-07-14T05:30:10Z</time>
      </trkpt>
      <trkpt lat="46.37432" lon="5.54123">
        <ele>351.8</ele>
        <time>2022-07-14T05:30:13Z</time>
      </trkpt>
      <trkpt lat="46.37443" lon="5.54117">
        <ele>353</ele>
        <time>2022-07-14T05:30:17Z</time>
      </trkpt>
      <trkpt lat="46.3745" lon="5.54114">
        <ele>353.2</ele>
        <time>2022-07-14T05:30:19Z</time>
      </trkpt>
      <trkpt lat="46.37459" lon="5.54109">
        <ele>354</ele>
        <time>2022-07-14T05:30:22Z</time>
      </trkpt>
      <trkpt lat="46.37474" lon="5.54102">
        <ele>355.2</ele>
        <time>2022-07-14T05:30:27Z</time>
      </trkpt>
      <trkpt lat="46.3748" lon="5.54099">
        <ele>355.8</ele>
        <time>2022-07-14T05:30:29Z</time>
      </trkpt>
      <trkpt lat="46.37488" lon="5.54095">
        <ele>356.4</ele>
        <time>2022-07-14T05:30:32Z</time>
      </trkpt>
      <trkpt lat="46.375" lon="5.54089">
        <ele>357.4</ele>
        <time>2022-07-14T05:30:36Z</time>
      </trkpt>
      <trkpt lat="46.37515" lon="5.54084">
        <ele>358.8</ele>
        <time>2022-07-14T05:30:41Z</time>
      </trkpt>
      <trkpt lat="46.37535" lon="5.54076">
        <ele>359.8</ele>
        <time>2022-07-14T05:30:48Z</time>
      </trkpt>
      <trkpt lat="46.37542" lon="5.54074">
        <ele>360.2</ele>
        <time>2022-07-14T05:30:50Z</time>
      </trkpt>
      <trkpt lat="46.37551" lon="5.54072">
        <ele>360.8</ele>
        <time>2022-07-14T05:30:53Z</time>
      </trkpt>
      <trkpt lat="46.37568" lon="5.54067">
        <ele>361.6</ele>
        <time>2022-07-14T05:30:59Z</time>
      </trkpt>
      <trkpt lat="46.37572" lon="5.54066">
        <ele>361.8</ele>
        <time>2022-07-14T05:31:00Z</time>
      </trkpt>
      <trkpt lat="46.3759" lon="5.54059">
        <ele>363.2</ele>
        <time>2022-07-14T05:31:06Z</time>
      </trkpt>
      <trkpt lat="46.37595" lon="5.54057">
        <ele>363.6</ele>
        <time>2022-07-14T05:31:08Z</time>
      </trkpt>
      <trkpt lat="46.37601" lon="5.54054">
        <ele>364.4</ele>
        <time>2022-07-14T05:31:10Z</time>
      </trkpt>
      <trkpt lat="46.37616" lon="5.54049">
        <ele>365.2</ele>
        <time>2022-07-14T05:31:14Z</time>
      </trkpt>
      <trkpt lat="46.37619" lon="5.54048">
        <ele>365.4</ele>
        <time>2022-07-14T05:31:15Z</time>
      </trkpt>
      <trkpt lat="46.37633" lon="5.54046">
        <ele>366</ele>
        <time>2022-07-14T05:31:20Z</time>
      </trkpt>
      <trkpt lat="46.3764" lon="5.54046">
        <ele>366.4</ele>
        <time>2022-07-14T05:31:23Z</time>
      </trkpt>
      <trkpt lat="46.37648" lon="5.54047">
        <ele>367.6</ele>
        <time>2022-07-14T05:31:26Z</time>
      </trkpt>
      <trkpt lat="46.37662" lon="5.54052">
        <ele>368.6</ele>
        <time>2022-07-14T05:31:31Z</time>
      </trkpt>
      <trkpt lat="46.37678" lon="5.54058">
        <ele>369.8</ele>
        <time>2022-07-14T05:31:36Z</time>
      </trkpt>
      <trkpt lat="46.37688" lon="5.54063">
        <ele>370.4</ele>
        <time>2022-07-14T05:31:39Z</time>
      </trkpt>
      <trkpt lat="46.37695" lon="5.54066">
        <ele>370.8</ele>
        <time>2022-07-14T05:31:41Z</time>
      </trkpt>
      <trkpt lat="46.37717" lon="5.54075">
        <ele>372</ele>
        <time>2022-07-14T05:31:47Z</time>
      </trkpt>
      <trkpt lat="46.37724" lon="5.54078">
        <ele>372.4</ele>
        <time>2022-07-14T05:31:49Z</time>
      </trkpt>
      <trkpt lat="46.37733" lon="5.54083">
        <ele>373.2</ele>
        <time>2022-07-14T05:31:52Z</time>
      </trkpt>
      <trkpt lat="46.37749" lon="5.54089">
        <ele>374.2</ele>
        <time>2022-07-14T05:31:57Z</time>
      </trkpt>
      <trkpt lat="46.37763" lon="5.54097">
        <ele>375.4</ele>
        <time>2022-07-14T05:32:02Z</time>
      </trkpt>
      <trkpt lat="46.37776" lon="5.54104">
        <ele>376.2</ele>
        <time>2022-07-14T05:32:06Z</time>
      </trkpt>
      <trkpt lat="46.37782" lon="5.54108">
        <ele>376.4</ele>
        <time>2022-07-14T05:32:08Z</time>
      </trkpt>
      <trkpt lat="46.37797" lon="5.54118">
        <ele>377.6</ele>
        <time>2022-07-14T05:32:13Z</time>
      </trkpt>
      <trkpt lat="46.37799" lon="5.5412">
        <ele>377.6</ele>
        <time>2022-07-14T05:32:14Z</time>
      </trkpt>
      <trkpt lat="46.37812" lon="5.54132">
        <ele>378.6</ele>
        <time>2022-07-14T05:32:19Z</time>
      </trkpt>
      <trkpt lat="46.37822" lon="5.54143">
        <ele>379.6</ele>
        <time>2022-07-14T05:32:23Z</time>
      </trkpt>
      <trkpt lat="46.37824" lon="5.54145">
        <ele>380</ele>
        <time>2022-07-14T05:32:24Z</time>
      </trkpt>
      <trkpt lat="46.37837" lon="5.54164">
        <ele>381</ele>
        <time>2022-07-14T05:32:30Z</time>
      </trkpt>
      <trkpt lat="46.37839" lon="5.54166">
        <ele>381.2</ele>
        <time>2022-07-14T05:32:31Z</time>
      </trkpt>
      <trkpt lat="46.37842" lon="5.54169">
        <ele>381.2</ele>
        <time>2022-07-14T05:32:32Z</time>
      </trkpt>
      <trkpt lat="46.3785" lon="5.54181">
        <ele>382.2</ele>
        <time>2022-07-14T05:32:36Z</time>
      </trkpt>
      <trkpt lat="46.37858" lon="5.5419">
        <ele>382.8</ele>
        <time>2022-07-14T05:32:39Z</time>
      </trkpt>
      <trkpt lat="46.37862" lon="5.54196">
        <ele>383.2</ele>
        <time>2022-07-14T05:32:41Z</time>
      </trkpt>
      <trkpt lat="46.37874" lon="5.5421">
        <ele>384.4</ele>
        <time>2022-07-14T05:32:46Z</time>
      </trkpt>
      <trkpt lat="46.37883" lon="5.54219">
        <ele>384.8</ele>
        <time>2022-07-14T05:32:49Z</time>
      </trkpt>
      <trkpt lat="46.37891" lon="5.54228">
        <ele>385.8</ele>
        <time>2022-07-14T05:32:52Z</time>
      </trkpt>
      <trkpt lat="46.37901" lon="5.54241">
        <ele>386.6</ele>
        <time>2022-07-14T05:32:56Z</time>
      </trkpt>
      <trkpt lat="46.37905" lon="5.54247">
        <ele>387</ele>
        <time>2022-07-14T05:32:58Z</time>
      </trkpt>
      <trkpt lat="46.37918" lon="5.54264">
        <ele>387.6</ele>
        <time>2022-07-14T05:33:03Z</time>
      </trkpt>
      <trkpt lat="46.37925" lon="5.54275">
        <ele>388</ele>
        <time>2022-07-14T05:33:06Z</time>
      </trkpt>
      <trkpt lat="46.37931" lon="5.54293">
        <ele>388.8</ele>
        <time>2022-07-14T05:33:10Z</time>
      </trkpt>
      <trkpt lat="46.37931" lon="5.54298">
        <ele>389</ele>
        <time>2022-07-14T05:33:11Z</time>
      </trkpt>
      <trkpt lat="46.37929" lon="5.54302">
        <ele>389.2</ele>
        <time>2022-07-14T05:33:12Z</time>
      </trkpt>
      <trkpt lat="46.37927" lon="5.54306">
        <ele>389.2</ele>
        <time>2022-07-14T05:33:13Z</time>
      </trkpt>
      <trkpt lat="46.37918" lon="5.54309">
        <ele>390</ele>
        <time>2022-07-14T05:33:17Z</time>
      </trkpt>
      <trkpt lat="46.37915" lon="5.54307">
        <ele>390.2</ele>
        <time>2022-07-14T05:33:18Z</time>
      </trkpt>
      <trkpt lat="46.37904" lon="5.54301">
        <ele>391</ele>
        <time>2022-07-14T05:33:21Z</time>
      </trkpt>
      <trkpt lat="46.379" lon="5.54301">
        <ele>391.4</ele>
        <time>2022-07-14T05:33:22Z</time>
      </trkpt>
      <trkpt lat="46.37886" lon="5.54301">
        <ele>392.4</ele>
        <time>2022-07-14T05:33:26Z</time>
      </trkpt>
      <trkpt lat="46.3788" lon="5.54301">
        <ele>392.6</ele>
        <time>2022-07-14T05:33:28Z</time>
      </trkpt>
      <trkpt lat="46.37877" lon="5.54303">
        <ele>393</ele>
        <time>2022-07-14T05:33:29Z</time>
      </trkpt>
      <trkpt lat="46.37868" lon="5.54308">
        <ele>393.4</ele>
        <time>2022-07-14T05:33:32Z</time>
      </trkpt>
      <trkpt lat="46.37849" lon="5.54318">
        <ele>394.6</ele>
        <time>2022-07-14T05:33:37Z</time>
      </trkpt>
      <trkpt lat="46.37831" lon="5.54335">
        <ele>395.8</ele>
        <time>2022-07-14T05:33:43Z</time>
      </trkpt>
      <trkpt lat="46.37825" lon="5.54343">
        <ele>396.4</ele>
        <time>2022-07-14T05:33:45Z</time>
      </trkpt>
      <trkpt lat="46.37818" lon="5.5436">
        <ele>397</ele>
        <time>2022-07-14T05:33:49Z</time>
      </trkpt>
      <trkpt lat="46.37814" lon="5.54376">
        <ele>398</ele>
        <time>2022-07-14T05:33:53Z</time>
      </trkpt>
      <trkpt lat="46.37812" lon="5.54384">
        <ele>398.2</ele>
        <time>2022-07-14T05:33:55Z</time>
      </trkpt>
      <trkpt lat="46.37803" lon="5.54405">
        <ele>399.4</ele>
        <time>2022-07-14T05:34:00Z</time>
      </trkpt>
      <trkpt lat="46.37798" lon="5.54419">
        <ele>399.6</ele>
        <time>2022-07-14T05:34:03Z</time>
      </trkpt>
      <trkpt lat="46.3779" lon="5.54442">
        <ele>400.4</ele>
        <time>2022-07-14T05:34:08Z</time>
      </trkpt>
      <trkpt lat="46.37787" lon="5.54458">
        <ele>401</ele>
        <time>2022-07-14T05:34:11Z</time>
      </trkpt>
      <trkpt lat="46.37784" lon="5.54477">
        <ele>401.4</ele>
        <time>2022-07-14T05:34:16Z</time>
      </trkpt>
      <trkpt lat="46.37784" lon="5.54479">
        <ele>401.6</ele>
        <time>2022-07-14T05:34:17Z</time>
      </trkpt>
      <trkpt lat="46.37784" lon="5.5448">
        <ele>401.8</ele>
        <time>2022-07-14T05:34:20Z</time>
      </trkpt>
      <trkpt lat="46.37782" lon="5.54481">
        <ele>402</ele>
        <time>2022-07-14T05:35:04Z</time>
      </trkpt>
      <trkpt lat="46.37778" lon="5.54488">
        <ele>402</ele>
        <time>2022-07-14T05:35:06Z</time>
      </trkpt>
      <trkpt lat="46.37767" lon="5.54517">
        <ele>402</ele>
        <time>2022-07-14T05:35:11Z</time>
      </trkpt>
      <trkpt lat="46.37752" lon="5.54558">
        <ele>402.2</ele>
        <time>2022-07-14T05:35:17Z</time>
      </trkpt>
      <trkpt lat="46.37747" lon="5.54571">
        <ele>402.6</ele>
        <time>2022-07-14T05:35:19Z</time>
      </trkpt>
      <trkpt lat="46.37734" lon="5.54603">
        <ele>403.4</ele>
        <time>2022-07-14T05:35:24Z</time>
      </trkpt>
      <trkpt lat="46.37732" lon="5.5461">
        <ele>403.6</ele>
        <time>2022-07-14T05:35:25Z</time>
      </trkpt>
      <trkpt lat="46.37711" lon="5.54669">
        <ele>404.6</ele>
        <time>2022-07-14T05:35:34Z</time>
      </trkpt>
      <trkpt lat="46.37709" lon="5.54675">
        <ele>404.8</ele>
        <time>2022-07-14T05:35:35Z</time>
      </trkpt>
      <trkpt lat="46.37699" lon="5.54715">
        <ele>405.6</ele>
        <time>2022-07-14T05:35:41Z</time>
      </trkpt>
      <trkpt lat="46.37697" lon="5.54729">
        <ele>406</ele>
        <time>2022-07-14T05:35:43Z</time>
      </trkpt>
      <trkpt lat="46.3769" lon="5.54764">
        <ele>406.6</ele>
        <time>2022-07-14T05:35:48Z</time>
      </trkpt>
      <trkpt lat="46.37684" lon="5.548">
        <ele>407</ele>
        <time>2022-07-14T05:35:53Z</time>
      </trkpt>
      <trkpt lat="46.37678" lon="5.54835">
        <ele>408</ele>
        <time>2022-07-14T05:35:58Z</time>
      </trkpt>
      <trkpt lat="46.37676" lon="5.54869">
        <ele>409</ele>
        <time>2022-07-14T05:36:03Z</time>
      </trkpt>
      <trkpt lat="46.37675" lon="5.54876">
        <ele>409.2</ele>
        <time>2022-07-14T05:36:04Z</time>
      </trkpt>
      <trkpt lat="46.37675" lon="5.54918">
        <ele>410.2</ele>
        <time>2022-07-14T05:36:10Z</time>
      </trkpt>
      <trkpt lat="46.37676" lon="5.54946">
        <ele>410.6</ele>
        <time>2022-07-14T05:36:14Z</time>
      </trkpt>
      <trkpt lat="46.37677" lon="5.54968">
        <ele>411.2</ele>
        <time>2022-07-14T05:36:17Z</time>
      </trkpt>
      <trkpt lat="46.37679" lon="5.54995">
        <ele>412.4</ele>
        <time>2022-07-14T05:36:21Z</time>
      </trkpt>
      <trkpt lat="46.37679" lon="5.55016">
        <ele>413</ele>
        <time>2022-07-14T05:36:24Z</time>
      </trkpt>
      <trkpt lat="46.37679" lon="5.55029">
        <ele>413.4</ele>
        <time>2022-07-14T05:36:26Z</time>
      </trkpt>
      <trkpt lat="46.37681" lon="5.55061">
        <ele>414</ele>
        <time>2022-07-14T05:36:30Z</time>
      </trkpt>
      <trkpt lat="46.37683" lon="5.55075">
        <ele>414.2</ele>
        <time>2022-07-14T05:36:32Z</time>
      </trkpt>
      <trkpt lat="46.37687" lon="5.5509">
        <ele>414.2</ele>
        <time>2022-07-14T05:36:34Z</time>
      </trkpt>
      <trkpt lat="46.37696" lon="5.55115">
        <ele>414.2</ele>
        <time>2022-07-14T05:36:37Z</time>
      </trkpt>
      <trkpt lat="46.37724" lon="5.55168">
        <ele>413.6</ele>
        <time>2022-07-14T05:36:44Z</time>
      </trkpt>
      <trkpt lat="46.37756" lon="5.55231">
        <ele>414.2</ele>
        <time>2022-07-14T05:36:53Z</time>
      </trkpt>
      <trkpt lat="46.37786" lon="5.55292">
        <ele>414.8</ele>
        <time>2022-07-14T05:37:02Z</time>
      </trkpt>
      <trkpt lat="46.37817" lon="5.55358">
        <ele>415.2</ele>
        <time>2022-07-14T05:37:11Z</time>
      </trkpt>
      <trkpt lat="46.37819" lon="5.55366">
        <ele>415.2</ele>
        <time>2022-07-14T05:37:12Z</time>
      </trkpt>
      <trkpt lat="46.37835" lon="5.55424">
        <ele>415</ele>
        <time>2022-07-14T05:37:19Z</time>
      </trkpt>
      <trkpt lat="46.37839" lon="5.55483">
        <ele>415.2</ele>
        <time>2022-07-14T05:37:26Z</time>
      </trkpt>
      <trkpt lat="46.37837" lon="5.55514">
        <ele>416</ele>
        <time>2022-07-14T05:37:30Z</time>
      </trkpt>
      <trkpt lat="46.37833" lon="5.55542">
        <ele>416.8</ele>
        <time>2022-07-14T05:37:34Z</time>
      </trkpt>
      <trkpt lat="46.37832" lon="5.5555">
        <ele>417.2</ele>
        <time>2022-07-14T05:37:35Z</time>
      </trkpt>
      <trkpt lat="46.37827" lon="5.55578">
        <ele>418.2</ele>
        <time>2022-07-14T05:37:39Z</time>
      </trkpt>
      <trkpt lat="46.3782" lon="5.55611">
        <ele>419.4</ele>
        <time>2022-07-14T05:37:44Z</time>
      </trkpt>
      <trkpt lat="46.37815" lon="5.55637">
        <ele>420.6</ele>
        <time>2022-07-14T05:37:48Z</time>
      </trkpt>
      <trkpt lat="46.37809" lon="5.55663">
        <ele>421.8</ele>
        <time>2022-07-14T05:37:52Z</time>
      </trkpt>
      <trkpt lat="46.37808" lon="5.55668">
        <ele>421.8</ele>
        <time>2022-07-14T05:37:53Z</time>
      </trkpt>
      <trkpt lat="46.378" lon="5.557">
        <ele>423</ele>
        <time>2022-07-14T05:37:58Z</time>
      </trkpt>
      <trkpt lat="46.37799" lon="5.55706">
        <ele>423.4</ele>
        <time>2022-07-14T05:37:59Z</time>
      </trkpt>
      <trkpt lat="46.37797" lon="5.5572">
        <ele>424</ele>
        <time>2022-07-14T05:38:01Z</time>
      </trkpt>
      <trkpt lat="46.37796" lon="5.55727">
        <ele>424.2</ele>
        <time>2022-07-14T05:38:02Z</time>
      </trkpt>
      <trkpt lat="46.37797" lon="5.55743">
        <ele>424.8</ele>
        <time>2022-07-14T05:38:04Z</time>
      </trkpt>
      <trkpt lat="46.37799" lon="5.55758">
        <ele>425</ele>
        <time>2022-07-14T05:38:06Z</time>
      </trkpt>
      <trkpt lat="46.37801" lon="5.55767">
        <ele>425</ele>
        <time>2022-07-14T05:38:07Z</time>
      </trkpt>
      <trkpt lat="46.37805" lon="5.55781">
        <ele>425.4</ele>
        <time>2022-07-14T05:38:09Z</time>
      </trkpt>
      <trkpt lat="46.37811" lon="5.55798">
        <ele>425.4</ele>
        <time>2022-07-14T05:38:11Z</time>
      </trkpt>
      <trkpt lat="46.37834" lon="5.55854">
        <ele>425.4</ele>
        <time>2022-07-14T05:38:19Z</time>
      </trkpt>
      <trkpt lat="46.37842" lon="5.55876">
        <ele>426.2</ele>
        <time>2022-07-14T05:38:22Z</time>
      </trkpt>
      <trkpt lat="46.37842" lon="5.55883">
        <ele>426.2</ele>
        <time>2022-07-14T05:38:23Z</time>
      </trkpt>
      <trkpt lat="46.37843" lon="5.55891">
        <ele>426.6</ele>
        <time>2022-07-14T05:38:24Z</time>
      </trkpt>
      <trkpt lat="46.37841" lon="5.55913">
        <ele>427</ele>
        <time>2022-07-14T05:38:27Z</time>
      </trkpt>
      <trkpt lat="46.37839" lon="5.55927">
        <ele>427.2</ele>
        <time>2022-07-14T05:38:29Z</time>
      </trkpt>
      <trkpt lat="46.37836" lon="5.55939">
        <ele>427.8</ele>
        <time>2022-07-14T05:38:31Z</time>
      </trkpt>
      <trkpt lat="46.37829" lon="5.55971">
        <ele>429</ele>
        <time>2022-07-14T05:38:36Z</time>
      </trkpt>
      <trkpt lat="46.37828" lon="5.55977">
        <ele>429.2</ele>
        <time>2022-07-14T05:38:37Z</time>
      </trkpt>
      <trkpt lat="46.37823" lon="5.56004">
        <ele>430</ele>
        <time>2022-07-14T05:38:41Z</time>
      </trkpt>
      <trkpt lat="46.37822" lon="5.56034">
        <ele>430.6</ele>
        <time>2022-07-14T05:38:45Z</time>
      </trkpt>
      <trkpt lat="46.37826" lon="5.5605">
        <ele>431</ele>
        <time>2022-07-14T05:38:47Z</time>
      </trkpt>
      <trkpt lat="46.37828" lon="5.56056">
        <ele>431.2</ele>
        <time>2022-07-14T05:38:48Z</time>
      </trkpt>
      <trkpt lat="46.3783" lon="5.56061">
        <ele>431.4</ele>
        <time>2022-07-14T05:38:49Z</time>
      </trkpt>
      <trkpt lat="46.37857" lon="5.56112">
        <ele>431.6</ele>
        <time>2022-07-14T05:38:57Z</time>
      </trkpt>
      <trkpt lat="46.37881" lon="5.56153">
        <ele>432.4</ele>
        <time>2022-07-14T05:39:04Z</time>
      </trkpt>
      <trkpt lat="46.37884" lon="5.56158">
        <ele>432.4</ele>
        <time>2022-07-14T05:39:05Z</time>
      </trkpt>
      <trkpt lat="46.37887" lon="5.56163">
        <ele>432.6</ele>
        <time>2022-07-14T05:39:06Z</time>
      </trkpt>
      <trkpt lat="46.37894" lon="5.56177">
        <ele>433.6</ele>
        <time>2022-07-14T05:39:09Z</time>
      </trkpt>
      <trkpt lat="46.37904" lon="5.56198">
        <ele>434.8</ele>
        <time>2022-07-14T05:39:13Z</time>
      </trkpt>
      <trkpt lat="46.37909" lon="5.56207">
        <ele>435.4</ele>
        <time>2022-07-14T05:39:15Z</time>
      </trkpt>
      <trkpt lat="46.37911" lon="5.56212">
        <ele>435.8</ele>
        <time>2022-07-14T05:39:16Z</time>
      </trkpt>
      <trkpt lat="46.37919" lon="5.56233">
        <ele>437</ele>
        <time>2022-07-14T05:39:20Z</time>
      </trkpt>
      <trkpt lat="46.37921" lon="5.56247">
        <ele>438.6</ele>
        <time>2022-07-14T05:39:23Z</time>
      </trkpt>
      <trkpt lat="46.37921" lon="5.56253">
        <ele>438.8</ele>
        <time>2022-07-14T05:39:24Z</time>
      </trkpt>
      <trkpt lat="46.37919" lon="5.5627">
        <ele>439.8</ele>
        <time>2022-07-14T05:39:27Z</time>
      </trkpt>
      <trkpt lat="46.37915" lon="5.56285">
        <ele>441.2</ele>
        <time>2022-07-14T05:39:30Z</time>
      </trkpt>
      <trkpt lat="46.37913" lon="5.5629">
        <ele>441.4</ele>
        <time>2022-07-14T05:39:31Z</time>
      </trkpt>
      <trkpt lat="46.37908" lon="5.56305">
        <ele>442.4</ele>
        <time>2022-07-14T05:39:34Z</time>
      </trkpt>
      <trkpt lat="46.37902" lon="5.56326">
        <ele>443.2</ele>
        <time>2022-07-14T05:39:38Z</time>
      </trkpt>
      <trkpt lat="46.37901" lon="5.56331">
        <ele>443.6</ele>
        <time>2022-07-14T05:39:39Z</time>
      </trkpt>
      <trkpt lat="46.37896" lon="5.56343">
        <ele>444.4</ele>
        <time>2022-07-14T05:39:43Z</time>
      </trkpt>
      <trkpt lat="46.37894" lon="5.56346">
        <ele>444.4</ele>
        <time>2022-07-14T05:39:44Z</time>
      </trkpt>
      <trkpt lat="46.37895" lon="5.56353">
        <ele>444.8</ele>
        <time>2022-07-14T05:39:46Z</time>
      </trkpt>
      <trkpt lat="46.37894" lon="5.56367">
        <ele>444.8</ele>
        <time>2022-07-14T05:39:49Z</time>
      </trkpt>
      <trkpt lat="46.37886" lon="5.564">
        <ele>445.4</ele>
        <time>2022-07-14T05:39:55Z</time>
      </trkpt>
      <trkpt lat="46.37884" lon="5.56405">
        <ele>445.8</ele>
        <time>2022-07-14T05:39:57Z</time>
      </trkpt>
      <trkpt lat="46.37875" lon="5.56432">
        <ele>446.8</ele>
        <time>2022-07-14T05:40:02Z</time>
      </trkpt>
      <trkpt lat="46.37871" lon="5.56441">
        <ele>447</ele>
        <time>2022-07-14T05:40:04Z</time>
      </trkpt>
      <trkpt lat="46.37862" lon="5.56458">
        <ele>447.6</ele>
        <time>2022-07-14T05:40:08Z</time>
      </trkpt>
      <trkpt lat="46.37855" lon="5.56472">
        <ele>448.2</ele>
        <time>2022-07-14T05:40:11Z</time>
      </trkpt>
      <trkpt lat="46.37845" lon="5.5649">
        <ele>448.8</ele>
        <time>2022-07-14T05:40:15Z</time>
      </trkpt>
      <trkpt lat="46.37834" lon="5.56512">
        <ele>449.4</ele>
        <time>2022-07-14T05:40:20Z</time>
      </trkpt>
      <trkpt lat="46.37826" lon="5.56526">
        <ele>450</ele>
        <time>2022-07-14T05:40:23Z</time>
      </trkpt>
      <trkpt lat="46.37821" lon="5.56536">
        <ele>450.4</ele>
        <time>2022-07-14T05:40:25Z</time>
      </trkpt>
      <trkpt lat="46.37819" lon="5.56541">
        <ele>450.4</ele>
        <time>2022-07-14T05:40:26Z</time>
      </trkpt>
      <trkpt lat="46.37807" lon="5.56564">
        <ele>451.2</ele>
        <time>2022-07-14T05:40:31Z</time>
      </trkpt>
      <trkpt lat="46.37802" lon="5.56575">
        <ele>451.6</ele>
        <time>2022-07-14T05:40:33Z</time>
      </trkpt>
      <trkpt lat="46.37785" lon="5.56609">
        <ele>452</ele>
        <time>2022-07-14T05:40:38Z</time>
      </trkpt>
      <trkpt lat="46.37771" lon="5.56631">
        <ele>451.6</ele>
        <time>2022-07-14T05:40:41Z</time>
      </trkpt>
      <trkpt lat="46.37759" lon="5.5664">
        <ele>451</ele>
        <time>2022-07-14T05:40:43Z</time>
      </trkpt>
      <trkpt lat="46.3774" lon="5.56643">
        <ele>450.2</ele>
        <time>2022-07-14T05:40:46Z</time>
      </trkpt>
      <trkpt lat="46.37733" lon="5.56643">
        <ele>450</ele>
        <time>2022-07-14T05:40:47Z</time>
      </trkpt>
      <trkpt lat="46.37704" lon="5.5664">
        <ele>450</ele>
        <time>2022-07-14T05:40:52Z</time>
      </trkpt>
      <trkpt lat="46.37699" lon="5.56639">
        <ele>450</ele>
        <time>2022-07-14T05:40:53Z</time>
      </trkpt>
      <trkpt lat="46.37687" lon="5.56638">
        <ele>451</ele>
        <time>2022-07-14T05:40:55Z</time>
      </trkpt>
      <trkpt lat="46.37682" lon="5.56639">
        <ele>451.2</ele>
        <time>2022-07-14T05:40:56Z</time>
      </trkpt>
      <trkpt lat="46.37672" lon="5.56642">
        <ele>452.2</ele>
        <time>2022-07-14T05:40:59Z</time>
      </trkpt>
      <trkpt lat="46.37663" lon="5.56645">
        <ele>453.2</ele>
        <time>2022-07-14T05:41:01Z</time>
      </trkpt>
      <trkpt lat="46.37659" lon="5.56647">
        <ele>453.4</ele>
        <time>2022-07-14T05:41:02Z</time>
      </trkpt>
      <trkpt lat="46.3765" lon="5.56653">
        <ele>454</ele>
        <time>2022-07-14T05:41:04Z</time>
      </trkpt>
      <trkpt lat="46.37646" lon="5.56656">
        <ele>454.2</ele>
        <time>2022-07-14T05:41:05Z</time>
      </trkpt>
      <trkpt lat="46.37642" lon="5.56661">
        <ele>454.6</ele>
        <time>2022-07-14T05:41:06Z</time>
      </trkpt>
      <trkpt lat="46.37631" lon="5.56675">
        <ele>455.2</ele>
        <time>2022-07-14T05:41:09Z</time>
      </trkpt>
      <trkpt lat="46.37616" lon="5.56695">
        <ele>455.8</ele>
        <time>2022-07-14T05:41:13Z</time>
      </trkpt>
      <trkpt lat="46.37602" lon="5.56715">
        <ele>456.2</ele>
        <time>2022-07-14T05:41:17Z</time>
      </trkpt>
      <trkpt lat="46.37574" lon="5.56741">
        <ele>457</ele>
        <time>2022-07-14T05:41:24Z</time>
      </trkpt>
      <trkpt lat="46.37552" lon="5.56756">
        <ele>458.2</ele>
        <time>2022-07-14T05:41:29Z</time>
      </trkpt>
      <trkpt lat="46.37538" lon="5.56764">
        <ele>458.4</ele>
        <time>2022-07-14T05:41:32Z</time>
      </trkpt>
      <trkpt lat="46.375" lon="5.56784">
        <ele>459.2</ele>
        <time>2022-07-14T05:41:40Z</time>
      </trkpt>
      <trkpt lat="46.3749" lon="5.56788">
        <ele>459.6</ele>
        <time>2022-07-14T05:41:42Z</time>
      </trkpt>
      <trkpt lat="46.37455" lon="5.56801">
        <ele>459.8</ele>
        <time>2022-07-14T05:41:49Z</time>
      </trkpt>
      <trkpt lat="46.37415" lon="5.56812">
        <ele>460</ele>
        <time>2022-07-14T05:41:56Z</time>
      </trkpt>
      <trkpt lat="46.37381" lon="5.56821">
        <ele>460.2</ele>
        <time>2022-07-14T05:42:01Z</time>
      </trkpt>
      <trkpt lat="46.37374" lon="5.56823">
        <ele>460.2</ele>
        <time>2022-07-14T05:42:02Z</time>
      </trkpt>
      <trkpt lat="46.3736" lon="5.56827">
        <ele>460.4</ele>
        <time>2022-07-14T05:42:04Z</time>
      </trkpt>
      <trkpt lat="46.37326" lon="5.56842">
        <ele>460.2</ele>
        <time>2022-07-14T05:42:09Z</time>
      </trkpt>
      <trkpt lat="46.37274" lon="5.56868">
        <ele>460.4</ele>
        <time>2022-07-14T05:42:17Z</time>
      </trkpt>
      <trkpt lat="46.37267" lon="5.56869">
        <ele>460.4</ele>
        <time>2022-07-14T05:42:18Z</time>
      </trkpt>
      <trkpt lat="46.37253" lon="5.56869">
        <ele>460.4</ele>
        <time>2022-07-14T05:42:20Z</time>
      </trkpt>
      <trkpt lat="46.37246" lon="5.56867">
        <ele>460.4</ele>
        <time>2022-07-14T05:42:21Z</time>
      </trkpt>
      <trkpt lat="46.37239" lon="5.56863">
        <ele>460.2</ele>
        <time>2022-07-14T05:42:22Z</time>
      </trkpt>
      <trkpt lat="46.37209" lon="5.56848">
        <ele>459.4</ele>
        <time>2022-07-14T05:42:26Z</time>
      </trkpt>
      <trkpt lat="46.37201" lon="5.56846">
        <ele>459.2</ele>
        <time>2022-07-14T05:42:27Z</time>
      </trkpt>
      <trkpt lat="46.37193" lon="5.56844">
        <ele>459.2</ele>
        <time>2022-07-14T05:42:28Z</time>
      </trkpt>
      <trkpt lat="46.37168" lon="5.56842">
        <ele>458.8</ele>
        <time>2022-07-14T05:42:31Z</time>
      </trkpt>
      <trkpt lat="46.37111" lon="5.56834">
        <ele>458.2</ele>
        <time>2022-07-14T05:42:38Z</time>
      </trkpt>
      <trkpt lat="46.37065" lon="5.56815">
        <ele>457.6</ele>
        <time>2022-07-14T05:42:44Z</time>
      </trkpt>
      <trkpt lat="46.37019" lon="5.56807">
        <ele>457.4</ele>
        <time>2022-07-14T05:42:50Z</time>
      </trkpt>
      <trkpt lat="46.36963" lon="5.56803">
        <ele>457.2</ele>
        <time>2022-07-14T05:42:57Z</time>
      </trkpt>
      <trkpt lat="46.36955" lon="5.56803">
        <ele>457.2</ele>
        <time>2022-07-14T05:42:58Z</time>
      </trkpt>
      <trkpt lat="46.36909" lon="5.56808">
        <ele>457.6</ele>
        <time>2022-07-14T05:43:05Z</time>
      </trkpt>
      <trkpt lat="46.36856" lon="5.5681">
        <ele>457.8</ele>
        <time>2022-07-14T05:43:13Z</time>
      </trkpt>
      <trkpt lat="46.36807" lon="5.56811">
        <ele>459.4</ele>
        <time>2022-07-14T05:43:21Z</time>
      </trkpt>
      <trkpt lat="46.36762" lon="5.56817">
        <ele>460.6</ele>
        <time>2022-07-14T05:43:29Z</time>
      </trkpt>
      <trkpt lat="46.36756" lon="5.56818">
        <ele>460.6</ele>
        <time>2022-07-14T05:43:30Z</time>
      </trkpt>
      <trkpt lat="46.36735" lon="5.5682">
        <ele>461.2</ele>
        <time>2022-07-14T05:43:34Z</time>
      </trkpt>
      <trkpt lat="46.36719" lon="5.56818">
        <ele>461.4</ele>
        <time>2022-07-14T05:43:37Z</time>
      </trkpt>
      <trkpt lat="46.36714" lon="5.56817">
        <ele>461.8</ele>
        <time>2022-07-14T05:43:38Z</time>
      </trkpt>
      <trkpt lat="46.36704" lon="5.56817">
        <ele>462</ele>
        <time>2022-07-14T05:43:40Z</time>
      </trkpt>
      <trkpt lat="46.36689" lon="5.5682">
        <ele>462.6</ele>
        <time>2022-07-14T05:43:43Z</time>
      </trkpt>
      <trkpt lat="46.36684" lon="5.56821">
        <ele>462.8</ele>
        <time>2022-07-14T05:43:44Z</time>
      </trkpt>
      <trkpt lat="46.36665" lon="5.56831">
        <ele>464</ele>
        <time>2022-07-14T05:43:48Z</time>
      </trkpt>
      <trkpt lat="46.3666" lon="5.56834">
        <ele>464</ele>
        <time>2022-07-14T05:43:49Z</time>
      </trkpt>
      <trkpt lat="46.36636" lon="5.56853">
        <ele>465</ele>
        <time>2022-07-14T05:43:54Z</time>
      </trkpt>
      <trkpt lat="46.36621" lon="5.56863">
        <ele>465.6</ele>
        <time>2022-07-14T05:43:57Z</time>
      </trkpt>
      <trkpt lat="46.36601" lon="5.56873">
        <ele>466.2</ele>
        <time>2022-07-14T05:44:02Z</time>
      </trkpt>
      <trkpt lat="46.36588" lon="5.56881">
        <ele>467</ele>
        <time>2022-07-14T05:44:05Z</time>
      </trkpt>
      <trkpt lat="46.36584" lon="5.56884">
        <ele>467.4</ele>
        <time>2022-07-14T05:44:06Z</time>
      </trkpt>
      <trkpt lat="46.36572" lon="5.56896">
        <ele>468.4</ele>
        <time>2022-07-14T05:44:09Z</time>
      </trkpt>
      <trkpt lat="46.36564" lon="5.56905">
        <ele>468.6</ele>
        <time>2022-07-14T05:44:11Z</time>
      </trkpt>
      <trkpt lat="46.36553" lon="5.5692">
        <ele>469</ele>
        <time>2022-07-14T05:44:14Z</time>
      </trkpt>
      <trkpt lat="46.36549" lon="5.56925">
        <ele>469.4</ele>
        <time>2022-07-14T05:44:15Z</time>
      </trkpt>
      <trkpt lat="46.36536" lon="5.56937">
        <ele>470</ele>
        <time>2022-07-14T05:44:18Z</time>
      </trkpt>
      <trkpt lat="46.36526" lon="5.5694">
        <ele>470</ele>
        <time>2022-07-14T05:44:20Z</time>
      </trkpt>
      <trkpt lat="46.36516" lon="5.56939">
        <ele>470.2</ele>
        <time>2022-07-14T05:44:22Z</time>
      </trkpt>
      <trkpt lat="46.36483" lon="5.56936">
        <ele>470.2</ele>
        <time>2022-07-14T05:44:28Z</time>
      </trkpt>
      <trkpt lat="46.36442" lon="5.56934">
        <ele>469.8</ele>
        <time>2022-07-14T05:44:35Z</time>
      </trkpt>
      <trkpt lat="46.36401" lon="5.56929">
        <ele>470.6</ele>
        <time>2022-07-14T05:44:43Z</time>
      </trkpt>
      <trkpt lat="46.36356" lon="5.56907">
        <ele>471.2</ele>
        <time>2022-07-14T05:44:51Z</time>
      </trkpt>
      <trkpt lat="46.36312" lon="5.56878">
        <ele>471</ele>
        <time>2022-07-14T05:44:58Z</time>
      </trkpt>
      <trkpt lat="46.36277" lon="5.56858">
        <ele>471.4</ele>
        <time>2022-07-14T05:45:05Z</time>
      </trkpt>
      <trkpt lat="46.36272" lon="5.56855">
        <ele>471.8</ele>
        <time>2022-07-14T05:45:06Z</time>
      </trkpt>
      <trkpt lat="46.36247" lon="5.56842">
        <ele>472.6</ele>
        <time>2022-07-14T05:45:11Z</time>
      </trkpt>
      <trkpt lat="46.36242" lon="5.56839">
        <ele>472.8</ele>
        <time>2022-07-14T05:45:12Z</time>
      </trkpt>
      <trkpt lat="46.3623" lon="5.56829">
        <ele>473.8</ele>
        <time>2022-07-14T05:45:15Z</time>
      </trkpt>
      <trkpt lat="46.36214" lon="5.56813">
        <ele>474.6</ele>
        <time>2022-07-14T05:45:19Z</time>
      </trkpt>
      <trkpt lat="46.36211" lon="5.56809">
        <ele>475.2</ele>
        <time>2022-07-14T05:45:20Z</time>
      </trkpt>
      <trkpt lat="46.3619" lon="5.56793">
        <ele>476.4</ele>
        <time>2022-07-14T05:45:25Z</time>
      </trkpt>
      <trkpt lat="46.36185" lon="5.56791">
        <ele>476.6</ele>
        <time>2022-07-14T05:45:26Z</time>
      </trkpt>
      <trkpt lat="46.36179" lon="5.56789">
        <ele>476.8</ele>
        <time>2022-07-14T05:45:27Z</time>
      </trkpt>
      <trkpt lat="46.36164" lon="5.56788">
        <ele>477.6</ele>
        <time>2022-07-14T05:45:30Z</time>
      </trkpt>
      <trkpt lat="46.3616" lon="5.56788">
        <ele>477.8</ele>
        <time>2022-07-14T05:45:31Z</time>
      </trkpt>
      <trkpt lat="46.36133" lon="5.56793">
        <ele>478.6</ele>
        <time>2022-07-14T05:45:36Z</time>
      </trkpt>
      <trkpt lat="46.36123" lon="5.56796">
        <ele>478.8</ele>
        <time>2022-07-14T05:45:38Z</time>
      </trkpt>
      <trkpt lat="46.36086" lon="5.56802">
        <ele>479.8</ele>
        <time>2022-07-14T05:45:45Z</time>
      </trkpt>
      <trkpt lat="46.36076" lon="5.56804">
        <ele>480</ele>
        <time>2022-07-14T05:45:47Z</time>
      </trkpt>
      <trkpt lat="46.36041" lon="5.56813">
        <ele>480</ele>
        <time>2022-07-14T05:45:53Z</time>
      </trkpt>
      <trkpt lat="46.35998" lon="5.56836">
        <ele>479.6</ele>
        <time>2022-07-14T05:46:00Z</time>
      </trkpt>
      <trkpt lat="46.35977" lon="5.56844">
        <ele>479</ele>
        <time>2022-07-14T05:46:03Z</time>
      </trkpt>
      <trkpt lat="46.35969" lon="5.56849">
        <ele>478.6</ele>
        <time>2022-07-14T05:46:04Z</time>
      </trkpt>
      <trkpt lat="46.35963" lon="5.56857">
        <ele>478.2</ele>
        <time>2022-07-14T05:46:05Z</time>
      </trkpt>
      <trkpt lat="46.3595" lon="5.56878">
        <ele>477.2</ele>
        <time>2022-07-14T05:46:07Z</time>
      </trkpt>
      <trkpt lat="46.35936" lon="5.56898">
        <ele>475.8</ele>
        <time>2022-07-14T05:46:09Z</time>
      </trkpt>
      <trkpt lat="46.3593" lon="5.56907">
        <ele>474.4</ele>
        <time>2022-07-14T05:46:10Z</time>
      </trkpt>
      <trkpt lat="46.35923" lon="5.56917">
        <ele>473.2</ele>
        <time>2022-07-14T05:46:11Z</time>
      </trkpt>
      <trkpt lat="46.35916" lon="5.56925">
        <ele>472.6</ele>
        <time>2022-07-14T05:46:12Z</time>
      </trkpt>
      <trkpt lat="46.35911" lon="5.56927">
        <ele>471.8</ele>
        <time>2022-07-14T05:46:13Z</time>
      </trkpt>
      <trkpt lat="46.35905" lon="5.56927">
        <ele>471.6</ele>
        <time>2022-07-14T05:46:14Z</time>
      </trkpt>
      <trkpt lat="46.359" lon="5.56925">
        <ele>471.4</ele>
        <time>2022-07-14T05:46:15Z</time>
      </trkpt>
      <trkpt lat="46.35895" lon="5.56924">
        <ele>471.4</ele>
        <time>2022-07-14T05:46:16Z</time>
      </trkpt>
      <trkpt lat="46.35882" lon="5.56923">
        <ele>471.4</ele>
        <time>2022-07-14T05:46:19Z</time>
      </trkpt>
      <trkpt lat="46.35867" lon="5.56922">
        <ele>472.4</ele>
        <time>2022-07-14T05:46:23Z</time>
      </trkpt>
      <trkpt lat="46.3586" lon="5.56925">
        <ele>472.8</ele>
        <time>2022-07-14T05:46:25Z</time>
      </trkpt>
      <trkpt lat="46.3585" lon="5.56936">
        <ele>474</ele>
        <time>2022-07-14T05:46:28Z</time>
      </trkpt>
      <trkpt lat="46.3585" lon="5.56936">
        <ele>474.4</ele>
        <time>2022-07-14T05:46:29Z</time>
      </trkpt>
      <trkpt lat="46.35845" lon="5.56951">
        <ele>475.2</ele>
        <time>2022-07-14T05:46:32Z</time>
      </trkpt>
      <trkpt lat="46.35842" lon="5.56961">
        <ele>476.2</ele>
        <time>2022-07-14T05:46:34Z</time>
      </trkpt>
      <trkpt lat="46.35833" lon="5.56993">
        <ele>477.4</ele>
        <time>2022-07-14T05:46:40Z</time>
      </trkpt>
      <trkpt lat="46.35828" lon="5.5701">
        <ele>477.8</ele>
        <time>2022-07-14T05:46:43Z</time>
      </trkpt>
      <trkpt lat="46.3582" lon="5.57041">
        <ele>478.4</ele>
        <time>2022-07-14T05:46:48Z</time>
      </trkpt>
      <trkpt lat="46.35817" lon="5.5706">
        <ele>478.6</ele>
        <time>2022-07-14T05:46:51Z</time>
      </trkpt>
      <trkpt lat="46.35812" lon="5.57097">
        <ele>479.6</ele>
        <time>2022-07-14T05:46:57Z</time>
      </trkpt>
      <trkpt lat="46.3581" lon="5.5711">
        <ele>479.8</ele>
        <time>2022-07-14T05:46:59Z</time>
      </trkpt>
      <trkpt lat="46.35808" lon="5.57142">
        <ele>480.8</ele>
        <time>2022-07-14T05:47:04Z</time>
      </trkpt>
      <trkpt lat="46.35803" lon="5.57168">
        <ele>481</ele>
        <time>2022-07-14T05:47:08Z</time>
      </trkpt>
      <trkpt lat="46.358" lon="5.57192">
        <ele>481.6</ele>
        <time>2022-07-14T05:47:12Z</time>
      </trkpt>
      <trkpt lat="46.35799" lon="5.57198">
        <ele>481.8</ele>
        <time>2022-07-14T05:47:13Z</time>
      </trkpt>
      <trkpt lat="46.35798" lon="5.57208">
        <ele>482.2</ele>
        <time>2022-07-14T05:47:15Z</time>
      </trkpt>
      <trkpt lat="46.35795" lon="5.57224">
        <ele>483.2</ele>
        <time>2022-07-14T05:47:18Z</time>
      </trkpt>
      <trkpt lat="46.3579" lon="5.57248">
        <ele>484.2</ele>
        <time>2022-07-14T05:47:22Z</time>
      </trkpt>
      <trkpt lat="46.35789" lon="5.57253">
        <ele>484.4</ele>
        <time>2022-07-14T05:47:23Z</time>
      </trkpt>
      <trkpt lat="46.35788" lon="5.57259">
        <ele>484.4</ele>
        <time>2022-07-14T05:47:24Z</time>
      </trkpt>
      <trkpt lat="46.35783" lon="5.57292">
        <ele>485</ele>
        <time>2022-07-14T05:47:29Z</time>
      </trkpt>
      <trkpt lat="46.35781" lon="5.57304">
        <ele>485.2</ele>
        <time>2022-07-14T05:47:31Z</time>
      </trkpt>
      <trkpt lat="46.35778" lon="5.57324">
        <ele>486</ele>
        <time>2022-07-14T05:47:35Z</time>
      </trkpt>
      <trkpt lat="46.35778" lon="5.57329">
        <ele>486.4</ele>
        <time>2022-07-14T05:47:36Z</time>
      </trkpt>
      <trkpt lat="46.35774" lon="5.5735">
        <ele>487.4</ele>
        <time>2022-07-14T05:47:40Z</time>
      </trkpt>
      <trkpt lat="46.35772" lon="5.57365">
        <ele>488.2</ele>
        <time>2022-07-14T05:47:43Z</time>
      </trkpt>
      <trkpt lat="46.3577" lon="5.57375">
        <ele>488.6</ele>
        <time>2022-07-14T05:47:45Z</time>
      </trkpt>
      <trkpt lat="46.35765" lon="5.57395">
        <ele>489.6</ele>
        <time>2022-07-14T05:47:49Z</time>
      </trkpt>
      <trkpt lat="46.35761" lon="5.57417">
        <ele>490.8</ele>
        <time>2022-07-14T05:47:53Z</time>
      </trkpt>
      <trkpt lat="46.35759" lon="5.57428">
        <ele>491.2</ele>
        <time>2022-07-14T05:47:55Z</time>
      </trkpt>
      <trkpt lat="46.35753" lon="5.57444">
        <ele>491.8</ele>
        <time>2022-07-14T05:47:59Z</time>
      </trkpt>
      <trkpt lat="46.35749" lon="5.57451">
        <ele>492.4</ele>
        <time>2022-07-14T05:48:01Z</time>
      </trkpt>
      <trkpt lat="46.35746" lon="5.57458">
        <ele>493</ele>
        <time>2022-07-14T05:48:03Z</time>
      </trkpt>
      <trkpt lat="46.3574" lon="5.57467">
        <ele>494.4</ele>
        <time>2022-07-14T05:48:06Z</time>
      </trkpt>
      <trkpt lat="46.35724" lon="5.57478">
        <ele>495.6</ele>
        <time>2022-07-14T05:48:12Z</time>
      </trkpt>
      <trkpt lat="46.35716" lon="5.5748">
        <ele>496.8</ele>
        <time>2022-07-14T05:48:15Z</time>
      </trkpt>
      <trkpt lat="46.35708" lon="5.57479">
        <ele>498</ele>
        <time>2022-07-14T05:48:18Z</time>
      </trkpt>
      <trkpt lat="46.35705" lon="5.57478">
        <ele>498.2</ele>
        <time>2022-07-14T05:48:19Z</time>
      </trkpt>
      <trkpt lat="46.35696" lon="5.57477">
        <ele>499</ele>
        <time>2022-07-14T05:48:22Z</time>
      </trkpt>
      <trkpt lat="46.35683" lon="5.57474">
        <ele>499.6</ele>
        <time>2022-07-14T05:48:26Z</time>
      </trkpt>
      <trkpt lat="46.35662" lon="5.57466">
        <ele>500.2</ele>
        <time>2022-07-14T05:48:31Z</time>
      </trkpt>
      <trkpt lat="46.35654" lon="5.57463">
        <ele>500.2</ele>
        <time>2022-07-14T05:48:33Z</time>
      </trkpt>
      <trkpt lat="46.35618" lon="5.57449">
        <ele>500.6</ele>
        <time>2022-07-14T05:48:41Z</time>
      </trkpt>
      <trkpt lat="46.35613" lon="5.57446">
        <ele>500.6</ele>
        <time>2022-07-14T05:48:42Z</time>
      </trkpt>
      <trkpt lat="46.35596" lon="5.57437">
        <ele>500.8</ele>
        <time>2022-07-14T05:48:45Z</time>
      </trkpt>
      <trkpt lat="46.35565" lon="5.57412">
        <ele>500.4</ele>
        <time>2022-07-14T05:48:51Z</time>
      </trkpt>
      <trkpt lat="46.35539" lon="5.5739">
        <ele>501.2</ele>
        <time>2022-07-14T05:48:57Z</time>
      </trkpt>
      <trkpt lat="46.35525" lon="5.57378">
        <ele>502.6</ele>
        <time>2022-07-14T05:49:01Z</time>
      </trkpt>
      <trkpt lat="46.35521" lon="5.57375">
        <ele>503.6</ele>
        <time>2022-07-14T05:49:02Z</time>
      </trkpt>
      <trkpt lat="46.35517" lon="5.57373">
        <ele>504</ele>
        <time>2022-07-14T05:49:03Z</time>
      </trkpt>
      <trkpt lat="46.35509" lon="5.57368">
        <ele>505</ele>
        <time>2022-07-14T05:49:05Z</time>
      </trkpt>
      <trkpt lat="46.35496" lon="5.57362">
        <ele>506</ele>
        <time>2022-07-14T05:49:08Z</time>
      </trkpt>
      <trkpt lat="46.35492" lon="5.5736">
        <ele>506.2</ele>
        <time>2022-07-14T05:49:09Z</time>
      </trkpt>
      <trkpt lat="46.35483" lon="5.57356">
        <ele>506.8</ele>
        <time>2022-07-14T05:49:11Z</time>
      </trkpt>
      <trkpt lat="46.35474" lon="5.57351">
        <ele>507.2</ele>
        <time>2022-07-14T05:49:13Z</time>
      </trkpt>
      <trkpt lat="46.35431" lon="5.57329">
        <ele>508.2</ele>
        <time>2022-07-14T05:49:23Z</time>
      </trkpt>
      <trkpt lat="46.35408" lon="5.57318">
        <ele>509.6</ele>
        <time>2022-07-14T05:49:29Z</time>
      </trkpt>
      <trkpt lat="46.35401" lon="5.57314">
        <ele>510.2</ele>
        <time>2022-07-14T05:49:31Z</time>
      </trkpt>
      <trkpt lat="46.35397" lon="5.57312">
        <ele>510.6</ele>
        <time>2022-07-14T05:49:32Z</time>
      </trkpt>
      <trkpt lat="46.35378" lon="5.57303">
        <ele>511.6</ele>
        <time>2022-07-14T05:49:37Z</time>
      </trkpt>
      <trkpt lat="46.35364" lon="5.57295">
        <ele>512.2</ele>
        <time>2022-07-14T05:49:41Z</time>
      </trkpt>
      <trkpt lat="46.35357" lon="5.5729">
        <ele>512.8</ele>
        <time>2022-07-14T05:49:43Z</time>
      </trkpt>
      <trkpt lat="46.3534" lon="5.57283">
        <ele>514.2</ele>
        <time>2022-07-14T05:49:48Z</time>
      </trkpt>
      <trkpt lat="46.35337" lon="5.57282">
        <ele>514.4</ele>
        <time>2022-07-14T05:49:49Z</time>
      </trkpt>
      <trkpt lat="46.35322" lon="5.57277">
        <ele>515.4</ele>
        <time>2022-07-14T05:49:53Z</time>
      </trkpt>
      <trkpt lat="46.3531" lon="5.57276">
        <ele>516.2</ele>
        <time>2022-07-14T05:49:56Z</time>
      </trkpt>
      <trkpt lat="46.3528" lon="5.57277">
        <ele>516.4</ele>
        <time>2022-07-14T05:50:02Z</time>
      </trkpt>
      <trkpt lat="46.3526" lon="5.5727">
        <ele>516</ele>
        <time>2022-07-14T05:50:05Z</time>
      </trkpt>
      <trkpt lat="46.35254" lon="5.57267">
        <ele>515.4</ele>
        <time>2022-07-14T05:50:06Z</time>
      </trkpt>
      <trkpt lat="46.35237" lon="5.57254">
        <ele>514.4</ele>
        <time>2022-07-14T05:50:09Z</time>
      </trkpt>
      <trkpt lat="46.35221" lon="5.57241">
        <ele>514</ele>
        <time>2022-07-14T05:50:12Z</time>
      </trkpt>
      <trkpt lat="46.35215" lon="5.57239">
        <ele>513.8</ele>
        <time>2022-07-14T05:50:13Z</time>
      </trkpt>
      <trkpt lat="46.35204" lon="5.57239">
        <ele>513.8</ele>
        <time>2022-07-14T05:50:15Z</time>
      </trkpt>
      <trkpt lat="46.35195" lon="5.57246">
        <ele>514</ele>
        <time>2022-07-14T05:50:17Z</time>
      </trkpt>
      <trkpt lat="46.35192" lon="5.57251">
        <ele>514</ele>
        <time>2022-07-14T05:50:18Z</time>
      </trkpt>
      <trkpt lat="46.35186" lon="5.57261">
        <ele>514.4</ele>
        <time>2022-07-14T05:50:20Z</time>
      </trkpt>
      <trkpt lat="46.35176" lon="5.5728">
        <ele>515.6</ele>
        <time>2022-07-14T05:50:24Z</time>
      </trkpt>
      <trkpt lat="46.3517" lon="5.57293">
        <ele>517</ele>
        <time>2022-07-14T05:50:27Z</time>
      </trkpt>
      <trkpt lat="46.35164" lon="5.57305">
        <ele>518</ele>
        <time>2022-07-14T05:50:30Z</time>
      </trkpt>
      <trkpt lat="46.35158" lon="5.57316">
        <ele>519.2</ele>
        <time>2022-07-14T05:50:33Z</time>
      </trkpt>
      <trkpt lat="46.35156" lon="5.57319">
        <ele>519.6</ele>
        <time>2022-07-14T05:50:34Z</time>
      </trkpt>
      <trkpt lat="46.35152" lon="5.57325">
        <ele>520.2</ele>
        <time>2022-07-14T05:50:36Z</time>
      </trkpt>
      <trkpt lat="46.35147" lon="5.57335">
        <ele>521.6</ele>
        <time>2022-07-14T05:50:39Z</time>
      </trkpt>
      <trkpt lat="46.35144" lon="5.57341">
        <ele>522.2</ele>
        <time>2022-07-14T05:50:41Z</time>
      </trkpt>
      <trkpt lat="46.35141" lon="5.57347">
        <ele>522.8</ele>
        <time>2022-07-14T05:50:43Z</time>
      </trkpt>
      <trkpt lat="46.35136" lon="5.57355">
        <ele>524</ele>
        <time>2022-07-14T05:50:46Z</time>
      </trkpt>
      <trkpt lat="46.35132" lon="5.57364">
        <ele>525</ele>
        <time>2022-07-14T05:50:49Z</time>
      </trkpt>
      <trkpt lat="46.3513" lon="5.57366">
        <ele>525.2</ele>
        <time>2022-07-14T05:50:50Z</time>
      </trkpt>
      <trkpt lat="46.35123" lon="5.57377">
        <ele>526.6</ele>
        <time>2022-07-14T05:50:54Z</time>
      </trkpt>
      <trkpt lat="46.35115" lon="5.57386">
        <ele>527.8</ele>
        <time>2022-07-14T05:50:58Z</time>
      </trkpt>
      <trkpt lat="46.35107" lon="5.57391">
        <ele>529</ele>
        <time>2022-07-14T05:51:02Z</time>
      </trkpt>
      <trkpt lat="46.35101" lon="5.57395">
        <ele>530</ele>
        <time>2022-07-14T05:51:05Z</time>
      </trkpt>
      <trkpt lat="46.35099" lon="5.57396">
        <ele>530.2</ele>
        <time>2022-07-14T05:51:06Z</time>
      </trkpt>
      <trkpt lat="46.3509" lon="5.57399">
        <ele>531.2</ele>
        <time>2022-07-14T05:51:10Z</time>
      </trkpt>
      <trkpt lat="46.35084" lon="5.57402">
        <ele>532.2</ele>
        <time>2022-07-14T05:51:13Z</time>
      </trkpt>
      <trkpt lat="46.35079" lon="5.57403">
        <ele>532.6</ele>
        <time>2022-07-14T05:51:15Z</time>
      </trkpt>
      <trkpt lat="46.3507" lon="5.57406">
        <ele>533.6</ele>
        <time>2022-07-14T05:51:19Z</time>
      </trkpt>
      <trkpt lat="46.35063" lon="5.57408">
        <ele>534.6</ele>
        <time>2022-07-14T05:51:22Z</time>
      </trkpt>
      <trkpt lat="46.35061" lon="5.57409">
        <ele>534.6</ele>
        <time>2022-07-14T05:51:23Z</time>
      </trkpt>
      <trkpt lat="46.35053" lon="5.57413">
        <ele>536</ele>
        <time>2022-07-14T05:51:27Z</time>
      </trkpt>
      <trkpt lat="46.35049" lon="5.57414">
        <ele>536.6</ele>
        <time>2022-07-14T05:51:29Z</time>
      </trkpt>
      <trkpt lat="46.35045" lon="5.57416">
        <ele>537.2</ele>
        <time>2022-07-14T05:51:31Z</time>
      </trkpt>
      <trkpt lat="46.35035" lon="5.57419">
        <ele>538.2</ele>
        <time>2022-07-14T05:51:36Z</time>
      </trkpt>
      <trkpt lat="46.35028" lon="5.57422">
        <ele>539.2</ele>
        <time>2022-07-14T05:51:40Z</time>
      </trkpt>
      <trkpt lat="46.35026" lon="5.57423">
        <ele>539.4</ele>
        <time>2022-07-14T05:51:41Z</time>
      </trkpt>
      <trkpt lat="46.35019" lon="5.57426">
        <ele>540.8</ele>
        <time>2022-07-14T05:51:45Z</time>
      </trkpt>
      <trkpt lat="46.3501" lon="5.57429">
        <ele>541.8</ele>
        <time>2022-07-14T05:51:49Z</time>
      </trkpt>
      <trkpt lat="46.34997" lon="5.57431">
        <ele>543.2</ele>
        <time>2022-07-14T05:51:55Z</time>
      </trkpt>
      <trkpt lat="46.34984" lon="5.57426">
        <ele>544.4</ele>
        <time>2022-07-14T05:52:01Z</time>
      </trkpt>
      <trkpt lat="46.34972" lon="5.57419">
        <ele>545.6</ele>
        <time>2022-07-14T05:52:06Z</time>
      </trkpt>
      <trkpt lat="46.34959" lon="5.57412">
        <ele>546.6</ele>
        <time>2022-07-14T05:52:11Z</time>
      </trkpt>
      <trkpt lat="46.34956" lon="5.57411">
        <ele>546.6</ele>
        <time>2022-07-14T05:52:12Z</time>
      </trkpt>
      <trkpt lat="46.34947" lon="5.57412">
        <ele>547.2</ele>
        <time>2022-07-14T05:52:16Z</time>
      </trkpt>
      <trkpt lat="46.34942" lon="5.57424">
        <ele>548</ele>
        <time>2022-07-14T05:52:20Z</time>
      </trkpt>
      <trkpt lat="46.34942" lon="5.57427">
        <ele>548.2</ele>
        <time>2022-07-14T05:52:21Z</time>
      </trkpt>
      <trkpt lat="46.34943" lon="5.5743">
        <ele>548.4</ele>
        <time>2022-07-14T05:52:22Z</time>
      </trkpt>
      <trkpt lat="46.34946" lon="5.57436">
        <ele>549</ele>
        <time>2022-07-14T05:52:24Z</time>
      </trkpt>
      <trkpt lat="46.34949" lon="5.57439">
        <ele>549.2</ele>
        <time>2022-07-14T05:52:25Z</time>
      </trkpt>
      <trkpt lat="46.3496" lon="5.57458">
        <ele>550.4</ele>
        <time>2022-07-14T05:52:31Z</time>
      </trkpt>
      <trkpt lat="46.34962" lon="5.57461">
        <ele>550.6</ele>
        <time>2022-07-14T05:52:32Z</time>
      </trkpt>
      <trkpt lat="46.34971" lon="5.57473">
        <ele>551.2</ele>
        <time>2022-07-14T05:52:36Z</time>
      </trkpt>
      <trkpt lat="46.34977" lon="5.5748">
        <ele>551.8</ele>
        <time>2022-07-14T05:52:39Z</time>
      </trkpt>
      <trkpt lat="46.34981" lon="5.57485">
        <ele>552.2</ele>
        <time>2022-07-14T05:52:41Z</time>
      </trkpt>
      <trkpt lat="46.34989" lon="5.57494">
        <ele>553</ele>
        <time>2022-07-14T05:52:45Z</time>
      </trkpt>
      <trkpt lat="46.34992" lon="5.57497">
        <ele>553.4</ele>
        <time>2022-07-14T05:52:46Z</time>
      </trkpt>
      <trkpt lat="46.35" lon="5.57506">
        <ele>554.4</ele>
        <time>2022-07-14T05:52:50Z</time>
      </trkpt>
      <trkpt lat="46.3501" lon="5.57515">
        <ele>555.2</ele>
        <time>2022-07-14T05:52:54Z</time>
      </trkpt>
      <trkpt lat="46.35012" lon="5.57517">
        <ele>555.6</ele>
        <time>2022-07-14T05:52:55Z</time>
      </trkpt>
      <trkpt lat="46.35029" lon="5.57529">
        <ele>556.6</ele>
        <time>2022-07-14T05:53:01Z</time>
      </trkpt>
      <trkpt lat="46.3504" lon="5.57535">
        <ele>557.2</ele>
        <time>2022-07-14T05:53:05Z</time>
      </trkpt>
      <trkpt lat="46.35047" lon="5.57537">
        <ele>557.8</ele>
        <time>2022-07-14T05:53:07Z</time>
      </trkpt>
      <trkpt lat="46.35058" lon="5.57546">
        <ele>558.6</ele>
        <time>2022-07-14T05:53:12Z</time>
      </trkpt>
      <trkpt lat="46.35059" lon="5.5755">
        <ele>559</ele>
        <time>2022-07-14T05:53:13Z</time>
      </trkpt>
      <trkpt lat="46.35056" lon="5.57556">
        <ele>559.2</ele>
        <time>2022-07-14T05:53:15Z</time>
      </trkpt>
      <trkpt lat="46.3505" lon="5.57556">
        <ele>559.6</ele>
        <time>2022-07-14T05:53:17Z</time>
      </trkpt>
      <trkpt lat="46.35048" lon="5.57555">
        <ele>560</ele>
        <time>2022-07-14T05:53:18Z</time>
      </trkpt>
      <trkpt lat="46.35045" lon="5.57553">
        <ele>560</ele>
        <time>2022-07-14T05:53:19Z</time>
      </trkpt>
      <trkpt lat="46.35028" lon="5.5755">
        <ele>561.2</ele>
        <time>2022-07-14T05:53:24Z</time>
      </trkpt>
      <trkpt lat="46.35022" lon="5.5755">
        <ele>561.6</ele>
        <time>2022-07-14T05:53:26Z</time>
      </trkpt>
      <trkpt lat="46.35013" lon="5.57549">
        <ele>562.4</ele>
        <time>2022-07-14T05:53:29Z</time>
      </trkpt>
      <trkpt lat="46.34998" lon="5.57547">
        <ele>563.4</ele>
        <time>2022-07-14T05:53:34Z</time>
      </trkpt>
      <trkpt lat="46.34995" lon="5.57546">
        <ele>563.8</ele>
        <time>2022-07-14T05:53:35Z</time>
      </trkpt>
      <trkpt lat="46.34981" lon="5.57544">
        <ele>564.8</ele>
        <time>2022-07-14T05:53:40Z</time>
      </trkpt>
      <trkpt lat="46.34969" lon="5.57543">
        <ele>565.6</ele>
        <time>2022-07-14T05:53:44Z</time>
      </trkpt>
      <trkpt lat="46.34966" lon="5.57543">
        <ele>565.8</ele>
        <time>2022-07-14T05:53:45Z</time>
      </trkpt>
      <trkpt lat="46.34941" lon="5.57539">
        <ele>566.8</ele>
        <time>2022-07-14T05:53:53Z</time>
      </trkpt>
      <trkpt lat="46.34928" lon="5.57531">
        <ele>568.2</ele>
        <time>2022-07-14T05:53:57Z</time>
      </trkpt>
      <trkpt lat="46.34919" lon="5.57524">
        <ele>569.2</ele>
        <time>2022-07-14T05:54:01Z</time>
      </trkpt>
      <trkpt lat="46.34916" lon="5.57522">
        <ele>569.4</ele>
        <time>2022-07-14T05:54:02Z</time>
      </trkpt>
      <trkpt lat="46.34901" lon="5.57505">
        <ele>570.2</ele>
        <time>2022-07-14T05:54:08Z</time>
      </trkpt>
      <trkpt lat="46.34898" lon="5.57502">
        <ele>570.4</ele>
        <time>2022-07-14T05:54:09Z</time>
      </trkpt>
      <trkpt lat="46.34888" lon="5.57485">
        <ele>571.2</ele>
        <time>2022-07-14T05:54:14Z</time>
      </trkpt>
      <trkpt lat="46.34885" lon="5.57482">
        <ele>571.4</ele>
        <time>2022-07-14T05:54:15Z</time>
      </trkpt>
      <trkpt lat="46.34869" lon="5.5747">
        <ele>572.6</ele>
        <time>2022-07-14T05:54:21Z</time>
      </trkpt>
      <trkpt lat="46.34853" lon="5.5746">
        <ele>573.8</ele>
        <time>2022-07-14T05:54:27Z</time>
      </trkpt>
      <trkpt lat="46.3485" lon="5.57458">
        <ele>574</ele>
        <time>2022-07-14T05:54:28Z</time>
      </trkpt>
      <trkpt lat="46.34842" lon="5.57449">
        <ele>574.8</ele>
        <time>2022-07-14T05:54:31Z</time>
      </trkpt>
      <trkpt lat="46.34838" lon="5.57439">
        <ele>575</ele>
        <time>2022-07-14T05:54:33Z</time>
      </trkpt>
      <trkpt lat="46.34835" lon="5.57435">
        <ele>575.2</ele>
        <time>2022-07-14T05:54:34Z</time>
      </trkpt>
      <trkpt lat="46.34823" lon="5.57421">
        <ele>575.2</ele>
        <time>2022-07-14T05:54:37Z</time>
      </trkpt>
      <trkpt lat="46.34795" lon="5.57392">
        <ele>574.4</ele>
        <time>2022-07-14T05:54:42Z</time>
      </trkpt>
      <trkpt lat="46.34788" lon="5.57387">
        <ele>573.8</ele>
        <time>2022-07-14T05:54:43Z</time>
      </trkpt>
      <trkpt lat="46.34781" lon="5.57383">
        <ele>573.4</ele>
        <time>2022-07-14T05:54:44Z</time>
      </trkpt>
      <trkpt lat="46.34772" lon="5.57381">
        <ele>572.8</ele>
        <time>2022-07-14T05:54:45Z</time>
      </trkpt>
      <trkpt lat="46.34763" lon="5.5738">
        <ele>572</ele>
        <time>2022-07-14T05:54:46Z</time>
      </trkpt>
      <trkpt lat="46.34744" lon="5.57376">
        <ele>571</ele>
        <time>2022-07-14T05:54:48Z</time>
      </trkpt>
      <trkpt lat="46.34734" lon="5.57374">
        <ele>570.8</ele>
        <time>2022-07-14T05:54:49Z</time>
      </trkpt>
      <trkpt lat="46.34714" lon="5.57367">
        <ele>569.8</ele>
        <time>2022-07-14T05:54:51Z</time>
      </trkpt>
      <trkpt lat="46.34704" lon="5.57364">
        <ele>568.4</ele>
        <time>2022-07-14T05:54:52Z</time>
      </trkpt>
      <trkpt lat="46.34691" lon="5.57362">
        <ele>567.8</ele>
        <time>2022-07-14T05:54:53Z</time>
      </trkpt>
      <trkpt lat="46.34683" lon="5.57361">
        <ele>566.8</ele>
        <time>2022-07-14T05:54:54Z</time>
      </trkpt>
      <trkpt lat="46.34652" lon="5.57359">
        <ele>565.2</ele>
        <time>2022-07-14T05:54:57Z</time>
      </trkpt>
      <trkpt lat="46.34643" lon="5.57358">
        <ele>564.6</ele>
        <time>2022-07-14T05:54:58Z</time>
      </trkpt>
      <trkpt lat="46.34634" lon="5.57354">
        <ele>563.4</ele>
        <time>2022-07-14T05:54:59Z</time>
      </trkpt>
      <trkpt lat="46.34626" lon="5.57349">
        <ele>563</ele>
        <time>2022-07-14T05:55:00Z</time>
      </trkpt>
      <trkpt lat="46.34616" lon="5.5734">
        <ele>562</ele>
        <time>2022-07-14T05:55:01Z</time>
      </trkpt>
      <trkpt lat="46.3461" lon="5.5733">
        <ele>560.8</ele>
        <time>2022-07-14T05:55:02Z</time>
      </trkpt>
      <trkpt lat="46.34601" lon="5.57309">
        <ele>559.4</ele>
        <time>2022-07-14T05:55:04Z</time>
      </trkpt>
      <trkpt lat="46.34599" lon="5.57298">
        <ele>558.8</ele>
        <time>2022-07-14T05:55:05Z</time>
      </trkpt>
      <trkpt lat="46.346" lon="5.57288">
        <ele>557.8</ele>
        <time>2022-07-14T05:55:06Z</time>
      </trkpt>
      <trkpt lat="46.34603" lon="5.57276">
        <ele>557.6</ele>
        <time>2022-07-14T05:55:07Z</time>
      </trkpt>
      <trkpt lat="46.34611" lon="5.57255">
        <ele>556.4</ele>
        <time>2022-07-14T05:55:09Z</time>
      </trkpt>
      <trkpt lat="46.34612" lon="5.57226">
        <ele>555.2</ele>
        <time>2022-07-14T05:55:11Z</time>
      </trkpt>
      <trkpt lat="46.34606" lon="5.57204">
        <ele>554</ele>
        <time>2022-07-14T05:55:13Z</time>
      </trkpt>
      <trkpt lat="46.34598" lon="5.57188">
        <ele>552</ele>
        <time>2022-07-14T05:55:15Z</time>
      </trkpt>
      <trkpt lat="46.34593" lon="5.57181">
        <ele>550.6</ele>
        <time>2022-07-14T05:55:16Z</time>
      </trkpt>
      <trkpt lat="46.34589" lon="5.57179">
        <ele>550</ele>
        <time>2022-07-14T05:55:17Z</time>
      </trkpt>
      <trkpt lat="46.34585" lon="5.5718">
        <ele>549</ele>
        <time>2022-07-14T05:55:18Z</time>
      </trkpt>
      <trkpt lat="46.34581" lon="5.57184">
        <ele>548.2</ele>
        <time>2022-07-14T05:55:19Z</time>
      </trkpt>
      <trkpt lat="46.34574" lon="5.57191">
        <ele>546.8</ele>
        <time>2022-07-14T05:55:20Z</time>
      </trkpt>
      <trkpt lat="46.34565" lon="5.57198">
        <ele>546.2</ele>
        <time>2022-07-14T05:55:21Z</time>
      </trkpt>
      <trkpt lat="46.34555" lon="5.57205">
        <ele>545.2</ele>
        <time>2022-07-14T05:55:22Z</time>
      </trkpt>
      <trkpt lat="46.34545" lon="5.57207">
        <ele>544</ele>
        <time>2022-07-14T05:55:23Z</time>
      </trkpt>
      <trkpt lat="46.34535" lon="5.57207">
        <ele>543.6</ele>
        <time>2022-07-14T05:55:24Z</time>
      </trkpt>
      <trkpt lat="46.34524" lon="5.57203">
        <ele>542.2</ele>
        <time>2022-07-14T05:55:25Z</time>
      </trkpt>
      <trkpt lat="46.34512" lon="5.57196">
        <ele>541.8</ele>
        <time>2022-07-14T05:55:26Z</time>
      </trkpt>
      <trkpt lat="46.34501" lon="5.57187">
        <ele>541</ele>
        <time>2022-07-14T05:55:27Z</time>
      </trkpt>
      <trkpt lat="46.34495" lon="5.57178">
        <ele>540.6</ele>
        <time>2022-07-14T05:55:28Z</time>
      </trkpt>
      <trkpt lat="46.34495" lon="5.57178">
        <ele>539.8</ele>
        <time>2022-07-14T05:55:29Z</time>
      </trkpt>
      <trkpt lat="46.34491" lon="5.57158">
        <ele>538.8</ele>
        <time>2022-07-14T05:55:30Z</time>
      </trkpt>
      <trkpt lat="46.34492" lon="5.57145">
        <ele>538.4</ele>
        <time>2022-07-14T05:55:31Z</time>
      </trkpt>
      <trkpt lat="46.34495" lon="5.57133">
        <ele>537.4</ele>
        <time>2022-07-14T05:55:32Z</time>
      </trkpt>
      <trkpt lat="46.34497" lon="5.57123">
        <ele>537</ele>
        <time>2022-07-14T05:55:33Z</time>
      </trkpt>
      <trkpt lat="46.34499" lon="5.5711">
        <ele>536</ele>
        <time>2022-07-14T05:55:34Z</time>
      </trkpt>
      <trkpt lat="46.34499" lon="5.57085">
        <ele>534.2</ele>
        <time>2022-07-14T05:55:36Z</time>
      </trkpt>
      <trkpt lat="46.34496" lon="5.57077">
        <ele>533.4</ele>
        <time>2022-07-14T05:55:37Z</time>
      </trkpt>
      <trkpt lat="46.34491" lon="5.57067">
        <ele>532.6</ele>
        <time>2022-07-14T05:55:38Z</time>
      </trkpt>
      <trkpt lat="46.34473" lon="5.57048">
        <ele>531.8</ele>
        <time>2022-07-14T05:55:40Z</time>
      </trkpt>
      <trkpt lat="46.34464" lon="5.5704">
        <ele>531</ele>
        <time>2022-07-14T05:55:41Z</time>
      </trkpt>
      <trkpt lat="46.34444" lon="5.57022">
        <ele>529.6</ele>
        <time>2022-07-14T05:55:43Z</time>
      </trkpt>
      <trkpt lat="46.34433" lon="5.57009">
        <ele>529.2</ele>
        <time>2022-07-14T05:55:44Z</time>
      </trkpt>
      <trkpt lat="46.34428" lon="5.57001">
        <ele>527.6</ele>
        <time>2022-07-14T05:55:45Z</time>
      </trkpt>
      <trkpt lat="46.34422" lon="5.56991">
        <ele>526.2</ele>
        <time>2022-07-14T05:55:46Z</time>
      </trkpt>
      <trkpt lat="46.34417" lon="5.56981">
        <ele>525.6</ele>
        <time>2022-07-14T05:55:47Z</time>
      </trkpt>
      <trkpt lat="46.34416" lon="5.5697">
        <ele>524.2</ele>
        <time>2022-07-14T05:55:48Z</time>
      </trkpt>
      <trkpt lat="46.34415" lon="5.56958">
        <ele>523.8</ele>
        <time>2022-07-14T05:55:49Z</time>
      </trkpt>
      <trkpt lat="46.34415" lon="5.56947">
        <ele>522.8</ele>
        <time>2022-07-14T05:55:50Z</time>
      </trkpt>
      <trkpt lat="46.34414" lon="5.56936">
        <ele>522.6</ele>
        <time>2022-07-14T05:55:51Z</time>
      </trkpt>
      <trkpt lat="46.34412" lon="5.56925">
        <ele>521.6</ele>
        <time>2022-07-14T05:55:52Z</time>
      </trkpt>
      <trkpt lat="46.3441" lon="5.56915">
        <ele>520.2</ele>
        <time>2022-07-14T05:55:53Z</time>
      </trkpt>
      <trkpt lat="46.34407" lon="5.56905">
        <ele>520</ele>
        <time>2022-07-14T05:55:54Z</time>
      </trkpt>
      <trkpt lat="46.34401" lon="5.56897">
        <ele>519.4</ele>
        <time>2022-07-14T05:55:55Z</time>
      </trkpt>
      <trkpt lat="46.34394" lon="5.56888">
        <ele>518.8</ele>
        <time>2022-07-14T05:55:56Z</time>
      </trkpt>
      <trkpt lat="46.34388" lon="5.56877">
        <ele>517.6</ele>
        <time>2022-07-14T05:55:57Z</time>
      </trkpt>
      <trkpt lat="46.34377" lon="5.56854">
        <ele>516.2</ele>
        <time>2022-07-14T05:55:59Z</time>
      </trkpt>
      <trkpt lat="46.34372" lon="5.56842">
        <ele>514.6</ele>
        <time>2022-07-14T05:56:00Z</time>
      </trkpt>
      <trkpt lat="46.34369" lon="5.5683">
        <ele>513.8</ele>
        <time>2022-07-14T05:56:01Z</time>
      </trkpt>
      <trkpt lat="46.34366" lon="5.56818">
        <ele>512.6</ele>
        <time>2022-07-14T05:56:02Z</time>
      </trkpt>
      <trkpt lat="46.34362" lon="5.56806">
        <ele>512.2</ele>
        <time>2022-07-14T05:56:03Z</time>
      </trkpt>
      <trkpt lat="46.34357" lon="5.56796">
        <ele>511</ele>
        <time>2022-07-14T05:56:04Z</time>
      </trkpt>
      <trkpt lat="46.34349" lon="5.56787">
        <ele>510.2</ele>
        <time>2022-07-14T05:56:05Z</time>
      </trkpt>
      <trkpt lat="46.34342" lon="5.56784">
        <ele>508.6</ele>
        <time>2022-07-14T05:56:06Z</time>
      </trkpt>
      <trkpt lat="46.34332" lon="5.56781">
        <ele>507.8</ele>
        <time>2022-07-14T05:56:07Z</time>
      </trkpt>
      <trkpt lat="46.34321" lon="5.5678">
        <ele>506.2</ele>
        <time>2022-07-14T05:56:08Z</time>
      </trkpt>
      <trkpt lat="46.3431" lon="5.56779">
        <ele>504.8</ele>
        <time>2022-07-14T05:56:09Z</time>
      </trkpt>
      <trkpt lat="46.34287" lon="5.56777">
        <ele>501.8</ele>
        <time>2022-07-14T05:56:11Z</time>
      </trkpt>
      <trkpt lat="46.34264" lon="5.56777">
        <ele>499.6</ele>
        <time>2022-07-14T05:56:13Z</time>
      </trkpt>
      <trkpt lat="46.34241" lon="5.56776">
        <ele>498.6</ele>
        <time>2022-07-14T05:56:15Z</time>
      </trkpt>
      <trkpt lat="46.34219" lon="5.56774">
        <ele>497.4</ele>
        <time>2022-07-14T05:56:17Z</time>
      </trkpt>
      <trkpt lat="46.34208" lon="5.56772">
        <ele>496.6</ele>
        <time>2022-07-14T05:56:18Z</time>
      </trkpt>
      <trkpt lat="46.34196" lon="5.56769">
        <ele>496.4</ele>
        <time>2022-07-14T05:56:19Z</time>
      </trkpt>
      <trkpt lat="46.34185" lon="5.56764">
        <ele>495.4</ele>
        <time>2022-07-14T05:56:20Z</time>
      </trkpt>
      <trkpt lat="46.34174" lon="5.56759">
        <ele>495</ele>
        <time>2022-07-14T05:56:21Z</time>
      </trkpt>
      <trkpt lat="46.34163" lon="5.56753">
        <ele>494</ele>
        <time>2022-07-14T05:56:22Z</time>
      </trkpt>
      <trkpt lat="46.34143" lon="5.56739">
        <ele>492.6</ele>
        <time>2022-07-14T05:56:24Z</time>
      </trkpt>
      <trkpt lat="46.34112" lon="5.56712">
        <ele>491.8</ele>
        <time>2022-07-14T05:56:28Z</time>
      </trkpt>
      <trkpt lat="46.34079" lon="5.56674">
        <ele>490.6</ele>
        <time>2022-07-14T05:56:33Z</time>
      </trkpt>
      <trkpt lat="46.34055" lon="5.56652">
        <ele>489.2</ele>
        <time>2022-07-14T05:56:36Z</time>
      </trkpt>
      <trkpt lat="46.34038" lon="5.56639">
        <ele>487.6</ele>
        <time>2022-07-14T05:56:38Z</time>
      </trkpt>
      <trkpt lat="46.3403" lon="5.56633">
        <ele>487</ele>
        <time>2022-07-14T05:56:39Z</time>
      </trkpt>
      <trkpt lat="46.34022" lon="5.56627">
        <ele>486.2</ele>
        <time>2022-07-14T05:56:40Z</time>
      </trkpt>
      <trkpt lat="46.34016" lon="5.56622">
        <ele>485.2</ele>
        <time>2022-07-14T05:56:41Z</time>
      </trkpt>
      <trkpt lat="46.34007" lon="5.56613">
        <ele>483.8</ele>
        <time>2022-07-14T05:56:43Z</time>
      </trkpt>
      <trkpt lat="46.34005" lon="5.56601">
        <ele>482.2</ele>
        <time>2022-07-14T05:56:45Z</time>
      </trkpt>
      <trkpt lat="46.34006" lon="5.56595">
        <ele>481.2</ele>
        <time>2022-07-14T05:56:46Z</time>
      </trkpt>
      <trkpt lat="46.34018" lon="5.56584">
        <ele>480</ele>
        <time>2022-07-14T05:56:49Z</time>
      </trkpt>
      <trkpt lat="46.34026" lon="5.56581">
        <ele>479</ele>
        <time>2022-07-14T05:56:50Z</time>
      </trkpt>
      <trkpt lat="46.34035" lon="5.56578">
        <ele>478.6</ele>
        <time>2022-07-14T05:56:51Z</time>
      </trkpt>
      <trkpt lat="46.34057" lon="5.56568">
        <ele>477.6</ele>
        <time>2022-07-14T05:56:53Z</time>
      </trkpt>
      <trkpt lat="46.34065" lon="5.56564">
        <ele>476.4</ele>
        <time>2022-07-14T05:56:55Z</time>
      </trkpt>
      <trkpt lat="46.34095" lon="5.56549">
        <ele>475.6</ele>
        <time>2022-07-14T05:56:58Z</time>
      </trkpt>
      <trkpt lat="46.34103" lon="5.56545">
        <ele>475</ele>
        <time>2022-07-14T05:56:59Z</time>
      </trkpt>
      <trkpt lat="46.34126" lon="5.56532">
        <ele>473.6</ele>
        <time>2022-07-14T05:57:02Z</time>
      </trkpt>
      <trkpt lat="46.34149" lon="5.56518">
        <ele>472.8</ele>
        <time>2022-07-14T05:57:05Z</time>
      </trkpt>
      <trkpt lat="46.34166" lon="5.56508">
        <ele>472.2</ele>
        <time>2022-07-14T05:57:07Z</time>
      </trkpt>
      <trkpt lat="46.34193" lon="5.56491">
        <ele>471.2</ele>
        <time>2022-07-14T05:57:10Z</time>
      </trkpt>
      <trkpt lat="46.34216" lon="5.56476">
        <ele>469</ele>
        <time>2022-07-14T05:57:13Z</time>
      </trkpt>
      <trkpt lat="46.34222" lon="5.56472">
        <ele>467.6</ele>
        <time>2022-07-14T05:57:14Z</time>
      </trkpt>
      <trkpt lat="46.34227" lon="5.56469">
        <ele>467.2</ele>
        <time>2022-07-14T05:57:15Z</time>
      </trkpt>
      <trkpt lat="46.34231" lon="5.56467">
        <ele>466.6</ele>
        <time>2022-07-14T05:57:16Z</time>
      </trkpt>
      <trkpt lat="46.34236" lon="5.56461">
        <ele>465.8</ele>
        <time>2022-07-14T05:57:18Z</time>
      </trkpt>
      <trkpt lat="46.34236" lon="5.56457">
        <ele>465.4</ele>
        <time>2022-07-14T05:57:19Z</time>
      </trkpt>
      <trkpt lat="46.34234" lon="5.56454">
        <ele>464.8</ele>
        <time>2022-07-14T05:57:20Z</time>
      </trkpt>
      <trkpt lat="46.34225" lon="5.5645">
        <ele>464</ele>
        <time>2022-07-14T05:57:22Z</time>
      </trkpt>
      <trkpt lat="46.34214" lon="5.56447">
        <ele>463.6</ele>
        <time>2022-07-14T05:57:24Z</time>
      </trkpt>
      <trkpt lat="46.34202" lon="5.56444">
        <ele>463.4</ele>
        <time>2022-07-14T05:57:26Z</time>
      </trkpt>
      <trkpt lat="46.3419" lon="5.56442">
        <ele>463.4</ele>
        <time>2022-07-14T05:57:28Z</time>
      </trkpt>
      <trkpt lat="46.34151" lon="5.56442">
        <ele>463.8</ele>
        <time>2022-07-14T05:57:34Z</time>
      </trkpt>
      <trkpt lat="46.34111" lon="5.56457">
        <ele>464.8</ele>
        <time>2022-07-14T05:57:41Z</time>
      </trkpt>
      <trkpt lat="46.34101" lon="5.56464">
        <ele>465.2</ele>
        <time>2022-07-14T05:57:43Z</time>
      </trkpt>
      <trkpt lat="46.3407" lon="5.56487">
        <ele>466</ele>
        <time>2022-07-14T05:57:49Z</time>
      </trkpt>
      <trkpt lat="46.34026" lon="5.56507">
        <ele>466</ele>
        <time>2022-07-14T05:57:57Z</time>
      </trkpt>
      <trkpt lat="46.34009" lon="5.56512">
        <ele>466.2</ele>
        <time>2022-07-14T05:58:00Z</time>
      </trkpt>
      <trkpt lat="46.33979" lon="5.56516">
        <ele>467</ele>
        <time>2022-07-14T05:58:05Z</time>
      </trkpt>
      <trkpt lat="46.33961" lon="5.56514">
        <ele>467.2</ele>
        <time>2022-07-14T05:58:08Z</time>
      </trkpt>
      <trkpt lat="46.33931" lon="5.56509">
        <ele>467.4</ele>
        <time>2022-07-14T05:58:13Z</time>
      </trkpt>
      <trkpt lat="46.33879" lon="5.56495">
        <ele>468.2</ele>
        <time>2022-07-14T05:58:22Z</time>
      </trkpt>
      <trkpt lat="46.33874" lon="5.56493">
        <ele>468.6</ele>
        <time>2022-07-14T05:58:23Z</time>
      </trkpt>
      <trkpt lat="46.33845" lon="5.56488">
        <ele>469.4</ele>
        <time>2022-07-14T05:58:28Z</time>
      </trkpt>
      <trkpt lat="46.3384" lon="5.56487">
        <ele>469.6</ele>
        <time>2022-07-14T05:58:29Z</time>
      </trkpt>
      <trkpt lat="46.33834" lon="5.56486">
        <ele>469.8</ele>
        <time>2022-07-14T05:58:30Z</time>
      </trkpt>
      <trkpt lat="46.33801" lon="5.56483">
        <ele>470.4</ele>
        <time>2022-07-14T05:58:36Z</time>
      </trkpt>
      <trkpt lat="46.33789" lon="5.56482">
        <ele>470.8</ele>
        <time>2022-07-14T05:58:38Z</time>
      </trkpt>
      <trkpt lat="46.33761" lon="5.5648">
        <ele>471.6</ele>
        <time>2022-07-14T05:58:43Z</time>
      </trkpt>
      <trkpt lat="46.33726" lon="5.56478">
        <ele>472.4</ele>
        <time>2022-07-14T05:58:49Z</time>
      </trkpt>
      <trkpt lat="46.3372" lon="5.56478">
        <ele>472.6</ele>
        <time>2022-07-14T05:58:50Z</time>
      </trkpt>
      <trkpt lat="46.33678" lon="5.56475">
        <ele>473.8</ele>
        <time>2022-07-14T05:58:57Z</time>
      </trkpt>
      <trkpt lat="46.33673" lon="5.56476">
        <ele>474.2</ele>
        <time>2022-07-14T05:58:59Z</time>
      </trkpt>
      <trkpt lat="46.3366" lon="5.56477">
        <ele>474.4</ele>
        <time>2022-07-14T05:59:01Z</time>
      </trkpt>
      <trkpt lat="46.33645" lon="5.56481">
        <ele>475</ele>
        <time>2022-07-14T05:59:04Z</time>
      </trkpt>
      <trkpt lat="46.33634" lon="5.56483">
        <ele>475.4</ele>
        <time>2022-07-14T05:59:06Z</time>
      </trkpt>
      <trkpt lat="46.33619" lon="5.56487">
        <ele>476.2</ele>
        <time>2022-07-14T05:59:09Z</time>
      </trkpt>
      <trkpt lat="46.33588" lon="5.56497">
        <ele>477.4</ele>
        <time>2022-07-14T05:59:15Z</time>
      </trkpt>
      <trkpt lat="46.33583" lon="5.56499">
        <ele>477.6</ele>
        <time>2022-07-14T05:59:16Z</time>
      </trkpt>
      <trkpt lat="46.33559" lon="5.56508">
        <ele>478.8</ele>
        <time>2022-07-14T05:59:21Z</time>
      </trkpt>
      <trkpt lat="46.3354" lon="5.56517">
        <ele>479.6</ele>
        <time>2022-07-14T05:59:25Z</time>
      </trkpt>
      <trkpt lat="46.33531" lon="5.56521">
        <ele>479.8</ele>
        <time>2022-07-14T05:59:27Z</time>
      </trkpt>
      <trkpt lat="46.33511" lon="5.56538">
        <ele>481.2</ele>
        <time>2022-07-14T05:59:32Z</time>
      </trkpt>
      <trkpt lat="46.33498" lon="5.56556">
        <ele>482.2</ele>
        <time>2022-07-14T05:59:36Z</time>
      </trkpt>
      <trkpt lat="46.33493" lon="5.56566">
        <ele>482.6</ele>
        <time>2022-07-14T05:59:38Z</time>
      </trkpt>
      <trkpt lat="46.33485" lon="5.56583">
        <ele>483.6</ele>
        <time>2022-07-14T05:59:41Z</time>
      </trkpt>
      <trkpt lat="46.33475" lon="5.56614">
        <ele>484.8</ele>
        <time>2022-07-14T05:59:46Z</time>
      </trkpt>
      <trkpt lat="46.33472" lon="5.5662">
        <ele>485</ele>
        <time>2022-07-14T05:59:47Z</time>
      </trkpt>
      <trkpt lat="46.33465" lon="5.56638">
        <ele>485.8</ele>
        <time>2022-07-14T05:59:50Z</time>
      </trkpt>
      <trkpt lat="46.3346" lon="5.5665">
        <ele>486.4</ele>
        <time>2022-07-14T05:59:52Z</time>
      </trkpt>
      <trkpt lat="46.33442" lon="5.56692">
        <ele>486.8</ele>
        <time>2022-07-14T05:59:58Z</time>
      </trkpt>
      <trkpt lat="46.33434" lon="5.56708">
        <ele>487</ele>
        <time>2022-07-14T06:00:01Z</time>
      </trkpt>
      <trkpt lat="46.3341" lon="5.56766">
        <ele>487.4</ele>
        <time>2022-07-14T06:00:09Z</time>
      </trkpt>
      <trkpt lat="46.3339" lon="5.5681">
        <ele>487.6</ele>
        <time>2022-07-14T06:00:15Z</time>
      </trkpt>
      <trkpt lat="46.33386" lon="5.56819">
        <ele>487.8</ele>
        <time>2022-07-14T06:00:16Z</time>
      </trkpt>
      <trkpt lat="46.33371" lon="5.56855">
        <ele>488</ele>
        <time>2022-07-14T06:00:21Z</time>
      </trkpt>
      <trkpt lat="46.33359" lon="5.56884">
        <ele>488.2</ele>
        <time>2022-07-14T06:00:25Z</time>
      </trkpt>
      <trkpt lat="46.33331" lon="5.56943">
        <ele>488.6</ele>
        <time>2022-07-14T06:00:33Z</time>
      </trkpt>
      <trkpt lat="46.33301" lon="5.57008">
        <ele>488.8</ele>
        <time>2022-07-14T06:00:41Z</time>
      </trkpt>
      <trkpt lat="46.33298" lon="5.57017">
        <ele>488.8</ele>
        <time>2022-07-14T06:00:42Z</time>
      </trkpt>
      <trkpt lat="46.33269" lon="5.57084">
        <ele>489</ele>
        <time>2022-07-14T06:00:50Z</time>
      </trkpt>
      <trkpt lat="46.33265" lon="5.57093">
        <ele>489</ele>
        <time>2022-07-14T06:00:51Z</time>
      </trkpt>
      <trkpt lat="46.33261" lon="5.57103">
        <ele>489</ele>
        <time>2022-07-14T06:00:52Z</time>
      </trkpt>
      <trkpt lat="46.33229" lon="5.57177">
        <ele>489.2</ele>
        <time>2022-07-14T06:01:01Z</time>
      </trkpt>
      <trkpt lat="46.332" lon="5.57232">
        <ele>489.2</ele>
        <time>2022-07-14T06:01:08Z</time>
      </trkpt>
      <trkpt lat="46.33167" lon="5.57266">
        <ele>488.6</ele>
        <time>2022-07-14T06:01:13Z</time>
      </trkpt>
      <trkpt lat="46.33132" lon="5.573">
        <ele>487.4</ele>
        <time>2022-07-14T06:01:18Z</time>
      </trkpt>
      <trkpt lat="46.33115" lon="5.57315">
        <ele>486.8</ele>
        <time>2022-07-14T06:01:20Z</time>
      </trkpt>
      <trkpt lat="46.33108" lon="5.57323">
        <ele>486</ele>
        <time>2022-07-14T06:01:21Z</time>
      </trkpt>
      <trkpt lat="46.33076" lon="5.57353">
        <ele>485</ele>
        <time>2022-07-14T06:01:25Z</time>
      </trkpt>
      <trkpt lat="46.33053" lon="5.57376">
        <ele>484.2</ele>
        <time>2022-07-14T06:01:28Z</time>
      </trkpt>
      <trkpt lat="46.33038" lon="5.57391">
        <ele>483.8</ele>
        <time>2022-07-14T06:01:30Z</time>
      </trkpt>
      <trkpt lat="46.33007" lon="5.57416">
        <ele>482.4</ele>
        <time>2022-07-14T06:01:34Z</time>
      </trkpt>
      <trkpt lat="46.32998" lon="5.5742">
        <ele>482.2</ele>
        <time>2022-07-14T06:01:35Z</time>
      </trkpt>
      <trkpt lat="46.32968" lon="5.5743">
        <ele>481.4</ele>
        <time>2022-07-14T06:01:38Z</time>
      </trkpt>
      <trkpt lat="46.3295" lon="5.57434">
        <ele>481</ele>
        <time>2022-07-14T06:01:40Z</time>
      </trkpt>
      <trkpt lat="46.32941" lon="5.57437">
        <ele>480.6</ele>
        <time>2022-07-14T06:01:41Z</time>
      </trkpt>
      <trkpt lat="46.32932" lon="5.57442">
        <ele>480.2</ele>
        <time>2022-07-14T06:01:42Z</time>
      </trkpt>
      <trkpt lat="46.32923" lon="5.57447">
        <ele>480</ele>
        <time>2022-07-14T06:01:43Z</time>
      </trkpt>
      <trkpt lat="46.32909" lon="5.57464">
        <ele>479.2</ele>
        <time>2022-07-14T06:01:45Z</time>
      </trkpt>
      <trkpt lat="46.32903" lon="5.57475">
        <ele>478.8</ele>
        <time>2022-07-14T06:01:46Z</time>
      </trkpt>
      <trkpt lat="46.32888" lon="5.5751">
        <ele>478</ele>
        <time>2022-07-14T06:01:49Z</time>
      </trkpt>
      <trkpt lat="46.32876" lon="5.57545">
        <ele>477.2</ele>
        <time>2022-07-14T06:01:52Z</time>
      </trkpt>
      <trkpt lat="46.32875" lon="5.57555">
        <ele>476.8</ele>
        <time>2022-07-14T06:01:53Z</time>
      </trkpt>
      <trkpt lat="46.32876" lon="5.57584">
        <ele>476.2</ele>
        <time>2022-07-14T06:01:55Z</time>
      </trkpt>
      <trkpt lat="46.32885" lon="5.57615">
        <ele>475.6</ele>
        <time>2022-07-14T06:01:57Z</time>
      </trkpt>
      <trkpt lat="46.32889" lon="5.57627">
        <ele>475.2</ele>
        <time>2022-07-14T06:01:59Z</time>
      </trkpt>
      <trkpt lat="46.32893" lon="5.57643">
        <ele>474.6</ele>
        <time>2022-07-14T06:02:00Z</time>
      </trkpt>
      <trkpt lat="46.329" lon="5.57686">
        <ele>473.6</ele>
        <time>2022-07-14T06:02:03Z</time>
      </trkpt>
      <trkpt lat="46.329" lon="5.57699">
        <ele>473.2</ele>
        <time>2022-07-14T06:02:04Z</time>
      </trkpt>
      <trkpt lat="46.32898" lon="5.57724">
        <ele>473</ele>
        <time>2022-07-14T06:02:06Z</time>
      </trkpt>
      <trkpt lat="46.32894" lon="5.57747">
        <ele>472.8</ele>
        <time>2022-07-14T06:02:08Z</time>
      </trkpt>
      <trkpt lat="46.32886" lon="5.57767">
        <ele>472.8</ele>
        <time>2022-07-14T06:02:10Z</time>
      </trkpt>
      <trkpt lat="46.32871" lon="5.57794">
        <ele>472.8</ele>
        <time>2022-07-14T06:02:13Z</time>
      </trkpt>
      <trkpt lat="46.32861" lon="5.57809">
        <ele>472.8</ele>
        <time>2022-07-14T06:02:15Z</time>
      </trkpt>
      <trkpt lat="46.32827" lon="5.57844">
        <ele>473</ele>
        <time>2022-07-14T06:02:21Z</time>
      </trkpt>
      <trkpt lat="46.32815" lon="5.57842">
        <ele>473</ele>
        <time>2022-07-14T06:02:23Z</time>
      </trkpt>
      <trkpt lat="46.32807" lon="5.57828">
        <ele>473.2</ele>
        <time>2022-07-14T06:02:25Z</time>
      </trkpt>
      <trkpt lat="46.32804" lon="5.5782">
        <ele>473.4</ele>
        <time>2022-07-14T06:02:26Z</time>
      </trkpt>
      <trkpt lat="46.32803" lon="5.5781">
        <ele>473.4</ele>
        <time>2022-07-14T06:02:27Z</time>
      </trkpt>
      <trkpt lat="46.328" lon="5.57783">
        <ele>473.4</ele>
        <time>2022-07-14T06:02:30Z</time>
      </trkpt>
      <trkpt lat="46.32798" lon="5.57767">
        <ele>474</ele>
        <time>2022-07-14T06:02:32Z</time>
      </trkpt>
      <trkpt lat="46.32796" lon="5.5775">
        <ele>474.6</ele>
        <time>2022-07-14T06:02:34Z</time>
      </trkpt>
      <trkpt lat="46.32795" lon="5.57742">
        <ele>474.8</ele>
        <time>2022-07-14T06:02:35Z</time>
      </trkpt>
      <trkpt lat="46.32795" lon="5.57733">
        <ele>474.8</ele>
        <time>2022-07-14T06:02:36Z</time>
      </trkpt>
      <trkpt lat="46.32794" lon="5.57705">
        <ele>475.2</ele>
        <time>2022-07-14T06:02:39Z</time>
      </trkpt>
      <trkpt lat="46.32789" lon="5.57689">
        <ele>475.8</ele>
        <time>2022-07-14T06:02:41Z</time>
      </trkpt>
      <trkpt lat="46.3278" lon="5.57677">
        <ele>476.4</ele>
        <time>2022-07-14T06:02:43Z</time>
      </trkpt>
      <trkpt lat="46.3277" lon="5.57671">
        <ele>476.6</ele>
        <time>2022-07-14T06:02:45Z</time>
      </trkpt>
      <trkpt lat="46.32759" lon="5.57669">
        <ele>476.8</ele>
        <time>2022-07-14T06:02:47Z</time>
      </trkpt>
      <trkpt lat="46.32753" lon="5.57669">
        <ele>477</ele>
        <time>2022-07-14T06:02:48Z</time>
      </trkpt>
      <trkpt lat="46.32735" lon="5.57668">
        <ele>477.8</ele>
        <time>2022-07-14T06:02:51Z</time>
      </trkpt>
      <trkpt lat="46.32724" lon="5.57663">
        <ele>478.4</ele>
        <time>2022-07-14T06:02:53Z</time>
      </trkpt>
      <trkpt lat="46.32719" lon="5.57659">
        <ele>478.6</ele>
        <time>2022-07-14T06:02:54Z</time>
      </trkpt>
      <trkpt lat="46.3271" lon="5.5765">
        <ele>479.2</ele>
        <time>2022-07-14T06:02:56Z</time>
      </trkpt>
      <trkpt lat="46.32706" lon="5.57644">
        <ele>479.4</ele>
        <time>2022-07-14T06:02:57Z</time>
      </trkpt>
      <trkpt lat="46.32703" lon="5.57638">
        <ele>479.6</ele>
        <time>2022-07-14T06:02:58Z</time>
      </trkpt>
      <trkpt lat="46.327" lon="5.57632">
        <ele>479.6</ele>
        <time>2022-07-14T06:02:59Z</time>
      </trkpt>
      <trkpt lat="46.32697" lon="5.57618">
        <ele>480.2</ele>
        <time>2022-07-14T06:03:01Z</time>
      </trkpt>
      <trkpt lat="46.32696" lon="5.57611">
        <ele>480.6</ele>
        <time>2022-07-14T06:03:02Z</time>
      </trkpt>
      <trkpt lat="46.32693" lon="5.57578">
        <ele>481.4</ele>
        <time>2022-07-14T06:03:06Z</time>
      </trkpt>
      <trkpt lat="46.32693" lon="5.57571">
        <ele>482</ele>
        <time>2022-07-14T06:03:08Z</time>
      </trkpt>
      <trkpt lat="46.32693" lon="5.57554">
        <ele>482.4</ele>
        <time>2022-07-14T06:03:10Z</time>
      </trkpt>
      <trkpt lat="46.32693" lon="5.57512">
        <ele>483.6</ele>
        <time>2022-07-14T06:03:16Z</time>
      </trkpt>
      <trkpt lat="46.32694" lon="5.57483">
        <ele>484.4</ele>
        <time>2022-07-14T06:03:20Z</time>
      </trkpt>
      <trkpt lat="46.32695" lon="5.57476">
        <ele>484.6</ele>
        <time>2022-07-14T06:03:21Z</time>
      </trkpt>
      <trkpt lat="46.32696" lon="5.57462">
        <ele>485</ele>
        <time>2022-07-14T06:03:23Z</time>
      </trkpt>
      <trkpt lat="46.32696" lon="5.57448">
        <ele>485.4</ele>
        <time>2022-07-14T06:03:25Z</time>
      </trkpt>
      <trkpt lat="46.32697" lon="5.57441">
        <ele>485.6</ele>
        <time>2022-07-14T06:03:26Z</time>
      </trkpt>
      <trkpt lat="46.32698" lon="5.57428">
        <ele>485.8</ele>
        <time>2022-07-14T06:03:28Z</time>
      </trkpt>
      <trkpt lat="46.327" lon="5.57392">
        <ele>486.8</ele>
        <time>2022-07-14T06:03:33Z</time>
      </trkpt>
      <trkpt lat="46.32701" lon="5.57371">
        <ele>487.4</ele>
        <time>2022-07-14T06:03:36Z</time>
      </trkpt>
      <trkpt lat="46.32701" lon="5.57364">
        <ele>487.4</ele>
        <time>2022-07-14T06:03:37Z</time>
      </trkpt>
      <trkpt lat="46.32702" lon="5.57342">
        <ele>487.8</ele>
        <time>2022-07-14T06:03:40Z</time>
      </trkpt>
      <trkpt lat="46.32701" lon="5.57327">
        <ele>488.2</ele>
        <time>2022-07-14T06:03:42Z</time>
      </trkpt>
      <trkpt lat="46.32702" lon="5.57321">
        <ele>488.4</ele>
        <time>2022-07-14T06:03:43Z</time>
      </trkpt>
      <trkpt lat="46.32705" lon="5.57301">
        <ele>489</ele>
        <time>2022-07-14T06:03:46Z</time>
      </trkpt>
      <trkpt lat="46.32706" lon="5.57287">
        <ele>489.4</ele>
        <time>2022-07-14T06:03:48Z</time>
      </trkpt>
      <trkpt lat="46.32706" lon="5.57266">
        <ele>490.2</ele>
        <time>2022-07-14T06:03:51Z</time>
      </trkpt>
      <trkpt lat="46.32704" lon="5.57252">
        <ele>490.4</ele>
        <time>2022-07-14T06:03:53Z</time>
      </trkpt>
      <trkpt lat="46.32702" lon="5.57222">
        <ele>491.2</ele>
        <time>2022-07-14T06:03:57Z</time>
      </trkpt>
      <trkpt lat="46.32702" lon="5.57208">
        <ele>491.6</ele>
        <time>2022-07-14T06:03:59Z</time>
      </trkpt>
      <trkpt lat="46.32701" lon="5.57194">
        <ele>491.8</ele>
        <time>2022-07-14T06:04:01Z</time>
      </trkpt>
      <trkpt lat="46.327" lon="5.57179">
        <ele>492.2</ele>
        <time>2022-07-14T06:04:03Z</time>
      </trkpt>
      <trkpt lat="46.32699" lon="5.57171">
        <ele>492.2</ele>
        <time>2022-07-14T06:04:04Z</time>
      </trkpt>
      <trkpt lat="46.32696" lon="5.57158">
        <ele>492.6</ele>
        <time>2022-07-14T06:04:06Z</time>
      </trkpt>
      <trkpt lat="46.32694" lon="5.57151">
        <ele>492.8</ele>
        <time>2022-07-14T06:04:07Z</time>
      </trkpt>
      <trkpt lat="46.32689" lon="5.57131">
        <ele>493.4</ele>
        <time>2022-07-14T06:04:10Z</time>
      </trkpt>
      <trkpt lat="46.32685" lon="5.57118">
        <ele>493.8</ele>
        <time>2022-07-14T06:04:12Z</time>
      </trkpt>
      <trkpt lat="46.3267" lon="5.57087">
        <ele>494.4</ele>
        <time>2022-07-14T06:04:17Z</time>
      </trkpt>
      <trkpt lat="46.32663" lon="5.57076">
        <ele>494.8</ele>
        <time>2022-07-14T06:04:19Z</time>
      </trkpt>
      <trkpt lat="46.32639" lon="5.57033">
        <ele>495.4</ele>
        <time>2022-07-14T06:04:26Z</time>
      </trkpt>
      <trkpt lat="46.32632" lon="5.57021">
        <ele>495.4</ele>
        <time>2022-07-14T06:04:27Z</time>
      </trkpt>
      <trkpt lat="46.3263" lon="5.57016">
        <ele>495.6</ele>
        <time>2022-07-14T06:04:28Z</time>
      </trkpt>
      <trkpt lat="46.32622" lon="5.56997">
        <ele>495.8</ele>
        <time>2022-07-14T06:04:31Z</time>
      </trkpt>
      <trkpt lat="46.32619" lon="5.5699">
        <ele>495.8</ele>
        <time>2022-07-14T06:04:32Z</time>
      </trkpt>
      <trkpt lat="46.32609" lon="5.56953">
        <ele>496.6</ele>
        <time>2022-07-14T06:04:37Z</time>
      </trkpt>
      <trkpt lat="46.32606" lon="5.56938">
        <ele>496.8</ele>
        <time>2022-07-14T06:04:39Z</time>
      </trkpt>
      <trkpt lat="46.32583" lon="5.56875">
        <ele>497.6</ele>
        <time>2022-07-14T06:04:48Z</time>
      </trkpt>
      <trkpt lat="46.3258" lon="5.56868">
        <ele>497.8</ele>
        <time>2022-07-14T06:04:49Z</time>
      </trkpt>
      <trkpt lat="46.3256" lon="5.5683">
        <ele>499</ele>
        <time>2022-07-14T06:04:55Z</time>
      </trkpt>
      <trkpt lat="46.32556" lon="5.56825">
        <ele>499.2</ele>
        <time>2022-07-14T06:04:56Z</time>
      </trkpt>
      <trkpt lat="46.32552" lon="5.5682">
        <ele>499.2</ele>
        <time>2022-07-14T06:04:57Z</time>
      </trkpt>
      <trkpt lat="46.32533" lon="5.56803">
        <ele>499.4</ele>
        <time>2022-07-14T06:05:01Z</time>
      </trkpt>
      <trkpt lat="46.32499" lon="5.56792">
        <ele>500</ele>
        <time>2022-07-14T06:05:07Z</time>
      </trkpt>
      <trkpt lat="46.32452" lon="5.56793">
        <ele>500.8</ele>
        <time>2022-07-14T06:05:15Z</time>
      </trkpt>
      <trkpt lat="46.32447" lon="5.56793">
        <ele>501</ele>
        <time>2022-07-14T06:05:16Z</time>
      </trkpt>
      <trkpt lat="46.32435" lon="5.56792">
        <ele>501.4</ele>
        <time>2022-07-14T06:05:18Z</time>
      </trkpt>
      <trkpt lat="46.32425" lon="5.56789">
        <ele>501.6</ele>
        <time>2022-07-14T06:05:20Z</time>
      </trkpt>
      <trkpt lat="46.3242" lon="5.56786">
        <ele>501.8</ele>
        <time>2022-07-14T06:05:21Z</time>
      </trkpt>
      <trkpt lat="46.32383" lon="5.56764">
        <ele>501.6</ele>
        <time>2022-07-14T06:05:27Z</time>
      </trkpt>
      <trkpt lat="46.32348" lon="5.56758">
        <ele>501</ele>
        <time>2022-07-14T06:05:32Z</time>
      </trkpt>
      <trkpt lat="46.32313" lon="5.56762">
        <ele>500.6</ele>
        <time>2022-07-14T06:05:37Z</time>
      </trkpt>
      <trkpt lat="46.32271" lon="5.56754">
        <ele>500</ele>
        <time>2022-07-14T06:05:42Z</time>
      </trkpt>
      <trkpt lat="46.32263" lon="5.5675">
        <ele>499.8</ele>
        <time>2022-07-14T06:05:43Z</time>
      </trkpt>
      <trkpt lat="46.32254" lon="5.56734">
        <ele>498.8</ele>
        <time>2022-07-14T06:05:45Z</time>
      </trkpt>
      <trkpt lat="46.32256" lon="5.56715">
        <ele>497.8</ele>
        <time>2022-07-14T06:05:47Z</time>
      </trkpt>
      <trkpt lat="46.32275" lon="5.56692">
        <ele>496.6</ele>
        <time>2022-07-14T06:05:50Z</time>
      </trkpt>
      <trkpt lat="46.32297" lon="5.56663">
        <ele>495.4</ele>
        <time>2022-07-14T06:05:53Z</time>
      </trkpt>
      <trkpt lat="46.32305" lon="5.56652">
        <ele>493.8</ele>
        <time>2022-07-14T06:05:54Z</time>
      </trkpt>
      <trkpt lat="46.32313" lon="5.56641">
        <ele>493.4</ele>
        <time>2022-07-14T06:05:55Z</time>
      </trkpt>
      <trkpt lat="46.32322" lon="5.56629">
        <ele>492.6</ele>
        <time>2022-07-14T06:05:56Z</time>
      </trkpt>
      <trkpt lat="46.3234" lon="5.56604">
        <ele>491.6</ele>
        <time>2022-07-14T06:05:58Z</time>
      </trkpt>
      <trkpt lat="46.3235" lon="5.56591">
        <ele>491.2</ele>
        <time>2022-07-14T06:05:59Z</time>
      </trkpt>
      <trkpt lat="46.32361" lon="5.56579">
        <ele>489.6</ele>
        <time>2022-07-14T06:06:00Z</time>
      </trkpt>
      <trkpt lat="46.32385" lon="5.56563">
        <ele>487.2</ele>
        <time>2022-07-14T06:06:02Z</time>
      </trkpt>
      <trkpt lat="46.32398" lon="5.56557">
        <ele>485.8</ele>
        <time>2022-07-14T06:06:03Z</time>
      </trkpt>
      <trkpt lat="46.32411" lon="5.56552">
        <ele>484.6</ele>
        <time>2022-07-14T06:06:04Z</time>
      </trkpt>
      <trkpt lat="46.32425" lon="5.56546">
        <ele>481.6</ele>
        <time>2022-07-14T06:06:05Z</time>
      </trkpt>
      <trkpt lat="46.32437" lon="5.56539">
        <ele>480.4</ele>
        <time>2022-07-14T06:06:06Z</time>
      </trkpt>
      <trkpt lat="46.32449" lon="5.5653">
        <ele>478.8</ele>
        <time>2022-07-14T06:06:07Z</time>
      </trkpt>
      <trkpt lat="46.32459" lon="5.56519">
        <ele>478.4</ele>
        <time>2022-07-14T06:06:08Z</time>
      </trkpt>
      <trkpt lat="46.32467" lon="5.56505">
        <ele>477</ele>
        <time>2022-07-14T06:06:09Z</time>
      </trkpt>
      <trkpt lat="46.32481" lon="5.56475">
        <ele>476</ele>
        <time>2022-07-14T06:06:11Z</time>
      </trkpt>
      <trkpt lat="46.32486" lon="5.56458">
        <ele>475.4</ele>
        <time>2022-07-14T06:06:12Z</time>
      </trkpt>
      <trkpt lat="46.32494" lon="5.5642">
        <ele>474.8</ele>
        <time>2022-07-14T06:06:14Z</time>
      </trkpt>
      <trkpt lat="46.32497" lon="5.56401">
        <ele>474.8</ele>
        <time>2022-07-14T06:06:15Z</time>
      </trkpt>
      <trkpt lat="46.32499" lon="5.56382">
        <ele>473.6</ele>
        <time>2022-07-14T06:06:16Z</time>
      </trkpt>
      <trkpt lat="46.32499" lon="5.56365">
        <ele>471.6</ele>
        <time>2022-07-14T06:06:17Z</time>
      </trkpt>
      <trkpt lat="46.32498" lon="5.56335">
        <ele>469.6</ele>
        <time>2022-07-14T06:06:19Z</time>
      </trkpt>
      <trkpt lat="46.32495" lon="5.56322">
        <ele>469</ele>
        <time>2022-07-14T06:06:20Z</time>
      </trkpt>
      <trkpt lat="46.32489" lon="5.56311">
        <ele>467.4</ele>
        <time>2022-07-14T06:06:21Z</time>
      </trkpt>
      <trkpt lat="46.32481" lon="5.56303">
        <ele>467</ele>
        <time>2022-07-14T06:06:22Z</time>
      </trkpt>
      <trkpt lat="46.32471" lon="5.56296">
        <ele>466</ele>
        <time>2022-07-14T06:06:23Z</time>
      </trkpt>
      <trkpt lat="46.32461" lon="5.5629">
        <ele>464.8</ele>
        <time>2022-07-14T06:06:24Z</time>
      </trkpt>
      <trkpt lat="46.32441" lon="5.56278">
        <ele>463.2</ele>
        <time>2022-07-14T06:06:26Z</time>
      </trkpt>
      <trkpt lat="46.32421" lon="5.56266">
        <ele>462</ele>
        <time>2022-07-14T06:06:28Z</time>
      </trkpt>
      <trkpt lat="46.32392" lon="5.56247">
        <ele>460.8</ele>
        <time>2022-07-14T06:06:31Z</time>
      </trkpt>
      <trkpt lat="46.32384" lon="5.56239">
        <ele>460</ele>
        <time>2022-07-14T06:06:32Z</time>
      </trkpt>
      <trkpt lat="46.32375" lon="5.56229">
        <ele>459.2</ele>
        <time>2022-07-14T06:06:33Z</time>
      </trkpt>
      <trkpt lat="46.32359" lon="5.56207">
        <ele>458.2</ele>
        <time>2022-07-14T06:06:35Z</time>
      </trkpt>
      <trkpt lat="46.32344" lon="5.56188">
        <ele>457</ele>
        <time>2022-07-14T06:06:37Z</time>
      </trkpt>
      <trkpt lat="46.32327" lon="5.5618">
        <ele>456</ele>
        <time>2022-07-14T06:06:39Z</time>
      </trkpt>
      <trkpt lat="46.32309" lon="5.56186">
        <ele>454.8</ele>
        <time>2022-07-14T06:06:41Z</time>
      </trkpt>
      <trkpt lat="46.323" lon="5.56188">
        <ele>453.2</ele>
        <time>2022-07-14T06:06:42Z</time>
      </trkpt>
      <trkpt lat="46.32284" lon="5.56187">
        <ele>451.8</ele>
        <time>2022-07-14T06:06:44Z</time>
      </trkpt>
      <trkpt lat="46.32269" lon="5.56169">
        <ele>450.6</ele>
        <time>2022-07-14T06:06:46Z</time>
      </trkpt>
      <trkpt lat="46.32263" lon="5.56158">
        <ele>448.4</ele>
        <time>2022-07-14T06:06:47Z</time>
      </trkpt>
      <trkpt lat="46.3225" lon="5.56135">
        <ele>447</ele>
        <time>2022-07-14T06:06:49Z</time>
      </trkpt>
      <trkpt lat="46.32243" lon="5.56125">
        <ele>446.6</ele>
        <time>2022-07-14T06:06:50Z</time>
      </trkpt>
      <trkpt lat="46.32236" lon="5.56115">
        <ele>445</ele>
        <time>2022-07-14T06:06:51Z</time>
      </trkpt>
      <trkpt lat="46.32229" lon="5.56107">
        <ele>444</ele>
        <time>2022-07-14T06:06:52Z</time>
      </trkpt>
      <trkpt lat="46.32218" lon="5.56098">
        <ele>442.6</ele>
        <time>2022-07-14T06:06:53Z</time>
      </trkpt>
      <trkpt lat="46.32208" lon="5.56092">
        <ele>440.4</ele>
        <time>2022-07-14T06:06:54Z</time>
      </trkpt>
      <trkpt lat="46.322" lon="5.56086">
        <ele>439</ele>
        <time>2022-07-14T06:06:56Z</time>
      </trkpt>
      <trkpt lat="46.32181" lon="5.56074">
        <ele>437.4</ele>
        <time>2022-07-14T06:06:58Z</time>
      </trkpt>
      <trkpt lat="46.32172" lon="5.56071">
        <ele>437</ele>
        <time>2022-07-14T06:06:59Z</time>
      </trkpt>
      <trkpt lat="46.32163" lon="5.5607">
        <ele>436.4</ele>
        <time>2022-07-14T06:07:00Z</time>
      </trkpt>
      <trkpt lat="46.32155" lon="5.56069">
        <ele>436</ele>
        <time>2022-07-14T06:07:01Z</time>
      </trkpt>
      <trkpt lat="46.3214" lon="5.56067">
        <ele>435.4</ele>
        <time>2022-07-14T06:07:03Z</time>
      </trkpt>
      <trkpt lat="46.3213" lon="5.56054">
        <ele>435</ele>
        <time>2022-07-14T06:07:05Z</time>
      </trkpt>
      <trkpt lat="46.32122" lon="5.56037">
        <ele>434.8</ele>
        <time>2022-07-14T06:07:07Z</time>
      </trkpt>
      <trkpt lat="46.32118" lon="5.56027">
        <ele>434.6</ele>
        <time>2022-07-14T06:07:08Z</time>
      </trkpt>
      <trkpt lat="46.3211" lon="5.56003">
        <ele>433.4</ele>
        <time>2022-07-14T06:07:10Z</time>
      </trkpt>
      <trkpt lat="46.321" lon="5.55979">
        <ele>432.2</ele>
        <time>2022-07-14T06:07:12Z</time>
      </trkpt>
      <trkpt lat="46.32095" lon="5.55968">
        <ele>431.6</ele>
        <time>2022-07-14T06:07:13Z</time>
      </trkpt>
      <trkpt lat="46.32091" lon="5.55957">
        <ele>430.8</ele>
        <time>2022-07-14T06:07:14Z</time>
      </trkpt>
      <trkpt lat="46.32079" lon="5.5592">
        <ele>429.8</ele>
        <time>2022-07-14T06:07:17Z</time>
      </trkpt>
      <trkpt lat="46.32076" lon="5.55907">
        <ele>429.8</ele>
        <time>2022-07-14T06:07:18Z</time>
      </trkpt>
      <trkpt lat="46.32072" lon="5.55878">
        <ele>429.4</ele>
        <time>2022-07-14T06:07:20Z</time>
      </trkpt>
      <trkpt lat="46.32072" lon="5.55848">
        <ele>428.6</ele>
        <time>2022-07-14T06:07:22Z</time>
      </trkpt>
      <trkpt lat="46.32072" lon="5.55832">
        <ele>428</ele>
        <time>2022-07-14T06:07:23Z</time>
      </trkpt>
      <trkpt lat="46.3207" lon="5.55817">
        <ele>427.4</ele>
        <time>2022-07-14T06:07:24Z</time>
      </trkpt>
      <trkpt lat="46.32066" lon="5.55802">
        <ele>427</ele>
        <time>2022-07-14T06:07:25Z</time>
      </trkpt>
      <trkpt lat="46.3206" lon="5.55788">
        <ele>426.4</ele>
        <time>2022-07-14T06:07:26Z</time>
      </trkpt>
      <trkpt lat="46.32052" lon="5.55776">
        <ele>425.8</ele>
        <time>2022-07-14T06:07:27Z</time>
      </trkpt>
      <trkpt lat="46.32044" lon="5.55765">
        <ele>425.2</ele>
        <time>2022-07-14T06:07:28Z</time>
      </trkpt>
      <trkpt lat="46.32035" lon="5.55756">
        <ele>425</ele>
        <time>2022-07-14T06:07:29Z</time>
      </trkpt>
      <trkpt lat="46.32026" lon="5.55747">
        <ele>423.8</ele>
        <time>2022-07-14T06:07:30Z</time>
      </trkpt>
      <trkpt lat="46.32007" lon="5.55723">
        <ele>422.4</ele>
        <time>2022-07-14T06:07:32Z</time>
      </trkpt>
      <trkpt lat="46.31998" lon="5.55709">
        <ele>421</ele>
        <time>2022-07-14T06:07:33Z</time>
      </trkpt>
      <trkpt lat="46.31982" lon="5.55682">
        <ele>418.4</ele>
        <time>2022-07-14T06:07:35Z</time>
      </trkpt>
      <trkpt lat="46.31974" lon="5.55669">
        <ele>417.4</ele>
        <time>2022-07-14T06:07:36Z</time>
      </trkpt>
      <trkpt lat="46.31965" lon="5.55656">
        <ele>415.8</ele>
        <time>2022-07-14T06:07:37Z</time>
      </trkpt>
      <trkpt lat="46.31948" lon="5.55635">
        <ele>414.6</ele>
        <time>2022-07-14T06:07:39Z</time>
      </trkpt>
      <trkpt lat="46.31938" lon="5.55627">
        <ele>414.2</ele>
        <time>2022-07-14T06:07:40Z</time>
      </trkpt>
      <trkpt lat="46.31911" lon="5.55605">
        <ele>413.8</ele>
        <time>2022-07-14T06:07:43Z</time>
      </trkpt>
      <trkpt lat="46.31903" lon="5.55595">
        <ele>413.6</ele>
        <time>2022-07-14T06:07:44Z</time>
      </trkpt>
      <trkpt lat="46.31896" lon="5.55584">
        <ele>413.6</ele>
        <time>2022-07-14T06:07:45Z</time>
      </trkpt>
      <trkpt lat="46.3187" lon="5.55536">
        <ele>413</ele>
        <time>2022-07-14T06:07:49Z</time>
      </trkpt>
      <trkpt lat="46.31857" lon="5.55512">
        <ele>412.4</ele>
        <time>2022-07-14T06:07:51Z</time>
      </trkpt>
      <trkpt lat="46.31837" lon="5.55475">
        <ele>411</ele>
        <time>2022-07-14T06:07:54Z</time>
      </trkpt>
      <trkpt lat="46.31832" lon="5.55461">
        <ele>410.8</ele>
        <time>2022-07-14T06:07:55Z</time>
      </trkpt>
      <trkpt lat="46.31828" lon="5.5543">
        <ele>410</ele>
        <time>2022-07-14T06:07:57Z</time>
      </trkpt>
      <trkpt lat="46.31829" lon="5.55415">
        <ele>409.2</ele>
        <time>2022-07-14T06:07:58Z</time>
      </trkpt>
      <trkpt lat="46.3183" lon="5.55399">
        <ele>409</ele>
        <time>2022-07-14T06:07:59Z</time>
      </trkpt>
      <trkpt lat="46.31833" lon="5.55384">
        <ele>408</ele>
        <time>2022-07-14T06:08:00Z</time>
      </trkpt>
      <trkpt lat="46.31838" lon="5.5537">
        <ele>407.4</ele>
        <time>2022-07-14T06:08:01Z</time>
      </trkpt>
      <trkpt lat="46.31848" lon="5.55342">
        <ele>406.6</ele>
        <time>2022-07-14T06:08:03Z</time>
      </trkpt>
      <trkpt lat="46.31857" lon="5.55314">
        <ele>405.4</ele>
        <time>2022-07-14T06:08:05Z</time>
      </trkpt>
      <trkpt lat="46.31862" lon="5.553">
        <ele>404.8</ele>
        <time>2022-07-14T06:08:06Z</time>
      </trkpt>
      <trkpt lat="46.31867" lon="5.55288">
        <ele>404</ele>
        <time>2022-07-14T06:08:07Z</time>
      </trkpt>
      <trkpt lat="46.31889" lon="5.55251">
        <ele>402.6</ele>
        <time>2022-07-14T06:08:10Z</time>
      </trkpt>
      <trkpt lat="46.31918" lon="5.55198">
        <ele>400.6</ele>
        <time>2022-07-14T06:08:14Z</time>
      </trkpt>
      <trkpt lat="46.31926" lon="5.55185">
        <ele>400</ele>
        <time>2022-07-14T06:08:15Z</time>
      </trkpt>
      <trkpt lat="46.31934" lon="5.55172">
        <ele>399</ele>
        <time>2022-07-14T06:08:16Z</time>
      </trkpt>
      <trkpt lat="46.31948" lon="5.55144">
        <ele>397.8</ele>
        <time>2022-07-14T06:08:18Z</time>
      </trkpt>
      <trkpt lat="46.31962" lon="5.55115">
        <ele>396.4</ele>
        <time>2022-07-14T06:08:20Z</time>
      </trkpt>
      <trkpt lat="46.31968" lon="5.55099">
        <ele>395.2</ele>
        <time>2022-07-14T06:08:21Z</time>
      </trkpt>
      <trkpt lat="46.31987" lon="5.55055">
        <ele>393.6</ele>
        <time>2022-07-14T06:08:24Z</time>
      </trkpt>
      <trkpt lat="46.31995" lon="5.55043">
        <ele>393</ele>
        <time>2022-07-14T06:08:25Z</time>
      </trkpt>
      <trkpt lat="46.32004" lon="5.55033">
        <ele>392</ele>
        <time>2022-07-14T06:08:26Z</time>
      </trkpt>
      <trkpt lat="46.32023" lon="5.55014">
        <ele>390.6</ele>
        <time>2022-07-14T06:08:28Z</time>
      </trkpt>
      <trkpt lat="46.32032" lon="5.55003">
        <ele>390.4</ele>
        <time>2022-07-14T06:08:29Z</time>
      </trkpt>
      <trkpt lat="46.3204" lon="5.54993">
        <ele>389.2</ele>
        <time>2022-07-14T06:08:30Z</time>
      </trkpt>
      <trkpt lat="46.32055" lon="5.54979">
        <ele>387.6</ele>
        <time>2022-07-14T06:08:32Z</time>
      </trkpt>
      <trkpt lat="46.3206" lon="5.54973">
        <ele>387</ele>
        <time>2022-07-14T06:08:33Z</time>
      </trkpt>
      <trkpt lat="46.32067" lon="5.54956">
        <ele>386.2</ele>
        <time>2022-07-14T06:08:35Z</time>
      </trkpt>
      <trkpt lat="46.32061" lon="5.5495">
        <ele>385.6</ele>
        <time>2022-07-14T06:08:36Z</time>
      </trkpt>
      <trkpt lat="46.32061" lon="5.5495">
        <ele>384.8</ele>
        <time>2022-07-14T06:08:37Z</time>
      </trkpt>
      <trkpt lat="46.32042" lon="5.54956">
        <ele>384</ele>
        <time>2022-07-14T06:08:39Z</time>
      </trkpt>
      <trkpt lat="46.32032" lon="5.54964">
        <ele>383</ele>
        <time>2022-07-14T06:08:40Z</time>
      </trkpt>
      <trkpt lat="46.32021" lon="5.5497">
        <ele>382.6</ele>
        <time>2022-07-14T06:08:41Z</time>
      </trkpt>
      <trkpt lat="46.32009" lon="5.54975">
        <ele>381.8</ele>
        <time>2022-07-14T06:08:42Z</time>
      </trkpt>
      <trkpt lat="46.31985" lon="5.54984">
        <ele>379.6</ele>
        <time>2022-07-14T06:08:44Z</time>
      </trkpt>
      <trkpt lat="46.31973" lon="5.54987">
        <ele>378.2</ele>
        <time>2022-07-14T06:08:45Z</time>
      </trkpt>
      <trkpt lat="46.31949" lon="5.54994">
        <ele>376.4</ele>
        <time>2022-07-14T06:08:47Z</time>
      </trkpt>
      <trkpt lat="46.31937" lon="5.55">
        <ele>375.8</ele>
        <time>2022-07-14T06:08:48Z</time>
      </trkpt>
      <trkpt lat="46.31926" lon="5.55006">
        <ele>374.4</ele>
        <time>2022-07-14T06:08:49Z</time>
      </trkpt>
      <trkpt lat="46.31904" lon="5.55016">
        <ele>372.6</ele>
        <time>2022-07-14T06:08:51Z</time>
      </trkpt>
      <trkpt lat="46.31881" lon="5.55021">
        <ele>371.2</ele>
        <time>2022-07-14T06:08:53Z</time>
      </trkpt>
      <trkpt lat="46.3187" lon="5.55025">
        <ele>370.6</ele>
        <time>2022-07-14T06:08:54Z</time>
      </trkpt>
      <trkpt lat="46.3185" lon="5.55039">
        <ele>370</ele>
        <time>2022-07-14T06:08:56Z</time>
      </trkpt>
      <trkpt lat="46.31832" lon="5.55059">
        <ele>368.8</ele>
        <time>2022-07-14T06:08:58Z</time>
      </trkpt>
      <trkpt lat="46.31811" lon="5.55078">
        <ele>367.4</ele>
        <time>2022-07-14T06:09:00Z</time>
      </trkpt>
      <trkpt lat="46.31788" lon="5.55089">
        <ele>366</ele>
        <time>2022-07-14T06:09:02Z</time>
      </trkpt>
      <trkpt lat="46.31776" lon="5.55094">
        <ele>364.8</ele>
        <time>2022-07-14T06:09:03Z</time>
      </trkpt>
      <trkpt lat="46.31757" lon="5.551">
        <ele>363.4</ele>
        <time>2022-07-14T06:09:05Z</time>
      </trkpt>
      <trkpt lat="46.31733" lon="5.55102">
        <ele>361.8</ele>
        <time>2022-07-14T06:09:07Z</time>
      </trkpt>
      <trkpt lat="46.31722" lon="5.55101">
        <ele>360.4</ele>
        <time>2022-07-14T06:09:08Z</time>
      </trkpt>
      <trkpt lat="46.31702" lon="5.55097">
        <ele>358.2</ele>
        <time>2022-07-14T06:09:10Z</time>
      </trkpt>
      <trkpt lat="46.31692" lon="5.55094">
        <ele>357.6</ele>
        <time>2022-07-14T06:09:11Z</time>
      </trkpt>
      <trkpt lat="46.31682" lon="5.5509">
        <ele>356.4</ele>
        <time>2022-07-14T06:09:12Z</time>
      </trkpt>
      <trkpt lat="46.31671" lon="5.55081">
        <ele>355.6</ele>
        <time>2022-07-14T06:09:13Z</time>
      </trkpt>
      <trkpt lat="46.3166" lon="5.55073">
        <ele>354.6</ele>
        <time>2022-07-14T06:09:14Z</time>
      </trkpt>
      <trkpt lat="46.31637" lon="5.55064">
        <ele>353.2</ele>
        <time>2022-07-14T06:09:16Z</time>
      </trkpt>
      <trkpt lat="46.31616" lon="5.55059">
        <ele>351.6</ele>
        <time>2022-07-14T06:09:18Z</time>
      </trkpt>
      <trkpt lat="46.31606" lon="5.55058">
        <ele>350.2</ele>
        <time>2022-07-14T06:09:19Z</time>
      </trkpt>
      <trkpt lat="46.31595" lon="5.55059">
        <ele>349.4</ele>
        <time>2022-07-14T06:09:20Z</time>
      </trkpt>
      <trkpt lat="46.31586" lon="5.55062">
        <ele>348.6</ele>
        <time>2022-07-14T06:09:21Z</time>
      </trkpt>
      <trkpt lat="46.31578" lon="5.55069">
        <ele>348.4</ele>
        <time>2022-07-14T06:09:22Z</time>
      </trkpt>
      <trkpt lat="46.31566" lon="5.55093">
        <ele>346.6</ele>
        <time>2022-07-14T06:09:24Z</time>
      </trkpt>
      <trkpt lat="46.31562" lon="5.55106">
        <ele>346.4</ele>
        <time>2022-07-14T06:09:25Z</time>
      </trkpt>
      <trkpt lat="46.31556" lon="5.55119">
        <ele>345.4</ele>
        <time>2022-07-14T06:09:26Z</time>
      </trkpt>
      <trkpt lat="46.31546" lon="5.55147">
        <ele>344</ele>
        <time>2022-07-14T06:09:28Z</time>
      </trkpt>
      <trkpt lat="46.31536" lon="5.55177">
        <ele>343</ele>
        <time>2022-07-14T06:09:30Z</time>
      </trkpt>
      <trkpt lat="46.31532" lon="5.55192">
        <ele>341.8</ele>
        <time>2022-07-14T06:09:31Z</time>
      </trkpt>
      <trkpt lat="46.31524" lon="5.55221">
        <ele>340.2</ele>
        <time>2022-07-14T06:09:33Z</time>
      </trkpt>
      <trkpt lat="46.31516" lon="5.55247">
        <ele>338.4</ele>
        <time>2022-07-14T06:09:35Z</time>
      </trkpt>
      <trkpt lat="46.3151" lon="5.55258">
        <ele>337.6</ele>
        <time>2022-07-14T06:09:36Z</time>
      </trkpt>
      <trkpt lat="46.31502" lon="5.55266">
        <ele>336.8</ele>
        <time>2022-07-14T06:09:37Z</time>
      </trkpt>
      <trkpt lat="46.31493" lon="5.55272">
        <ele>335.6</ele>
        <time>2022-07-14T06:09:38Z</time>
      </trkpt>
      <trkpt lat="46.31484" lon="5.55275">
        <ele>335.2</ele>
        <time>2022-07-14T06:09:39Z</time>
      </trkpt>
      <trkpt lat="46.31464" lon="5.55277">
        <ele>334.4</ele>
        <time>2022-07-14T06:09:41Z</time>
      </trkpt>
      <trkpt lat="46.31443" lon="5.55282">
        <ele>333.6</ele>
        <time>2022-07-14T06:09:43Z</time>
      </trkpt>
      <trkpt lat="46.31437" lon="5.55257">
        <ele>332.6</ele>
        <time>2022-07-14T06:09:44Z</time>
      </trkpt>
      <trkpt lat="46.31429" lon="5.55218">
        <ele>331.6</ele>
        <time>2022-07-14T06:09:46Z</time>
      </trkpt>
      <trkpt lat="46.31413" lon="5.55177">
        <ele>330.2</ele>
        <time>2022-07-14T06:09:49Z</time>
      </trkpt>
      <trkpt lat="46.31399" lon="5.55141">
        <ele>329.4</ele>
        <time>2022-07-14T06:09:52Z</time>
      </trkpt>
      <trkpt lat="46.31388" lon="5.55118">
        <ele>329.2</ele>
        <time>2022-07-14T06:09:54Z</time>
      </trkpt>
      <trkpt lat="46.31374" lon="5.55088">
        <ele>329.2</ele>
        <time>2022-07-14T06:09:57Z</time>
      </trkpt>
      <trkpt lat="46.31349" lon="5.55038">
        <ele>330.4</ele>
        <time>2022-07-14T06:10:03Z</time>
      </trkpt>
      <trkpt lat="46.31338" lon="5.55015">
        <ele>331.4</ele>
        <time>2022-07-14T06:10:06Z</time>
      </trkpt>
      <trkpt lat="46.3133" lon="5.55002">
        <ele>332.2</ele>
        <time>2022-07-14T06:10:08Z</time>
      </trkpt>
      <trkpt lat="46.31327" lon="5.54997">
        <ele>332.4</ele>
        <time>2022-07-14T06:10:09Z</time>
      </trkpt>
      <trkpt lat="46.31321" lon="5.5499">
        <ele>332.6</ele>
        <time>2022-07-14T06:10:10Z</time>
      </trkpt>
      <trkpt lat="46.31306" lon="5.54975">
        <ele>333.2</ele>
        <time>2022-07-14T06:10:13Z</time>
      </trkpt>
      <trkpt lat="46.31301" lon="5.5497">
        <ele>333.6</ele>
        <time>2022-07-14T06:10:14Z</time>
      </trkpt>
      <trkpt lat="46.31296" lon="5.54965">
        <ele>334</ele>
        <time>2022-07-14T06:10:15Z</time>
      </trkpt>
      <trkpt lat="46.31286" lon="5.54958">
        <ele>334</ele>
        <time>2022-07-14T06:10:17Z</time>
      </trkpt>
      <trkpt lat="46.3128" lon="5.54954">
        <ele>334.2</ele>
        <time>2022-07-14T06:10:18Z</time>
      </trkpt>
      <trkpt lat="46.31261" lon="5.54946">
        <ele>334.4</ele>
        <time>2022-07-14T06:10:21Z</time>
      </trkpt>
      <trkpt lat="46.31244" lon="5.54941">
        <ele>334.2</ele>
        <time>2022-07-14T06:10:23Z</time>
      </trkpt>
      <trkpt lat="46.31228" lon="5.54939">
        <ele>334.2</ele>
        <time>2022-07-14T06:10:25Z</time>
      </trkpt>
      <trkpt lat="46.31207" lon="5.54941">
        <ele>332.8</ele>
        <time>2022-07-14T06:10:28Z</time>
      </trkpt>
      <trkpt lat="46.31189" lon="5.54943">
        <ele>331.8</ele>
        <time>2022-07-14T06:10:30Z</time>
      </trkpt>
      <trkpt lat="46.31177" lon="5.54942">
        <ele>331.4</ele>
        <time>2022-07-14T06:10:31Z</time>
      </trkpt>
      <trkpt lat="46.31157" lon="5.54938">
        <ele>330.2</ele>
        <time>2022-07-14T06:10:33Z</time>
      </trkpt>
      <trkpt lat="46.31147" lon="5.54933">
        <ele>329.8</ele>
        <time>2022-07-14T06:10:34Z</time>
      </trkpt>
      <trkpt lat="46.31138" lon="5.54928">
        <ele>329</ele>
        <time>2022-07-14T06:10:35Z</time>
      </trkpt>
      <trkpt lat="46.3112" lon="5.54918">
        <ele>327.4</ele>
        <time>2022-07-14T06:10:37Z</time>
      </trkpt>
      <trkpt lat="46.31104" lon="5.54909">
        <ele>326</ele>
        <time>2022-07-14T06:10:39Z</time>
      </trkpt>
      <trkpt lat="46.31093" lon="5.54903">
        <ele>325.6</ele>
        <time>2022-07-14T06:10:40Z</time>
      </trkpt>
      <trkpt lat="46.31068" lon="5.54891">
        <ele>325.2</ele>
        <time>2022-07-14T06:10:43Z</time>
      </trkpt>
      <trkpt lat="46.31052" lon="5.5488">
        <ele>324.8</ele>
        <time>2022-07-14T06:10:45Z</time>
      </trkpt>
      <trkpt lat="46.31008" lon="5.54841">
        <ele>324.4</ele>
        <time>2022-07-14T06:10:51Z</time>
      </trkpt>
      <trkpt lat="46.30993" lon="5.54833">
        <ele>324.2</ele>
        <time>2022-07-14T06:10:53Z</time>
      </trkpt>
      <trkpt lat="46.30971" lon="5.54826">
        <ele>324.4</ele>
        <time>2022-07-14T06:10:56Z</time>
      </trkpt>
      <trkpt lat="46.30925" lon="5.54822">
        <ele>325.2</ele>
        <time>2022-07-14T06:11:02Z</time>
      </trkpt>
      <trkpt lat="46.30898" lon="5.54814">
        <ele>325.8</ele>
        <time>2022-07-14T06:11:06Z</time>
      </trkpt>
      <trkpt lat="46.30879" lon="5.54806">
        <ele>326</ele>
        <time>2022-07-14T06:11:09Z</time>
      </trkpt>
      <trkpt lat="46.30849" lon="5.54793">
        <ele>326.8</ele>
        <time>2022-07-14T06:11:14Z</time>
      </trkpt>
      <trkpt lat="46.30836" lon="5.54788">
        <ele>327.2</ele>
        <time>2022-07-14T06:11:16Z</time>
      </trkpt>
      <trkpt lat="46.30819" lon="5.54782">
        <ele>328</ele>
        <time>2022-07-14T06:11:19Z</time>
      </trkpt>
      <trkpt lat="46.30788" lon="5.54768">
        <ele>329.2</ele>
        <time>2022-07-14T06:11:25Z</time>
      </trkpt>
      <trkpt lat="46.30772" lon="5.54756">
        <ele>330.2</ele>
        <time>2022-07-14T06:11:28Z</time>
      </trkpt>
      <trkpt lat="46.30762" lon="5.54747">
        <ele>331.2</ele>
        <time>2022-07-14T06:11:31Z</time>
      </trkpt>
      <trkpt lat="46.30758" lon="5.54744">
        <ele>331.4</ele>
        <time>2022-07-14T06:11:32Z</time>
      </trkpt>
      <trkpt lat="46.30747" lon="5.54732">
        <ele>332.8</ele>
        <time>2022-07-14T06:11:35Z</time>
      </trkpt>
      <trkpt lat="46.30739" lon="5.54725">
        <ele>333.4</ele>
        <time>2022-07-14T06:11:37Z</time>
      </trkpt>
      <trkpt lat="46.30734" lon="5.54723">
        <ele>333.8</ele>
        <time>2022-07-14T06:11:38Z</time>
      </trkpt>
      <trkpt lat="46.30712" lon="5.54713">
        <ele>334.6</ele>
        <time>2022-07-14T06:11:42Z</time>
      </trkpt>
      <trkpt lat="46.30675" lon="5.54699">
        <ele>333.8</ele>
        <time>2022-07-14T06:11:47Z</time>
      </trkpt>
      <trkpt lat="46.30654" lon="5.54685">
        <ele>332.6</ele>
        <time>2022-07-14T06:11:50Z</time>
      </trkpt>
      <trkpt lat="46.30641" lon="5.54671">
        <ele>332</ele>
        <time>2022-07-14T06:11:52Z</time>
      </trkpt>
      <trkpt lat="46.30632" lon="5.54654">
        <ele>331.4</ele>
        <time>2022-07-14T06:11:54Z</time>
      </trkpt>
      <trkpt lat="46.30626" lon="5.54635">
        <ele>331.2</ele>
        <time>2022-07-14T06:11:56Z</time>
      </trkpt>
      <trkpt lat="46.30608" lon="5.54579">
        <ele>331.2</ele>
        <time>2022-07-14T06:12:02Z</time>
      </trkpt>
      <trkpt lat="46.3059" lon="5.54522">
        <ele>331.8</ele>
        <time>2022-07-14T06:12:08Z</time>
      </trkpt>
      <trkpt lat="46.30583" lon="5.54468">
        <ele>331.6</ele>
        <time>2022-07-14T06:12:13Z</time>
      </trkpt>
      <trkpt lat="46.30583" lon="5.54457">
        <ele>331.6</ele>
        <time>2022-07-14T06:12:14Z</time>
      </trkpt>
      <trkpt lat="46.30587" lon="5.54394">
        <ele>331.4</ele>
        <time>2022-07-14T06:12:20Z</time>
      </trkpt>
      <trkpt lat="46.30588" lon="5.54344">
        <ele>332</ele>
        <time>2022-07-14T06:12:25Z</time>
      </trkpt>
      <trkpt lat="46.30584" lon="5.54282">
        <ele>332.4</ele>
        <time>2022-07-14T06:12:31Z</time>
      </trkpt>
      <trkpt lat="46.30584" lon="5.54251">
        <ele>332.4</ele>
        <time>2022-07-14T06:12:34Z</time>
      </trkpt>
      <trkpt lat="46.30585" lon="5.54178">
        <ele>332.8</ele>
        <time>2022-07-14T06:12:41Z</time>
      </trkpt>
      <trkpt lat="46.30587" lon="5.54167">
        <ele>332.6</ele>
        <time>2022-07-14T06:12:42Z</time>
      </trkpt>
      <trkpt lat="46.3059" lon="5.54158">
        <ele>332.6</ele>
        <time>2022-07-14T06:12:43Z</time>
      </trkpt>
      <trkpt lat="46.30598" lon="5.5414">
        <ele>332.6</ele>
        <time>2022-07-14T06:12:45Z</time>
      </trkpt>
      <trkpt lat="46.30602" lon="5.54132">
        <ele>332.8</ele>
        <time>2022-07-14T06:12:46Z</time>
      </trkpt>
      <trkpt lat="46.30629" lon="5.54082">
        <ele>332.6</ele>
        <time>2022-07-14T06:12:52Z</time>
      </trkpt>
      <trkpt lat="46.30636" lon="5.54076">
        <ele>332</ele>
        <time>2022-07-14T06:12:53Z</time>
      </trkpt>
      <trkpt lat="46.30643" lon="5.5407">
        <ele>331.8</ele>
        <time>2022-07-14T06:12:54Z</time>
      </trkpt>
      <trkpt lat="46.3066" lon="5.54065">
        <ele>331.6</ele>
        <time>2022-07-14T06:12:56Z</time>
      </trkpt>
      <trkpt lat="46.30676" lon="5.5406">
        <ele>331.2</ele>
        <time>2022-07-14T06:12:58Z</time>
      </trkpt>
      <trkpt lat="46.3071" lon="5.5405">
        <ele>330.6</ele>
        <time>2022-07-14T06:13:02Z</time>
      </trkpt>
      <trkpt lat="46.30758" lon="5.54041">
        <ele>330.4</ele>
        <time>2022-07-14T06:13:08Z</time>
      </trkpt>
      <trkpt lat="46.30794" lon="5.54046">
        <ele>331</ele>
        <time>2022-07-14T06:13:13Z</time>
      </trkpt>
      <trkpt lat="46.3082" lon="5.54047">
        <ele>332</ele>
        <time>2022-07-14T06:13:17Z</time>
      </trkpt>
      <trkpt lat="46.30826" lon="5.54044">
        <ele>332</ele>
        <time>2022-07-14T06:13:18Z</time>
      </trkpt>
      <trkpt lat="46.30833" lon="5.54041">
        <ele>332.4</ele>
        <time>2022-07-14T06:13:19Z</time>
      </trkpt>
      <trkpt lat="46.30839" lon="5.54036">
        <ele>332.6</ele>
        <time>2022-07-14T06:13:20Z</time>
      </trkpt>
      <trkpt lat="46.30845" lon="5.5403">
        <ele>332.8</ele>
        <time>2022-07-14T06:13:21Z</time>
      </trkpt>
      <trkpt lat="46.3085" lon="5.54024">
        <ele>333</ele>
        <time>2022-07-14T06:13:22Z</time>
      </trkpt>
      <trkpt lat="46.30855" lon="5.54015">
        <ele>333</ele>
        <time>2022-07-14T06:13:23Z</time>
      </trkpt>
      <trkpt lat="46.30862" lon="5.53995">
        <ele>333</ele>
        <time>2022-07-14T06:13:25Z</time>
      </trkpt>
      <trkpt lat="46.30862" lon="5.5397">
        <ele>332.8</ele>
        <time>2022-07-14T06:13:27Z</time>
      </trkpt>
      <trkpt lat="46.30861" lon="5.53957">
        <ele>332.6</ele>
        <time>2022-07-14T06:13:28Z</time>
      </trkpt>
      <trkpt lat="46.30859" lon="5.53933">
        <ele>331.2</ele>
        <time>2022-07-14T06:13:30Z</time>
      </trkpt>
      <trkpt lat="46.30856" lon="5.539">
        <ele>330.2</ele>
        <time>2022-07-14T06:13:33Z</time>
      </trkpt>
      <trkpt lat="46.30855" lon="5.53888">
        <ele>330</ele>
        <time>2022-07-14T06:13:34Z</time>
      </trkpt>
      <trkpt lat="46.30849" lon="5.53831">
        <ele>329</ele>
        <time>2022-07-14T06:13:39Z</time>
      </trkpt>
      <trkpt lat="46.30847" lon="5.53821">
        <ele>328.8</ele>
        <time>2022-07-14T06:13:40Z</time>
      </trkpt>
      <trkpt lat="46.30843" lon="5.53812">
        <ele>328.6</ele>
        <time>2022-07-14T06:13:41Z</time>
      </trkpt>
      <trkpt lat="46.30831" lon="5.53798">
        <ele>328</ele>
        <time>2022-07-14T06:13:43Z</time>
      </trkpt>
      <trkpt lat="46.30818" lon="5.53789">
        <ele>326.6</ele>
        <time>2022-07-14T06:13:45Z</time>
      </trkpt>
      <trkpt lat="46.30812" lon="5.53784">
        <ele>326</ele>
        <time>2022-07-14T06:13:46Z</time>
      </trkpt>
      <trkpt lat="46.30807" lon="5.53779">
        <ele>325.4</ele>
        <time>2022-07-14T06:13:47Z</time>
      </trkpt>
      <trkpt lat="46.30803" lon="5.53773">
        <ele>325.2</ele>
        <time>2022-07-14T06:13:48Z</time>
      </trkpt>
      <trkpt lat="46.30798" lon="5.53758">
        <ele>324.6</ele>
        <time>2022-07-14T06:13:50Z</time>
      </trkpt>
      <trkpt lat="46.30797" lon="5.53749">
        <ele>324.4</ele>
        <time>2022-07-14T06:13:51Z</time>
      </trkpt>
      <trkpt lat="46.30797" lon="5.53732">
        <ele>324</ele>
        <time>2022-07-14T06:13:53Z</time>
      </trkpt>
      <trkpt lat="46.30802" lon="5.53718">
        <ele>323.2</ele>
        <time>2022-07-14T06:13:55Z</time>
      </trkpt>
      <trkpt lat="46.30811" lon="5.53709">
        <ele>322.2</ele>
        <time>2022-07-14T06:13:57Z</time>
      </trkpt>
      <trkpt lat="46.30816" lon="5.53709">
        <ele>321.4</ele>
        <time>2022-07-14T06:13:58Z</time>
      </trkpt>
      <trkpt lat="46.30823" lon="5.53712">
        <ele>321.2</ele>
        <time>2022-07-14T06:13:59Z</time>
      </trkpt>
      <trkpt lat="46.30836" lon="5.53724">
        <ele>320.2</ele>
        <time>2022-07-14T06:14:01Z</time>
      </trkpt>
      <trkpt lat="46.30842" lon="5.53729">
        <ele>320</ele>
        <time>2022-07-14T06:14:02Z</time>
      </trkpt>
      <trkpt lat="46.30855" lon="5.53733">
        <ele>319.4</ele>
        <time>2022-07-14T06:14:04Z</time>
      </trkpt>
      <trkpt lat="46.30862" lon="5.53732">
        <ele>318.8</ele>
        <time>2022-07-14T06:14:05Z</time>
      </trkpt>
      <trkpt lat="46.30869" lon="5.5373">
        <ele>318.6</ele>
        <time>2022-07-14T06:14:06Z</time>
      </trkpt>
      <trkpt lat="46.30875" lon="5.53724">
        <ele>317.8</ele>
        <time>2022-07-14T06:14:07Z</time>
      </trkpt>
      <trkpt lat="46.30881" lon="5.53716">
        <ele>317</ele>
        <time>2022-07-14T06:14:08Z</time>
      </trkpt>
      <trkpt lat="46.30886" lon="5.53706">
        <ele>316.4</ele>
        <time>2022-07-14T06:14:09Z</time>
      </trkpt>
      <trkpt lat="46.3089" lon="5.53696">
        <ele>315.4</ele>
        <time>2022-07-14T06:14:10Z</time>
      </trkpt>
      <trkpt lat="46.30903" lon="5.53665">
        <ele>314.2</ele>
        <time>2022-07-14T06:14:13Z</time>
      </trkpt>
      <trkpt lat="46.30904" lon="5.53653">
        <ele>313.8</ele>
        <time>2022-07-14T06:14:14Z</time>
      </trkpt>
      <trkpt lat="46.30904" lon="5.5364">
        <ele>313</ele>
        <time>2022-07-14T06:14:15Z</time>
      </trkpt>
      <trkpt lat="46.30896" lon="5.5362">
        <ele>312.4</ele>
        <time>2022-07-14T06:14:17Z</time>
      </trkpt>
      <trkpt lat="46.30884" lon="5.53609">
        <ele>312.4</ele>
        <time>2022-07-14T06:14:19Z</time>
      </trkpt>
      <trkpt lat="46.30877" lon="5.53606">
        <ele>312.4</ele>
        <time>2022-07-14T06:14:20Z</time>
      </trkpt>
      <trkpt lat="46.30866" lon="5.53599">
        <ele>312.4</ele>
        <time>2022-07-14T06:14:22Z</time>
      </trkpt>
      <trkpt lat="46.30851" lon="5.53586">
        <ele>313.2</ele>
        <time>2022-07-14T06:14:24Z</time>
      </trkpt>
      <trkpt lat="46.30845" lon="5.53579">
        <ele>314.4</ele>
        <time>2022-07-14T06:14:26Z</time>
      </trkpt>
      <trkpt lat="46.30833" lon="5.53565">
        <ele>316</ele>
        <time>2022-07-14T06:14:30Z</time>
      </trkpt>
      <trkpt lat="46.30829" lon="5.53561">
        <ele>317.2</ele>
        <time>2022-07-14T06:14:31Z</time>
      </trkpt>
      <trkpt lat="46.30821" lon="5.53554">
        <ele>318.2</ele>
        <time>2022-07-14T06:14:33Z</time>
      </trkpt>
      <trkpt lat="46.30808" lon="5.53546">
        <ele>319.2</ele>
        <time>2022-07-14T06:14:36Z</time>
      </trkpt>
      <trkpt lat="46.30804" lon="5.53543">
        <ele>319.6</ele>
        <time>2022-07-14T06:14:37Z</time>
      </trkpt>
      <trkpt lat="46.30799" lon="5.53541">
        <ele>320.2</ele>
        <time>2022-07-14T06:14:38Z</time>
      </trkpt>
      <trkpt lat="46.30786" lon="5.53536">
        <ele>320.6</ele>
        <time>2022-07-14T06:14:41Z</time>
      </trkpt>
      <trkpt lat="46.30772" lon="5.5353">
        <ele>321.8</ele>
        <time>2022-07-14T06:14:44Z</time>
      </trkpt>
      <trkpt lat="46.30763" lon="5.53523">
        <ele>322.2</ele>
        <time>2022-07-14T06:14:46Z</time>
      </trkpt>
      <trkpt lat="46.30759" lon="5.53518">
        <ele>322.4</ele>
        <time>2022-07-14T06:14:47Z</time>
      </trkpt>
      <trkpt lat="46.30751" lon="5.53508">
        <ele>322.8</ele>
        <time>2022-07-14T06:14:49Z</time>
      </trkpt>
      <trkpt lat="46.30743" lon="5.53498">
        <ele>323.2</ele>
        <time>2022-07-14T06:14:51Z</time>
      </trkpt>
      <trkpt lat="46.30721" lon="5.53474">
        <ele>324</ele>
        <time>2022-07-14T06:14:56Z</time>
      </trkpt>
      <trkpt lat="46.30713" lon="5.53463">
        <ele>324</ele>
        <time>2022-07-14T06:14:58Z</time>
      </trkpt>
      <trkpt lat="46.30673" lon="5.53407">
        <ele>324.6</ele>
        <time>2022-07-14T06:15:08Z</time>
      </trkpt>
      <trkpt lat="46.3067" lon="5.53401">
        <ele>324.8</ele>
        <time>2022-07-14T06:15:09Z</time>
      </trkpt>
      <trkpt lat="46.30661" lon="5.5339">
        <ele>325</ele>
        <time>2022-07-14T06:15:11Z</time>
      </trkpt>
      <trkpt lat="46.30635" lon="5.53356">
        <ele>325.6</ele>
        <time>2022-07-14T06:15:17Z</time>
      </trkpt>
      <trkpt lat="46.30615" lon="5.53326">
        <ele>326</ele>
        <time>2022-07-14T06:15:22Z</time>
      </trkpt>
      <trkpt lat="46.30604" lon="5.53307">
        <ele>326</ele>
        <time>2022-07-14T06:15:25Z</time>
      </trkpt>
      <trkpt lat="46.30568" lon="5.53249">
        <ele>326.4</ele>
        <time>2022-07-14T06:15:34Z</time>
      </trkpt>
      <trkpt lat="46.3055" lon="5.53217">
        <ele>326.4</ele>
        <time>2022-07-14T06:15:39Z</time>
      </trkpt>
      <trkpt lat="46.30541" lon="5.53206">
        <ele>326.4</ele>
        <time>2022-07-14T06:15:41Z</time>
      </trkpt>
      <trkpt lat="46.3049" lon="5.5317">
        <ele>326.4</ele>
        <time>2022-07-14T06:15:50Z</time>
      </trkpt>
      <trkpt lat="46.30447" lon="5.53143">
        <ele>326.8</ele>
        <time>2022-07-14T06:15:56Z</time>
      </trkpt>
      <trkpt lat="46.30411" lon="5.53121">
        <ele>326.4</ele>
        <time>2022-07-14T06:16:02Z</time>
      </trkpt>
      <trkpt lat="46.30378" lon="5.53106">
        <ele>325.2</ele>
        <time>2022-07-14T06:16:06Z</time>
      </trkpt>
      <trkpt lat="46.30353" lon="5.53098">
        <ele>324.4</ele>
        <time>2022-07-14T06:16:09Z</time>
      </trkpt>
      <trkpt lat="46.30317" lon="5.53094">
        <ele>324.2</ele>
        <time>2022-07-14T06:16:14Z</time>
      </trkpt>
      <trkpt lat="46.3029" lon="5.53093">
        <ele>325</ele>
        <time>2022-07-14T06:16:18Z</time>
      </trkpt>
      <trkpt lat="46.30282" lon="5.53092">
        <ele>325.4</ele>
        <time>2022-07-14T06:16:19Z</time>
      </trkpt>
      <trkpt lat="46.30275" lon="5.53089">
        <ele>325.4</ele>
        <time>2022-07-14T06:16:20Z</time>
      </trkpt>
      <trkpt lat="46.30261" lon="5.5308">
        <ele>325.8</ele>
        <time>2022-07-14T06:16:22Z</time>
      </trkpt>
      <trkpt lat="46.30255" lon="5.53074">
        <ele>325.8</ele>
        <time>2022-07-14T06:16:23Z</time>
      </trkpt>
      <trkpt lat="46.30227" lon="5.53041">
        <ele>326</ele>
        <time>2022-07-14T06:16:28Z</time>
      </trkpt>
      <trkpt lat="46.3022" lon="5.53037">
        <ele>326</ele>
        <time>2022-07-14T06:16:29Z</time>
      </trkpt>
      <trkpt lat="46.30198" lon="5.53027">
        <ele>325.4</ele>
        <time>2022-07-14T06:16:32Z</time>
      </trkpt>
      <trkpt lat="46.30158" lon="5.5301">
        <ele>324.6</ele>
        <time>2022-07-14T06:16:37Z</time>
      </trkpt>
      <trkpt lat="46.30143" lon="5.53007">
        <ele>324</ele>
        <time>2022-07-14T06:16:39Z</time>
      </trkpt>
      <trkpt lat="46.30125" lon="5.53002">
        <ele>323.8</ele>
        <time>2022-07-14T06:16:42Z</time>
      </trkpt>
      <trkpt lat="46.30078" lon="5.52987">
        <ele>324.4</ele>
        <time>2022-07-14T06:16:50Z</time>
      </trkpt>
      <trkpt lat="46.30039" lon="5.52975">
        <ele>324.4</ele>
        <time>2022-07-14T06:16:56Z</time>
      </trkpt>
      <trkpt lat="46.2998" lon="5.52958">
        <ele>324.4</ele>
        <time>2022-07-14T06:17:05Z</time>
      </trkpt>
      <trkpt lat="46.29974" lon="5.52957">
        <ele>324.4</ele>
        <time>2022-07-14T06:17:06Z</time>
      </trkpt>
      <trkpt lat="46.29938" lon="5.52958">
        <ele>324.4</ele>
        <time>2022-07-14T06:17:11Z</time>
      </trkpt>
      <trkpt lat="46.2993" lon="5.5296">
        <ele>324.4</ele>
        <time>2022-07-14T06:17:12Z</time>
      </trkpt>
      <trkpt lat="46.29876" lon="5.52976">
        <ele>322.8</ele>
        <time>2022-07-14T06:17:19Z</time>
      </trkpt>
      <trkpt lat="46.29835" lon="5.52983">
        <ele>321.2</ele>
        <time>2022-07-14T06:17:24Z</time>
      </trkpt>
      <trkpt lat="46.29826" lon="5.52983">
        <ele>321.2</ele>
        <time>2022-07-14T06:17:25Z</time>
      </trkpt>
      <trkpt lat="46.29794" lon="5.52971">
        <ele>320.6</ele>
        <time>2022-07-14T06:17:28Z</time>
      </trkpt>
      <trkpt lat="46.29794" lon="5.52971">
        <ele>320.4</ele>
        <time>2022-07-14T06:17:29Z</time>
      </trkpt>
      <trkpt lat="46.29763" lon="5.52954">
        <ele>319</ele>
        <time>2022-07-14T06:17:32Z</time>
      </trkpt>
      <trkpt lat="46.29753" lon="5.52948">
        <ele>318</ele>
        <time>2022-07-14T06:17:33Z</time>
      </trkpt>
      <trkpt lat="46.29742" lon="5.52941">
        <ele>317.6</ele>
        <time>2022-07-14T06:17:34Z</time>
      </trkpt>
      <trkpt lat="46.29731" lon="5.52934">
        <ele>316.4</ele>
        <time>2022-07-14T06:17:35Z</time>
      </trkpt>
      <trkpt lat="46.29708" lon="5.52923">
        <ele>314</ele>
        <time>2022-07-14T06:17:37Z</time>
      </trkpt>
      <trkpt lat="46.29696" lon="5.52918">
        <ele>312.8</ele>
        <time>2022-07-14T06:17:38Z</time>
      </trkpt>
      <trkpt lat="46.29684" lon="5.52914">
        <ele>312.2</ele>
        <time>2022-07-14T06:17:39Z</time>
      </trkpt>
      <trkpt lat="46.29673" lon="5.52909">
        <ele>311.2</ele>
        <time>2022-07-14T06:17:40Z</time>
      </trkpt>
      <trkpt lat="46.29649" lon="5.52901">
        <ele>309.6</ele>
        <time>2022-07-14T06:17:42Z</time>
      </trkpt>
      <trkpt lat="46.29626" lon="5.52892">
        <ele>307.6</ele>
        <time>2022-07-14T06:17:44Z</time>
      </trkpt>
      <trkpt lat="46.29615" lon="5.52887">
        <ele>307.4</ele>
        <time>2022-07-14T06:17:45Z</time>
      </trkpt>
      <trkpt lat="46.29595" lon="5.52874">
        <ele>305.8</ele>
        <time>2022-07-14T06:17:47Z</time>
      </trkpt>
      <trkpt lat="46.29565" lon="5.52854">
        <ele>305.2</ele>
        <time>2022-07-14T06:17:50Z</time>
      </trkpt>
      <trkpt lat="46.29536" lon="5.52837">
        <ele>304.6</ele>
        <time>2022-07-14T06:17:53Z</time>
      </trkpt>
      <trkpt lat="46.29508" lon="5.52821">
        <ele>304.6</ele>
        <time>2022-07-14T06:17:56Z</time>
      </trkpt>
      <trkpt lat="46.29454" lon="5.52798">
        <ele>304.6</ele>
        <time>2022-07-14T06:18:02Z</time>
      </trkpt>
      <trkpt lat="46.29427" lon="5.52796">
        <ele>305</ele>
        <time>2022-07-14T06:18:05Z</time>
      </trkpt>
      <trkpt lat="46.29418" lon="5.52797">
        <ele>305</ele>
        <time>2022-07-14T06:18:06Z</time>
      </trkpt>
      <trkpt lat="46.29359" lon="5.52806">
        <ele>305.2</ele>
        <time>2022-07-14T06:18:13Z</time>
      </trkpt>
      <trkpt lat="46.29352" lon="5.52807">
        <ele>305.2</ele>
        <time>2022-07-14T06:18:14Z</time>
      </trkpt>
      <trkpt lat="46.29338" lon="5.52809">
        <ele>305.4</ele>
        <time>2022-07-14T06:18:16Z</time>
      </trkpt>
      <trkpt lat="46.29331" lon="5.5281">
        <ele>305.8</ele>
        <time>2022-07-14T06:18:17Z</time>
      </trkpt>
      <trkpt lat="46.29325" lon="5.52812">
        <ele>306</ele>
        <time>2022-07-14T06:18:18Z</time>
      </trkpt>
      <trkpt lat="46.29306" lon="5.52817">
        <ele>307</ele>
        <time>2022-07-14T06:18:21Z</time>
      </trkpt>
      <trkpt lat="46.29284" lon="5.52819">
        <ele>307.4</ele>
        <time>2022-07-14T06:18:24Z</time>
      </trkpt>
      <trkpt lat="46.29268" lon="5.52816">
        <ele>307.6</ele>
        <time>2022-07-14T06:18:26Z</time>
      </trkpt>
      <trkpt lat="46.29252" lon="5.52811">
        <ele>307.6</ele>
        <time>2022-07-14T06:18:28Z</time>
      </trkpt>
      <trkpt lat="46.29244" lon="5.52807">
        <ele>307.6</ele>
        <time>2022-07-14T06:18:29Z</time>
      </trkpt>
      <trkpt lat="46.29223" lon="5.52787">
        <ele>307.4</ele>
        <time>2022-07-14T06:18:32Z</time>
      </trkpt>
      <trkpt lat="46.29183" lon="5.52746">
        <ele>307</ele>
        <time>2022-07-14T06:18:38Z</time>
      </trkpt>
      <trkpt lat="46.29133" lon="5.52701">
        <ele>305.8</ele>
        <time>2022-07-14T06:18:45Z</time>
      </trkpt>
      <trkpt lat="46.29125" lon="5.52694">
        <ele>305.6</ele>
        <time>2022-07-14T06:18:46Z</time>
      </trkpt>
      <trkpt lat="46.29103" lon="5.52673">
        <ele>304.6</ele>
        <time>2022-07-14T06:18:49Z</time>
      </trkpt>
      <trkpt lat="46.29087" lon="5.52662">
        <ele>304.2</ele>
        <time>2022-07-14T06:18:51Z</time>
      </trkpt>
      <trkpt lat="46.29036" lon="5.52641">
        <ele>303.6</ele>
        <time>2022-07-14T06:18:57Z</time>
      </trkpt>
      <trkpt lat="46.2902" lon="5.52635">
        <ele>303.6</ele>
        <time>2022-07-14T06:18:59Z</time>
      </trkpt>
      <trkpt lat="46.28999" lon="5.52631">
        <ele>303.8</ele>
        <time>2022-07-14T06:19:02Z</time>
      </trkpt>
      <trkpt lat="46.28977" lon="5.52633">
        <ele>304.6</ele>
        <time>2022-07-14T06:19:05Z</time>
      </trkpt>
      <trkpt lat="46.28969" lon="5.52635">
        <ele>304.6</ele>
        <time>2022-07-14T06:19:06Z</time>
      </trkpt>
      <trkpt lat="46.28961" lon="5.52636">
        <ele>304.8</ele>
        <time>2022-07-14T06:19:07Z</time>
      </trkpt>
      <trkpt lat="46.28923" lon="5.52634">
        <ele>305</ele>
        <time>2022-07-14T06:19:12Z</time>
      </trkpt>
      <trkpt lat="46.28892" lon="5.52622">
        <ele>305.2</ele>
        <time>2022-07-14T06:19:17Z</time>
      </trkpt>
      <trkpt lat="46.28882" lon="5.52613">
        <ele>305.8</ele>
        <time>2022-07-14T06:19:19Z</time>
      </trkpt>
      <trkpt lat="46.28874" lon="5.52602">
        <ele>306.4</ele>
        <time>2022-07-14T06:19:21Z</time>
      </trkpt>
      <trkpt lat="46.28871" lon="5.52596">
        <ele>306.6</ele>
        <time>2022-07-14T06:19:22Z</time>
      </trkpt>
      <trkpt lat="46.28869" lon="5.52589">
        <ele>307.2</ele>
        <time>2022-07-14T06:19:23Z</time>
      </trkpt>
      <trkpt lat="46.28864" lon="5.52577">
        <ele>308.4</ele>
        <time>2022-07-14T06:19:25Z</time>
      </trkpt>
      <trkpt lat="46.28856" lon="5.52562">
        <ele>309.4</ele>
        <time>2022-07-14T06:19:28Z</time>
      </trkpt>
      <trkpt lat="46.28849" lon="5.52547">
        <ele>310.8</ele>
        <time>2022-07-14T06:19:31Z</time>
      </trkpt>
      <trkpt lat="46.28846" lon="5.52543">
        <ele>311</ele>
        <time>2022-07-14T06:19:32Z</time>
      </trkpt>
      <trkpt lat="46.28842" lon="5.52533">
        <ele>312</ele>
        <time>2022-07-14T06:19:34Z</time>
      </trkpt>
      <trkpt lat="46.28834" lon="5.52513">
        <ele>313</ele>
        <time>2022-07-14T06:19:38Z</time>
      </trkpt>
      <trkpt lat="46.28826" lon="5.52495">
        <ele>313.4</ele>
        <time>2022-07-14T06:19:41Z</time>
      </trkpt>
      <trkpt lat="46.2882" lon="5.52487">
        <ele>314.2</ele>
        <time>2022-07-14T06:19:43Z</time>
      </trkpt>
      <trkpt lat="46.28805" lon="5.52469">
        <ele>315.2</ele>
        <time>2022-07-14T06:19:48Z</time>
      </trkpt>
      <trkpt lat="46.28798" lon="5.52462">
        <ele>316.2</ele>
        <time>2022-07-14T06:19:50Z</time>
      </trkpt>
      <trkpt lat="46.28795" lon="5.52459">
        <ele>316.6</ele>
        <time>2022-07-14T06:19:51Z</time>
      </trkpt>
      <trkpt lat="46.28778" lon="5.52444">
        <ele>317.8</ele>
        <time>2022-07-14T06:19:56Z</time>
      </trkpt>
      <trkpt lat="46.28763" lon="5.52431">
        <ele>318.6</ele>
        <time>2022-07-14T06:20:00Z</time>
      </trkpt>
      <trkpt lat="46.28759" lon="5.52427">
        <ele>318.8</ele>
        <time>2022-07-14T06:20:01Z</time>
      </trkpt>
      <trkpt lat="46.28727" lon="5.52403">
        <ele>320</ele>
        <time>2022-07-14T06:20:08Z</time>
      </trkpt>
      <trkpt lat="46.28722" lon="5.52399">
        <ele>320</ele>
        <time>2022-07-14T06:20:10Z</time>
      </trkpt>
      <trkpt lat="46.28674" lon="5.52364">
        <ele>319.4</ele>
        <time>2022-07-14T06:20:18Z</time>
      </trkpt>
      <trkpt lat="46.28625" lon="5.52319">
        <ele>319.4</ele>
        <time>2022-07-14T06:20:27Z</time>
      </trkpt>
      <trkpt lat="46.28612" lon="5.523">
        <ele>319.6</ele>
        <time>2022-07-14T06:20:30Z</time>
      </trkpt>
      <trkpt lat="46.28604" lon="5.52285">
        <ele>319.6</ele>
        <time>2022-07-14T06:20:32Z</time>
      </trkpt>
      <trkpt lat="46.2857" lon="5.52232">
        <ele>320</ele>
        <time>2022-07-14T06:20:40Z</time>
      </trkpt>
      <trkpt lat="46.28531" lon="5.5217">
        <ele>321</ele>
        <time>2022-07-14T06:20:49Z</time>
      </trkpt>
      <trkpt lat="46.28511" lon="5.52138">
        <ele>321.2</ele>
        <time>2022-07-14T06:20:54Z</time>
      </trkpt>
      <trkpt lat="46.28495" lon="5.52114">
        <ele>322</ele>
        <time>2022-07-14T06:20:58Z</time>
      </trkpt>
      <trkpt lat="46.28487" lon="5.52104">
        <ele>322.2</ele>
        <time>2022-07-14T06:21:00Z</time>
      </trkpt>
      <trkpt lat="46.28465" lon="5.52082">
        <ele>323.8</ele>
        <time>2022-07-14T06:21:05Z</time>
      </trkpt>
      <trkpt lat="46.28444" lon="5.52062">
        <ele>325</ele>
        <time>2022-07-14T06:21:10Z</time>
      </trkpt>
      <trkpt lat="46.28428" lon="5.52048">
        <ele>326</ele>
        <time>2022-07-14T06:21:14Z</time>
      </trkpt>
      <trkpt lat="46.28425" lon="5.52045">
        <ele>326.6</ele>
        <time>2022-07-14T06:21:15Z</time>
      </trkpt>
      <trkpt lat="46.28413" lon="5.5203">
        <ele>327.8</ele>
        <time>2022-07-14T06:21:19Z</time>
      </trkpt>
      <trkpt lat="46.28411" lon="5.52026">
        <ele>328</ele>
        <time>2022-07-14T06:21:20Z</time>
      </trkpt>
      <trkpt lat="46.28406" lon="5.52017">
        <ele>329</ele>
        <time>2022-07-14T06:21:22Z</time>
      </trkpt>
      <trkpt lat="46.284" lon="5.52002">
        <ele>330</ele>
        <time>2022-07-14T06:21:25Z</time>
      </trkpt>
      <trkpt lat="46.28398" lon="5.51996">
        <ele>330.8</ele>
        <time>2022-07-14T06:21:26Z</time>
      </trkpt>
      <trkpt lat="46.28394" lon="5.51986">
        <ele>331.6</ele>
        <time>2022-07-14T06:21:28Z</time>
      </trkpt>
      <trkpt lat="46.2839" lon="5.51977">
        <ele>332.8</ele>
        <time>2022-07-14T06:21:30Z</time>
      </trkpt>
      <trkpt lat="46.28383" lon="5.51963">
        <ele>334</ele>
        <time>2022-07-14T06:21:33Z</time>
      </trkpt>
      <trkpt lat="46.28381" lon="5.51957">
        <ele>334.2</ele>
        <time>2022-07-14T06:21:34Z</time>
      </trkpt>
      <trkpt lat="46.28371" lon="5.51928">
        <ele>334.4</ele>
        <time>2022-07-14T06:21:38Z</time>
      </trkpt>
      <trkpt lat="46.28366" lon="5.51922">
        <ele>334.4</ele>
        <time>2022-07-14T06:21:39Z</time>
      </trkpt>
      <trkpt lat="46.28362" lon="5.51916">
        <ele>334.4</ele>
        <time>2022-07-14T06:21:40Z</time>
      </trkpt>
      <trkpt lat="46.2835" lon="5.51907">
        <ele>334.2</ele>
        <time>2022-07-14T06:21:42Z</time>
      </trkpt>
      <trkpt lat="46.28344" lon="5.51906">
        <ele>334.2</ele>
        <time>2022-07-14T06:21:43Z</time>
      </trkpt>
      <trkpt lat="46.28338" lon="5.51909">
        <ele>333.8</ele>
        <time>2022-07-14T06:21:44Z</time>
      </trkpt>
      <trkpt lat="46.28333" lon="5.51915">
        <ele>333.4</ele>
        <time>2022-07-14T06:21:45Z</time>
      </trkpt>
      <trkpt lat="46.28324" lon="5.51932">
        <ele>332.4</ele>
        <time>2022-07-14T06:21:47Z</time>
      </trkpt>
      <trkpt lat="46.28316" lon="5.51949">
        <ele>331.8</ele>
        <time>2022-07-14T06:21:49Z</time>
      </trkpt>
      <trkpt lat="46.28311" lon="5.51956">
        <ele>331.8</ele>
        <time>2022-07-14T06:21:50Z</time>
      </trkpt>
      <trkpt lat="46.28302" lon="5.51971">
        <ele>331.2</ele>
        <time>2022-07-14T06:21:52Z</time>
      </trkpt>
      <trkpt lat="46.28299" lon="5.51976">
        <ele>331.2</ele>
        <time>2022-07-14T06:21:53Z</time>
      </trkpt>
      <trkpt lat="46.28292" lon="5.51981">
        <ele>330.8</ele>
        <time>2022-07-14T06:21:54Z</time>
      </trkpt>
      <trkpt lat="46.28286" lon="5.51983">
        <ele>330.8</ele>
        <time>2022-07-14T06:21:55Z</time>
      </trkpt>
      <trkpt lat="46.28281" lon="5.5198">
        <ele>330.8</ele>
        <time>2022-07-14T06:21:56Z</time>
      </trkpt>
      <trkpt lat="46.28274" lon="5.51966">
        <ele>330.6</ele>
        <time>2022-07-14T06:21:58Z</time>
      </trkpt>
      <trkpt lat="46.28268" lon="5.51948">
        <ele>330.6</ele>
        <time>2022-07-14T06:22:00Z</time>
      </trkpt>
      <trkpt lat="46.28253" lon="5.51902">
        <ele>331.2</ele>
        <time>2022-07-14T06:22:05Z</time>
      </trkpt>
      <trkpt lat="46.28239" lon="5.51856">
        <ele>331.2</ele>
        <time>2022-07-14T06:22:10Z</time>
      </trkpt>
      <trkpt lat="46.28236" lon="5.51839">
        <ele>331.2</ele>
        <time>2022-07-14T06:22:12Z</time>
      </trkpt>
      <trkpt lat="46.28234" lon="5.51825">
        <ele>331</ele>
        <time>2022-07-14T06:22:14Z</time>
      </trkpt>
      <trkpt lat="46.28225" lon="5.51811">
        <ele>331</ele>
        <time>2022-07-14T06:22:16Z</time>
      </trkpt>
      <trkpt lat="46.28219" lon="5.51805">
        <ele>331</ele>
        <time>2022-07-14T06:22:17Z</time>
      </trkpt>
      <trkpt lat="46.28201" lon="5.51789">
        <ele>331</ele>
        <time>2022-07-14T06:22:20Z</time>
      </trkpt>
      <trkpt lat="46.28187" lon="5.51782">
        <ele>331</ele>
        <time>2022-07-14T06:22:22Z</time>
      </trkpt>
      <trkpt lat="46.28146" lon="5.51769">
        <ele>331</ele>
        <time>2022-07-14T06:22:27Z</time>
      </trkpt>
      <trkpt lat="46.2812" lon="5.51754">
        <ele>330.4</ele>
        <time>2022-07-14T06:22:30Z</time>
      </trkpt>
      <trkpt lat="46.281" lon="5.51743">
        <ele>329.2</ele>
        <time>2022-07-14T06:22:32Z</time>
      </trkpt>
      <trkpt lat="46.2809" lon="5.51738">
        <ele>328.2</ele>
        <time>2022-07-14T06:22:33Z</time>
      </trkpt>
      <trkpt lat="46.28069" lon="5.51728">
        <ele>327.2</ele>
        <time>2022-07-14T06:22:35Z</time>
      </trkpt>
      <trkpt lat="46.28047" lon="5.51717">
        <ele>325</ele>
        <time>2022-07-14T06:22:37Z</time>
      </trkpt>
      <trkpt lat="46.28037" lon="5.5171">
        <ele>324</ele>
        <time>2022-07-14T06:22:38Z</time>
      </trkpt>
      <trkpt lat="46.28016" lon="5.51694">
        <ele>321.8</ele>
        <time>2022-07-14T06:22:40Z</time>
      </trkpt>
      <trkpt lat="46.28007" lon="5.51686">
        <ele>321.2</ele>
        <time>2022-07-14T06:22:41Z</time>
      </trkpt>
      <trkpt lat="46.27997" lon="5.51681">
        <ele>320</ele>
        <time>2022-07-14T06:22:42Z</time>
      </trkpt>
      <trkpt lat="46.27986" lon="5.51678">
        <ele>319.4</ele>
        <time>2022-07-14T06:22:43Z</time>
      </trkpt>
      <trkpt lat="46.27976" lon="5.5168">
        <ele>318</ele>
        <time>2022-07-14T06:22:44Z</time>
      </trkpt>
      <trkpt lat="46.27966" lon="5.51685">
        <ele>317.4</ele>
        <time>2022-07-14T06:22:45Z</time>
      </trkpt>
      <trkpt lat="46.27946" lon="5.51699">
        <ele>316.6</ele>
        <time>2022-07-14T06:22:47Z</time>
      </trkpt>
      <trkpt lat="46.27919" lon="5.51715">
        <ele>315.8</ele>
        <time>2022-07-14T06:22:50Z</time>
      </trkpt>
      <trkpt lat="46.27919" lon="5.51715">
        <ele>315.6</ele>
        <time>2022-07-14T06:22:51Z</time>
      </trkpt>
      <trkpt lat="46.27902" lon="5.51712">
        <ele>315.4</ele>
        <time>2022-07-14T06:22:52Z</time>
      </trkpt>
      <trkpt lat="46.27898" lon="5.51708">
        <ele>315.2</ele>
        <time>2022-07-14T06:22:53Z</time>
      </trkpt>
      <trkpt lat="46.27876" lon="5.51679">
        <ele>315</ele>
        <time>2022-07-14T06:22:56Z</time>
      </trkpt>
      <trkpt lat="46.27869" lon="5.51672">
        <ele>315.2</ele>
        <time>2022-07-14T06:22:57Z</time>
      </trkpt>
      <trkpt lat="46.27825" lon="5.51634">
        <ele>315.2</ele>
        <time>2022-07-14T06:23:03Z</time>
      </trkpt>
      <trkpt lat="46.2782" lon="5.51625">
        <ele>315</ele>
        <time>2022-07-14T06:23:04Z</time>
      </trkpt>
      <trkpt lat="46.278" lon="5.51577">
        <ele>315</ele>
        <time>2022-07-14T06:23:09Z</time>
      </trkpt>
      <trkpt lat="46.27774" lon="5.51501">
        <ele>314.6</ele>
        <time>2022-07-14T06:23:16Z</time>
      </trkpt>
      <trkpt lat="46.27769" lon="5.5149">
        <ele>314.4</ele>
        <time>2022-07-14T06:23:17Z</time>
      </trkpt>
      <trkpt lat="46.27744" lon="5.51447">
        <ele>313.2</ele>
        <time>2022-07-14T06:23:21Z</time>
      </trkpt>
      <trkpt lat="46.27726" lon="5.51429">
        <ele>312</ele>
        <time>2022-07-14T06:23:23Z</time>
      </trkpt>
      <trkpt lat="46.27717" lon="5.51421">
        <ele>310.8</ele>
        <time>2022-07-14T06:23:24Z</time>
      </trkpt>
      <trkpt lat="46.27707" lon="5.51413">
        <ele>310.2</ele>
        <time>2022-07-14T06:23:25Z</time>
      </trkpt>
      <trkpt lat="46.27697" lon="5.51406">
        <ele>309.4</ele>
        <time>2022-07-14T06:23:26Z</time>
      </trkpt>
      <trkpt lat="46.27665" lon="5.51386">
        <ele>308.2</ele>
        <time>2022-07-14T06:23:29Z</time>
      </trkpt>
      <trkpt lat="46.27654" lon="5.51381">
        <ele>307.4</ele>
        <time>2022-07-14T06:23:30Z</time>
      </trkpt>
      <trkpt lat="46.27643" lon="5.51379">
        <ele>306.6</ele>
        <time>2022-07-14T06:23:31Z</time>
      </trkpt>
      <trkpt lat="46.27631" lon="5.51377">
        <ele>306.2</ele>
        <time>2022-07-14T06:23:32Z</time>
      </trkpt>
      <trkpt lat="46.27619" lon="5.51376">
        <ele>305.4</ele>
        <time>2022-07-14T06:23:33Z</time>
      </trkpt>
      <trkpt lat="46.27607" lon="5.51375">
        <ele>305</ele>
        <time>2022-07-14T06:23:34Z</time>
      </trkpt>
      <trkpt lat="46.27594" lon="5.51374">
        <ele>303.8</ele>
        <time>2022-07-14T06:23:35Z</time>
      </trkpt>
      <trkpt lat="46.27572" lon="5.51371">
        <ele>302</ele>
        <time>2022-07-14T06:23:37Z</time>
      </trkpt>
      <trkpt lat="46.27562" lon="5.51369">
        <ele>301</ele>
        <time>2022-07-14T06:23:38Z</time>
      </trkpt>
      <trkpt lat="46.27553" lon="5.51367">
        <ele>300.6</ele>
        <time>2022-07-14T06:23:39Z</time>
      </trkpt>
      <trkpt lat="46.27546" lon="5.51365">
        <ele>299.4</ele>
        <time>2022-07-14T06:23:40Z</time>
      </trkpt>
      <trkpt lat="46.27539" lon="5.51363">
        <ele>299</ele>
        <time>2022-07-14T06:23:41Z</time>
      </trkpt>
      <trkpt lat="46.27534" lon="5.51364">
        <ele>298</ele>
        <time>2022-07-14T06:23:42Z</time>
      </trkpt>
      <trkpt lat="46.27528" lon="5.51365">
        <ele>297.6</ele>
        <time>2022-07-14T06:23:43Z</time>
      </trkpt>
      <trkpt lat="46.27522" lon="5.51368">
        <ele>297</ele>
        <time>2022-07-14T06:23:44Z</time>
      </trkpt>
      <trkpt lat="46.2751" lon="5.51377">
        <ele>296.4</ele>
        <time>2022-07-14T06:23:46Z</time>
      </trkpt>
      <trkpt lat="46.27498" lon="5.51391">
        <ele>295.8</ele>
        <time>2022-07-14T06:23:49Z</time>
      </trkpt>
      <trkpt lat="46.27492" lon="5.51399">
        <ele>295.6</ele>
        <time>2022-07-14T06:23:50Z</time>
      </trkpt>
      <trkpt lat="46.2748" lon="5.51416">
        <ele>295.2</ele>
        <time>2022-07-14T06:23:51Z</time>
      </trkpt>
      <trkpt lat="46.27474" lon="5.51424">
        <ele>294.6</ele>
        <time>2022-07-14T06:23:52Z</time>
      </trkpt>
      <trkpt lat="46.27449" lon="5.51457">
        <ele>293.4</ele>
        <time>2022-07-14T06:23:56Z</time>
      </trkpt>
      <trkpt lat="46.27414" lon="5.51503">
        <ele>292.4</ele>
        <time>2022-07-14T06:24:02Z</time>
      </trkpt>
      <trkpt lat="46.27403" lon="5.51518">
        <ele>292.2</ele>
        <time>2022-07-14T06:24:04Z</time>
      </trkpt>
      <trkpt lat="46.2736" lon="5.51576">
        <ele>292.4</ele>
        <time>2022-07-14T06:24:12Z</time>
      </trkpt>
      <trkpt lat="46.27319" lon="5.51629">
        <ele>292</ele>
        <time>2022-07-14T06:24:19Z</time>
      </trkpt>
      <trkpt lat="46.27313" lon="5.51637">
        <ele>292</ele>
        <time>2022-07-14T06:24:20Z</time>
      </trkpt>
      <trkpt lat="46.27301" lon="5.51654">
        <ele>291.6</ele>
        <time>2022-07-14T06:24:23Z</time>
      </trkpt>
      <trkpt lat="46.2728" lon="5.5169">
        <ele>290.8</ele>
        <time>2022-07-14T06:24:26Z</time>
      </trkpt>
      <trkpt lat="46.27269" lon="5.51708">
        <ele>290.4</ele>
        <time>2022-07-14T06:24:28Z</time>
      </trkpt>
      <trkpt lat="46.2725" lon="5.51732">
        <ele>289.8</ele>
        <time>2022-07-14T06:24:31Z</time>
      </trkpt>
      <trkpt lat="46.27243" lon="5.51738">
        <ele>289.8</ele>
        <time>2022-07-14T06:24:32Z</time>
      </trkpt>
      <trkpt lat="46.27235" lon="5.51742">
        <ele>289.6</ele>
        <time>2022-07-14T06:24:33Z</time>
      </trkpt>
      <trkpt lat="46.2722" lon="5.51744">
        <ele>289.6</ele>
        <time>2022-07-14T06:24:35Z</time>
      </trkpt>
      <trkpt lat="46.27187" lon="5.51741">
        <ele>290</ele>
        <time>2022-07-14T06:24:40Z</time>
      </trkpt>
      <trkpt lat="46.27166" lon="5.51739">
        <ele>291.8</ele>
        <time>2022-07-14T06:24:44Z</time>
      </trkpt>
      <trkpt lat="46.27157" lon="5.51737">
        <ele>292.6</ele>
        <time>2022-07-14T06:24:46Z</time>
      </trkpt>
      <trkpt lat="46.27153" lon="5.51736">
        <ele>293</ele>
        <time>2022-07-14T06:24:47Z</time>
      </trkpt>
      <trkpt lat="46.27141" lon="5.51731">
        <ele>294.4</ele>
        <time>2022-07-14T06:24:50Z</time>
      </trkpt>
      <trkpt lat="46.27137" lon="5.51729">
        <ele>295</ele>
        <time>2022-07-14T06:24:51Z</time>
      </trkpt>
      <trkpt lat="46.27134" lon="5.51727">
        <ele>295.8</ele>
        <time>2022-07-14T06:24:52Z</time>
      </trkpt>
      <trkpt lat="46.27122" lon="5.5172">
        <ele>297.2</ele>
        <time>2022-07-14T06:24:55Z</time>
      </trkpt>
      <trkpt lat="46.27115" lon="5.51716">
        <ele>298.2</ele>
        <time>2022-07-14T06:24:57Z</time>
      </trkpt>
      <trkpt lat="46.27108" lon="5.51712">
        <ele>299.2</ele>
        <time>2022-07-14T06:24:59Z</time>
      </trkpt>
      <trkpt lat="46.27102" lon="5.51709">
        <ele>299.8</ele>
        <time>2022-07-14T06:25:01Z</time>
      </trkpt>
      <trkpt lat="46.27095" lon="5.51707">
        <ele>300.6</ele>
        <time>2022-07-14T06:25:03Z</time>
      </trkpt>
      <trkpt lat="46.27083" lon="5.51703">
        <ele>302</ele>
        <time>2022-07-14T06:25:07Z</time>
      </trkpt>
      <trkpt lat="46.2708" lon="5.51702">
        <ele>302.4</ele>
        <time>2022-07-14T06:25:08Z</time>
      </trkpt>
      <trkpt lat="46.27071" lon="5.517">
        <ele>303.2</ele>
        <time>2022-07-14T06:25:11Z</time>
      </trkpt>
      <trkpt lat="46.27065" lon="5.51699">
        <ele>304.2</ele>
        <time>2022-07-14T06:25:13Z</time>
      </trkpt>
      <trkpt lat="46.27055" lon="5.51697">
        <ele>305</ele>
        <time>2022-07-14T06:25:16Z</time>
      </trkpt>
      <trkpt lat="46.27052" lon="5.51696">
        <ele>305.4</ele>
        <time>2022-07-14T06:25:17Z</time>
      </trkpt>
      <trkpt lat="46.2704" lon="5.51695">
        <ele>306.4</ele>
        <time>2022-07-14T06:25:21Z</time>
      </trkpt>
      <trkpt lat="46.27037" lon="5.51695">
        <ele>306.6</ele>
        <time>2022-07-14T06:25:22Z</time>
      </trkpt>
      <trkpt lat="46.27024" lon="5.51695">
        <ele>307.4</ele>
        <time>2022-07-14T06:25:27Z</time>
      </trkpt>
      <trkpt lat="46.27021" lon="5.51695">
        <ele>307.6</ele>
        <time>2022-07-14T06:25:28Z</time>
      </trkpt>
      <trkpt lat="46.2701" lon="5.51695">
        <ele>308.6</ele>
        <time>2022-07-14T06:25:31Z</time>
      </trkpt>
      <trkpt lat="46.26993" lon="5.51694">
        <ele>309.4</ele>
        <time>2022-07-14T06:25:36Z</time>
      </trkpt>
      <trkpt lat="46.26986" lon="5.51695">
        <ele>309.8</ele>
        <time>2022-07-14T06:25:38Z</time>
      </trkpt>
      <trkpt lat="46.26969" lon="5.51697">
        <ele>310.8</ele>
        <time>2022-07-14T06:25:43Z</time>
      </trkpt>
      <trkpt lat="46.26952" lon="5.51699">
        <ele>311.8</ele>
        <time>2022-07-14T06:25:48Z</time>
      </trkpt>
      <trkpt lat="46.26943" lon="5.51701">
        <ele>312.8</ele>
        <time>2022-07-14T06:25:51Z</time>
      </trkpt>
      <trkpt lat="46.26932" lon="5.51703">
        <ele>313.8</ele>
        <time>2022-07-14T06:25:54Z</time>
      </trkpt>
      <trkpt lat="46.26917" lon="5.51702">
        <ele>314.8</ele>
        <time>2022-07-14T06:25:58Z</time>
      </trkpt>
      <trkpt lat="46.2691" lon="5.51701">
        <ele>315.2</ele>
        <time>2022-07-14T06:26:00Z</time>
      </trkpt>
      <trkpt lat="46.269" lon="5.51697">
        <ele>316</ele>
        <time>2022-07-14T06:26:03Z</time>
      </trkpt>
      <trkpt lat="46.26886" lon="5.5169">
        <ele>317</ele>
        <time>2022-07-14T06:26:07Z</time>
      </trkpt>
      <trkpt lat="46.26879" lon="5.51684">
        <ele>317.6</ele>
        <time>2022-07-14T06:26:09Z</time>
      </trkpt>
      <trkpt lat="46.26872" lon="5.51678">
        <ele>318</ele>
        <time>2022-07-14T06:26:11Z</time>
      </trkpt>
      <trkpt lat="46.26848" lon="5.51656">
        <ele>319</ele>
        <time>2022-07-14T06:26:17Z</time>
      </trkpt>
      <trkpt lat="46.26844" lon="5.51651">
        <ele>319</ele>
        <time>2022-07-14T06:26:18Z</time>
      </trkpt>
      <trkpt lat="46.26816" lon="5.51622">
        <ele>319.8</ele>
        <time>2022-07-14T06:26:24Z</time>
      </trkpt>
      <trkpt lat="46.26803" lon="5.51608">
        <ele>319.8</ele>
        <time>2022-07-14T06:26:27Z</time>
      </trkpt>
      <trkpt lat="46.26772" lon="5.51586">
        <ele>319.6</ele>
        <time>2022-07-14T06:26:32Z</time>
      </trkpt>
      <trkpt lat="46.2676" lon="5.51583">
        <ele>319.6</ele>
        <time>2022-07-14T06:26:34Z</time>
      </trkpt>
      <trkpt lat="46.26748" lon="5.51584">
        <ele>319.6</ele>
        <time>2022-07-14T06:26:36Z</time>
      </trkpt>
      <trkpt lat="46.26723" lon="5.51597">
        <ele>319.4</ele>
        <time>2022-07-14T06:26:40Z</time>
      </trkpt>
      <trkpt lat="46.26717" lon="5.51602">
        <ele>319.4</ele>
        <time>2022-07-14T06:26:41Z</time>
      </trkpt>
      <trkpt lat="46.26692" lon="5.51633">
        <ele>319.4</ele>
        <time>2022-07-14T06:26:46Z</time>
      </trkpt>
      <trkpt lat="46.26674" lon="5.51679">
        <ele>318.6</ele>
        <time>2022-07-14T06:26:51Z</time>
      </trkpt>
      <trkpt lat="46.26667" lon="5.51699">
        <ele>318.2</ele>
        <time>2022-07-14T06:26:53Z</time>
      </trkpt>
      <trkpt lat="46.26643" lon="5.51766">
        <ele>317.2</ele>
        <time>2022-07-14T06:27:00Z</time>
      </trkpt>
      <trkpt lat="46.2662" lon="5.51841">
        <ele>317.4</ele>
        <time>2022-07-14T06:27:08Z</time>
      </trkpt>
      <trkpt lat="46.26605" lon="5.51896">
        <ele>317.2</ele>
        <time>2022-07-14T06:27:13Z</time>
      </trkpt>
      <trkpt lat="46.26602" lon="5.51909">
        <ele>317.2</ele>
        <time>2022-07-14T06:27:14Z</time>
      </trkpt>
      <trkpt lat="46.26595" lon="5.5195">
        <ele>315.6</ele>
        <time>2022-07-14T06:27:17Z</time>
      </trkpt>
      <trkpt lat="46.26594" lon="5.51965">
        <ele>314.8</ele>
        <time>2022-07-14T06:27:18Z</time>
      </trkpt>
      <trkpt lat="46.26593" lon="5.5198">
        <ele>314.6</ele>
        <time>2022-07-14T06:27:19Z</time>
      </trkpt>
      <trkpt lat="46.26591" lon="5.52012">
        <ele>313.6</ele>
        <time>2022-07-14T06:27:21Z</time>
      </trkpt>
      <trkpt lat="46.26592" lon="5.52028">
        <ele>312</ele>
        <time>2022-07-14T06:27:22Z</time>
      </trkpt>
      <trkpt lat="46.26593" lon="5.52044">
        <ele>311.4</ele>
        <time>2022-07-14T06:27:23Z</time>
      </trkpt>
      <trkpt lat="46.26594" lon="5.5206">
        <ele>310.2</ele>
        <time>2022-07-14T06:27:24Z</time>
      </trkpt>
      <trkpt lat="46.26597" lon="5.52093">
        <ele>309</ele>
        <time>2022-07-14T06:27:26Z</time>
      </trkpt>
      <trkpt lat="46.266" lon="5.52128">
        <ele>307.8</ele>
        <time>2022-07-14T06:27:28Z</time>
      </trkpt>
      <trkpt lat="46.26602" lon="5.52146">
        <ele>306.2</ele>
        <time>2022-07-14T06:27:29Z</time>
      </trkpt>
      <trkpt lat="46.26606" lon="5.52179">
        <ele>304.4</ele>
        <time>2022-07-14T06:27:31Z</time>
      </trkpt>
      <trkpt lat="46.26608" lon="5.52211">
        <ele>302.4</ele>
        <time>2022-07-14T06:27:33Z</time>
      </trkpt>
      <trkpt lat="46.26609" lon="5.52225">
        <ele>301.4</ele>
        <time>2022-07-14T06:27:34Z</time>
      </trkpt>
      <trkpt lat="46.26609" lon="5.52238">
        <ele>301</ele>
        <time>2022-07-14T06:27:35Z</time>
      </trkpt>
      <trkpt lat="46.26609" lon="5.52258">
        <ele>299.8</ele>
        <time>2022-07-14T06:27:37Z</time>
      </trkpt>
      <trkpt lat="46.26607" lon="5.52267">
        <ele>299</ele>
        <time>2022-07-14T06:27:38Z</time>
      </trkpt>
      <trkpt lat="46.26602" lon="5.5228">
        <ele>298.6</ele>
        <time>2022-07-14T06:27:40Z</time>
      </trkpt>
      <trkpt lat="46.26598" lon="5.5229">
        <ele>298.2</ele>
        <time>2022-07-14T06:27:42Z</time>
      </trkpt>
      <trkpt lat="46.26598" lon="5.52296">
        <ele>298</ele>
        <time>2022-07-14T06:27:43Z</time>
      </trkpt>
      <trkpt lat="46.266" lon="5.52303">
        <ele>298</ele>
        <time>2022-07-14T06:27:44Z</time>
      </trkpt>
      <trkpt lat="46.2661" lon="5.52315">
        <ele>297.6</ele>
        <time>2022-07-14T06:27:46Z</time>
      </trkpt>
      <trkpt lat="46.26616" lon="5.5232">
        <ele>297.2</ele>
        <time>2022-07-14T06:27:47Z</time>
      </trkpt>
      <trkpt lat="46.26622" lon="5.52325">
        <ele>296.8</ele>
        <time>2022-07-14T06:27:48Z</time>
      </trkpt>
      <trkpt lat="46.26636" lon="5.52337">
        <ele>296.6</ele>
        <time>2022-07-14T06:27:50Z</time>
      </trkpt>
      <trkpt lat="46.26643" lon="5.52344">
        <ele>296.2</ele>
        <time>2022-07-14T06:27:51Z</time>
      </trkpt>
      <trkpt lat="46.26676" lon="5.52381">
        <ele>295.2</ele>
        <time>2022-07-14T06:27:56Z</time>
      </trkpt>
      <trkpt lat="46.26695" lon="5.52403">
        <ele>294.2</ele>
        <time>2022-07-14T06:27:59Z</time>
      </trkpt>
      <trkpt lat="46.26736" lon="5.52446">
        <ele>293.4</ele>
        <time>2022-07-14T06:28:05Z</time>
      </trkpt>
      <trkpt lat="46.26742" lon="5.52453">
        <ele>293</ele>
        <time>2022-07-14T06:28:06Z</time>
      </trkpt>
      <trkpt lat="46.26775" lon="5.52487">
        <ele>291.8</ele>
        <time>2022-07-14T06:28:11Z</time>
      </trkpt>
      <trkpt lat="46.26787" lon="5.52502">
        <ele>291</ele>
        <time>2022-07-14T06:28:13Z</time>
      </trkpt>
      <trkpt lat="46.26806" lon="5.52522">
        <ele>290.6</ele>
        <time>2022-07-14T06:28:16Z</time>
      </trkpt>
      <trkpt lat="46.26832" lon="5.52547">
        <ele>289</ele>
        <time>2022-07-14T06:28:20Z</time>
      </trkpt>
      <trkpt lat="46.26838" lon="5.52554">
        <ele>289</ele>
        <time>2022-07-14T06:28:21Z</time>
      </trkpt>
      <trkpt lat="46.26888" lon="5.52606">
        <ele>288.4</ele>
        <time>2022-07-14T06:28:29Z</time>
      </trkpt>
      <trkpt lat="46.26893" lon="5.52612">
        <ele>288.2</ele>
        <time>2022-07-14T06:28:30Z</time>
      </trkpt>
      <trkpt lat="46.26929" lon="5.52649">
        <ele>288.4</ele>
        <time>2022-07-14T06:28:36Z</time>
      </trkpt>
      <trkpt lat="46.26945" lon="5.52669">
        <ele>288.8</ele>
        <time>2022-07-14T06:28:39Z</time>
      </trkpt>
      <trkpt lat="46.26967" lon="5.52696">
        <ele>289</ele>
        <time>2022-07-14T06:28:43Z</time>
      </trkpt>
      <trkpt lat="46.26975" lon="5.52713">
        <ele>289.2</ele>
        <time>2022-07-14T06:28:45Z</time>
      </trkpt>
      <trkpt lat="46.26979" lon="5.52733">
        <ele>289.4</ele>
        <time>2022-07-14T06:28:47Z</time>
      </trkpt>
      <trkpt lat="46.26979" lon="5.5278">
        <ele>289.6</ele>
        <time>2022-07-14T06:28:51Z</time>
      </trkpt>
      <trkpt lat="46.26979" lon="5.52859">
        <ele>289.4</ele>
        <time>2022-07-14T06:28:58Z</time>
      </trkpt>
      <trkpt lat="46.26978" lon="5.5287">
        <ele>289.2</ele>
        <time>2022-07-14T06:28:59Z</time>
      </trkpt>
      <trkpt lat="46.26975" lon="5.52945">
        <ele>289.2</ele>
        <time>2022-07-14T06:29:05Z</time>
      </trkpt>
      <trkpt lat="46.26975" lon="5.5303">
        <ele>290</ele>
        <time>2022-07-14T06:29:13Z</time>
      </trkpt>
      <trkpt lat="46.26975" lon="5.5304">
        <ele>290.2</ele>
        <time>2022-07-14T06:29:14Z</time>
      </trkpt>
      <trkpt lat="46.26974" lon="5.53103">
        <ele>290.8</ele>
        <time>2022-07-14T06:29:20Z</time>
      </trkpt>
      <trkpt lat="46.26969" lon="5.53167">
        <ele>290.6</ele>
        <time>2022-07-14T06:29:26Z</time>
      </trkpt>
      <trkpt lat="46.26968" lon="5.53178">
        <ele>290.6</ele>
        <time>2022-07-14T06:29:27Z</time>
      </trkpt>
      <trkpt lat="46.26959" lon="5.53221">
        <ele>290.2</ele>
        <time>2022-07-14T06:29:31Z</time>
      </trkpt>
      <trkpt lat="46.26946" lon="5.53302">
        <ele>289.8</ele>
        <time>2022-07-14T06:29:39Z</time>
      </trkpt>
      <trkpt lat="46.26932" lon="5.53378">
        <ele>289.8</ele>
        <time>2022-07-14T06:29:47Z</time>
      </trkpt>
      <trkpt lat="46.26919" lon="5.5346">
        <ele>290.6</ele>
        <time>2022-07-14T06:29:56Z</time>
      </trkpt>
      <trkpt lat="46.26909" lon="5.53525">
        <ele>291</ele>
        <time>2022-07-14T06:30:03Z</time>
      </trkpt>
      <trkpt lat="46.26905" lon="5.53544">
        <ele>291</ele>
        <time>2022-07-14T06:30:05Z</time>
      </trkpt>
      <trkpt lat="46.26903" lon="5.53553">
        <ele>291</ele>
        <time>2022-07-14T06:30:06Z</time>
      </trkpt>
      <trkpt lat="46.26897" lon="5.53571">
        <ele>291</ele>
        <time>2022-07-14T06:30:08Z</time>
      </trkpt>
      <trkpt lat="46.26893" lon="5.53579">
        <ele>290.8</ele>
        <time>2022-07-14T06:30:09Z</time>
      </trkpt>
      <trkpt lat="46.26887" lon="5.53585">
        <ele>290.8</ele>
        <time>2022-07-14T06:30:10Z</time>
      </trkpt>
      <trkpt lat="46.26876" lon="5.53592">
        <ele>290.6</ele>
        <time>2022-07-14T06:30:12Z</time>
      </trkpt>
      <trkpt lat="46.2687" lon="5.53595">
        <ele>290.6</ele>
        <time>2022-07-14T06:30:13Z</time>
      </trkpt>
      <trkpt lat="46.26846" lon="5.53601">
        <ele>290.6</ele>
        <time>2022-07-14T06:30:17Z</time>
      </trkpt>
      <trkpt lat="46.2682" lon="5.53606">
        <ele>291.4</ele>
        <time>2022-07-14T06:30:21Z</time>
      </trkpt>
      <trkpt lat="46.26786" lon="5.53613">
        <ele>291.8</ele>
        <time>2022-07-14T06:30:26Z</time>
      </trkpt>
      <trkpt lat="46.26782" lon="5.53612">
        <ele>291.8</ele>
        <time>2022-07-14T06:30:27Z</time>
      </trkpt>
      <trkpt lat="46.26776" lon="5.53608">
        <ele>291.8</ele>
        <time>2022-07-14T06:30:28Z</time>
      </trkpt>
      <trkpt lat="46.26761" lon="5.53593">
        <ele>291.6</ele>
        <time>2022-07-14T06:30:30Z</time>
      </trkpt>
      <trkpt lat="46.26734" lon="5.53553">
        <ele>290.8</ele>
        <time>2022-07-14T06:30:35Z</time>
      </trkpt>
      <trkpt lat="46.26711" lon="5.53508">
        <ele>290.8</ele>
        <time>2022-07-14T06:30:41Z</time>
      </trkpt>
      <trkpt lat="46.26697" lon="5.53466">
        <ele>292.4</ele>
        <time>2022-07-14T06:30:47Z</time>
      </trkpt>
      <trkpt lat="46.26695" lon="5.53458">
        <ele>292.6</ele>
        <time>2022-07-14T06:30:48Z</time>
      </trkpt>
      <trkpt lat="46.2669" lon="5.53438">
        <ele>293.8</ele>
        <time>2022-07-14T06:30:51Z</time>
      </trkpt>
      <trkpt lat="46.26687" lon="5.53425">
        <ele>294.4</ele>
        <time>2022-07-14T06:30:53Z</time>
      </trkpt>
      <trkpt lat="46.26682" lon="5.53404">
        <ele>295</ele>
        <time>2022-07-14T06:30:56Z</time>
      </trkpt>
      <trkpt lat="46.26673" lon="5.53368">
        <ele>296</ele>
        <time>2022-07-14T06:31:01Z</time>
      </trkpt>
      <trkpt lat="46.26672" lon="5.5336">
        <ele>296.2</ele>
        <time>2022-07-14T06:31:02Z</time>
      </trkpt>
      <trkpt lat="46.26666" lon="5.53324">
        <ele>297.2</ele>
        <time>2022-07-14T06:31:07Z</time>
      </trkpt>
      <trkpt lat="46.26664" lon="5.53302">
        <ele>297.6</ele>
        <time>2022-07-14T06:31:10Z</time>
      </trkpt>
      <trkpt lat="46.26661" lon="5.53273">
        <ele>298.2</ele>
        <time>2022-07-14T06:31:14Z</time>
      </trkpt>
      <trkpt lat="46.26655" lon="5.53244">
        <ele>299</ele>
        <time>2022-07-14T06:31:18Z</time>
      </trkpt>
      <trkpt lat="46.26651" lon="5.5323">
        <ele>299.2</ele>
        <time>2022-07-14T06:31:20Z</time>
      </trkpt>
      <trkpt lat="46.26634" lon="5.53194">
        <ele>300.4</ele>
        <time>2022-07-14T06:31:25Z</time>
      </trkpt>
      <trkpt lat="46.26632" lon="5.53187">
        <ele>300.4</ele>
        <time>2022-07-14T06:31:26Z</time>
      </trkpt>
      <trkpt lat="46.2661" lon="5.53139">
        <ele>301.4</ele>
        <time>2022-07-14T06:31:33Z</time>
      </trkpt>
      <trkpt lat="46.26607" lon="5.53133">
        <ele>301.4</ele>
        <time>2022-07-14T06:31:34Z</time>
      </trkpt>
      <trkpt lat="46.26588" lon="5.53088">
        <ele>302.6</ele>
        <time>2022-07-14T06:31:41Z</time>
      </trkpt>
      <trkpt lat="46.26582" lon="5.53076">
        <ele>303</ele>
        <time>2022-07-14T06:31:43Z</time>
      </trkpt>
      <trkpt lat="46.26574" lon="5.53056">
        <ele>303.8</ele>
        <time>2022-07-14T06:31:46Z</time>
      </trkpt>
      <trkpt lat="46.26572" lon="5.5305">
        <ele>303.8</ele>
        <time>2022-07-14T06:31:47Z</time>
      </trkpt>
      <trkpt lat="46.26561" lon="5.53026">
        <ele>304.8</ele>
        <time>2022-07-14T06:31:51Z</time>
      </trkpt>
      <trkpt lat="46.26551" lon="5.52999">
        <ele>306</ele>
        <time>2022-07-14T06:31:55Z</time>
      </trkpt>
      <trkpt lat="46.2653" lon="5.5295">
        <ele>307</ele>
        <time>2022-07-14T06:32:02Z</time>
      </trkpt>
      <trkpt lat="46.26506" lon="5.52893">
        <ele>307.2</ele>
        <time>2022-07-14T06:32:10Z</time>
      </trkpt>
      <trkpt lat="46.2649" lon="5.52841">
        <ele>307.6</ele>
        <time>2022-07-14T06:32:17Z</time>
      </trkpt>
      <trkpt lat="46.26478" lon="5.52781">
        <ele>308</ele>
        <time>2022-07-14T06:32:24Z</time>
      </trkpt>
      <trkpt lat="46.26463" lon="5.52712">
        <ele>307.4</ele>
        <time>2022-07-14T06:32:31Z</time>
      </trkpt>
      <trkpt lat="46.26449" lon="5.5263">
        <ele>306.4</ele>
        <time>2022-07-14T06:32:39Z</time>
      </trkpt>
      <trkpt lat="46.26448" lon="5.52619">
        <ele>306.4</ele>
        <time>2022-07-14T06:32:40Z</time>
      </trkpt>
      <trkpt lat="46.26449" lon="5.52607">
        <ele>306.4</ele>
        <time>2022-07-14T06:32:41Z</time>
      </trkpt>
      <trkpt lat="46.26457" lon="5.52574">
        <ele>305.8</ele>
        <time>2022-07-14T06:32:44Z</time>
      </trkpt>
      <trkpt lat="46.26477" lon="5.52497">
        <ele>304.8</ele>
        <time>2022-07-14T06:32:51Z</time>
      </trkpt>
      <trkpt lat="46.2648" lon="5.52485">
        <ele>304.6</ele>
        <time>2022-07-14T06:32:52Z</time>
      </trkpt>
      <trkpt lat="46.26482" lon="5.52473">
        <ele>304.2</ele>
        <time>2022-07-14T06:32:53Z</time>
      </trkpt>
      <trkpt lat="46.26482" lon="5.52449">
        <ele>303.8</ele>
        <time>2022-07-14T06:32:55Z</time>
      </trkpt>
      <trkpt lat="46.26478" lon="5.52425">
        <ele>303.2</ele>
        <time>2022-07-14T06:32:57Z</time>
      </trkpt>
      <trkpt lat="46.26474" lon="5.52413">
        <ele>303</ele>
        <time>2022-07-14T06:32:58Z</time>
      </trkpt>
      <trkpt lat="46.26465" lon="5.52391">
        <ele>302.6</ele>
        <time>2022-07-14T06:33:00Z</time>
      </trkpt>
      <trkpt lat="46.26454" lon="5.52371">
        <ele>302.4</ele>
        <time>2022-07-14T06:33:02Z</time>
      </trkpt>
      <trkpt lat="46.26424" lon="5.52321">
        <ele>301.4</ele>
        <time>2022-07-14T06:33:07Z</time>
      </trkpt>
      <trkpt lat="46.26405" lon="5.52292">
        <ele>300.6</ele>
        <time>2022-07-14T06:33:10Z</time>
      </trkpt>
      <trkpt lat="46.2639" lon="5.52259">
        <ele>300.4</ele>
        <time>2022-07-14T06:33:13Z</time>
      </trkpt>
      <trkpt lat="46.26386" lon="5.52248">
        <ele>300.2</ele>
        <time>2022-07-14T06:33:14Z</time>
      </trkpt>
      <trkpt lat="46.26372" lon="5.52177">
        <ele>300.2</ele>
        <time>2022-07-14T06:33:20Z</time>
      </trkpt>
      <trkpt lat="46.26366" lon="5.52134">
        <ele>300.4</ele>
        <time>2022-07-14T06:33:24Z</time>
      </trkpt>
      <trkpt lat="46.26363" lon="5.52067">
        <ele>301.2</ele>
        <time>2022-07-14T06:33:30Z</time>
      </trkpt>
      <trkpt lat="46.26362" lon="5.52045">
        <ele>301.2</ele>
        <time>2022-07-14T06:33:32Z</time>
      </trkpt>
      <trkpt lat="46.26361" lon="5.52012">
        <ele>301.4</ele>
        <time>2022-07-14T06:33:35Z</time>
      </trkpt>
      <trkpt lat="46.26363" lon="5.51924">
        <ele>302</ele>
        <time>2022-07-14T06:33:43Z</time>
      </trkpt>
      <trkpt lat="46.26364" lon="5.51914">
        <ele>302.2</ele>
        <time>2022-07-14T06:33:44Z</time>
      </trkpt>
      <trkpt lat="46.26364" lon="5.51893">
        <ele>302.4</ele>
        <time>2022-07-14T06:33:46Z</time>
      </trkpt>
      <trkpt lat="46.26364" lon="5.51874">
        <ele>302.4</ele>
        <time>2022-07-14T06:33:48Z</time>
      </trkpt>
      <trkpt lat="46.26363" lon="5.51865">
        <ele>302.4</ele>
        <time>2022-07-14T06:33:49Z</time>
      </trkpt>
      <trkpt lat="46.26361" lon="5.51845">
        <ele>302.6</ele>
        <time>2022-07-14T06:33:51Z</time>
      </trkpt>
      <trkpt lat="46.26359" lon="5.51816">
        <ele>303</ele>
        <time>2022-07-14T06:33:54Z</time>
      </trkpt>
      <trkpt lat="46.26355" lon="5.5178">
        <ele>303.6</ele>
        <time>2022-07-14T06:33:58Z</time>
      </trkpt>
      <trkpt lat="46.26353" lon="5.51754">
        <ele>304.2</ele>
        <time>2022-07-14T06:34:01Z</time>
      </trkpt>
      <trkpt lat="46.26353" lon="5.51745">
        <ele>304.6</ele>
        <time>2022-07-14T06:34:02Z</time>
      </trkpt>
      <trkpt lat="46.26349" lon="5.5173">
        <ele>305.4</ele>
        <time>2022-07-14T06:34:04Z</time>
      </trkpt>
      <trkpt lat="46.26347" lon="5.51722">
        <ele>305.8</ele>
        <time>2022-07-14T06:34:05Z</time>
      </trkpt>
      <trkpt lat="46.26344" lon="5.51714">
        <ele>306</ele>
        <time>2022-07-14T06:34:06Z</time>
      </trkpt>
      <trkpt lat="46.2634" lon="5.51706">
        <ele>306.2</ele>
        <time>2022-07-14T06:34:07Z</time>
      </trkpt>
      <trkpt lat="46.26336" lon="5.51692">
        <ele>306.8</ele>
        <time>2022-07-14T06:34:09Z</time>
      </trkpt>
      <trkpt lat="46.26334" lon="5.51685">
        <ele>307</ele>
        <time>2022-07-14T06:34:10Z</time>
      </trkpt>
      <trkpt lat="46.26314" lon="5.51638">
        <ele>308.2</ele>
        <time>2022-07-14T06:34:17Z</time>
      </trkpt>
      <trkpt lat="46.26302" lon="5.51622">
        <ele>308.6</ele>
        <time>2022-07-14T06:34:20Z</time>
      </trkpt>
      <trkpt lat="46.26294" lon="5.51613">
        <ele>309.2</ele>
        <time>2022-07-14T06:34:22Z</time>
      </trkpt>
      <trkpt lat="46.26289" lon="5.51609">
        <ele>309.6</ele>
        <time>2022-07-14T06:34:23Z</time>
      </trkpt>
      <trkpt lat="46.26265" lon="5.51586">
        <ele>310.6</ele>
        <time>2022-07-14T06:34:28Z</time>
      </trkpt>
      <trkpt lat="46.26251" lon="5.51572">
        <ele>311</ele>
        <time>2022-07-14T06:34:31Z</time>
      </trkpt>
      <trkpt lat="46.26237" lon="5.51558">
        <ele>311.6</ele>
        <time>2022-07-14T06:34:35Z</time>
      </trkpt>
      <trkpt lat="46.26215" lon="5.51538">
        <ele>312</ele>
        <time>2022-07-14T06:34:39Z</time>
      </trkpt>
      <trkpt lat="46.2621" lon="5.51535">
        <ele>312</ele>
        <time>2022-07-14T06:34:40Z</time>
      </trkpt>
      <trkpt lat="46.26178" lon="5.5152">
        <ele>312.8</ele>
        <time>2022-07-14T06:34:46Z</time>
      </trkpt>
      <trkpt lat="46.26167" lon="5.51516">
        <ele>313</ele>
        <time>2022-07-14T06:34:48Z</time>
      </trkpt>
      <trkpt lat="46.26134" lon="5.51504">
        <ele>313.8</ele>
        <time>2022-07-14T06:34:54Z</time>
      </trkpt>
      <trkpt lat="46.26129" lon="5.51502">
        <ele>314</ele>
        <time>2022-07-14T06:34:55Z</time>
      </trkpt>
      <trkpt lat="46.26112" lon="5.51497">
        <ele>315</ele>
        <time>2022-07-14T06:34:58Z</time>
      </trkpt>
      <trkpt lat="46.26075" lon="5.51485">
        <ele>315.6</ele>
        <time>2022-07-14T06:35:05Z</time>
      </trkpt>
      <trkpt lat="46.26059" lon="5.51481">
        <ele>316.2</ele>
        <time>2022-07-14T06:35:08Z</time>
      </trkpt>
      <trkpt lat="46.26031" lon="5.51473">
        <ele>317</ele>
        <time>2022-07-14T06:35:13Z</time>
      </trkpt>
      <trkpt lat="46.2602" lon="5.5147">
        <ele>317.4</ele>
        <time>2022-07-14T06:35:15Z</time>
      </trkpt>
      <trkpt lat="46.25987" lon="5.5146">
        <ele>318.6</ele>
        <time>2022-07-14T06:35:21Z</time>
      </trkpt>
      <trkpt lat="46.25977" lon="5.51456">
        <ele>318.6</ele>
        <time>2022-07-14T06:35:23Z</time>
      </trkpt>
      <trkpt lat="46.25939" lon="5.51446">
        <ele>319.4</ele>
        <time>2022-07-14T06:35:30Z</time>
      </trkpt>
      <trkpt lat="46.25934" lon="5.51444">
        <ele>319.8</ele>
        <time>2022-07-14T06:35:31Z</time>
      </trkpt>
      <trkpt lat="46.25929" lon="5.51443">
        <ele>319.8</ele>
        <time>2022-07-14T06:35:32Z</time>
      </trkpt>
      <trkpt lat="46.25906" lon="5.51442">
        <ele>320.8</ele>
        <time>2022-07-14T06:35:36Z</time>
      </trkpt>
      <trkpt lat="46.25882" lon="5.51441">
        <ele>321</ele>
        <time>2022-07-14T06:35:40Z</time>
      </trkpt>
      <trkpt lat="46.25837" lon="5.51443">
        <ele>321.2</ele>
        <time>2022-07-14T06:35:48Z</time>
      </trkpt>
      <trkpt lat="46.25807" lon="5.51443">
        <ele>321.8</ele>
        <time>2022-07-14T06:35:53Z</time>
      </trkpt>
      <trkpt lat="46.25787" lon="5.51444">
        <ele>322</ele>
        <time>2022-07-14T06:35:57Z</time>
      </trkpt>
      <trkpt lat="46.25728" lon="5.51445">
        <ele>322</ele>
        <time>2022-07-14T06:36:06Z</time>
      </trkpt>
      <trkpt lat="46.25722" lon="5.51444">
        <ele>322</ele>
        <time>2022-07-14T06:36:07Z</time>
      </trkpt>
      <trkpt lat="46.25697" lon="5.51433">
        <ele>321.8</ele>
        <time>2022-07-14T06:36:11Z</time>
      </trkpt>
      <trkpt lat="46.25679" lon="5.51424">
        <ele>321.8</ele>
        <time>2022-07-14T06:36:14Z</time>
      </trkpt>
      <trkpt lat="46.2566" lon="5.51417">
        <ele>322</ele>
        <time>2022-07-14T06:36:17Z</time>
      </trkpt>
      <trkpt lat="46.25654" lon="5.51415">
        <ele>322.2</ele>
        <time>2022-07-14T06:36:18Z</time>
      </trkpt>
      <trkpt lat="46.25635" lon="5.5141">
        <ele>322.6</ele>
        <time>2022-07-14T06:36:21Z</time>
      </trkpt>
      <trkpt lat="46.25615" lon="5.514">
        <ele>322.8</ele>
        <time>2022-07-14T06:36:24Z</time>
      </trkpt>
      <trkpt lat="46.25609" lon="5.51396">
        <ele>323</ele>
        <time>2022-07-14T06:36:25Z</time>
      </trkpt>
      <trkpt lat="46.25567" lon="5.51368">
        <ele>323.6</ele>
        <time>2022-07-14T06:36:32Z</time>
      </trkpt>
      <trkpt lat="46.25513" lon="5.51333">
        <ele>323.8</ele>
        <time>2022-07-14T06:36:41Z</time>
      </trkpt>
      <trkpt lat="46.25507" lon="5.51331">
        <ele>323.8</ele>
        <time>2022-07-14T06:36:42Z</time>
      </trkpt>
      <trkpt lat="46.25494" lon="5.51328">
        <ele>324</ele>
        <time>2022-07-14T06:36:44Z</time>
      </trkpt>
      <trkpt lat="46.25468" lon="5.51326">
        <ele>324.2</ele>
        <time>2022-07-14T06:36:48Z</time>
      </trkpt>
      <trkpt lat="46.25443" lon="5.51317">
        <ele>324.6</ele>
        <time>2022-07-14T06:36:52Z</time>
      </trkpt>
      <trkpt lat="46.25438" lon="5.51313">
        <ele>324.6</ele>
        <time>2022-07-14T06:36:53Z</time>
      </trkpt>
      <trkpt lat="46.25427" lon="5.51305">
        <ele>324.8</ele>
        <time>2022-07-14T06:36:55Z</time>
      </trkpt>
      <trkpt lat="46.25422" lon="5.513">
        <ele>325</ele>
        <time>2022-07-14T06:36:56Z</time>
      </trkpt>
      <trkpt lat="46.25412" lon="5.51289">
        <ele>325.4</ele>
        <time>2022-07-14T06:36:58Z</time>
      </trkpt>
      <trkpt lat="46.25397" lon="5.51272">
        <ele>326</ele>
        <time>2022-07-14T06:37:01Z</time>
      </trkpt>
      <trkpt lat="46.25361" lon="5.51233">
        <ele>326.4</ele>
        <time>2022-07-14T06:37:08Z</time>
      </trkpt>
      <trkpt lat="46.25322" lon="5.51198">
        <ele>327</ele>
        <time>2022-07-14T06:37:15Z</time>
      </trkpt>
      <trkpt lat="46.25269" lon="5.5116">
        <ele>327.4</ele>
        <time>2022-07-14T06:37:24Z</time>
      </trkpt>
      <trkpt lat="46.25227" lon="5.51128">
        <ele>327.2</ele>
        <time>2022-07-14T06:37:31Z</time>
      </trkpt>
      <trkpt lat="46.25192" lon="5.51096">
        <ele>328</ele>
        <time>2022-07-14T06:37:37Z</time>
      </trkpt>
      <trkpt lat="46.25186" lon="5.51091">
        <ele>328</ele>
        <time>2022-07-14T06:37:38Z</time>
      </trkpt>
      <trkpt lat="46.2518" lon="5.51085">
        <ele>328</ele>
        <time>2022-07-14T06:37:39Z</time>
      </trkpt>
      <trkpt lat="46.25162" lon="5.51068">
        <ele>328</ele>
        <time>2022-07-14T06:37:42Z</time>
      </trkpt>
      <trkpt lat="46.25145" lon="5.51049">
        <ele>328</ele>
        <time>2022-07-14T06:37:45Z</time>
      </trkpt>
      <trkpt lat="46.2511" lon="5.50999">
        <ele>328.8</ele>
        <time>2022-07-14T06:37:53Z</time>
      </trkpt>
      <trkpt lat="46.25097" lon="5.50986">
        <ele>329</ele>
        <time>2022-07-14T06:37:55Z</time>
      </trkpt>
      <trkpt lat="46.25067" lon="5.5096">
        <ele>329.8</ele>
        <time>2022-07-14T06:38:00Z</time>
      </trkpt>
      <trkpt lat="46.25061" lon="5.50956">
        <ele>330.2</ele>
        <time>2022-07-14T06:38:01Z</time>
      </trkpt>
      <trkpt lat="46.25022" lon="5.50924">
        <ele>331</ele>
        <time>2022-07-14T06:38:08Z</time>
      </trkpt>
      <trkpt lat="46.24989" lon="5.50901">
        <ele>331</ele>
        <time>2022-07-14T06:38:14Z</time>
      </trkpt>
      <trkpt lat="46.24983" lon="5.50896">
        <ele>331.2</ele>
        <time>2022-07-14T06:38:15Z</time>
      </trkpt>
      <trkpt lat="46.24973" lon="5.50886">
        <ele>331.2</ele>
        <time>2022-07-14T06:38:17Z</time>
      </trkpt>
      <trkpt lat="46.2496" lon="5.50866">
        <ele>331.4</ele>
        <time>2022-07-14T06:38:20Z</time>
      </trkpt>
      <trkpt lat="46.24931" lon="5.50831">
        <ele>331.4</ele>
        <time>2022-07-14T06:38:26Z</time>
      </trkpt>
      <trkpt lat="46.24904" lon="5.50806">
        <ele>332.2</ele>
        <time>2022-07-14T06:38:31Z</time>
      </trkpt>
      <trkpt lat="46.24893" lon="5.50794">
        <ele>332.4</ele>
        <time>2022-07-14T06:38:33Z</time>
      </trkpt>
      <trkpt lat="46.24858" lon="5.50771">
        <ele>333</ele>
        <time>2022-07-14T06:38:39Z</time>
      </trkpt>
      <trkpt lat="46.24823" lon="5.50752">
        <ele>333.2</ele>
        <time>2022-07-14T06:38:45Z</time>
      </trkpt>
      <trkpt lat="46.24811" lon="5.50745">
        <ele>333.4</ele>
        <time>2022-07-14T06:38:47Z</time>
      </trkpt>
      <trkpt lat="46.24783" lon="5.50722">
        <ele>334.6</ele>
        <time>2022-07-14T06:38:52Z</time>
      </trkpt>
      <trkpt lat="46.24771" lon="5.50713">
        <ele>334.6</ele>
        <time>2022-07-14T06:38:54Z</time>
      </trkpt>
      <trkpt lat="46.24754" lon="5.50699">
        <ele>334.8</ele>
        <time>2022-07-14T06:38:57Z</time>
      </trkpt>
      <trkpt lat="46.24735" lon="5.50685">
        <ele>334.8</ele>
        <time>2022-07-14T06:39:00Z</time>
      </trkpt>
      <trkpt lat="46.2471" lon="5.50668">
        <ele>334.6</ele>
        <time>2022-07-14T06:39:04Z</time>
      </trkpt>
      <trkpt lat="46.24692" lon="5.50654">
        <ele>334.4</ele>
        <time>2022-07-14T06:39:07Z</time>
      </trkpt>
      <trkpt lat="46.24643" lon="5.50619">
        <ele>334.4</ele>
        <time>2022-07-14T06:39:15Z</time>
      </trkpt>
      <trkpt lat="46.24595" lon="5.50582">
        <ele>334.4</ele>
        <time>2022-07-14T06:39:23Z</time>
      </trkpt>
      <trkpt lat="46.24574" lon="5.50566">
        <ele>334.2</ele>
        <time>2022-07-14T06:39:26Z</time>
      </trkpt>
      <trkpt lat="46.24535" lon="5.5054">
        <ele>334.2</ele>
        <time>2022-07-14T06:39:32Z</time>
      </trkpt>
      <trkpt lat="46.24479" lon="5.50511">
        <ele>333.8</ele>
        <time>2022-07-14T06:39:40Z</time>
      </trkpt>
      <trkpt lat="46.24448" lon="5.50476">
        <ele>333.8</ele>
        <time>2022-07-14T06:39:45Z</time>
      </trkpt>
      <trkpt lat="46.24428" lon="5.50457">
        <ele>333.6</ele>
        <time>2022-07-14T06:39:48Z</time>
      </trkpt>
      <trkpt lat="46.2442" lon="5.50452">
        <ele>333.6</ele>
        <time>2022-07-14T06:39:49Z</time>
      </trkpt>
      <trkpt lat="46.24375" lon="5.50432">
        <ele>333</ele>
        <time>2022-07-14T06:39:55Z</time>
      </trkpt>
      <trkpt lat="46.24324" lon="5.50413">
        <ele>332.8</ele>
        <time>2022-07-14T06:40:02Z</time>
      </trkpt>
      <trkpt lat="46.2431" lon="5.50409">
        <ele>332.8</ele>
        <time>2022-07-14T06:40:04Z</time>
      </trkpt>
      <trkpt lat="46.24296" lon="5.5041">
        <ele>333</ele>
        <time>2022-07-14T06:40:06Z</time>
      </trkpt>
      <trkpt lat="46.24289" lon="5.50411">
        <ele>333.2</ele>
        <time>2022-07-14T06:40:07Z</time>
      </trkpt>
      <trkpt lat="46.24267" lon="5.50418">
        <ele>333.6</ele>
        <time>2022-07-14T06:40:10Z</time>
      </trkpt>
      <trkpt lat="46.2426" lon="5.50421">
        <ele>333.6</ele>
        <time>2022-07-14T06:40:11Z</time>
      </trkpt>
      <trkpt lat="46.24226" lon="5.50449">
        <ele>333.4</ele>
        <time>2022-07-14T06:40:16Z</time>
      </trkpt>
      <trkpt lat="46.24198" lon="5.50488">
        <ele>333.2</ele>
        <time>2022-07-14T06:40:21Z</time>
      </trkpt>
      <trkpt lat="46.24194" lon="5.50497">
        <ele>333.2</ele>
        <time>2022-07-14T06:40:22Z</time>
      </trkpt>
      <trkpt lat="46.24177" lon="5.50533">
        <ele>333</ele>
        <time>2022-07-14T06:40:26Z</time>
      </trkpt>
      <trkpt lat="46.24165" lon="5.50547">
        <ele>332.8</ele>
        <time>2022-07-14T06:40:28Z</time>
      </trkpt>
      <trkpt lat="46.24158" lon="5.5055">
        <ele>332.8</ele>
        <time>2022-07-14T06:40:29Z</time>
      </trkpt>
      <trkpt lat="46.2415" lon="5.50551">
        <ele>332.8</ele>
        <time>2022-07-14T06:40:30Z</time>
      </trkpt>
      <trkpt lat="46.24135" lon="5.50548">
        <ele>332.6</ele>
        <time>2022-07-14T06:40:32Z</time>
      </trkpt>
      <trkpt lat="46.2412" lon="5.50545">
        <ele>332.4</ele>
        <time>2022-07-14T06:40:34Z</time>
      </trkpt>
      <trkpt lat="46.24105" lon="5.50549">
        <ele>332.4</ele>
        <time>2022-07-14T06:40:36Z</time>
      </trkpt>
      <trkpt lat="46.24092" lon="5.50558">
        <ele>332.4</ele>
        <time>2022-07-14T06:40:38Z</time>
      </trkpt>
      <trkpt lat="46.24087" lon="5.50565">
        <ele>332.2</ele>
        <time>2022-07-14T06:40:39Z</time>
      </trkpt>
      <trkpt lat="46.24059" lon="5.50614">
        <ele>332</ele>
        <time>2022-07-14T06:40:45Z</time>
      </trkpt>
      <trkpt lat="46.24055" lon="5.50622">
        <ele>332</ele>
        <time>2022-07-14T06:40:46Z</time>
      </trkpt>
      <trkpt lat="46.24044" lon="5.50632">
        <ele>332</ele>
        <time>2022-07-14T06:40:48Z</time>
      </trkpt>
      <trkpt lat="46.24033" lon="5.5063">
        <ele>332</ele>
        <time>2022-07-14T06:40:50Z</time>
      </trkpt>
      <trkpt lat="46.24027" lon="5.50619">
        <ele>332</ele>
        <time>2022-07-14T06:40:52Z</time>
      </trkpt>
      <trkpt lat="46.24021" lon="5.50602">
        <ele>332.2</ele>
        <time>2022-07-14T06:40:54Z</time>
      </trkpt>
      <trkpt lat="46.2402" lon="5.50593">
        <ele>332.2</ele>
        <time>2022-07-14T06:40:55Z</time>
      </trkpt>
      <trkpt lat="46.24019" lon="5.50558">
        <ele>332.2</ele>
        <time>2022-07-14T06:40:58Z</time>
      </trkpt>
      <trkpt lat="46.24013" lon="5.50476">
        <ele>332.2</ele>
        <time>2022-07-14T06:41:05Z</time>
      </trkpt>
      <trkpt lat="46.24007" lon="5.50392">
        <ele>332.2</ele>
        <time>2022-07-14T06:41:12Z</time>
      </trkpt>
      <trkpt lat="46.24006" lon="5.50379">
        <ele>332</ele>
        <time>2022-07-14T06:41:13Z</time>
      </trkpt>
      <trkpt lat="46.24001" lon="5.50311">
        <ele>331.6</ele>
        <time>2022-07-14T06:41:19Z</time>
      </trkpt>
      <trkpt lat="46.23997" lon="5.50275">
        <ele>331.6</ele>
        <time>2022-07-14T06:41:22Z</time>
      </trkpt>
      <trkpt lat="46.2399" lon="5.50189">
        <ele>331.8</ele>
        <time>2022-07-14T06:41:30Z</time>
      </trkpt>
      <trkpt lat="46.23987" lon="5.50156">
        <ele>331.4</ele>
        <time>2022-07-14T06:41:33Z</time>
      </trkpt>
      <trkpt lat="46.23986" lon="5.50132">
        <ele>331.2</ele>
        <time>2022-07-14T06:41:35Z</time>
      </trkpt>
      <trkpt lat="46.23979" lon="5.50047">
        <ele>331</ele>
        <time>2022-07-14T06:41:43Z</time>
      </trkpt>
      <trkpt lat="46.23975" lon="5.50012">
        <ele>330.8</ele>
        <time>2022-07-14T06:41:46Z</time>
      </trkpt>
      <trkpt lat="46.23969" lon="5.49993">
        <ele>330.8</ele>
        <time>2022-07-14T06:41:48Z</time>
      </trkpt>
      <trkpt lat="46.23966" lon="5.49983">
        <ele>330.8</ele>
        <time>2022-07-14T06:41:49Z</time>
      </trkpt>
      <trkpt lat="46.23953" lon="5.49957">
        <ele>330.4</ele>
        <time>2022-07-14T06:41:52Z</time>
      </trkpt>
      <trkpt lat="46.23923" lon="5.49904">
        <ele>330.6</ele>
        <time>2022-07-14T06:41:59Z</time>
      </trkpt>
      <trkpt lat="46.23911" lon="5.49885">
        <ele>331.6</ele>
        <time>2022-07-14T06:42:02Z</time>
      </trkpt>
      <trkpt lat="46.23906" lon="5.49873">
        <ele>332.6</ele>
        <time>2022-07-14T06:42:04Z</time>
      </trkpt>
      <trkpt lat="46.23903" lon="5.49866">
        <ele>333</ele>
        <time>2022-07-14T06:42:05Z</time>
      </trkpt>
      <trkpt lat="46.23898" lon="5.49854">
        <ele>333.8</ele>
        <time>2022-07-14T06:42:07Z</time>
      </trkpt>
      <trkpt lat="46.2389" lon="5.49832">
        <ele>334.8</ele>
        <time>2022-07-14T06:42:10Z</time>
      </trkpt>
      <trkpt lat="46.23886" lon="5.49825">
        <ele>335</ele>
        <time>2022-07-14T06:42:11Z</time>
      </trkpt>
      <trkpt lat="46.23859" lon="5.49776">
        <ele>334.8</ele>
        <time>2022-07-14T06:42:17Z</time>
      </trkpt>
      <trkpt lat="46.23833" lon="5.49728">
        <ele>334.6</ele>
        <time>2022-07-14T06:42:23Z</time>
      </trkpt>
      <trkpt lat="46.23798" lon="5.4966">
        <ele>335.2</ele>
        <time>2022-07-14T06:42:32Z</time>
      </trkpt>
      <trkpt lat="46.23764" lon="5.49596">
        <ele>335.6</ele>
        <time>2022-07-14T06:42:40Z</time>
      </trkpt>
      <trkpt lat="46.23727" lon="5.49528">
        <ele>335.6</ele>
        <time>2022-07-14T06:42:48Z</time>
      </trkpt>
      <trkpt lat="46.23716" lon="5.49511">
        <ele>335.6</ele>
        <time>2022-07-14T06:42:50Z</time>
      </trkpt>
      <trkpt lat="46.23676" lon="5.49453">
        <ele>335</ele>
        <time>2022-07-14T06:42:57Z</time>
      </trkpt>
      <trkpt lat="46.23663" lon="5.49433">
        <ele>334.6</ele>
        <time>2022-07-14T06:42:59Z</time>
      </trkpt>
      <trkpt lat="46.23636" lon="5.49389">
        <ele>333.6</ele>
        <time>2022-07-14T06:43:04Z</time>
      </trkpt>
      <trkpt lat="46.23599" lon="5.49326">
        <ele>333</ele>
        <time>2022-07-14T06:43:11Z</time>
      </trkpt>
      <trkpt lat="46.23583" lon="5.493">
        <ele>332.6</ele>
        <time>2022-07-14T06:43:14Z</time>
      </trkpt>
      <trkpt lat="46.23571" lon="5.49288">
        <ele>332.4</ele>
        <time>2022-07-14T06:43:16Z</time>
      </trkpt>
      <trkpt lat="46.23524" lon="5.49247">
        <ele>331.6</ele>
        <time>2022-07-14T06:43:22Z</time>
      </trkpt>
      <trkpt lat="46.23516" lon="5.4924">
        <ele>331.6</ele>
        <time>2022-07-14T06:43:23Z</time>
      </trkpt>
      <trkpt lat="46.23483" lon="5.49211">
        <ele>330.6</ele>
        <time>2022-07-14T06:43:27Z</time>
      </trkpt>
      <trkpt lat="46.23466" lon="5.49199">
        <ele>330</ele>
        <time>2022-07-14T06:43:29Z</time>
      </trkpt>
      <trkpt lat="46.23422" lon="5.49167">
        <ele>329.4</ele>
        <time>2022-07-14T06:43:34Z</time>
      </trkpt>
      <trkpt lat="46.23405" lon="5.49152">
        <ele>329.2</ele>
        <time>2022-07-14T06:43:36Z</time>
      </trkpt>
      <trkpt lat="46.23356" lon="5.49105">
        <ele>328.6</ele>
        <time>2022-07-14T06:43:42Z</time>
      </trkpt>
      <trkpt lat="46.2334" lon="5.49088">
        <ele>328.6</ele>
        <time>2022-07-14T06:43:44Z</time>
      </trkpt>
      <trkpt lat="46.23332" lon="5.4908">
        <ele>328</ele>
        <time>2022-07-14T06:43:45Z</time>
      </trkpt>
      <trkpt lat="46.23298" lon="5.49054">
        <ele>327</ele>
        <time>2022-07-14T06:43:49Z</time>
      </trkpt>
      <trkpt lat="46.23249" lon="5.49024">
        <ele>325.6</ele>
        <time>2022-07-14T06:43:55Z</time>
      </trkpt>
      <trkpt lat="46.23241" lon="5.49017">
        <ele>325.4</ele>
        <time>2022-07-14T06:43:56Z</time>
      </trkpt>
      <trkpt lat="46.23209" lon="5.48978">
        <ele>325</ele>
        <time>2022-07-14T06:44:00Z</time>
      </trkpt>
      <trkpt lat="46.23181" lon="5.48944">
        <ele>324.6</ele>
        <time>2022-07-14T06:44:04Z</time>
      </trkpt>
      <trkpt lat="46.23159" lon="5.48919">
        <ele>324.2</ele>
        <time>2022-07-14T06:44:07Z</time>
      </trkpt>
      <trkpt lat="46.23116" lon="5.48874">
        <ele>323.4</ele>
        <time>2022-07-14T06:44:13Z</time>
      </trkpt>
      <trkpt lat="46.2307" lon="5.48832">
        <ele>322.6</ele>
        <time>2022-07-14T06:44:19Z</time>
      </trkpt>
      <trkpt lat="46.23062" lon="5.48826">
        <ele>322.2</ele>
        <time>2022-07-14T06:44:20Z</time>
      </trkpt>
      <trkpt lat="46.23016" lon="5.48783">
        <ele>321.8</ele>
        <time>2022-07-14T06:44:26Z</time>
      </trkpt>
      <trkpt lat="46.23008" lon="5.48776">
        <ele>321.8</ele>
        <time>2022-07-14T06:44:27Z</time>
      </trkpt>
      <trkpt lat="46.22963" lon="5.48732">
        <ele>321.2</ele>
        <time>2022-07-14T06:44:33Z</time>
      </trkpt>
      <trkpt lat="46.22934" lon="5.48702">
        <ele>321</ele>
        <time>2022-07-14T06:44:37Z</time>
      </trkpt>
      <trkpt lat="46.2288" lon="5.48658">
        <ele>320.2</ele>
        <time>2022-07-14T06:44:44Z</time>
      </trkpt>
      <trkpt lat="46.22872" lon="5.48652">
        <ele>320.2</ele>
        <time>2022-07-14T06:44:45Z</time>
      </trkpt>
      <trkpt lat="46.22823" lon="5.48623">
        <ele>319.2</ele>
        <time>2022-07-14T06:44:51Z</time>
      </trkpt>
      <trkpt lat="46.22815" lon="5.48618">
        <ele>319</ele>
        <time>2022-07-14T06:44:52Z</time>
      </trkpt>
      <trkpt lat="46.22773" lon="5.48592">
        <ele>317.6</ele>
        <time>2022-07-14T06:44:57Z</time>
      </trkpt>
      <trkpt lat="46.22729" lon="5.48573">
        <ele>316.6</ele>
        <time>2022-07-14T06:45:02Z</time>
      </trkpt>
      <trkpt lat="46.2272" lon="5.48571">
        <ele>316.6</ele>
        <time>2022-07-14T06:45:03Z</time>
      </trkpt>
      <trkpt lat="46.22676" lon="5.48561">
        <ele>315.6</ele>
        <time>2022-07-14T06:45:08Z</time>
      </trkpt>
      <trkpt lat="46.22632" lon="5.4855">
        <ele>315</ele>
        <time>2022-07-14T06:45:13Z</time>
      </trkpt>
      <trkpt lat="46.22591" lon="5.48531">
        <ele>314.6</ele>
        <time>2022-07-14T06:45:18Z</time>
      </trkpt>
      <trkpt lat="46.22582" lon="5.48527">
        <ele>314.4</ele>
        <time>2022-07-14T06:45:19Z</time>
      </trkpt>
      <trkpt lat="46.22526" lon="5.48502">
        <ele>313.8</ele>
        <time>2022-07-14T06:45:26Z</time>
      </trkpt>
      <trkpt lat="46.22517" lon="5.48499">
        <ele>313.6</ele>
        <time>2022-07-14T06:45:27Z</time>
      </trkpt>
      <trkpt lat="46.22506" lon="5.48494">
        <ele>313.4</ele>
        <time>2022-07-14T06:45:28Z</time>
      </trkpt>
      <trkpt lat="46.22463" lon="5.48472">
        <ele>312.4</ele>
        <time>2022-07-14T06:45:33Z</time>
      </trkpt>
      <trkpt lat="46.22455" lon="5.48466">
        <ele>312.4</ele>
        <time>2022-07-14T06:45:34Z</time>
      </trkpt>
      <trkpt lat="46.22446" lon="5.48459">
        <ele>312.2</ele>
        <time>2022-07-14T06:45:35Z</time>
      </trkpt>
      <trkpt lat="46.22397" lon="5.48423">
        <ele>311.2</ele>
        <time>2022-07-14T06:45:41Z</time>
      </trkpt>
      <trkpt lat="46.2238" lon="5.48412">
        <ele>311.2</ele>
        <time>2022-07-14T06:45:43Z</time>
      </trkpt>
      <trkpt lat="46.22339" lon="5.48387">
        <ele>310.4</ele>
        <time>2022-07-14T06:45:48Z</time>
      </trkpt>
      <trkpt lat="46.22323" lon="5.48376">
        <ele>310.2</ele>
        <time>2022-07-14T06:45:50Z</time>
      </trkpt>
      <trkpt lat="46.22284" lon="5.48346">
        <ele>309.4</ele>
        <time>2022-07-14T06:45:55Z</time>
      </trkpt>
      <trkpt lat="46.22247" lon="5.48314">
        <ele>309.2</ele>
        <time>2022-07-14T06:46:00Z</time>
      </trkpt>
      <trkpt lat="46.22232" lon="5.48299">
        <ele>308.8</ele>
        <time>2022-07-14T06:46:02Z</time>
      </trkpt>
      <trkpt lat="46.22191" lon="5.48251">
        <ele>308</ele>
        <time>2022-07-14T06:46:08Z</time>
      </trkpt>
      <trkpt lat="46.22171" lon="5.48226">
        <ele>307.6</ele>
        <time>2022-07-14T06:46:11Z</time>
      </trkpt>
      <trkpt lat="46.22136" lon="5.48171">
        <ele>307</ele>
        <time>2022-07-14T06:46:17Z</time>
      </trkpt>
      <trkpt lat="46.22131" lon="5.48162">
        <ele>307</ele>
        <time>2022-07-14T06:46:18Z</time>
      </trkpt>
      <trkpt lat="46.2209" lon="5.48099">
        <ele>307</ele>
        <time>2022-07-14T06:46:26Z</time>
      </trkpt>
      <trkpt lat="46.2205" lon="5.48035">
        <ele>307.4</ele>
        <time>2022-07-14T06:46:33Z</time>
      </trkpt>
      <trkpt lat="46.2204" lon="5.48019">
        <ele>307.6</ele>
        <time>2022-07-14T06:46:35Z</time>
      </trkpt>
      <trkpt lat="46.22005" lon="5.47975">
        <ele>307.4</ele>
        <time>2022-07-14T06:46:41Z</time>
      </trkpt>
      <trkpt lat="46.21963" lon="5.47926">
        <ele>307.2</ele>
        <time>2022-07-14T06:46:48Z</time>
      </trkpt>
      <trkpt lat="46.21951" lon="5.47912">
        <ele>307.2</ele>
        <time>2022-07-14T06:46:50Z</time>
      </trkpt>
      <trkpt lat="46.21916" lon="5.47873">
        <ele>307.6</ele>
        <time>2022-07-14T06:46:56Z</time>
      </trkpt>
      <trkpt lat="46.21872" lon="5.47831">
        <ele>307.4</ele>
        <time>2022-07-14T06:47:03Z</time>
      </trkpt>
      <trkpt lat="46.21821" lon="5.47785">
        <ele>307.8</ele>
        <time>2022-07-14T06:47:11Z</time>
      </trkpt>
      <trkpt lat="46.21796" lon="5.47761">
        <ele>308.2</ele>
        <time>2022-07-14T06:47:15Z</time>
      </trkpt>
      <trkpt lat="46.21758" lon="5.47726">
        <ele>308.4</ele>
        <time>2022-07-14T06:47:21Z</time>
      </trkpt>
      <trkpt lat="46.21705" lon="5.47679">
        <ele>307.8</ele>
        <time>2022-07-14T06:47:29Z</time>
      </trkpt>
      <trkpt lat="46.21698" lon="5.47673">
        <ele>307.8</ele>
        <time>2022-07-14T06:47:30Z</time>
      </trkpt>
      <trkpt lat="46.21653" lon="5.4763">
        <ele>307.2</ele>
        <time>2022-07-14T06:47:37Z</time>
      </trkpt>
      <trkpt lat="46.21645" lon="5.47623">
        <ele>307.2</ele>
        <time>2022-07-14T06:47:38Z</time>
      </trkpt>
      <trkpt lat="46.21613" lon="5.47592">
        <ele>307.2</ele>
        <time>2022-07-14T06:47:43Z</time>
      </trkpt>
      <trkpt lat="46.216" lon="5.47581">
        <ele>307</ele>
        <time>2022-07-14T06:47:45Z</time>
      </trkpt>
      <trkpt lat="46.21549" lon="5.47549">
        <ele>306.6</ele>
        <time>2022-07-14T06:47:52Z</time>
      </trkpt>
      <trkpt lat="46.2152" lon="5.47537">
        <ele>306</ele>
        <time>2022-07-14T06:47:56Z</time>
      </trkpt>
      <trkpt lat="46.21512" lon="5.47534">
        <ele>305.8</ele>
        <time>2022-07-14T06:47:57Z</time>
      </trkpt>
      <trkpt lat="46.21502" lon="5.47531">
        <ele>305.6</ele>
        <time>2022-07-14T06:47:58Z</time>
      </trkpt>
      <trkpt lat="46.2147" lon="5.47527">
        <ele>305</ele>
        <time>2022-07-14T06:48:02Z</time>
      </trkpt>
      <trkpt lat="46.21454" lon="5.47524">
        <ele>304.8</ele>
        <time>2022-07-14T06:48:04Z</time>
      </trkpt>
      <trkpt lat="46.21408" lon="5.47504">
        <ele>304.4</ele>
        <time>2022-07-14T06:48:10Z</time>
      </trkpt>
      <trkpt lat="46.21386" lon="5.47489">
        <ele>304.2</ele>
        <time>2022-07-14T06:48:13Z</time>
      </trkpt>
      <trkpt lat="46.21373" lon="5.47478">
        <ele>304.2</ele>
        <time>2022-07-14T06:48:15Z</time>
      </trkpt>
      <trkpt lat="46.21358" lon="5.4747">
        <ele>304</ele>
        <time>2022-07-14T06:48:17Z</time>
      </trkpt>
      <trkpt lat="46.21336" lon="5.47455">
        <ele>303.4</ele>
        <time>2022-07-14T06:48:20Z</time>
      </trkpt>
      <trkpt lat="46.21322" lon="5.47443">
        <ele>303.2</ele>
        <time>2022-07-14T06:48:22Z</time>
      </trkpt>
      <trkpt lat="46.21309" lon="5.47426">
        <ele>303</ele>
        <time>2022-07-14T06:48:24Z</time>
      </trkpt>
      <trkpt lat="46.21303" lon="5.47417">
        <ele>302.6</ele>
        <time>2022-07-14T06:48:25Z</time>
      </trkpt>
      <trkpt lat="46.21287" lon="5.47389">
        <ele>302.2</ele>
        <time>2022-07-14T06:48:28Z</time>
      </trkpt>
      <trkpt lat="46.21268" lon="5.47364">
        <ele>302</ele>
        <time>2022-07-14T06:48:31Z</time>
      </trkpt>
      <trkpt lat="46.21253" lon="5.4735">
        <ele>301.6</ele>
        <time>2022-07-14T06:48:33Z</time>
      </trkpt>
      <trkpt lat="46.21246" lon="5.47343">
        <ele>301.4</ele>
        <time>2022-07-14T06:48:34Z</time>
      </trkpt>
      <trkpt lat="46.21223" lon="5.47325">
        <ele>301.2</ele>
        <time>2022-07-14T06:48:37Z</time>
      </trkpt>
      <trkpt lat="46.21189" lon="5.47285">
        <ele>300.8</ele>
        <time>2022-07-14T06:48:42Z</time>
      </trkpt>
      <trkpt lat="46.21171" lon="5.47259">
        <ele>300.4</ele>
        <time>2022-07-14T06:48:45Z</time>
      </trkpt>
      <trkpt lat="46.2114" lon="5.47216">
        <ele>299.8</ele>
        <time>2022-07-14T06:48:50Z</time>
      </trkpt>
      <trkpt lat="46.21122" lon="5.4719">
        <ele>299.2</ele>
        <time>2022-07-14T06:48:53Z</time>
      </trkpt>
      <trkpt lat="46.21106" lon="5.47161">
        <ele>298.8</ele>
        <time>2022-07-14T06:48:56Z</time>
      </trkpt>
      <trkpt lat="46.21084" lon="5.47111">
        <ele>298.4</ele>
        <time>2022-07-14T06:49:01Z</time>
      </trkpt>
      <trkpt lat="46.21072" lon="5.4708">
        <ele>298</ele>
        <time>2022-07-14T06:49:04Z</time>
      </trkpt>
      <trkpt lat="46.21064" lon="5.47058">
        <ele>297.8</ele>
        <time>2022-07-14T06:49:06Z</time>
      </trkpt>
      <trkpt lat="46.21058" lon="5.47034">
        <ele>297.4</ele>
        <time>2022-07-14T06:49:08Z</time>
      </trkpt>
      <trkpt lat="46.21049" lon="5.47">
        <ele>297.2</ele>
        <time>2022-07-14T06:49:11Z</time>
      </trkpt>
      <trkpt lat="46.21042" lon="5.46978">
        <ele>297</ele>
        <time>2022-07-14T06:49:13Z</time>
      </trkpt>
      <trkpt lat="46.21036" lon="5.46958">
        <ele>296.4</ele>
        <time>2022-07-14T06:49:15Z</time>
      </trkpt>
      <trkpt lat="46.21031" lon="5.46946">
        <ele>296.2</ele>
        <time>2022-07-14T06:49:16Z</time>
      </trkpt>
      <trkpt lat="46.21016" lon="5.46884">
        <ele>296</ele>
        <time>2022-07-14T06:49:21Z</time>
      </trkpt>
      <trkpt lat="46.21014" lon="5.46872">
        <ele>296</ele>
        <time>2022-07-14T06:49:22Z</time>
      </trkpt>
      <trkpt lat="46.2101" lon="5.46838">
        <ele>295.4</ele>
        <time>2022-07-14T06:49:25Z</time>
      </trkpt>
      <trkpt lat="46.21007" lon="5.46827">
        <ele>295.4</ele>
        <time>2022-07-14T06:49:26Z</time>
      </trkpt>
      <trkpt lat="46.20997" lon="5.46765">
        <ele>294.6</ele>
        <time>2022-07-14T06:49:31Z</time>
      </trkpt>
      <trkpt lat="46.2099" lon="5.46686">
        <ele>294.2</ele>
        <time>2022-07-14T06:49:38Z</time>
      </trkpt>
      <trkpt lat="46.2099" lon="5.46675">
        <ele>294</ele>
        <time>2022-07-14T06:49:39Z</time>
      </trkpt>
      <trkpt lat="46.2099" lon="5.46629">
        <ele>293.6</ele>
        <time>2022-07-14T06:49:43Z</time>
      </trkpt>
      <trkpt lat="46.2099" lon="5.46605">
        <ele>293.4</ele>
        <time>2022-07-14T06:49:45Z</time>
      </trkpt>
      <trkpt lat="46.2099" lon="5.4658">
        <ele>293.2</ele>
        <time>2022-07-14T06:49:47Z</time>
      </trkpt>
      <trkpt lat="46.20994" lon="5.46558">
        <ele>293</ele>
        <time>2022-07-14T06:49:49Z</time>
      </trkpt>
      <trkpt lat="46.20996" lon="5.46519">
        <ele>292.4</ele>
        <time>2022-07-14T06:49:52Z</time>
      </trkpt>
      <trkpt lat="46.20996" lon="5.46505">
        <ele>292.2</ele>
        <time>2022-07-14T06:49:53Z</time>
      </trkpt>
      <trkpt lat="46.20996" lon="5.46448">
        <ele>291.8</ele>
        <time>2022-07-14T06:49:57Z</time>
      </trkpt>
      <trkpt lat="46.21004" lon="5.46383">
        <ele>291</ele>
        <time>2022-07-14T06:50:02Z</time>
      </trkpt>
      <trkpt lat="46.21018" lon="5.46334">
        <ele>290.2</ele>
        <time>2022-07-14T06:50:06Z</time>
      </trkpt>
      <trkpt lat="46.21027" lon="5.4631">
        <ele>290</ele>
        <time>2022-07-14T06:50:08Z</time>
      </trkpt>
      <trkpt lat="46.21042" lon="5.46275">
        <ele>289.2</ele>
        <time>2022-07-14T06:50:11Z</time>
      </trkpt>
      <trkpt lat="46.21051" lon="5.4625">
        <ele>288.8</ele>
        <time>2022-07-14T06:50:13Z</time>
      </trkpt>
      <trkpt lat="46.21076" lon="5.46189">
        <ele>287.8</ele>
        <time>2022-07-14T06:50:18Z</time>
      </trkpt>
      <trkpt lat="46.21107" lon="5.46138">
        <ele>287</ele>
        <time>2022-07-14T06:50:23Z</time>
      </trkpt>
      <trkpt lat="46.21122" lon="5.46118">
        <ele>286.6</ele>
        <time>2022-07-14T06:50:25Z</time>
      </trkpt>
      <trkpt lat="46.21148" lon="5.46086">
        <ele>285.6</ele>
        <time>2022-07-14T06:50:29Z</time>
      </trkpt>
      <trkpt lat="46.21195" lon="5.46047">
        <ele>284.2</ele>
        <time>2022-07-14T06:50:34Z</time>
      </trkpt>
      <trkpt lat="46.21214" lon="5.46037">
        <ele>284</ele>
        <time>2022-07-14T06:50:36Z</time>
      </trkpt>
      <trkpt lat="46.21234" lon="5.46031">
        <ele>283.4</ele>
        <time>2022-07-14T06:50:38Z</time>
      </trkpt>
      <trkpt lat="46.21244" lon="5.46028">
        <ele>283.2</ele>
        <time>2022-07-14T06:50:39Z</time>
      </trkpt>
      <trkpt lat="46.21284" lon="5.46016">
        <ele>282</ele>
        <time>2022-07-14T06:50:43Z</time>
      </trkpt>
      <trkpt lat="46.21303" lon="5.46006">
        <ele>281.8</ele>
        <time>2022-07-14T06:50:45Z</time>
      </trkpt>
      <trkpt lat="46.21339" lon="5.45973">
        <ele>282.2</ele>
        <time>2022-07-14T06:50:50Z</time>
      </trkpt>
      <trkpt lat="46.21367" lon="5.45948">
        <ele>283.6</ele>
        <time>2022-07-14T06:50:55Z</time>
      </trkpt>
      <trkpt lat="46.2138" lon="5.45936">
        <ele>285.2</ele>
        <time>2022-07-14T06:50:58Z</time>
      </trkpt>
      <trkpt lat="46.21389" lon="5.45927">
        <ele>286.2</ele>
        <time>2022-07-14T06:51:00Z</time>
      </trkpt>
      <trkpt lat="46.21393" lon="5.45923">
        <ele>286.8</ele>
        <time>2022-07-14T06:51:01Z</time>
      </trkpt>
      <trkpt lat="46.21402" lon="5.45913">
        <ele>287.4</ele>
        <time>2022-07-14T06:51:03Z</time>
      </trkpt>
      <trkpt lat="46.21414" lon="5.45897">
        <ele>288.2</ele>
        <time>2022-07-14T06:51:06Z</time>
      </trkpt>
      <trkpt lat="46.21417" lon="5.4589">
        <ele>288.4</ele>
        <time>2022-07-14T06:51:07Z</time>
      </trkpt>
      <trkpt lat="46.2142" lon="5.45884">
        <ele>288.8</ele>
        <time>2022-07-14T06:51:08Z</time>
      </trkpt>
      <trkpt lat="46.21424" lon="5.45878">
        <ele>289</ele>
        <time>2022-07-14T06:51:09Z</time>
      </trkpt>
      <trkpt lat="46.21429" lon="5.45865">
        <ele>289.4</ele>
        <time>2022-07-14T06:51:11Z</time>
      </trkpt>
      <trkpt lat="46.21434" lon="5.45853">
        <ele>290</ele>
        <time>2022-07-14T06:51:13Z</time>
      </trkpt>
      <trkpt lat="46.21437" lon="5.45847">
        <ele>290.2</ele>
        <time>2022-07-14T06:51:14Z</time>
      </trkpt>
      <trkpt lat="46.2144" lon="5.45841">
        <ele>290.6</ele>
        <time>2022-07-14T06:51:15Z</time>
      </trkpt>
      <trkpt lat="46.21454" lon="5.45812">
        <ele>291.8</ele>
        <time>2022-07-14T06:51:20Z</time>
      </trkpt>
      <trkpt lat="46.21464" lon="5.45789">
        <ele>293</ele>
        <time>2022-07-14T06:51:24Z</time>
      </trkpt>
      <trkpt lat="46.21468" lon="5.45775">
        <ele>293.4</ele>
        <time>2022-07-14T06:51:26Z</time>
      </trkpt>
      <trkpt lat="46.21469" lon="5.45771">
        <ele>293.8</ele>
        <time>2022-07-14T06:51:27Z</time>
      </trkpt>
      <trkpt lat="46.21472" lon="5.45755">
        <ele>294</ele>
        <time>2022-07-14T06:51:29Z</time>
      </trkpt>
      <trkpt lat="46.21478" lon="5.45723">
        <ele>295</ele>
        <time>2022-07-14T06:51:33Z</time>
      </trkpt>
      <trkpt lat="46.21482" lon="5.45693">
        <ele>296</ele>
        <time>2022-07-14T06:51:37Z</time>
      </trkpt>
      <trkpt lat="46.21483" lon="5.45685">
        <ele>296.4</ele>
        <time>2022-07-14T06:51:38Z</time>
      </trkpt>
      <trkpt lat="46.2149" lon="5.45643">
        <ele>297.4</ele>
        <time>2022-07-14T06:51:44Z</time>
      </trkpt>
      <trkpt lat="46.21491" lon="5.45637">
        <ele>297.6</ele>
        <time>2022-07-14T06:51:45Z</time>
      </trkpt>
      <trkpt lat="46.21496" lon="5.45611">
        <ele>298.8</ele>
        <time>2022-07-14T06:51:49Z</time>
      </trkpt>
      <trkpt lat="46.21503" lon="5.45579">
        <ele>299.8</ele>
        <time>2022-07-14T06:51:54Z</time>
      </trkpt>
      <trkpt lat="46.21504" lon="5.45573">
        <ele>300</ele>
        <time>2022-07-14T06:51:55Z</time>
      </trkpt>
      <trkpt lat="46.21509" lon="5.45535">
        <ele>301</ele>
        <time>2022-07-14T06:52:01Z</time>
      </trkpt>
      <trkpt lat="46.2151" lon="5.45529">
        <ele>301.4</ele>
        <time>2022-07-14T06:52:02Z</time>
      </trkpt>
      <trkpt lat="46.21511" lon="5.45503">
        <ele>302.2</ele>
        <time>2022-07-14T06:52:06Z</time>
      </trkpt>
      <trkpt lat="46.21513" lon="5.45481">
        <ele>303</ele>
        <time>2022-07-14T06:52:10Z</time>
      </trkpt>
      <trkpt lat="46.21515" lon="5.45461">
        <ele>303.4</ele>
        <time>2022-07-14T06:52:14Z</time>
      </trkpt>
      <trkpt lat="46.21516" lon="5.45451">
        <ele>303.8</ele>
        <time>2022-07-14T06:52:16Z</time>
      </trkpt>
      <trkpt lat="46.21517" lon="5.45431">
        <ele>304</ele>
        <time>2022-07-14T06:52:19Z</time>
      </trkpt>
      <trkpt lat="46.21517" lon="5.45416">
        <ele>304.4</ele>
        <time>2022-07-14T06:52:21Z</time>
      </trkpt>
      <trkpt lat="46.21517" lon="5.45387">
        <ele>305.6</ele>
        <time>2022-07-14T06:52:25Z</time>
      </trkpt>
      <trkpt lat="46.21516" lon="5.4538">
        <ele>305.8</ele>
        <time>2022-07-14T06:52:26Z</time>
      </trkpt>
      <trkpt lat="46.21515" lon="5.45343">
        <ele>306.8</ele>
        <time>2022-07-14T06:52:31Z</time>
      </trkpt>
      <trkpt lat="46.21511" lon="5.45306">
        <ele>307.4</ele>
        <time>2022-07-14T06:52:36Z</time>
      </trkpt>
      <trkpt lat="46.21502" lon="5.45269">
        <ele>307.6</ele>
        <time>2022-07-14T06:52:41Z</time>
      </trkpt>
      <trkpt lat="46.21502" lon="5.45261">
        <ele>307.6</ele>
        <time>2022-07-14T06:52:42Z</time>
      </trkpt>
      <trkpt lat="46.215" lon="5.45247">
        <ele>307.6</ele>
        <time>2022-07-14T06:52:44Z</time>
      </trkpt>
      <trkpt lat="46.21497" lon="5.45234">
        <ele>308</ele>
        <time>2022-07-14T06:52:46Z</time>
      </trkpt>
      <trkpt lat="46.21495" lon="5.45228">
        <ele>308</ele>
        <time>2022-07-14T06:52:47Z</time>
      </trkpt>
      <trkpt lat="46.21492" lon="5.45222">
        <ele>308</ele>
        <time>2022-07-14T06:52:48Z</time>
      </trkpt>
      <trkpt lat="46.21482" lon="5.45213">
        <ele>308.2</ele>
        <time>2022-07-14T06:52:50Z</time>
      </trkpt>
      <trkpt lat="46.21466" lon="5.45202">
        <ele>308.4</ele>
        <time>2022-07-14T06:52:53Z</time>
      </trkpt>
      <trkpt lat="46.21458" lon="5.45197">
        <ele>308.2</ele>
        <time>2022-07-14T06:52:55Z</time>
      </trkpt>
      <trkpt lat="46.21454" lon="5.45194">
        <ele>308.2</ele>
        <time>2022-07-14T06:52:56Z</time>
      </trkpt>
      <trkpt lat="46.21423" lon="5.45175">
        <ele>307.6</ele>
        <time>2022-07-14T06:53:02Z</time>
      </trkpt>
      <trkpt lat="46.21418" lon="5.45171">
        <ele>307.4</ele>
        <time>2022-07-14T06:53:03Z</time>
      </trkpt>
      <trkpt lat="46.214" lon="5.4516">
        <ele>306.8</ele>
        <time>2022-07-14T06:53:06Z</time>
      </trkpt>
      <trkpt lat="46.21393" lon="5.45158">
        <ele>306.8</ele>
        <time>2022-07-14T06:53:07Z</time>
      </trkpt>
      <trkpt lat="46.21386" lon="5.45156">
        <ele>306.4</ele>
        <time>2022-07-14T06:53:08Z</time>
      </trkpt>
      <trkpt lat="46.21372" lon="5.45153">
        <ele>305.8</ele>
        <time>2022-07-14T06:53:10Z</time>
      </trkpt>
      <trkpt lat="46.21354" lon="5.45148">
        <ele>305.4</ele>
        <time>2022-07-14T06:53:12Z</time>
      </trkpt>
      <trkpt lat="46.21332" lon="5.45145">
        <ele>304.2</ele>
        <time>2022-07-14T06:53:15Z</time>
      </trkpt>
      <trkpt lat="46.21323" lon="5.45139">
        <ele>303.2</ele>
        <time>2022-07-14T06:53:17Z</time>
      </trkpt>
      <trkpt lat="46.21321" lon="5.45134">
        <ele>302.8</ele>
        <time>2022-07-14T06:53:18Z</time>
      </trkpt>
      <trkpt lat="46.21321" lon="5.45126">
        <ele>302.4</ele>
        <time>2022-07-14T06:53:20Z</time>
      </trkpt>
      <trkpt lat="46.21322" lon="5.45121">
        <ele>301.2</ele>
        <time>2022-07-14T06:53:22Z</time>
      </trkpt>
      <trkpt lat="46.21322" lon="5.45121">
        <ele>300.6</ele>
        <time>2022-07-14T06:53:24Z</time>
      </trkpt>
      <trkpt lat="46.21328" lon="5.45121">
        <ele>300</ele>
        <time>2022-07-14T06:54:39Z</time>
      </trkpt>
      <trkpt lat="46.21338" lon="5.45122">
        <ele>300</ele>
        <time>2022-07-14T06:54:41Z</time>
      </trkpt>
      <trkpt lat="46.21367" lon="5.45127">
        <ele>298.8</ele>
        <time>2022-07-14T06:54:46Z</time>
      </trkpt>
      <trkpt lat="46.21388" lon="5.45131">
        <ele>298</ele>
        <time>2022-07-14T06:54:49Z</time>
      </trkpt>
      <trkpt lat="46.21405" lon="5.45135">
        <ele>296.8</ele>
        <time>2022-07-14T06:54:51Z</time>
      </trkpt>
      <trkpt lat="46.21433" lon="5.45143">
        <ele>295.6</ele>
        <time>2022-07-14T06:54:54Z</time>
      </trkpt>
      <trkpt lat="46.21442" lon="5.45146">
        <ele>294.2</ele>
        <time>2022-07-14T06:54:56Z</time>
      </trkpt>
      <trkpt lat="46.21453" lon="5.45151">
        <ele>293.4</ele>
        <time>2022-07-14T06:54:57Z</time>
      </trkpt>
      <trkpt lat="46.21463" lon="5.45157">
        <ele>293.2</ele>
        <time>2022-07-14T06:54:58Z</time>
      </trkpt>
      <trkpt lat="46.21482" lon="5.4517">
        <ele>291.8</ele>
        <time>2022-07-14T06:55:00Z</time>
      </trkpt>
      <trkpt lat="46.21496" lon="5.4518">
        <ele>290.6</ele>
        <time>2022-07-14T06:55:02Z</time>
      </trkpt>
      <trkpt lat="46.21502" lon="5.45184">
        <ele>290.4</ele>
        <time>2022-07-14T06:55:03Z</time>
      </trkpt>
      <trkpt lat="46.21507" lon="5.45186">
        <ele>289.4</ele>
        <time>2022-07-14T06:55:04Z</time>
      </trkpt>
      <trkpt lat="46.21511" lon="5.45187">
        <ele>289</ele>
        <time>2022-07-14T06:55:05Z</time>
      </trkpt>
      <trkpt lat="46.21517" lon="5.45188">
        <ele>287.8</ele>
        <time>2022-07-14T06:55:07Z</time>
      </trkpt>
      <trkpt lat="46.21517" lon="5.45189">
        <ele>287.6</ele>
        <time>2022-07-14T06:55:08Z</time>
      </trkpt>
      <trkpt lat="46.21518" lon="5.45188">
        <ele>287.2</ele>
        <time>2022-07-14T06:55:12Z</time>
      </trkpt>
      <trkpt lat="46.21518" lon="5.4519">
        <ele>287</ele>
        <time>2022-07-14T06:55:15Z</time>
      </trkpt>
      <trkpt lat="46.21518" lon="5.45191">
        <ele>286.8</ele>
        <time>2022-07-14T06:55:17Z</time>
      </trkpt>
      <trkpt lat="46.21518" lon="5.45191">
        <ele>286.8</ele>
        <time>2022-07-14T06:55:18Z</time>
      </trkpt>
      <trkpt lat="46.2153" lon="5.45175">
        <ele>287</ele>
        <time>2022-07-14T06:56:14Z</time>
      </trkpt>
      <trkpt lat="46.21532" lon="5.45171">
        <ele>287</ele>
        <time>2022-07-14T06:56:15Z</time>
      </trkpt>
      <trkpt lat="46.21533" lon="5.4517">
        <ele>286.8</ele>
        <time>2022-07-14T06:56:17Z</time>
      </trkpt>
      <trkpt lat="46.21532" lon="5.4517">
        <ele>286.8</ele>
        <time>2022-07-14T06:56:18Z</time>
      </trkpt>
      <trkpt lat="46.21536" lon="5.4516">
        <ele>286.4</ele>
        <time>2022-07-14T06:56:22Z</time>
      </trkpt>
      <trkpt lat="46.21541" lon="5.45157">
        <ele>286.2</ele>
        <time>2022-07-14T06:56:23Z</time>
      </trkpt>
      <trkpt lat="46.21556" lon="5.45139">
        <ele>286</ele>
        <time>2022-07-14T06:56:25Z</time>
      </trkpt>
      <trkpt lat="46.21559" lon="5.45137">
        <ele>286</ele>
        <time>2022-07-14T06:56:26Z</time>
      </trkpt>
      <trkpt lat="46.21564" lon="5.45132">
        <ele>286.2</ele>
        <time>2022-07-14T06:56:27Z</time>
      </trkpt>
      <trkpt lat="46.21579" lon="5.45101">
        <ele>286.2</ele>
        <time>2022-07-14T06:56:29Z</time>
      </trkpt>
      <trkpt lat="46.21586" lon="5.45078">
        <ele>286.4</ele>
        <time>2022-07-14T06:56:32Z</time>
      </trkpt>
      <trkpt lat="46.21594" lon="5.45053">
        <ele>286.6</ele>
        <time>2022-07-14T06:56:34Z</time>
      </trkpt>
      <trkpt lat="46.21597" lon="5.4504">
        <ele>286.6</ele>
        <time>2022-07-14T06:56:35Z</time>
      </trkpt>
      <trkpt lat="46.21595" lon="5.4503">
        <ele>286.6</ele>
        <time>2022-07-14T06:56:36Z</time>
      </trkpt>
      <trkpt lat="46.21587" lon="5.45011">
        <ele>286.4</ele>
        <time>2022-07-14T06:56:38Z</time>
      </trkpt>
      <trkpt lat="46.21567" lon="5.44988">
        <ele>285.8</ele>
        <time>2022-07-14T06:56:41Z</time>
      </trkpt>
      <trkpt lat="46.2156" lon="5.4498">
        <ele>285.4</ele>
        <time>2022-07-14T06:56:42Z</time>
      </trkpt>
      <trkpt lat="46.21544" lon="5.44964">
        <ele>284.4</ele>
        <time>2022-07-14T06:56:44Z</time>
      </trkpt>
      <trkpt lat="46.21522" lon="5.44936">
        <ele>283.2</ele>
        <time>2022-07-14T06:56:47Z</time>
      </trkpt>
      <trkpt lat="46.21515" lon="5.44927">
        <ele>282.6</ele>
        <time>2022-07-14T06:56:48Z</time>
      </trkpt>
      <trkpt lat="46.215" lon="5.44911">
        <ele>282.2</ele>
        <time>2022-07-14T06:56:50Z</time>
      </trkpt>
      <trkpt lat="46.21478" lon="5.44892">
        <ele>281.2</ele>
        <time>2022-07-14T06:56:53Z</time>
      </trkpt>
      <trkpt lat="46.2147" lon="5.44887">
        <ele>281.2</ele>
        <time>2022-07-14T06:56:54Z</time>
      </trkpt>
      <trkpt lat="46.21445" lon="5.44878">
        <ele>281</ele>
        <time>2022-07-14T06:56:57Z</time>
      </trkpt>
      <trkpt lat="46.21437" lon="5.44875">
        <ele>280.6</ele>
        <time>2022-07-14T06:56:58Z</time>
      </trkpt>
      <trkpt lat="46.21396" lon="5.44862">
        <ele>280.2</ele>
        <time>2022-07-14T06:57:03Z</time>
      </trkpt>
      <trkpt lat="46.21357" lon="5.44849">
        <ele>280</ele>
        <time>2022-07-14T06:57:08Z</time>
      </trkpt>
      <trkpt lat="46.21341" lon="5.44844">
        <ele>280</ele>
        <time>2022-07-14T06:57:10Z</time>
      </trkpt>
      <trkpt lat="46.21288" lon="5.44826">
        <ele>280.2</ele>
        <time>2022-07-14T06:57:17Z</time>
      </trkpt>
      <trkpt lat="46.2124" lon="5.44818">
        <ele>280.4</ele>
        <time>2022-07-14T06:57:23Z</time>
      </trkpt>
      <trkpt lat="46.21192" lon="5.44813">
        <ele>280</ele>
        <time>2022-07-14T06:57:29Z</time>
      </trkpt>
      <trkpt lat="46.21143" lon="5.44809">
        <ele>279.4</ele>
        <time>2022-07-14T06:57:35Z</time>
      </trkpt>
      <trkpt lat="46.21112" lon="5.44808">
        <ele>278.8</ele>
        <time>2022-07-14T06:57:39Z</time>
      </trkpt>
      <trkpt lat="46.21097" lon="5.44809">
        <ele>278.6</ele>
        <time>2022-07-14T06:57:41Z</time>
      </trkpt>
      <trkpt lat="46.21069" lon="5.44812">
        <ele>278.8</ele>
        <time>2022-07-14T06:57:45Z</time>
      </trkpt>
      <trkpt lat="46.21063" lon="5.44812">
        <ele>279</ele>
        <time>2022-07-14T06:57:46Z</time>
      </trkpt>
      <trkpt lat="46.21036" lon="5.44815">
        <ele>279.4</ele>
        <time>2022-07-14T06:57:50Z</time>
      </trkpt>
      <trkpt lat="46.21029" lon="5.44816">
        <ele>279.6</ele>
        <time>2022-07-14T06:57:51Z</time>
      </trkpt>
      <trkpt lat="46.21023" lon="5.44818">
        <ele>279.8</ele>
        <time>2022-07-14T06:57:52Z</time>
      </trkpt>
      <trkpt lat="46.21" lon="5.44826">
        <ele>280.6</ele>
        <time>2022-07-14T06:57:56Z</time>
      </trkpt>
      <trkpt lat="46.20995" lon="5.44828">
        <ele>280.8</ele>
        <time>2022-07-14T06:57:57Z</time>
      </trkpt>
      <trkpt lat="46.20981" lon="5.44832">
        <ele>282</ele>
        <time>2022-07-14T06:58:00Z</time>
      </trkpt>
      <trkpt lat="46.20976" lon="5.44834">
        <ele>282.4</ele>
        <time>2022-07-14T06:58:01Z</time>
      </trkpt>
      <trkpt lat="46.20971" lon="5.44836">
        <ele>283</ele>
        <time>2022-07-14T06:58:02Z</time>
      </trkpt>
      <trkpt lat="46.20967" lon="5.44838">
        <ele>283.4</ele>
        <time>2022-07-14T06:58:03Z</time>
      </trkpt>
      <trkpt lat="46.20958" lon="5.44843">
        <ele>284</ele>
        <time>2022-07-14T06:58:05Z</time>
      </trkpt>
      <trkpt lat="46.2095" lon="5.44847">
        <ele>284.6</ele>
        <time>2022-07-14T06:58:07Z</time>
      </trkpt>
      <trkpt lat="46.20946" lon="5.44849">
        <ele>284.6</ele>
        <time>2022-07-14T06:58:08Z</time>
      </trkpt>
      <trkpt lat="46.20942" lon="5.44852">
        <ele>285</ele>
        <time>2022-07-14T06:58:09Z</time>
      </trkpt>
      <trkpt lat="46.20934" lon="5.44857">
        <ele>285.6</ele>
        <time>2022-07-14T06:58:11Z</time>
      </trkpt>
      <trkpt lat="46.20931" lon="5.44859">
        <ele>286</ele>
        <time>2022-07-14T06:58:12Z</time>
      </trkpt>
      <trkpt lat="46.20927" lon="5.44862">
        <ele>286.2</ele>
        <time>2022-07-14T06:58:13Z</time>
      </trkpt>
      <trkpt lat="46.20923" lon="5.44864">
        <ele>286.8</ele>
        <time>2022-07-14T06:58:14Z</time>
      </trkpt>
      <trkpt lat="46.20905" lon="5.44874">
        <ele>288</ele>
        <time>2022-07-14T06:58:19Z</time>
      </trkpt>
      <trkpt lat="46.2089" lon="5.44878">
        <ele>289</ele>
        <time>2022-07-14T06:58:23Z</time>
      </trkpt>
      <trkpt lat="46.20882" lon="5.44881">
        <ele>289.6</ele>
        <time>2022-07-14T06:58:25Z</time>
      </trkpt>
      <trkpt lat="46.20882" lon="5.44881">
        <ele>290</ele>
        <time>2022-07-14T06:58:26Z</time>
      </trkpt>
      <trkpt lat="46.20878" lon="5.44885">
        <ele>290.2</ele>
        <time>2022-07-14T06:58:27Z</time>
      </trkpt>
      <trkpt lat="46.20863" lon="5.44896">
        <ele>291.2</ele>
        <time>2022-07-14T06:58:30Z</time>
      </trkpt>
      <trkpt lat="46.20859" lon="5.44898">
        <ele>291.4</ele>
        <time>2022-07-14T06:58:31Z</time>
      </trkpt>
      <trkpt lat="46.20843" lon="5.44908">
        <ele>292.4</ele>
        <time>2022-07-14T06:58:35Z</time>
      </trkpt>
      <trkpt lat="46.2084" lon="5.44909">
        <ele>292.6</ele>
        <time>2022-07-14T06:58:36Z</time>
      </trkpt>
      <trkpt lat="46.20833" lon="5.44916">
        <ele>293.4</ele>
        <time>2022-07-14T06:58:38Z</time>
      </trkpt>
      <trkpt lat="46.20819" lon="5.44928">
        <ele>294.6</ele>
        <time>2022-07-14T06:58:42Z</time>
      </trkpt>
      <trkpt lat="46.20816" lon="5.44932">
        <ele>294.8</ele>
        <time>2022-07-14T06:58:43Z</time>
      </trkpt>
      <trkpt lat="46.20807" lon="5.44941">
        <ele>295.8</ele>
        <time>2022-07-14T06:58:46Z</time>
      </trkpt>
      <trkpt lat="46.20793" lon="5.44954">
        <ele>297.4</ele>
        <time>2022-07-14T06:58:51Z</time>
      </trkpt>
      <trkpt lat="46.20788" lon="5.4496">
        <ele>298.2</ele>
        <time>2022-07-14T06:58:53Z</time>
      </trkpt>
      <trkpt lat="46.20779" lon="5.44968">
        <ele>298.8</ele>
        <time>2022-07-14T06:58:56Z</time>
      </trkpt>
      <trkpt lat="46.20758" lon="5.44987">
        <ele>300.2</ele>
        <time>2022-07-14T06:59:03Z</time>
      </trkpt>
      <trkpt lat="46.20755" lon="5.44989">
        <ele>300.6</ele>
        <time>2022-07-14T06:59:04Z</time>
      </trkpt>
      <trkpt lat="46.20746" lon="5.44998">
        <ele>301.2</ele>
        <time>2022-07-14T06:59:07Z</time>
      </trkpt>
      <trkpt lat="46.20728" lon="5.45014">
        <ele>302.2</ele>
        <time>2022-07-14T06:59:13Z</time>
      </trkpt>
      <trkpt lat="46.20722" lon="5.45019">
        <ele>303.2</ele>
        <time>2022-07-14T06:59:15Z</time>
      </trkpt>
      <trkpt lat="46.20715" lon="5.45024">
        <ele>303.4</ele>
        <time>2022-07-14T06:59:17Z</time>
      </trkpt>
      <trkpt lat="46.207" lon="5.45038">
        <ele>304.4</ele>
        <time>2022-07-14T06:59:22Z</time>
      </trkpt>
      <trkpt lat="46.20695" lon="5.45044">
        <ele>304.8</ele>
        <time>2022-07-14T06:59:24Z</time>
      </trkpt>
      <trkpt lat="46.2069" lon="5.45052">
        <ele>306</ele>
        <time>2022-07-14T06:59:26Z</time>
      </trkpt>
      <trkpt lat="46.20674" lon="5.45077">
        <ele>307</ele>
        <time>2022-07-14T06:59:32Z</time>
      </trkpt>
      <trkpt lat="46.20671" lon="5.45082">
        <ele>307.4</ele>
        <time>2022-07-14T06:59:33Z</time>
      </trkpt>
      <trkpt lat="46.20661" lon="5.45109">
        <ele>308.4</ele>
        <time>2022-07-14T06:59:38Z</time>
      </trkpt>
      <trkpt lat="46.2066" lon="5.45114">
        <ele>308.6</ele>
        <time>2022-07-14T06:59:39Z</time>
      </trkpt>
      <trkpt lat="46.20656" lon="5.45125">
        <ele>308.8</ele>
        <time>2022-07-14T06:59:41Z</time>
      </trkpt>
      <trkpt lat="46.2065" lon="5.45146">
        <ele>309.8</ele>
        <time>2022-07-14T06:59:45Z</time>
      </trkpt>
      <trkpt lat="46.2064" lon="5.45177">
        <ele>311</ele>
        <time>2022-07-14T06:59:51Z</time>
      </trkpt>
      <trkpt lat="46.20638" lon="5.45182">
        <ele>311.4</ele>
        <time>2022-07-14T06:59:52Z</time>
      </trkpt>
      <trkpt lat="46.20632" lon="5.45201">
        <ele>312.2</ele>
        <time>2022-07-14T06:59:56Z</time>
      </trkpt>
      <trkpt lat="46.20624" lon="5.45226">
        <ele>313.6</ele>
        <time>2022-07-14T07:00:01Z</time>
      </trkpt>
      <trkpt lat="46.20622" lon="5.45232">
        <ele>313.8</ele>
        <time>2022-07-14T07:00:02Z</time>
      </trkpt>
      <trkpt lat="46.20614" lon="5.45251">
        <ele>314.8</ele>
        <time>2022-07-14T07:00:06Z</time>
      </trkpt>
      <trkpt lat="46.20605" lon="5.4527">
        <ele>315.6</ele>
        <time>2022-07-14T07:00:10Z</time>
      </trkpt>
      <trkpt lat="46.20601" lon="5.45279">
        <ele>316</ele>
        <time>2022-07-14T07:00:12Z</time>
      </trkpt>
      <trkpt lat="46.20593" lon="5.4529">
        <ele>317.2</ele>
        <time>2022-07-14T07:00:15Z</time>
      </trkpt>
      <trkpt lat="46.2059" lon="5.45294">
        <ele>317.2</ele>
        <time>2022-07-14T07:00:16Z</time>
      </trkpt>
      <trkpt lat="46.20578" lon="5.45309">
        <ele>318.4</ele>
        <time>2022-07-14T07:00:20Z</time>
      </trkpt>
      <trkpt lat="46.20571" lon="5.45313">
        <ele>318.8</ele>
        <time>2022-07-14T07:00:22Z</time>
      </trkpt>
      <trkpt lat="46.20564" lon="5.45313">
        <ele>319.4</ele>
        <time>2022-07-14T07:00:24Z</time>
      </trkpt>
      <trkpt lat="46.20556" lon="5.45311">
        <ele>320</ele>
        <time>2022-07-14T07:00:26Z</time>
      </trkpt>
      <trkpt lat="46.20553" lon="5.45309">
        <ele>320.4</ele>
        <time>2022-07-14T07:00:27Z</time>
      </trkpt>
      <trkpt lat="46.20541" lon="5.45294">
        <ele>321</ele>
        <time>2022-07-14T07:00:31Z</time>
      </trkpt>
      <trkpt lat="46.20536" lon="5.45286">
        <ele>321.6</ele>
        <time>2022-07-14T07:00:33Z</time>
      </trkpt>
      <trkpt lat="46.2052" lon="5.45257">
        <ele>323</ele>
        <time>2022-07-14T07:00:39Z</time>
      </trkpt>
      <trkpt lat="46.20519" lon="5.45252">
        <ele>323.2</ele>
        <time>2022-07-14T07:00:40Z</time>
      </trkpt>
      <trkpt lat="46.20508" lon="5.45212">
        <ele>323.8</ele>
        <time>2022-07-14T07:00:46Z</time>
      </trkpt>
      <trkpt lat="46.20505" lon="5.45199">
        <ele>324</ele>
        <time>2022-07-14T07:00:48Z</time>
      </trkpt>
      <trkpt lat="46.205" lon="5.45154">
        <ele>324.4</ele>
        <time>2022-07-14T07:00:54Z</time>
      </trkpt>
      <trkpt lat="46.20499" lon="5.45139">
        <ele>324.6</ele>
        <time>2022-07-14T07:00:56Z</time>
      </trkpt>
      <trkpt lat="46.205" lon="5.45102">
        <ele>325</ele>
        <time>2022-07-14T07:01:01Z</time>
      </trkpt>
      <trkpt lat="46.20504" lon="5.4504">
        <ele>326.4</ele>
        <time>2022-07-14T07:01:10Z</time>
      </trkpt>
      <trkpt lat="46.20508" lon="5.44987">
        <ele>327.4</ele>
        <time>2022-07-14T07:01:17Z</time>
      </trkpt>
      <trkpt lat="46.20509" lon="5.44973">
        <ele>327.4</ele>
        <time>2022-07-14T07:01:19Z</time>
      </trkpt>
      <trkpt lat="46.20511" lon="5.4495">
        <ele>327.8</ele>
        <time>2022-07-14T07:01:22Z</time>
      </trkpt>
      <trkpt lat="46.20514" lon="5.44927">
        <ele>328.4</ele>
        <time>2022-07-14T07:01:25Z</time>
      </trkpt>
      <trkpt lat="46.20515" lon="5.44918">
        <ele>328.6</ele>
        <time>2022-07-14T07:01:26Z</time>
      </trkpt>
      <trkpt lat="46.20523" lon="5.44842">
        <ele>328.8</ele>
        <time>2022-07-14T07:01:35Z</time>
      </trkpt>
      <trkpt lat="46.2053" lon="5.44796">
        <ele>328.6</ele>
        <time>2022-07-14T07:01:40Z</time>
      </trkpt>
      <trkpt lat="46.20531" lon="5.44789">
        <ele>328.6</ele>
        <time>2022-07-14T07:01:41Z</time>
      </trkpt>
      <trkpt lat="46.20532" lon="5.44781">
        <ele>328.4</ele>
        <time>2022-07-14T07:01:42Z</time>
      </trkpt>
      <trkpt lat="46.20536" lon="5.44758">
        <ele>328.4</ele>
        <time>2022-07-14T07:01:45Z</time>
      </trkpt>
      <trkpt lat="46.20537" lon="5.4475">
        <ele>328.4</ele>
        <time>2022-07-14T07:01:46Z</time>
      </trkpt>
      <trkpt lat="46.20533" lon="5.44734">
        <ele>328.4</ele>
        <time>2022-07-14T07:01:48Z</time>
      </trkpt>
      <trkpt lat="46.20525" lon="5.44732">
        <ele>328.4</ele>
        <time>2022-07-14T07:01:50Z</time>
      </trkpt>
      <trkpt lat="46.20519" lon="5.44733">
        <ele>328.4</ele>
        <time>2022-07-14T07:01:51Z</time>
      </trkpt>
      <trkpt lat="46.20498" lon="5.44734">
        <ele>328.4</ele>
        <time>2022-07-14T07:01:54Z</time>
      </trkpt>
      <trkpt lat="46.20449" lon="5.44724">
        <ele>328.2</ele>
        <time>2022-07-14T07:02:00Z</time>
      </trkpt>
      <trkpt lat="46.20408" lon="5.44709">
        <ele>327.6</ele>
        <time>2022-07-14T07:02:05Z</time>
      </trkpt>
      <trkpt lat="46.20384" lon="5.44702">
        <ele>327.4</ele>
        <time>2022-07-14T07:02:08Z</time>
      </trkpt>
      <trkpt lat="46.20343" lon="5.44694">
        <ele>326.4</ele>
        <time>2022-07-14T07:02:13Z</time>
      </trkpt>
      <trkpt lat="46.20335" lon="5.44694">
        <ele>326.2</ele>
        <time>2022-07-14T07:02:14Z</time>
      </trkpt>
      <trkpt lat="46.20309" lon="5.44695">
        <ele>325.6</ele>
        <time>2022-07-14T07:02:17Z</time>
      </trkpt>
      <trkpt lat="46.203" lon="5.44697">
        <ele>325.4</ele>
        <time>2022-07-14T07:02:18Z</time>
      </trkpt>
      <trkpt lat="46.2029" lon="5.44697">
        <ele>325.2</ele>
        <time>2022-07-14T07:02:19Z</time>
      </trkpt>
      <trkpt lat="46.20269" lon="5.44694">
        <ele>323.8</ele>
        <time>2022-07-14T07:02:21Z</time>
      </trkpt>
      <trkpt lat="46.20253" lon="5.44689">
        <ele>322.6</ele>
        <time>2022-07-14T07:02:23Z</time>
      </trkpt>
      <trkpt lat="46.20228" lon="5.44676">
        <ele>320.6</ele>
        <time>2022-07-14T07:02:25Z</time>
      </trkpt>
      <trkpt lat="46.2021" lon="5.44668">
        <ele>319.4</ele>
        <time>2022-07-14T07:02:27Z</time>
      </trkpt>
      <trkpt lat="46.20182" lon="5.44654">
        <ele>318.4</ele>
        <time>2022-07-14T07:02:30Z</time>
      </trkpt>
      <trkpt lat="46.20173" lon="5.4465">
        <ele>318.4</ele>
        <time>2022-07-14T07:02:31Z</time>
      </trkpt>
      <trkpt lat="46.2012" lon="5.44623">
        <ele>318.2</ele>
        <time>2022-07-14T07:02:37Z</time>
      </trkpt>
      <trkpt lat="46.20095" lon="5.4461">
        <ele>318.4</ele>
        <time>2022-07-14T07:02:40Z</time>
      </trkpt>
      <trkpt lat="46.20049" lon="5.44584">
        <ele>319</ele>
        <time>2022-07-14T07:02:46Z</time>
      </trkpt>
      <trkpt lat="46.20033" lon="5.44574">
        <ele>319.4</ele>
        <time>2022-07-14T07:02:48Z</time>
      </trkpt>
      <trkpt lat="46.19998" lon="5.44552">
        <ele>320.4</ele>
        <time>2022-07-14T07:02:53Z</time>
      </trkpt>
      <trkpt lat="46.19984" lon="5.44544">
        <ele>320.6</ele>
        <time>2022-07-14T07:02:55Z</time>
      </trkpt>
      <trkpt lat="46.19953" lon="5.44524">
        <ele>320.8</ele>
        <time>2022-07-14T07:02:59Z</time>
      </trkpt>
      <trkpt lat="46.19901" lon="5.44483">
        <ele>320</ele>
        <time>2022-07-14T07:03:06Z</time>
      </trkpt>
      <trkpt lat="46.19853" lon="5.44444">
        <ele>320</ele>
        <time>2022-07-14T07:03:13Z</time>
      </trkpt>
      <trkpt lat="46.19819" lon="5.4441">
        <ele>322</ele>
        <time>2022-07-14T07:03:19Z</time>
      </trkpt>
      <trkpt lat="46.19813" lon="5.44404">
        <ele>322.2</ele>
        <time>2022-07-14T07:03:20Z</time>
      </trkpt>
      <trkpt lat="46.19796" lon="5.44386">
        <ele>323.2</ele>
        <time>2022-07-14T07:03:23Z</time>
      </trkpt>
      <trkpt lat="46.19778" lon="5.44365">
        <ele>324</ele>
        <time>2022-07-14T07:03:26Z</time>
      </trkpt>
      <trkpt lat="46.19771" lon="5.44355">
        <ele>324.2</ele>
        <time>2022-07-14T07:03:28Z</time>
      </trkpt>
      <trkpt lat="46.19758" lon="5.44339">
        <ele>324.4</ele>
        <time>2022-07-14T07:03:30Z</time>
      </trkpt>
      <trkpt lat="46.19717" lon="5.44284">
        <ele>324.6</ele>
        <time>2022-07-14T07:03:37Z</time>
      </trkpt>
      <trkpt lat="46.19682" lon="5.44246">
        <ele>324.4</ele>
        <time>2022-07-14T07:03:43Z</time>
      </trkpt>
      <trkpt lat="46.19633" lon="5.44214">
        <ele>325</ele>
        <time>2022-07-14T07:03:50Z</time>
      </trkpt>
      <trkpt lat="46.19579" lon="5.44179">
        <ele>325.2</ele>
        <time>2022-07-14T07:03:58Z</time>
      </trkpt>
      <trkpt lat="46.19567" lon="5.44172">
        <ele>325.4</ele>
        <time>2022-07-14T07:04:00Z</time>
      </trkpt>
      <trkpt lat="46.1954" lon="5.44162">
        <ele>325.6</ele>
        <time>2022-07-14T07:04:04Z</time>
      </trkpt>
      <trkpt lat="46.1951" lon="5.44161">
        <ele>326</ele>
        <time>2022-07-14T07:04:08Z</time>
      </trkpt>
      <trkpt lat="46.19502" lon="5.44162">
        <ele>326</ele>
        <time>2022-07-14T07:04:09Z</time>
      </trkpt>
      <trkpt lat="46.19453" lon="5.44176">
        <ele>325.2</ele>
        <time>2022-07-14T07:04:15Z</time>
      </trkpt>
      <trkpt lat="46.194" lon="5.44185">
        <ele>325.2</ele>
        <time>2022-07-14T07:04:22Z</time>
      </trkpt>
      <trkpt lat="46.19352" lon="5.4418">
        <ele>326.4</ele>
        <time>2022-07-14T07:04:29Z</time>
      </trkpt>
      <trkpt lat="46.19346" lon="5.44178">
        <ele>326.6</ele>
        <time>2022-07-14T07:04:30Z</time>
      </trkpt>
      <trkpt lat="46.19327" lon="5.44175">
        <ele>327.8</ele>
        <time>2022-07-14T07:04:33Z</time>
      </trkpt>
      <trkpt lat="46.19296" lon="5.4417">
        <ele>328.6</ele>
        <time>2022-07-14T07:04:38Z</time>
      </trkpt>
      <trkpt lat="46.19278" lon="5.44168">
        <ele>329</ele>
        <time>2022-07-14T07:04:41Z</time>
      </trkpt>
      <trkpt lat="46.19255" lon="5.44165">
        <ele>329.6</ele>
        <time>2022-07-14T07:04:45Z</time>
      </trkpt>
      <trkpt lat="46.19244" lon="5.44163">
        <ele>330</ele>
        <time>2022-07-14T07:04:47Z</time>
      </trkpt>
      <trkpt lat="46.19207" lon="5.44157">
        <ele>331.2</ele>
        <time>2022-07-14T07:04:53Z</time>
      </trkpt>
      <trkpt lat="46.19201" lon="5.44155">
        <ele>331.4</ele>
        <time>2022-07-14T07:04:54Z</time>
      </trkpt>
      <trkpt lat="46.19178" lon="5.44153">
        <ele>332.2</ele>
        <time>2022-07-14T07:04:58Z</time>
      </trkpt>
      <trkpt lat="46.1915" lon="5.44152">
        <ele>332.6</ele>
        <time>2022-07-14T07:05:02Z</time>
      </trkpt>
      <trkpt lat="46.19095" lon="5.44152">
        <ele>333</ele>
        <time>2022-07-14T07:05:10Z</time>
      </trkpt>
      <trkpt lat="46.1908" lon="5.44152">
        <ele>333.2</ele>
        <time>2022-07-14T07:05:12Z</time>
      </trkpt>
      <trkpt lat="46.19036" lon="5.44145">
        <ele>332.2</ele>
        <time>2022-07-14T07:05:17Z</time>
      </trkpt>
      <trkpt lat="46.19018" lon="5.44138">
        <ele>331.6</ele>
        <time>2022-07-14T07:05:19Z</time>
      </trkpt>
      <trkpt lat="46.19009" lon="5.44133">
        <ele>331.2</ele>
        <time>2022-07-14T07:05:20Z</time>
      </trkpt>
      <trkpt lat="46.19" lon="5.44126">
        <ele>330.8</ele>
        <time>2022-07-14T07:05:21Z</time>
      </trkpt>
      <trkpt lat="46.18983" lon="5.4411">
        <ele>330.2</ele>
        <time>2022-07-14T07:05:23Z</time>
      </trkpt>
      <trkpt lat="46.18968" lon="5.44091">
        <ele>329.4</ele>
        <time>2022-07-14T07:05:25Z</time>
      </trkpt>
      <trkpt lat="46.18961" lon="5.4408">
        <ele>328.6</ele>
        <time>2022-07-14T07:05:26Z</time>
      </trkpt>
      <trkpt lat="46.18947" lon="5.44058">
        <ele>327.4</ele>
        <time>2022-07-14T07:05:28Z</time>
      </trkpt>
      <trkpt lat="46.18918" lon="5.44018">
        <ele>326.8</ele>
        <time>2022-07-14T07:05:32Z</time>
      </trkpt>
      <trkpt lat="46.18895" lon="5.4399">
        <ele>326.4</ele>
        <time>2022-07-14T07:05:35Z</time>
      </trkpt>
      <trkpt lat="46.18853" lon="5.4394">
        <ele>324.8</ele>
        <time>2022-07-14T07:05:40Z</time>
      </trkpt>
      <trkpt lat="46.18836" lon="5.4392">
        <ele>324.2</ele>
        <time>2022-07-14T07:05:42Z</time>
      </trkpt>
      <trkpt lat="46.18828" lon="5.4391">
        <ele>323.6</ele>
        <time>2022-07-14T07:05:43Z</time>
      </trkpt>
      <trkpt lat="46.18802" lon="5.43881">
        <ele>322.4</ele>
        <time>2022-07-14T07:05:46Z</time>
      </trkpt>
      <trkpt lat="46.18776" lon="5.43853">
        <ele>320.8</ele>
        <time>2022-07-14T07:05:49Z</time>
      </trkpt>
      <trkpt lat="46.18768" lon="5.43844">
        <ele>320.4</ele>
        <time>2022-07-14T07:05:50Z</time>
      </trkpt>
      <trkpt lat="46.18741" lon="5.4382">
        <ele>319.8</ele>
        <time>2022-07-14T07:05:53Z</time>
      </trkpt>
      <trkpt lat="46.18724" lon="5.43805">
        <ele>319.4</ele>
        <time>2022-07-14T07:05:56Z</time>
      </trkpt>
      <trkpt lat="46.18676" lon="5.43762">
        <ele>319.4</ele>
        <time>2022-07-14T07:06:01Z</time>
      </trkpt>
      <trkpt lat="46.18661" lon="5.43748">
        <ele>319.4</ele>
        <time>2022-07-14T07:06:03Z</time>
      </trkpt>
      <trkpt lat="46.18617" lon="5.43702">
        <ele>319.2</ele>
        <time>2022-07-14T07:06:09Z</time>
      </trkpt>
      <trkpt lat="46.1861" lon="5.43693">
        <ele>319</ele>
        <time>2022-07-14T07:06:10Z</time>
      </trkpt>
      <trkpt lat="46.18565" lon="5.43632">
        <ele>318.8</ele>
        <time>2022-07-14T07:06:17Z</time>
      </trkpt>
      <trkpt lat="46.1854" lon="5.436">
        <ele>319.2</ele>
        <time>2022-07-14T07:06:21Z</time>
      </trkpt>
      <trkpt lat="46.18502" lon="5.43564">
        <ele>320.4</ele>
        <time>2022-07-14T07:06:27Z</time>
      </trkpt>
      <trkpt lat="46.18463" lon="5.43534">
        <ele>321</ele>
        <time>2022-07-14T07:06:33Z</time>
      </trkpt>
      <trkpt lat="46.18456" lon="5.43529">
        <ele>321</ele>
        <time>2022-07-14T07:06:34Z</time>
      </trkpt>
      <trkpt lat="46.18417" lon="5.43502">
        <ele>322.2</ele>
        <time>2022-07-14T07:06:40Z</time>
      </trkpt>
      <trkpt lat="46.18384" lon="5.43479">
        <ele>322.6</ele>
        <time>2022-07-14T07:06:45Z</time>
      </trkpt>
      <trkpt lat="46.18345" lon="5.43453">
        <ele>322.8</ele>
        <time>2022-07-14T07:06:51Z</time>
      </trkpt>
      <trkpt lat="46.18321" lon="5.43436">
        <ele>323.2</ele>
        <time>2022-07-14T07:06:55Z</time>
      </trkpt>
      <trkpt lat="46.18312" lon="5.4343">
        <ele>323.6</ele>
        <time>2022-07-14T07:06:57Z</time>
      </trkpt>
      <trkpt lat="46.18272" lon="5.43405">
        <ele>324.2</ele>
        <time>2022-07-14T07:07:03Z</time>
      </trkpt>
      <trkpt lat="46.18247" lon="5.43391">
        <ele>324.8</ele>
        <time>2022-07-14T07:07:07Z</time>
      </trkpt>
      <trkpt lat="46.18212" lon="5.43368">
        <ele>325.4</ele>
        <time>2022-07-14T07:07:13Z</time>
      </trkpt>
      <trkpt lat="46.18201" lon="5.43361">
        <ele>325.8</ele>
        <time>2022-07-14T07:07:15Z</time>
      </trkpt>
      <trkpt lat="46.18163" lon="5.43335">
        <ele>326.6</ele>
        <time>2022-07-14T07:07:22Z</time>
      </trkpt>
      <trkpt lat="46.18153" lon="5.43327">
        <ele>327.6</ele>
        <time>2022-07-14T07:07:24Z</time>
      </trkpt>
      <trkpt lat="46.18147" lon="5.43323">
        <ele>328</ele>
        <time>2022-07-14T07:07:25Z</time>
      </trkpt>
      <trkpt lat="46.1811" lon="5.43293">
        <ele>329</ele>
        <time>2022-07-14T07:07:32Z</time>
      </trkpt>
      <trkpt lat="46.18078" lon="5.43269">
        <ele>330</ele>
        <time>2022-07-14T07:07:38Z</time>
      </trkpt>
      <trkpt lat="46.18072" lon="5.43265">
        <ele>330</ele>
        <time>2022-07-14T07:07:39Z</time>
      </trkpt>
      <trkpt lat="46.18047" lon="5.43244">
        <ele>331</ele>
        <time>2022-07-14T07:07:44Z</time>
      </trkpt>
      <trkpt lat="46.18032" lon="5.4323">
        <ele>331.6</ele>
        <time>2022-07-14T07:07:47Z</time>
      </trkpt>
      <trkpt lat="46.18023" lon="5.43219">
        <ele>332</ele>
        <time>2022-07-14T07:07:49Z</time>
      </trkpt>
      <trkpt lat="46.17994" lon="5.43183">
        <ele>333.2</ele>
        <time>2022-07-14T07:07:55Z</time>
      </trkpt>
      <trkpt lat="46.17949" lon="5.4313">
        <ele>333.4</ele>
        <time>2022-07-14T07:08:04Z</time>
      </trkpt>
      <trkpt lat="46.17912" lon="5.43102">
        <ele>334.2</ele>
        <time>2022-07-14T07:08:11Z</time>
      </trkpt>
      <trkpt lat="46.17906" lon="5.43098">
        <ele>334.2</ele>
        <time>2022-07-14T07:08:12Z</time>
      </trkpt>
      <trkpt lat="46.17886" lon="5.43088">
        <ele>335.2</ele>
        <time>2022-07-14T07:08:16Z</time>
      </trkpt>
      <trkpt lat="46.17881" lon="5.43085">
        <ele>335.4</ele>
        <time>2022-07-14T07:08:17Z</time>
      </trkpt>
      <trkpt lat="46.17866" lon="5.43075">
        <ele>336.6</ele>
        <time>2022-07-14T07:08:20Z</time>
      </trkpt>
      <trkpt lat="46.1785" lon="5.43067">
        <ele>337.8</ele>
        <time>2022-07-14T07:08:23Z</time>
      </trkpt>
      <trkpt lat="46.17838" lon="5.4306">
        <ele>338</ele>
        <time>2022-07-14T07:08:25Z</time>
      </trkpt>
      <trkpt lat="46.17791" lon="5.43033">
        <ele>338.8</ele>
        <time>2022-07-14T07:08:33Z</time>
      </trkpt>
      <trkpt lat="46.1775" lon="5.43007">
        <ele>339.8</ele>
        <time>2022-07-14T07:08:40Z</time>
      </trkpt>
      <trkpt lat="46.17744" lon="5.43003">
        <ele>340</ele>
        <time>2022-07-14T07:08:41Z</time>
      </trkpt>
      <trkpt lat="46.17697" lon="5.42974">
        <ele>340</ele>
        <time>2022-07-14T07:08:49Z</time>
      </trkpt>
      <trkpt lat="46.17643" lon="5.42942">
        <ele>340.6</ele>
        <time>2022-07-14T07:08:58Z</time>
      </trkpt>
      <trkpt lat="46.17638" lon="5.42937">
        <ele>340.6</ele>
        <time>2022-07-14T07:08:59Z</time>
      </trkpt>
      <trkpt lat="46.17615" lon="5.42919">
        <ele>341</ele>
        <time>2022-07-14T07:09:03Z</time>
      </trkpt>
      <trkpt lat="46.17587" lon="5.42891">
        <ele>341.4</ele>
        <time>2022-07-14T07:09:08Z</time>
      </trkpt>
      <trkpt lat="46.17556" lon="5.42857">
        <ele>341</ele>
        <time>2022-07-14T07:09:13Z</time>
      </trkpt>
      <trkpt lat="46.17514" lon="5.42814">
        <ele>340.2</ele>
        <time>2022-07-14T07:09:19Z</time>
      </trkpt>
      <trkpt lat="46.17506" lon="5.42807">
        <ele>340</ele>
        <time>2022-07-14T07:09:20Z</time>
      </trkpt>
      <trkpt lat="46.17472" lon="5.42777">
        <ele>339</ele>
        <time>2022-07-14T07:09:25Z</time>
      </trkpt>
      <trkpt lat="46.17441" lon="5.4275">
        <ele>338.4</ele>
        <time>2022-07-14T07:09:29Z</time>
      </trkpt>
      <trkpt lat="46.17391" lon="5.42708">
        <ele>338.4</ele>
        <time>2022-07-14T07:09:36Z</time>
      </trkpt>
      <trkpt lat="46.1737" lon="5.42689">
        <ele>338.2</ele>
        <time>2022-07-14T07:09:39Z</time>
      </trkpt>
      <trkpt lat="46.17334" lon="5.42656">
        <ele>337.8</ele>
        <time>2022-07-14T07:09:44Z</time>
      </trkpt>
      <trkpt lat="46.17311" lon="5.42634">
        <ele>337.4</ele>
        <time>2022-07-14T07:09:47Z</time>
      </trkpt>
      <trkpt lat="46.1728" lon="5.426">
        <ele>336.2</ele>
        <time>2022-07-14T07:09:51Z</time>
      </trkpt>
      <trkpt lat="46.17258" lon="5.42574">
        <ele>335.2</ele>
        <time>2022-07-14T07:09:54Z</time>
      </trkpt>
      <trkpt lat="46.17234" lon="5.42547">
        <ele>333.8</ele>
        <time>2022-07-14T07:09:57Z</time>
      </trkpt>
      <trkpt lat="46.17209" lon="5.42527">
        <ele>333</ele>
        <time>2022-07-14T07:10:00Z</time>
      </trkpt>
      <trkpt lat="46.17192" lon="5.42517">
        <ele>332.8</ele>
        <time>2022-07-14T07:10:02Z</time>
      </trkpt>
      <trkpt lat="46.17142" lon="5.42485">
        <ele>332</ele>
        <time>2022-07-14T07:10:08Z</time>
      </trkpt>
      <trkpt lat="46.17119" lon="5.42466">
        <ele>331.8</ele>
        <time>2022-07-14T07:10:11Z</time>
      </trkpt>
      <trkpt lat="46.17096" lon="5.42443">
        <ele>331.6</ele>
        <time>2022-07-14T07:10:14Z</time>
      </trkpt>
      <trkpt lat="46.1705" lon="5.42398">
        <ele>331</ele>
        <time>2022-07-14T07:10:20Z</time>
      </trkpt>
      <trkpt lat="46.17043" lon="5.42391">
        <ele>330.8</ele>
        <time>2022-07-14T07:10:21Z</time>
      </trkpt>
      <trkpt lat="46.17035" lon="5.42385">
        <ele>330.6</ele>
        <time>2022-07-14T07:10:22Z</time>
      </trkpt>
      <trkpt lat="46.1699" lon="5.42354">
        <ele>329.8</ele>
        <time>2022-07-14T07:10:28Z</time>
      </trkpt>
      <trkpt lat="46.16935" lon="5.42323">
        <ele>330.4</ele>
        <time>2022-07-14T07:10:35Z</time>
      </trkpt>
      <trkpt lat="46.16881" lon="5.42287">
        <ele>331.8</ele>
        <time>2022-07-14T07:10:43Z</time>
      </trkpt>
      <trkpt lat="46.16827" lon="5.42248">
        <ele>332.6</ele>
        <time>2022-07-14T07:10:51Z</time>
      </trkpt>
      <trkpt lat="46.16807" lon="5.42233">
        <ele>332.6</ele>
        <time>2022-07-14T07:10:54Z</time>
      </trkpt>
      <trkpt lat="46.16793" lon="5.42224">
        <ele>332.8</ele>
        <time>2022-07-14T07:10:56Z</time>
      </trkpt>
      <trkpt lat="46.16743" lon="5.42186">
        <ele>333.4</ele>
        <time>2022-07-14T07:11:04Z</time>
      </trkpt>
      <trkpt lat="46.16705" lon="5.42164">
        <ele>334</ele>
        <time>2022-07-14T07:11:10Z</time>
      </trkpt>
      <trkpt lat="46.16698" lon="5.42161">
        <ele>334</ele>
        <time>2022-07-14T07:11:11Z</time>
      </trkpt>
      <trkpt lat="46.16644" lon="5.4214">
        <ele>334.8</ele>
        <time>2022-07-14T07:11:19Z</time>
      </trkpt>
      <trkpt lat="46.1663" lon="5.42135">
        <ele>334.8</ele>
        <time>2022-07-14T07:11:21Z</time>
      </trkpt>
      <trkpt lat="46.16575" lon="5.42112">
        <ele>335</ele>
        <time>2022-07-14T07:11:29Z</time>
      </trkpt>
      <trkpt lat="46.16558" lon="5.42104">
        <ele>335.4</ele>
        <time>2022-07-14T07:11:32Z</time>
      </trkpt>
      <trkpt lat="46.1655" lon="5.42093">
        <ele>335.6</ele>
        <time>2022-07-14T07:11:34Z</time>
      </trkpt>
      <trkpt lat="46.16547" lon="5.42087">
        <ele>335.8</ele>
        <time>2022-07-14T07:11:35Z</time>
      </trkpt>
      <trkpt lat="46.16545" lon="5.4208">
        <ele>336</ele>
        <time>2022-07-14T07:11:36Z</time>
      </trkpt>
      <trkpt lat="46.16542" lon="5.42065">
        <ele>336.4</ele>
        <time>2022-07-14T07:11:38Z</time>
      </trkpt>
      <trkpt lat="46.16541" lon="5.42058">
        <ele>336.6</ele>
        <time>2022-07-14T07:11:39Z</time>
      </trkpt>
      <trkpt lat="46.16539" lon="5.42044">
        <ele>337.4</ele>
        <time>2022-07-14T07:11:41Z</time>
      </trkpt>
      <trkpt lat="46.16533" lon="5.42018">
        <ele>338.6</ele>
        <time>2022-07-14T07:11:45Z</time>
      </trkpt>
      <trkpt lat="46.16532" lon="5.42012">
        <ele>338.6</ele>
        <time>2022-07-14T07:11:46Z</time>
      </trkpt>
      <trkpt lat="46.16528" lon="5.41994">
        <ele>339.8</ele>
        <time>2022-07-14T07:11:49Z</time>
      </trkpt>
      <trkpt lat="46.16522" lon="5.41974">
        <ele>341.2</ele>
        <time>2022-07-14T07:11:52Z</time>
      </trkpt>
      <trkpt lat="46.16517" lon="5.41954">
        <ele>341.6</ele>
        <time>2022-07-14T07:11:55Z</time>
      </trkpt>
      <trkpt lat="46.16511" lon="5.4193">
        <ele>342.4</ele>
        <time>2022-07-14T07:11:59Z</time>
      </trkpt>
      <trkpt lat="46.16506" lon="5.41903">
        <ele>343.4</ele>
        <time>2022-07-14T07:12:03Z</time>
      </trkpt>
      <trkpt lat="46.16504" lon="5.41898">
        <ele>343.6</ele>
        <time>2022-07-14T07:12:04Z</time>
      </trkpt>
      <trkpt lat="46.16497" lon="5.41875">
        <ele>344.4</ele>
        <time>2022-07-14T07:12:08Z</time>
      </trkpt>
      <trkpt lat="46.16492" lon="5.41867">
        <ele>344.6</ele>
        <time>2022-07-14T07:12:10Z</time>
      </trkpt>
      <trkpt lat="46.16488" lon="5.41863">
        <ele>345</ele>
        <time>2022-07-14T07:12:11Z</time>
      </trkpt>
      <trkpt lat="46.1648" lon="5.41858">
        <ele>345.8</ele>
        <time>2022-07-14T07:12:13Z</time>
      </trkpt>
      <trkpt lat="46.16473" lon="5.41852">
        <ele>346</ele>
        <time>2022-07-14T07:12:15Z</time>
      </trkpt>
      <trkpt lat="46.1645" lon="5.41833">
        <ele>346.4</ele>
        <time>2022-07-14T07:12:20Z</time>
      </trkpt>
      <trkpt lat="46.16433" lon="5.41813">
        <ele>346.4</ele>
        <time>2022-07-14T07:12:24Z</time>
      </trkpt>
      <trkpt lat="46.16422" lon="5.41804">
        <ele>346</ele>
        <time>2022-07-14T07:12:26Z</time>
      </trkpt>
      <trkpt lat="46.16406" lon="5.41794">
        <ele>345.8</ele>
        <time>2022-07-14T07:12:29Z</time>
      </trkpt>
      <trkpt lat="46.16396" lon="5.41785">
        <ele>345.8</ele>
        <time>2022-07-14T07:12:31Z</time>
      </trkpt>
      <trkpt lat="46.16385" lon="5.41769">
        <ele>345.8</ele>
        <time>2022-07-14T07:12:34Z</time>
      </trkpt>
      <trkpt lat="46.16375" lon="5.41754">
        <ele>346.4</ele>
        <time>2022-07-14T07:12:37Z</time>
      </trkpt>
      <trkpt lat="46.1637" lon="5.41744">
        <ele>346.6</ele>
        <time>2022-07-14T07:12:39Z</time>
      </trkpt>
      <trkpt lat="46.16365" lon="5.41734">
        <ele>347.8</ele>
        <time>2022-07-14T07:12:41Z</time>
      </trkpt>
      <trkpt lat="46.1636" lon="5.41724">
        <ele>348.4</ele>
        <time>2022-07-14T07:12:43Z</time>
      </trkpt>
      <trkpt lat="46.16355" lon="5.41714">
        <ele>348.6</ele>
        <time>2022-07-14T07:12:45Z</time>
      </trkpt>
      <trkpt lat="46.16352" lon="5.4171">
        <ele>349</ele>
        <time>2022-07-14T07:12:46Z</time>
      </trkpt>
      <trkpt lat="46.16346" lon="5.41702">
        <ele>349.6</ele>
        <time>2022-07-14T07:12:48Z</time>
      </trkpt>
      <trkpt lat="46.16339" lon="5.41687">
        <ele>349.8</ele>
        <time>2022-07-14T07:12:51Z</time>
      </trkpt>
      <trkpt lat="46.16328" lon="5.41669">
        <ele>351</ele>
        <time>2022-07-14T07:12:55Z</time>
      </trkpt>
      <trkpt lat="46.16319" lon="5.41655">
        <ele>351.8</ele>
        <time>2022-07-14T07:12:58Z</time>
      </trkpt>
      <trkpt lat="46.16317" lon="5.4165">
        <ele>352.4</ele>
        <time>2022-07-14T07:12:59Z</time>
      </trkpt>
      <trkpt lat="46.16318" lon="5.41638">
        <ele>352.8</ele>
        <time>2022-07-14T07:13:01Z</time>
      </trkpt>
      <trkpt lat="46.16323" lon="5.41621">
        <ele>353</ele>
        <time>2022-07-14T07:13:04Z</time>
      </trkpt>
      <trkpt lat="46.16328" lon="5.41606">
        <ele>353</ele>
        <time>2022-07-14T07:13:06Z</time>
      </trkpt>
      <trkpt lat="46.16338" lon="5.41573">
        <ele>352.4</ele>
        <time>2022-07-14T07:13:10Z</time>
      </trkpt>
      <trkpt lat="46.16341" lon="5.41555">
        <ele>352.2</ele>
        <time>2022-07-14T07:13:12Z</time>
      </trkpt>
      <trkpt lat="46.16357" lon="5.41503">
        <ele>351.8</ele>
        <time>2022-07-14T07:13:19Z</time>
      </trkpt>
      <trkpt lat="46.16371" lon="5.41475">
        <ele>353</ele>
        <time>2022-07-14T07:13:24Z</time>
      </trkpt>
      <trkpt lat="46.16373" lon="5.4147">
        <ele>353.6</ele>
        <time>2022-07-14T07:13:25Z</time>
      </trkpt>
      <trkpt lat="46.16389" lon="5.4144">
        <ele>354.6</ele>
        <time>2022-07-14T07:13:31Z</time>
      </trkpt>
      <trkpt lat="46.16392" lon="5.41435">
        <ele>354.8</ele>
        <time>2022-07-14T07:13:32Z</time>
      </trkpt>
      <trkpt lat="46.16396" lon="5.41425">
        <ele>355</ele>
        <time>2022-07-14T07:13:34Z</time>
      </trkpt>
      <trkpt lat="46.16401" lon="5.41409">
        <ele>355.8</ele>
        <time>2022-07-14T07:13:37Z</time>
      </trkpt>
      <trkpt lat="46.16406" lon="5.41387">
        <ele>357</ele>
        <time>2022-07-14T07:13:41Z</time>
      </trkpt>
      <trkpt lat="46.16408" lon="5.41373">
        <ele>358</ele>
        <time>2022-07-14T07:13:44Z</time>
      </trkpt>
      <trkpt lat="46.16408" lon="5.41368">
        <ele>358.2</ele>
        <time>2022-07-14T07:13:45Z</time>
      </trkpt>
      <trkpt lat="46.16409" lon="5.41349">
        <ele>359.2</ele>
        <time>2022-07-14T07:13:49Z</time>
      </trkpt>
      <trkpt lat="46.16408" lon="5.41339">
        <ele>360</ele>
        <time>2022-07-14T07:13:51Z</time>
      </trkpt>
      <trkpt lat="46.16406" lon="5.41331">
        <ele>360.4</ele>
        <time>2022-07-14T07:13:53Z</time>
      </trkpt>
      <trkpt lat="46.16403" lon="5.41316">
        <ele>361.4</ele>
        <time>2022-07-14T07:13:57Z</time>
      </trkpt>
      <trkpt lat="46.16401" lon="5.41304">
        <ele>363</ele>
        <time>2022-07-14T07:14:00Z</time>
      </trkpt>
      <trkpt lat="46.16398" lon="5.41294">
        <ele>363.8</ele>
        <time>2022-07-14T07:14:03Z</time>
      </trkpt>
      <trkpt lat="46.16398" lon="5.41291">
        <ele>364.2</ele>
        <time>2022-07-14T07:14:04Z</time>
      </trkpt>
      <trkpt lat="46.16395" lon="5.41281">
        <ele>365.4</ele>
        <time>2022-07-14T07:14:07Z</time>
      </trkpt>
      <trkpt lat="46.16395" lon="5.41274">
        <ele>365.8</ele>
        <time>2022-07-14T07:14:09Z</time>
      </trkpt>
      <trkpt lat="46.16394" lon="5.41267">
        <ele>366.6</ele>
        <time>2022-07-14T07:14:11Z</time>
      </trkpt>
      <trkpt lat="46.16391" lon="5.41252">
        <ele>367.6</ele>
        <time>2022-07-14T07:14:15Z</time>
      </trkpt>
      <trkpt lat="46.16391" lon="5.41241">
        <ele>368.8</ele>
        <time>2022-07-14T07:14:18Z</time>
      </trkpt>
      <trkpt lat="46.16392" lon="5.41223">
        <ele>369.8</ele>
        <time>2022-07-14T07:14:23Z</time>
      </trkpt>
      <trkpt lat="46.16393" lon="5.41211">
        <ele>370.4</ele>
        <time>2022-07-14T07:14:26Z</time>
      </trkpt>
      <trkpt lat="46.16393" lon="5.41206">
        <ele>371.4</ele>
        <time>2022-07-14T07:14:28Z</time>
      </trkpt>
      <trkpt lat="46.16396" lon="5.41186">
        <ele>372.6</ele>
        <time>2022-07-14T07:14:33Z</time>
      </trkpt>
      <trkpt lat="46.16397" lon="5.41178">
        <ele>373.2</ele>
        <time>2022-07-14T07:14:35Z</time>
      </trkpt>
      <trkpt lat="46.16398" lon="5.41171">
        <ele>373.6</ele>
        <time>2022-07-14T07:14:37Z</time>
      </trkpt>
      <trkpt lat="46.164" lon="5.4116">
        <ele>374.6</ele>
        <time>2022-07-14T07:14:40Z</time>
      </trkpt>
      <trkpt lat="46.16403" lon="5.41146">
        <ele>375.4</ele>
        <time>2022-07-14T07:14:44Z</time>
      </trkpt>
      <trkpt lat="46.16404" lon="5.41139">
        <ele>376</ele>
        <time>2022-07-14T07:14:46Z</time>
      </trkpt>
      <trkpt lat="46.16406" lon="5.41122">
        <ele>377.4</ele>
        <time>2022-07-14T07:14:51Z</time>
      </trkpt>
      <trkpt lat="46.16409" lon="5.41104">
        <ele>378.6</ele>
        <time>2022-07-14T07:14:56Z</time>
      </trkpt>
      <trkpt lat="46.16411" lon="5.4109">
        <ele>379.8</ele>
        <time>2022-07-14T07:15:00Z</time>
      </trkpt>
      <trkpt lat="46.16415" lon="5.41074">
        <ele>381.2</ele>
        <time>2022-07-14T07:15:05Z</time>
      </trkpt>
      <trkpt lat="46.16417" lon="5.41067">
        <ele>381.8</ele>
        <time>2022-07-14T07:15:07Z</time>
      </trkpt>
      <trkpt lat="46.16422" lon="5.41061">
        <ele>382.4</ele>
        <time>2022-07-14T07:15:10Z</time>
      </trkpt>
      <trkpt lat="46.16427" lon="5.41059">
        <ele>383</ele>
        <time>2022-07-14T07:15:12Z</time>
      </trkpt>
      <trkpt lat="46.16435" lon="5.4106">
        <ele>383.6</ele>
        <time>2022-07-14T07:15:15Z</time>
      </trkpt>
      <trkpt lat="46.1644" lon="5.41063">
        <ele>384.2</ele>
        <time>2022-07-14T07:15:17Z</time>
      </trkpt>
      <trkpt lat="46.16445" lon="5.41067">
        <ele>384.6</ele>
        <time>2022-07-14T07:15:19Z</time>
      </trkpt>
      <trkpt lat="46.16457" lon="5.41075">
        <ele>385.6</ele>
        <time>2022-07-14T07:15:24Z</time>
      </trkpt>
      <trkpt lat="46.16462" lon="5.41078">
        <ele>386.2</ele>
        <time>2022-07-14T07:15:26Z</time>
      </trkpt>
      <trkpt lat="46.16465" lon="5.41081">
        <ele>386.8</ele>
        <time>2022-07-14T07:15:28Z</time>
      </trkpt>
      <trkpt lat="46.16478" lon="5.41088">
        <ele>387.8</ele>
        <time>2022-07-14T07:15:33Z</time>
      </trkpt>
      <trkpt lat="46.1648" lon="5.41089">
        <ele>388</ele>
        <time>2022-07-14T07:15:34Z</time>
      </trkpt>
      <trkpt lat="46.16484" lon="5.41086">
        <ele>388.4</ele>
        <time>2022-07-14T07:15:36Z</time>
      </trkpt>
      <trkpt lat="46.16488" lon="5.41078">
        <ele>389</ele>
        <time>2022-07-14T07:15:39Z</time>
      </trkpt>
      <trkpt lat="46.16488" lon="5.41064">
        <ele>390</ele>
        <time>2022-07-14T07:15:43Z</time>
      </trkpt>
      <trkpt lat="46.16487" lon="5.41052">
        <ele>391.2</ele>
        <time>2022-07-14T07:15:46Z</time>
      </trkpt>
      <trkpt lat="46.16484" lon="5.41041">
        <ele>392.2</ele>
        <time>2022-07-14T07:15:49Z</time>
      </trkpt>
      <trkpt lat="46.16479" lon="5.41024">
        <ele>393.4</ele>
        <time>2022-07-14T07:15:54Z</time>
      </trkpt>
      <trkpt lat="46.16478" lon="5.41021">
        <ele>393.4</ele>
        <time>2022-07-14T07:15:55Z</time>
      </trkpt>
      <trkpt lat="46.16468" lon="5.41007">
        <ele>394.6</ele>
        <time>2022-07-14T07:16:00Z</time>
      </trkpt>
      <trkpt lat="46.16461" lon="5.40998">
        <ele>395.4</ele>
        <time>2022-07-14T07:16:03Z</time>
      </trkpt>
      <trkpt lat="46.16457" lon="5.40992">
        <ele>395.8</ele>
        <time>2022-07-14T07:16:05Z</time>
      </trkpt>
      <trkpt lat="46.16449" lon="5.40977">
        <ele>397</ele>
        <time>2022-07-14T07:16:10Z</time>
      </trkpt>
      <trkpt lat="46.16441" lon="5.40959">
        <ele>398.2</ele>
        <time>2022-07-14T07:16:15Z</time>
      </trkpt>
      <trkpt lat="46.16437" lon="5.40949">
        <ele>399</ele>
        <time>2022-07-14T07:16:18Z</time>
      </trkpt>
      <trkpt lat="46.16436" lon="5.40946">
        <ele>399.2</ele>
        <time>2022-07-14T07:16:19Z</time>
      </trkpt>
      <trkpt lat="46.16432" lon="5.40931">
        <ele>400.4</ele>
        <time>2022-07-14T07:16:23Z</time>
      </trkpt>
      <trkpt lat="46.16433" lon="5.40927">
        <ele>400.6</ele>
        <time>2022-07-14T07:16:24Z</time>
      </trkpt>
      <trkpt lat="46.1644" lon="5.40909">
        <ele>401.4</ele>
        <time>2022-07-14T07:16:28Z</time>
      </trkpt>
      <trkpt lat="46.16441" lon="5.40904">
        <ele>401.8</ele>
        <time>2022-07-14T07:16:29Z</time>
      </trkpt>
      <trkpt lat="46.16447" lon="5.40884">
        <ele>402.4</ele>
        <time>2022-07-14T07:16:33Z</time>
      </trkpt>
      <trkpt lat="46.1645" lon="5.40872">
        <ele>402.6</ele>
        <time>2022-07-14T07:16:35Z</time>
      </trkpt>
      <trkpt lat="46.16452" lon="5.40836">
        <ele>403.4</ele>
        <time>2022-07-14T07:16:40Z</time>
      </trkpt>
      <trkpt lat="46.16453" lon="5.40797">
        <ele>403.4</ele>
        <time>2022-07-14T07:16:45Z</time>
      </trkpt>
      <trkpt lat="46.16453" lon="5.40788">
        <ele>403.4</ele>
        <time>2022-07-14T07:16:46Z</time>
      </trkpt>
      <trkpt lat="46.16462" lon="5.40732">
        <ele>403</ele>
        <time>2022-07-14T07:16:52Z</time>
      </trkpt>
      <trkpt lat="46.16476" lon="5.40694">
        <ele>402.4</ele>
        <time>2022-07-14T07:16:57Z</time>
      </trkpt>
      <trkpt lat="46.16484" lon="5.40679">
        <ele>402</ele>
        <time>2022-07-14T07:16:58Z</time>
      </trkpt>
      <trkpt lat="46.16499" lon="5.40659">
        <ele>401.6</ele>
        <time>2022-07-14T07:17:00Z</time>
      </trkpt>
      <trkpt lat="46.16506" lon="5.40651">
        <ele>401.4</ele>
        <time>2022-07-14T07:17:01Z</time>
      </trkpt>
      <trkpt lat="46.16514" lon="5.40644">
        <ele>401</ele>
        <time>2022-07-14T07:17:02Z</time>
      </trkpt>
      <trkpt lat="46.16538" lon="5.40626">
        <ele>399.8</ele>
        <time>2022-07-14T07:17:05Z</time>
      </trkpt>
      <trkpt lat="46.16547" lon="5.4062">
        <ele>399.6</ele>
        <time>2022-07-14T07:17:06Z</time>
      </trkpt>
      <trkpt lat="46.16565" lon="5.40607">
        <ele>398.2</ele>
        <time>2022-07-14T07:17:08Z</time>
      </trkpt>
      <trkpt lat="46.16583" lon="5.40595">
        <ele>397</ele>
        <time>2022-07-14T07:17:10Z</time>
      </trkpt>
      <trkpt lat="46.16602" lon="5.40586">
        <ele>396</ele>
        <time>2022-07-14T07:17:12Z</time>
      </trkpt>
      <trkpt lat="46.16634" lon="5.40584">
        <ele>394.6</ele>
        <time>2022-07-14T07:17:15Z</time>
      </trkpt>
      <trkpt lat="46.16645" lon="5.40587">
        <ele>394.4</ele>
        <time>2022-07-14T07:17:16Z</time>
      </trkpt>
      <trkpt lat="46.16656" lon="5.40591">
        <ele>393.6</ele>
        <time>2022-07-14T07:17:17Z</time>
      </trkpt>
      <trkpt lat="46.16666" lon="5.40597">
        <ele>393.2</ele>
        <time>2022-07-14T07:17:18Z</time>
      </trkpt>
      <trkpt lat="46.16687" lon="5.40611">
        <ele>391.8</ele>
        <time>2022-07-14T07:17:20Z</time>
      </trkpt>
      <trkpt lat="46.16709" lon="5.40624">
        <ele>390.2</ele>
        <time>2022-07-14T07:17:22Z</time>
      </trkpt>
      <trkpt lat="46.16731" lon="5.40634">
        <ele>389</ele>
        <time>2022-07-14T07:17:24Z</time>
      </trkpt>
      <trkpt lat="46.16743" lon="5.40637">
        <ele>388.8</ele>
        <time>2022-07-14T07:17:25Z</time>
      </trkpt>
      <trkpt lat="46.16756" lon="5.40639">
        <ele>388</ele>
        <time>2022-07-14T07:17:26Z</time>
      </trkpt>
      <trkpt lat="46.16781" lon="5.40636">
        <ele>386.8</ele>
        <time>2022-07-14T07:17:28Z</time>
      </trkpt>
      <trkpt lat="46.168" lon="5.40626">
        <ele>385.8</ele>
        <time>2022-07-14T07:17:30Z</time>
      </trkpt>
      <trkpt lat="46.1681" lon="5.40619">
        <ele>384.8</ele>
        <time>2022-07-14T07:17:31Z</time>
      </trkpt>
      <trkpt lat="46.16821" lon="5.40611">
        <ele>384.2</ele>
        <time>2022-07-14T07:17:32Z</time>
      </trkpt>
      <trkpt lat="46.16832" lon="5.40604">
        <ele>383.2</ele>
        <time>2022-07-14T07:17:33Z</time>
      </trkpt>
      <trkpt lat="46.16854" lon="5.40589">
        <ele>382</ele>
        <time>2022-07-14T07:17:35Z</time>
      </trkpt>
      <trkpt lat="46.16864" lon="5.40581">
        <ele>380.8</ele>
        <time>2022-07-14T07:17:36Z</time>
      </trkpt>
      <trkpt lat="46.16897" lon="5.4056">
        <ele>379.4</ele>
        <time>2022-07-14T07:17:39Z</time>
      </trkpt>
      <trkpt lat="46.1692" lon="5.40546">
        <ele>377.4</ele>
        <time>2022-07-14T07:17:41Z</time>
      </trkpt>
      <trkpt lat="46.16943" lon="5.4053">
        <ele>376.2</ele>
        <time>2022-07-14T07:17:43Z</time>
      </trkpt>
      <trkpt lat="46.16955" lon="5.40522">
        <ele>375.8</ele>
        <time>2022-07-14T07:17:44Z</time>
      </trkpt>
      <trkpt lat="46.16976" lon="5.40502">
        <ele>375</ele>
        <time>2022-07-14T07:17:46Z</time>
      </trkpt>
      <trkpt lat="46.16986" lon="5.4049">
        <ele>374.4</ele>
        <time>2022-07-14T07:17:47Z</time>
      </trkpt>
      <trkpt lat="46.16995" lon="5.40477">
        <ele>373</ele>
        <time>2022-07-14T07:17:48Z</time>
      </trkpt>
      <trkpt lat="46.17004" lon="5.40463">
        <ele>372.4</ele>
        <time>2022-07-14T07:17:49Z</time>
      </trkpt>
      <trkpt lat="46.17011" lon="5.40449">
        <ele>371.6</ele>
        <time>2022-07-14T07:17:50Z</time>
      </trkpt>
      <trkpt lat="46.17024" lon="5.40417">
        <ele>370.6</ele>
        <time>2022-07-14T07:17:52Z</time>
      </trkpt>
      <trkpt lat="46.17032" lon="5.40385">
        <ele>368.6</ele>
        <time>2022-07-14T07:17:54Z</time>
      </trkpt>
      <trkpt lat="46.17034" lon="5.40368">
        <ele>367.6</ele>
        <time>2022-07-14T07:17:55Z</time>
      </trkpt>
      <trkpt lat="46.17035" lon="5.4035">
        <ele>366.2</ele>
        <time>2022-07-14T07:17:57Z</time>
      </trkpt>
      <trkpt lat="46.17036" lon="5.40322">
        <ele>365.8</ele>
        <time>2022-07-14T07:17:58Z</time>
      </trkpt>
      <trkpt lat="46.17034" lon="5.40304">
        <ele>365</ele>
        <time>2022-07-14T07:17:59Z</time>
      </trkpt>
      <trkpt lat="46.1703" lon="5.40279">
        <ele>364.8</ele>
        <time>2022-07-14T07:18:00Z</time>
      </trkpt>
      <trkpt lat="46.17025" lon="5.40261">
        <ele>364</ele>
        <time>2022-07-14T07:18:01Z</time>
      </trkpt>
      <trkpt lat="46.17019" lon="5.40244">
        <ele>362.8</ele>
        <time>2022-07-14T07:18:02Z</time>
      </trkpt>
      <trkpt lat="46.17002" lon="5.40214">
        <ele>361.6</ele>
        <time>2022-07-14T07:18:04Z</time>
      </trkpt>
      <trkpt lat="46.16982" lon="5.40188">
        <ele>360.2</ele>
        <time>2022-07-14T07:18:06Z</time>
      </trkpt>
      <trkpt lat="46.1697" lon="5.40178">
        <ele>359.8</ele>
        <time>2022-07-14T07:18:07Z</time>
      </trkpt>
      <trkpt lat="46.16958" lon="5.40169">
        <ele>358.8</ele>
        <time>2022-07-14T07:18:08Z</time>
      </trkpt>
      <trkpt lat="46.16933" lon="5.40155">
        <ele>357.6</ele>
        <time>2022-07-14T07:18:10Z</time>
      </trkpt>
      <trkpt lat="46.1692" lon="5.40149">
        <ele>356.6</ele>
        <time>2022-07-14T07:18:11Z</time>
      </trkpt>
      <trkpt lat="46.16907" lon="5.40143">
        <ele>356</ele>
        <time>2022-07-14T07:18:12Z</time>
      </trkpt>
      <trkpt lat="46.16894" lon="5.40137">
        <ele>355</ele>
        <time>2022-07-14T07:18:13Z</time>
      </trkpt>
      <trkpt lat="46.16868" lon="5.40125">
        <ele>353.4</ele>
        <time>2022-07-14T07:18:15Z</time>
      </trkpt>
      <trkpt lat="46.1683" lon="5.40108">
        <ele>351.4</ele>
        <time>2022-07-14T07:18:18Z</time>
      </trkpt>
      <trkpt lat="46.16805" lon="5.401">
        <ele>349.8</ele>
        <time>2022-07-14T07:18:20Z</time>
      </trkpt>
      <trkpt lat="46.16766" lon="5.40093">
        <ele>348.8</ele>
        <time>2022-07-14T07:18:23Z</time>
      </trkpt>
      <trkpt lat="46.16741" lon="5.40089">
        <ele>347</ele>
        <time>2022-07-14T07:18:25Z</time>
      </trkpt>
      <trkpt lat="46.16714" lon="5.40089">
        <ele>345.6</ele>
        <time>2022-07-14T07:18:27Z</time>
      </trkpt>
      <trkpt lat="46.16701" lon="5.4009">
        <ele>345.2</ele>
        <time>2022-07-14T07:18:28Z</time>
      </trkpt>
      <trkpt lat="46.16676" lon="5.4009">
        <ele>344.4</ele>
        <time>2022-07-14T07:18:30Z</time>
      </trkpt>
      <trkpt lat="46.16663" lon="5.40088">
        <ele>343.4</ele>
        <time>2022-07-14T07:18:31Z</time>
      </trkpt>
      <trkpt lat="46.1665" lon="5.40085">
        <ele>342.6</ele>
        <time>2022-07-14T07:18:32Z</time>
      </trkpt>
      <trkpt lat="46.16638" lon="5.4008">
        <ele>342.4</ele>
        <time>2022-07-14T07:18:33Z</time>
      </trkpt>
      <trkpt lat="46.16626" lon="5.40073">
        <ele>341.4</ele>
        <time>2022-07-14T07:18:34Z</time>
      </trkpt>
      <trkpt lat="46.16615" lon="5.40063">
        <ele>341.2</ele>
        <time>2022-07-14T07:18:35Z</time>
      </trkpt>
      <trkpt lat="46.16604" lon="5.40052">
        <ele>340</ele>
        <time>2022-07-14T07:18:36Z</time>
      </trkpt>
      <trkpt lat="46.16595" lon="5.40039">
        <ele>339.6</ele>
        <time>2022-07-14T07:18:37Z</time>
      </trkpt>
      <trkpt lat="46.16587" lon="5.40025">
        <ele>338.8</ele>
        <time>2022-07-14T07:18:38Z</time>
      </trkpt>
      <trkpt lat="46.16578" lon="5.40011">
        <ele>337.6</ele>
        <time>2022-07-14T07:18:39Z</time>
      </trkpt>
      <trkpt lat="46.16571" lon="5.39998">
        <ele>337</ele>
        <time>2022-07-14T07:18:40Z</time>
      </trkpt>
      <trkpt lat="46.16563" lon="5.39984">
        <ele>336</ele>
        <time>2022-07-14T07:18:41Z</time>
      </trkpt>
      <trkpt lat="46.16548" lon="5.39953">
        <ele>334.6</ele>
        <time>2022-07-14T07:18:43Z</time>
      </trkpt>
      <trkpt lat="46.16534" lon="5.39921">
        <ele>333.2</ele>
        <time>2022-07-14T07:18:45Z</time>
      </trkpt>
      <trkpt lat="46.16519" lon="5.3989">
        <ele>332</ele>
        <time>2022-07-14T07:18:47Z</time>
      </trkpt>
      <trkpt lat="46.16503" lon="5.39859">
        <ele>330.6</ele>
        <time>2022-07-14T07:18:49Z</time>
      </trkpt>
      <trkpt lat="46.16496" lon="5.39842">
        <ele>329.4</ele>
        <time>2022-07-14T07:18:50Z</time>
      </trkpt>
      <trkpt lat="46.16483" lon="5.39809">
        <ele>328.2</ele>
        <time>2022-07-14T07:18:52Z</time>
      </trkpt>
      <trkpt lat="46.1647" lon="5.39775">
        <ele>327</ele>
        <time>2022-07-14T07:18:54Z</time>
      </trkpt>
      <trkpt lat="46.16463" lon="5.39759">
        <ele>326.2</ele>
        <time>2022-07-14T07:18:55Z</time>
      </trkpt>
      <trkpt lat="46.16463" lon="5.39759">
        <ele>325.8</ele>
        <time>2022-07-14T07:18:56Z</time>
      </trkpt>
      <trkpt lat="46.16454" lon="5.3974">
        <ele>324.6</ele>
        <time>2022-07-14T07:18:57Z</time>
      </trkpt>
      <trkpt lat="46.16444" lon="5.39719">
        <ele>324</ele>
        <time>2022-07-14T07:18:58Z</time>
      </trkpt>
      <trkpt lat="46.16435" lon="5.39705">
        <ele>322.8</ele>
        <time>2022-07-14T07:18:59Z</time>
      </trkpt>
      <trkpt lat="46.16422" lon="5.39687">
        <ele>322</ele>
        <time>2022-07-14T07:19:00Z</time>
      </trkpt>
      <trkpt lat="46.16412" lon="5.39675">
        <ele>321.6</ele>
        <time>2022-07-14T07:19:01Z</time>
      </trkpt>
      <trkpt lat="46.16379" lon="5.39644">
        <ele>319.2</ele>
        <time>2022-07-14T07:19:04Z</time>
      </trkpt>
      <trkpt lat="46.16368" lon="5.39635">
        <ele>318.6</ele>
        <time>2022-07-14T07:19:05Z</time>
      </trkpt>
      <trkpt lat="46.16357" lon="5.39627">
        <ele>317.6</ele>
        <time>2022-07-14T07:19:06Z</time>
      </trkpt>
      <trkpt lat="46.16334" lon="5.39612">
        <ele>316.2</ele>
        <time>2022-07-14T07:19:08Z</time>
      </trkpt>
      <trkpt lat="46.16312" lon="5.39597">
        <ele>314.6</ele>
        <time>2022-07-14T07:19:10Z</time>
      </trkpt>
      <trkpt lat="46.16289" lon="5.39583">
        <ele>313.2</ele>
        <time>2022-07-14T07:19:12Z</time>
      </trkpt>
      <trkpt lat="46.16278" lon="5.39576">
        <ele>312</ele>
        <time>2022-07-14T07:19:13Z</time>
      </trkpt>
      <trkpt lat="46.16244" lon="5.39554">
        <ele>310.6</ele>
        <time>2022-07-14T07:19:16Z</time>
      </trkpt>
      <trkpt lat="46.16221" lon="5.39539">
        <ele>309.6</ele>
        <time>2022-07-14T07:19:18Z</time>
      </trkpt>
      <trkpt lat="46.16211" lon="5.3953">
        <ele>309.4</ele>
        <time>2022-07-14T07:19:19Z</time>
      </trkpt>
      <trkpt lat="46.162" lon="5.39522">
        <ele>308.6</ele>
        <time>2022-07-14T07:19:20Z</time>
      </trkpt>
      <trkpt lat="46.16189" lon="5.39513">
        <ele>308.2</ele>
        <time>2022-07-14T07:19:21Z</time>
      </trkpt>
      <trkpt lat="46.16168" lon="5.39495">
        <ele>306.6</ele>
        <time>2022-07-14T07:19:23Z</time>
      </trkpt>
      <trkpt lat="46.16137" lon="5.39468">
        <ele>305</ele>
        <time>2022-07-14T07:19:26Z</time>
      </trkpt>
      <trkpt lat="46.16127" lon="5.3946">
        <ele>304</ele>
        <time>2022-07-14T07:19:27Z</time>
      </trkpt>
      <trkpt lat="46.16117" lon="5.39452">
        <ele>303.6</ele>
        <time>2022-07-14T07:19:28Z</time>
      </trkpt>
      <trkpt lat="46.16101" lon="5.39437">
        <ele>302.2</ele>
        <time>2022-07-14T07:19:30Z</time>
      </trkpt>
      <trkpt lat="46.16089" lon="5.39422">
        <ele>301</ele>
        <time>2022-07-14T07:19:32Z</time>
      </trkpt>
      <trkpt lat="46.16085" lon="5.39415">
        <ele>301</ele>
        <time>2022-07-14T07:19:33Z</time>
      </trkpt>
      <trkpt lat="46.16084" lon="5.39406">
        <ele>300.6</ele>
        <time>2022-07-14T07:19:34Z</time>
      </trkpt>
      <trkpt lat="46.16086" lon="5.39397">
        <ele>300.4</ele>
        <time>2022-07-14T07:19:35Z</time>
      </trkpt>
      <trkpt lat="46.16091" lon="5.39391">
        <ele>300.4</ele>
        <time>2022-07-14T07:19:36Z</time>
      </trkpt>
      <trkpt lat="46.16096" lon="5.39388">
        <ele>300</ele>
        <time>2022-07-14T07:19:37Z</time>
      </trkpt>
      <trkpt lat="46.16102" lon="5.39386">
        <ele>300</ele>
        <time>2022-07-14T07:19:38Z</time>
      </trkpt>
      <trkpt lat="46.16108" lon="5.39386">
        <ele>299.2</ele>
        <time>2022-07-14T07:19:39Z</time>
      </trkpt>
      <trkpt lat="46.16122" lon="5.39389">
        <ele>298.8</ele>
        <time>2022-07-14T07:19:41Z</time>
      </trkpt>
      <trkpt lat="46.1613" lon="5.3939">
        <ele>298.8</ele>
        <time>2022-07-14T07:19:42Z</time>
      </trkpt>
      <trkpt lat="46.16181" lon="5.39391">
        <ele>299</ele>
        <time>2022-07-14T07:19:49Z</time>
      </trkpt>
      <trkpt lat="46.16223" lon="5.39391">
        <ele>300</ele>
        <time>2022-07-14T07:19:55Z</time>
      </trkpt>
      <trkpt lat="46.16223" lon="5.39391">
        <ele>300</ele>
        <time>2022-07-14T07:19:56Z</time>
      </trkpt>
      <trkpt lat="46.16257" lon="5.39392">
        <ele>300.8</ele>
        <time>2022-07-14T07:20:00Z</time>
      </trkpt>
      <trkpt lat="46.1627" lon="5.39394">
        <ele>301.2</ele>
        <time>2022-07-14T07:20:02Z</time>
      </trkpt>
      <trkpt lat="46.16277" lon="5.39396">
        <ele>301.2</ele>
        <time>2022-07-14T07:20:03Z</time>
      </trkpt>
      <trkpt lat="46.16334" lon="5.39413">
        <ele>302</ele>
        <time>2022-07-14T07:20:12Z</time>
      </trkpt>
      <trkpt lat="46.16354" lon="5.39422">
        <ele>302.2</ele>
        <time>2022-07-14T07:20:15Z</time>
      </trkpt>
      <trkpt lat="46.16389" lon="5.39438">
        <ele>302</ele>
        <time>2022-07-14T07:20:20Z</time>
      </trkpt>
      <trkpt lat="46.16446" lon="5.39467">
        <ele>301.8</ele>
        <time>2022-07-14T07:20:28Z</time>
      </trkpt>
      <trkpt lat="46.1646" lon="5.39474">
        <ele>301.8</ele>
        <time>2022-07-14T07:20:30Z</time>
      </trkpt>
      <trkpt lat="46.16516" lon="5.395">
        <ele>302.2</ele>
        <time>2022-07-14T07:20:38Z</time>
      </trkpt>
      <trkpt lat="46.1653" lon="5.39505">
        <ele>302.4</ele>
        <time>2022-07-14T07:20:40Z</time>
      </trkpt>
      <trkpt lat="46.16589" lon="5.39516">
        <ele>302.4</ele>
        <time>2022-07-14T07:20:48Z</time>
      </trkpt>
      <trkpt lat="46.16649" lon="5.39513">
        <ele>302.2</ele>
        <time>2022-07-14T07:20:56Z</time>
      </trkpt>
      <trkpt lat="46.16705" lon="5.39519">
        <ele>301.8</ele>
        <time>2022-07-14T07:21:03Z</time>
      </trkpt>
      <trkpt lat="46.16763" lon="5.39527">
        <ele>301.4</ele>
        <time>2022-07-14T07:21:10Z</time>
      </trkpt>
      <trkpt lat="46.16771" lon="5.39528">
        <ele>301.4</ele>
        <time>2022-07-14T07:21:11Z</time>
      </trkpt>
      <trkpt lat="46.1678" lon="5.3953">
        <ele>301.2</ele>
        <time>2022-07-14T07:21:12Z</time>
      </trkpt>
      <trkpt lat="46.16788" lon="5.39531">
        <ele>301.2</ele>
        <time>2022-07-14T07:21:13Z</time>
      </trkpt>
      <trkpt lat="46.16846" lon="5.39539">
        <ele>300.6</ele>
        <time>2022-07-14T07:21:20Z</time>
      </trkpt>
      <trkpt lat="46.16895" lon="5.39546">
        <ele>300.4</ele>
        <time>2022-07-14T07:21:26Z</time>
      </trkpt>
      <trkpt lat="46.16936" lon="5.39552">
        <ele>300.2</ele>
        <time>2022-07-14T07:21:31Z</time>
      </trkpt>
      <trkpt lat="46.16993" lon="5.39558">
        <ele>300.2</ele>
        <time>2022-07-14T07:21:38Z</time>
      </trkpt>
      <trkpt lat="46.17017" lon="5.39561">
        <ele>300</ele>
        <time>2022-07-14T07:21:41Z</time>
      </trkpt>
      <trkpt lat="46.1706" lon="5.39565">
        <ele>299.4</ele>
        <time>2022-07-14T07:21:46Z</time>
      </trkpt>
      <trkpt lat="46.17096" lon="5.39568">
        <ele>298.6</ele>
        <time>2022-07-14T07:21:50Z</time>
      </trkpt>
      <trkpt lat="46.17113" lon="5.3957">
        <ele>298.4</ele>
        <time>2022-07-14T07:21:52Z</time>
      </trkpt>
      <trkpt lat="46.17147" lon="5.39573">
        <ele>297.2</ele>
        <time>2022-07-14T07:21:56Z</time>
      </trkpt>
      <trkpt lat="46.17152" lon="5.39573">
        <ele>297</ele>
        <time>2022-07-14T07:21:57Z</time>
      </trkpt>
      <trkpt lat="46.17203" lon="5.39578">
        <ele>296.6</ele>
        <time>2022-07-14T07:22:03Z</time>
      </trkpt>
      <trkpt lat="46.17258" lon="5.39583">
        <ele>297.2</ele>
        <time>2022-07-14T07:22:10Z</time>
      </trkpt>
      <trkpt lat="46.17282" lon="5.39586">
        <ele>297.4</ele>
        <time>2022-07-14T07:22:13Z</time>
      </trkpt>
      <trkpt lat="46.17329" lon="5.39587">
        <ele>297.2</ele>
        <time>2022-07-14T07:22:19Z</time>
      </trkpt>
      <trkpt lat="46.17337" lon="5.39586">
        <ele>297</ele>
        <time>2022-07-14T07:22:20Z</time>
      </trkpt>
      <trkpt lat="46.17372" lon="5.39566">
        <ele>296.8</ele>
        <time>2022-07-14T07:22:25Z</time>
      </trkpt>
      <trkpt lat="46.17374" lon="5.39538">
        <ele>296.6</ele>
        <time>2022-07-14T07:22:27Z</time>
      </trkpt>
      <trkpt lat="46.1738" lon="5.39455">
        <ele>296.2</ele>
        <time>2022-07-14T07:22:33Z</time>
      </trkpt>
      <trkpt lat="46.17384" lon="5.39417">
        <ele>296</ele>
        <time>2022-07-14T07:22:36Z</time>
      </trkpt>
      <trkpt lat="46.17394" lon="5.39332">
        <ele>295.8</ele>
        <time>2022-07-14T07:22:43Z</time>
      </trkpt>
      <trkpt lat="46.17398" lon="5.39297">
        <ele>295.8</ele>
        <time>2022-07-14T07:22:46Z</time>
      </trkpt>
      <trkpt lat="46.17408" lon="5.39227">
        <ele>295.8</ele>
        <time>2022-07-14T07:22:52Z</time>
      </trkpt>
      <trkpt lat="46.17414" lon="5.39197">
        <ele>295.6</ele>
        <time>2022-07-14T07:22:55Z</time>
      </trkpt>
      <trkpt lat="46.17418" lon="5.39187">
        <ele>295.4</ele>
        <time>2022-07-14T07:22:56Z</time>
      </trkpt>
      <trkpt lat="46.17424" lon="5.39178">
        <ele>295.4</ele>
        <time>2022-07-14T07:22:57Z</time>
      </trkpt>
      <trkpt lat="46.17437" lon="5.3917">
        <ele>295.4</ele>
        <time>2022-07-14T07:22:59Z</time>
      </trkpt>
      <trkpt lat="46.17475" lon="5.39158">
        <ele>294.4</ele>
        <time>2022-07-14T07:23:04Z</time>
      </trkpt>
      <trkpt lat="46.17481" lon="5.39155">
        <ele>294.2</ele>
        <time>2022-07-14T07:23:05Z</time>
      </trkpt>
      <trkpt lat="46.17498" lon="5.39144">
        <ele>294</ele>
        <time>2022-07-14T07:23:07Z</time>
      </trkpt>
      <trkpt lat="46.17512" lon="5.3913">
        <ele>293.8</ele>
        <time>2022-07-14T07:23:09Z</time>
      </trkpt>
      <trkpt lat="46.17539" lon="5.39095">
        <ele>293.2</ele>
        <time>2022-07-14T07:23:13Z</time>
      </trkpt>
      <trkpt lat="46.17553" lon="5.39077">
        <ele>292.6</ele>
        <time>2022-07-14T07:23:15Z</time>
      </trkpt>
      <trkpt lat="46.17559" lon="5.39069">
        <ele>292.2</ele>
        <time>2022-07-14T07:23:16Z</time>
      </trkpt>
      <trkpt lat="46.17574" lon="5.39059">
        <ele>291.4</ele>
        <time>2022-07-14T07:23:18Z</time>
      </trkpt>
      <trkpt lat="46.17583" lon="5.39059">
        <ele>291</ele>
        <time>2022-07-14T07:23:19Z</time>
      </trkpt>
      <trkpt lat="46.17598" lon="5.39061">
        <ele>290.4</ele>
        <time>2022-07-14T07:23:21Z</time>
      </trkpt>
      <trkpt lat="46.17611" lon="5.39066">
        <ele>290</ele>
        <time>2022-07-14T07:23:23Z</time>
      </trkpt>
      <trkpt lat="46.17618" lon="5.39067">
        <ele>289.8</ele>
        <time>2022-07-14T07:23:24Z</time>
      </trkpt>
      <trkpt lat="46.17626" lon="5.39066">
        <ele>289.8</ele>
        <time>2022-07-14T07:23:25Z</time>
      </trkpt>
      <trkpt lat="46.17635" lon="5.39059">
        <ele>289.6</ele>
        <time>2022-07-14T07:23:27Z</time>
      </trkpt>
      <trkpt lat="46.17641" lon="5.39049">
        <ele>289.6</ele>
        <time>2022-07-14T07:23:28Z</time>
      </trkpt>
      <trkpt lat="46.17644" lon="5.3904">
        <ele>289.6</ele>
        <time>2022-07-14T07:23:29Z</time>
      </trkpt>
      <trkpt lat="46.17653" lon="5.39015">
        <ele>289.4</ele>
        <time>2022-07-14T07:23:31Z</time>
      </trkpt>
      <trkpt lat="46.17656" lon="5.39003">
        <ele>289.4</ele>
        <time>2022-07-14T07:23:32Z</time>
      </trkpt>
      <trkpt lat="46.17672" lon="5.38956">
        <ele>288.2</ele>
        <time>2022-07-14T07:23:36Z</time>
      </trkpt>
      <trkpt lat="46.1768" lon="5.38935">
        <ele>287</ele>
        <time>2022-07-14T07:23:38Z</time>
      </trkpt>
      <trkpt lat="46.17689" lon="5.38917">
        <ele>286.2</ele>
        <time>2022-07-14T07:23:40Z</time>
      </trkpt>
      <trkpt lat="46.177" lon="5.38902">
        <ele>285.8</ele>
        <time>2022-07-14T07:23:42Z</time>
      </trkpt>
      <trkpt lat="46.17729" lon="5.38873">
        <ele>286</ele>
        <time>2022-07-14T07:23:47Z</time>
      </trkpt>
      <trkpt lat="46.17748" lon="5.3886">
        <ele>286.6</ele>
        <time>2022-07-14T07:23:50Z</time>
      </trkpt>
      <trkpt lat="46.17755" lon="5.38859">
        <ele>286.6</ele>
        <time>2022-07-14T07:23:51Z</time>
      </trkpt>
      <trkpt lat="46.17762" lon="5.38859">
        <ele>286.6</ele>
        <time>2022-07-14T07:23:52Z</time>
      </trkpt>
      <trkpt lat="46.17785" lon="5.38864">
        <ele>286.6</ele>
        <time>2022-07-14T07:23:55Z</time>
      </trkpt>
      <trkpt lat="46.17817" lon="5.38866">
        <ele>286.4</ele>
        <time>2022-07-14T07:23:59Z</time>
      </trkpt>
      <trkpt lat="46.17825" lon="5.38864">
        <ele>286.4</ele>
        <time>2022-07-14T07:24:00Z</time>
      </trkpt>
      <trkpt lat="46.17833" lon="5.38861">
        <ele>286.2</ele>
        <time>2022-07-14T07:24:01Z</time>
      </trkpt>
      <trkpt lat="46.17847" lon="5.38852">
        <ele>286</ele>
        <time>2022-07-14T07:24:03Z</time>
      </trkpt>
      <trkpt lat="46.17853" lon="5.38846">
        <ele>286</ele>
        <time>2022-07-14T07:24:04Z</time>
      </trkpt>
      <trkpt lat="46.17898" lon="5.38806">
        <ele>285.8</ele>
        <time>2022-07-14T07:24:11Z</time>
      </trkpt>
      <trkpt lat="46.17951" lon="5.3877">
        <ele>286</ele>
        <time>2022-07-14T07:24:19Z</time>
      </trkpt>
      <trkpt lat="46.18006" lon="5.38735">
        <ele>285.8</ele>
        <time>2022-07-14T07:24:27Z</time>
      </trkpt>
      <trkpt lat="46.18013" lon="5.38731">
        <ele>285.8</ele>
        <time>2022-07-14T07:24:28Z</time>
      </trkpt>
      <trkpt lat="46.18067" lon="5.38697">
        <ele>285.8</ele>
        <time>2022-07-14T07:24:36Z</time>
      </trkpt>
      <trkpt lat="46.18081" lon="5.38686">
        <ele>286</ele>
        <time>2022-07-14T07:24:38Z</time>
      </trkpt>
      <trkpt lat="46.1813" lon="5.38636">
        <ele>285.8</ele>
        <time>2022-07-14T07:24:46Z</time>
      </trkpt>
      <trkpt lat="46.18136" lon="5.3863">
        <ele>285.8</ele>
        <time>2022-07-14T07:24:47Z</time>
      </trkpt>
      <trkpt lat="46.18185" lon="5.3858">
        <ele>286.2</ele>
        <time>2022-07-14T07:24:55Z</time>
      </trkpt>
      <trkpt lat="46.18234" lon="5.38531">
        <ele>286.6</ele>
        <time>2022-07-14T07:25:03Z</time>
      </trkpt>
      <trkpt lat="46.1824" lon="5.38525">
        <ele>286.4</ele>
        <time>2022-07-14T07:25:04Z</time>
      </trkpt>
      <trkpt lat="46.18289" lon="5.38477">
        <ele>286.4</ele>
        <time>2022-07-14T07:25:12Z</time>
      </trkpt>
      <trkpt lat="46.18295" lon="5.38471">
        <ele>286.8</ele>
        <time>2022-07-14T07:25:13Z</time>
      </trkpt>
      <trkpt lat="46.18323" lon="5.38443">
        <ele>287.4</ele>
        <time>2022-07-14T07:25:18Z</time>
      </trkpt>
      <trkpt lat="46.18338" lon="5.38426">
        <ele>287.6</ele>
        <time>2022-07-14T07:25:21Z</time>
      </trkpt>
      <trkpt lat="46.18357" lon="5.38403">
        <ele>287.8</ele>
        <time>2022-07-14T07:25:25Z</time>
      </trkpt>
      <trkpt lat="46.18363" lon="5.384">
        <ele>287.8</ele>
        <time>2022-07-14T07:25:26Z</time>
      </trkpt>
      <trkpt lat="46.18369" lon="5.38399">
        <ele>287.8</ele>
        <time>2022-07-14T07:25:27Z</time>
      </trkpt>
      <trkpt lat="46.1838" lon="5.38399">
        <ele>288</ele>
        <time>2022-07-14T07:25:29Z</time>
      </trkpt>
      <trkpt lat="46.18386" lon="5.38401">
        <ele>288.2</ele>
        <time>2022-07-14T07:25:30Z</time>
      </trkpt>
      <trkpt lat="46.18397" lon="5.38404">
        <ele>288.4</ele>
        <time>2022-07-14T07:25:32Z</time>
      </trkpt>
      <trkpt lat="46.18409" lon="5.38407">
        <ele>288.6</ele>
        <time>2022-07-14T07:25:34Z</time>
      </trkpt>
      <trkpt lat="46.18426" lon="5.3841">
        <ele>288.6</ele>
        <time>2022-07-14T07:25:37Z</time>
      </trkpt>
      <trkpt lat="46.18443" lon="5.3841">
        <ele>288.8</ele>
        <time>2022-07-14T07:25:40Z</time>
      </trkpt>
      <trkpt lat="46.18453" lon="5.38408">
        <ele>289</ele>
        <time>2022-07-14T07:25:42Z</time>
      </trkpt>
      <trkpt lat="46.18461" lon="5.38403">
        <ele>289.4</ele>
        <time>2022-07-14T07:25:44Z</time>
      </trkpt>
      <trkpt lat="46.18465" lon="5.384">
        <ele>290</ele>
        <time>2022-07-14T07:25:45Z</time>
      </trkpt>
      <trkpt lat="46.18469" lon="5.38396">
        <ele>290.4</ele>
        <time>2022-07-14T07:25:46Z</time>
      </trkpt>
      <trkpt lat="46.18476" lon="5.38388">
        <ele>291</ele>
        <time>2022-07-14T07:25:48Z</time>
      </trkpt>
      <trkpt lat="46.1848" lon="5.38384">
        <ele>291</ele>
        <time>2022-07-14T07:25:49Z</time>
      </trkpt>
      <trkpt lat="46.18496" lon="5.38356">
        <ele>291.4</ele>
        <time>2022-07-14T07:25:54Z</time>
      </trkpt>
      <trkpt lat="46.18499" lon="5.38351">
        <ele>291.6</ele>
        <time>2022-07-14T07:25:55Z</time>
      </trkpt>
      <trkpt lat="46.18502" lon="5.38345">
        <ele>291.6</ele>
        <time>2022-07-14T07:25:56Z</time>
      </trkpt>
      <trkpt lat="46.18509" lon="5.38329">
        <ele>291.8</ele>
        <time>2022-07-14T07:25:59Z</time>
      </trkpt>
      <trkpt lat="46.18518" lon="5.38301">
        <ele>292.2</ele>
        <time>2022-07-14T07:26:03Z</time>
      </trkpt>
      <trkpt lat="46.18519" lon="5.38294">
        <ele>292.6</ele>
        <time>2022-07-14T07:26:04Z</time>
      </trkpt>
      <trkpt lat="46.1852" lon="5.38287">
        <ele>292.8</ele>
        <time>2022-07-14T07:26:05Z</time>
      </trkpt>
      <trkpt lat="46.18522" lon="5.38265">
        <ele>293.4</ele>
        <time>2022-07-14T07:26:08Z</time>
      </trkpt>
      <trkpt lat="46.18521" lon="5.38257">
        <ele>293.8</ele>
        <time>2022-07-14T07:26:09Z</time>
      </trkpt>
      <trkpt lat="46.18519" lon="5.3825">
        <ele>293.8</ele>
        <time>2022-07-14T07:26:10Z</time>
      </trkpt>
      <trkpt lat="46.18513" lon="5.38239">
        <ele>294</ele>
        <time>2022-07-14T07:26:12Z</time>
      </trkpt>
      <trkpt lat="46.18505" lon="5.38228">
        <ele>294.2</ele>
        <time>2022-07-14T07:26:14Z</time>
      </trkpt>
      <trkpt lat="46.18478" lon="5.38191">
        <ele>294.4</ele>
        <time>2022-07-14T07:26:20Z</time>
      </trkpt>
      <trkpt lat="46.18446" lon="5.3815">
        <ele>294.4</ele>
        <time>2022-07-14T07:26:27Z</time>
      </trkpt>
      <trkpt lat="46.18407" lon="5.38106">
        <ele>294.6</ele>
        <time>2022-07-14T07:26:35Z</time>
      </trkpt>
      <trkpt lat="46.18364" lon="5.38066">
        <ele>294.6</ele>
        <time>2022-07-14T07:26:43Z</time>
      </trkpt>
      <trkpt lat="46.18316" lon="5.38021">
        <ele>294.6</ele>
        <time>2022-07-14T07:26:52Z</time>
      </trkpt>
      <trkpt lat="46.18311" lon="5.38016">
        <ele>294.6</ele>
        <time>2022-07-14T07:26:53Z</time>
      </trkpt>
      <trkpt lat="46.18292" lon="5.37999">
        <ele>294.8</ele>
        <time>2022-07-14T07:26:57Z</time>
      </trkpt>
      <trkpt lat="46.18266" lon="5.37974">
        <ele>295.2</ele>
        <time>2022-07-14T07:27:02Z</time>
      </trkpt>
      <trkpt lat="46.18249" lon="5.37955">
        <ele>295.6</ele>
        <time>2022-07-14T07:27:06Z</time>
      </trkpt>
      <trkpt lat="46.18245" lon="5.37949">
        <ele>296</ele>
        <time>2022-07-14T07:27:07Z</time>
      </trkpt>
      <trkpt lat="46.18241" lon="5.37943">
        <ele>296</ele>
        <time>2022-07-14T07:27:08Z</time>
      </trkpt>
      <trkpt lat="46.18236" lon="5.3793">
        <ele>297</ele>
        <time>2022-07-14T07:27:10Z</time>
      </trkpt>
      <trkpt lat="46.1823" lon="5.37913">
        <ele>297.8</ele>
        <time>2022-07-14T07:27:13Z</time>
      </trkpt>
      <trkpt lat="46.18226" lon="5.37897">
        <ele>298.4</ele>
        <time>2022-07-14T07:27:16Z</time>
      </trkpt>
      <trkpt lat="46.18223" lon="5.37885">
        <ele>299</ele>
        <time>2022-07-14T07:27:18Z</time>
      </trkpt>
      <trkpt lat="46.18222" lon="5.3788">
        <ele>299.6</ele>
        <time>2022-07-14T07:27:19Z</time>
      </trkpt>
      <trkpt lat="46.18217" lon="5.37859">
        <ele>301.2</ele>
        <time>2022-07-14T07:27:23Z</time>
      </trkpt>
      <trkpt lat="46.18215" lon="5.37849">
        <ele>301.6</ele>
        <time>2022-07-14T07:27:25Z</time>
      </trkpt>
      <trkpt lat="46.18212" lon="5.3784">
        <ele>302.4</ele>
        <time>2022-07-14T07:27:27Z</time>
      </trkpt>
      <trkpt lat="46.18207" lon="5.37827">
        <ele>303.6</ele>
        <time>2022-07-14T07:27:30Z</time>
      </trkpt>
      <trkpt lat="46.18201" lon="5.37816">
        <ele>304</ele>
        <time>2022-07-14T07:27:33Z</time>
      </trkpt>
      <trkpt lat="46.18196" lon="5.37809">
        <ele>304.6</ele>
        <time>2022-07-14T07:27:35Z</time>
      </trkpt>
      <trkpt lat="46.18185" lon="5.37796">
        <ele>305.6</ele>
        <time>2022-07-14T07:27:39Z</time>
      </trkpt>
      <trkpt lat="46.18182" lon="5.37793">
        <ele>305.6</ele>
        <time>2022-07-14T07:27:40Z</time>
      </trkpt>
      <trkpt lat="46.18169" lon="5.37782">
        <ele>306.8</ele>
        <time>2022-07-14T07:27:44Z</time>
      </trkpt>
      <trkpt lat="46.18159" lon="5.37774">
        <ele>307.6</ele>
        <time>2022-07-14T07:27:47Z</time>
      </trkpt>
      <trkpt lat="46.18156" lon="5.37772">
        <ele>307.8</ele>
        <time>2022-07-14T07:27:48Z</time>
      </trkpt>
      <trkpt lat="46.18139" lon="5.37763">
        <ele>308.8</ele>
        <time>2022-07-14T07:27:53Z</time>
      </trkpt>
      <trkpt lat="46.18129" lon="5.3776">
        <ele>309.4</ele>
        <time>2022-07-14T07:27:56Z</time>
      </trkpt>
      <trkpt lat="46.18115" lon="5.37756">
        <ele>310.2</ele>
        <time>2022-07-14T07:28:00Z</time>
      </trkpt>
      <trkpt lat="46.18102" lon="5.37753">
        <ele>311.2</ele>
        <time>2022-07-14T07:28:04Z</time>
      </trkpt>
      <trkpt lat="46.18087" lon="5.37749">
        <ele>312</ele>
        <time>2022-07-14T07:28:08Z</time>
      </trkpt>
      <trkpt lat="46.1808" lon="5.37748">
        <ele>312.2</ele>
        <time>2022-07-14T07:28:10Z</time>
      </trkpt>
      <trkpt lat="46.18062" lon="5.37744">
        <ele>313.4</ele>
        <time>2022-07-14T07:28:15Z</time>
      </trkpt>
      <trkpt lat="46.18055" lon="5.37743">
        <ele>313.6</ele>
        <time>2022-07-14T07:28:17Z</time>
      </trkpt>
      <trkpt lat="46.18038" lon="5.37744">
        <ele>314.4</ele>
        <time>2022-07-14T07:28:22Z</time>
      </trkpt>
      <trkpt lat="46.18031" lon="5.37744">
        <ele>315</ele>
        <time>2022-07-14T07:28:24Z</time>
      </trkpt>
      <trkpt lat="46.18025" lon="5.37745">
        <ele>315.8</ele>
        <time>2022-07-14T07:28:26Z</time>
      </trkpt>
      <trkpt lat="46.18008" lon="5.37748">
        <ele>317</ele>
        <time>2022-07-14T07:28:31Z</time>
      </trkpt>
      <trkpt lat="46.18005" lon="5.37747">
        <ele>317.2</ele>
        <time>2022-07-14T07:28:32Z</time>
      </trkpt>
      <trkpt lat="46.17997" lon="5.37737">
        <ele>318</ele>
        <time>2022-07-14T07:28:35Z</time>
      </trkpt>
      <trkpt lat="46.17996" lon="5.37733">
        <ele>318.2</ele>
        <time>2022-07-14T07:28:36Z</time>
      </trkpt>
      <trkpt lat="46.17998" lon="5.37719">
        <ele>319.2</ele>
        <time>2022-07-14T07:28:39Z</time>
      </trkpt>
      <trkpt lat="46.18" lon="5.37714">
        <ele>319.4</ele>
        <time>2022-07-14T07:28:40Z</time>
      </trkpt>
      <trkpt lat="46.18004" lon="5.37706">
        <ele>320.4</ele>
        <time>2022-07-14T07:28:42Z</time>
      </trkpt>
      <trkpt lat="46.18011" lon="5.37688">
        <ele>321.4</ele>
        <time>2022-07-14T07:28:46Z</time>
      </trkpt>
      <trkpt lat="46.18015" lon="5.37673">
        <ele>322.4</ele>
        <time>2022-07-14T07:28:49Z</time>
      </trkpt>
      <trkpt lat="46.18016" lon="5.37668">
        <ele>322.6</ele>
        <time>2022-07-14T07:28:50Z</time>
      </trkpt>
      <trkpt lat="46.18019" lon="5.37647">
        <ele>323.6</ele>
        <time>2022-07-14T07:28:54Z</time>
      </trkpt>
      <trkpt lat="46.18024" lon="5.37639">
        <ele>324</ele>
        <time>2022-07-14T07:28:56Z</time>
      </trkpt>
      <trkpt lat="46.18042" lon="5.37635">
        <ele>324.6</ele>
        <time>2022-07-14T07:29:00Z</time>
      </trkpt>
      <trkpt lat="46.18071" lon="5.37638">
        <ele>324.8</ele>
        <time>2022-07-14T07:29:05Z</time>
      </trkpt>
      <trkpt lat="46.18078" lon="5.3764">
        <ele>324.6</ele>
        <time>2022-07-14T07:29:06Z</time>
      </trkpt>
      <trkpt lat="46.18106" lon="5.37649">
        <ele>323.8</ele>
        <time>2022-07-14T07:29:10Z</time>
      </trkpt>
      <trkpt lat="46.18113" lon="5.37651">
        <ele>323.6</ele>
        <time>2022-07-14T07:29:11Z</time>
      </trkpt>
      <trkpt lat="46.18155" lon="5.3766">
        <ele>322.8</ele>
        <time>2022-07-14T07:29:17Z</time>
      </trkpt>
      <trkpt lat="46.18169" lon="5.37665">
        <ele>322.8</ele>
        <time>2022-07-14T07:29:19Z</time>
      </trkpt>
      <trkpt lat="46.18193" lon="5.3767">
        <ele>322.2</ele>
        <time>2022-07-14T07:29:22Z</time>
      </trkpt>
      <trkpt lat="46.18201" lon="5.3767">
        <ele>322</ele>
        <time>2022-07-14T07:29:23Z</time>
      </trkpt>
      <trkpt lat="46.18209" lon="5.37669">
        <ele>321.4</ele>
        <time>2022-07-14T07:29:24Z</time>
      </trkpt>
      <trkpt lat="46.18227" lon="5.37666">
        <ele>320.2</ele>
        <time>2022-07-14T07:29:27Z</time>
      </trkpt>
      <trkpt lat="46.18252" lon="5.37671">
        <ele>319.2</ele>
        <time>2022-07-14T07:29:30Z</time>
      </trkpt>
      <trkpt lat="46.18265" lon="5.37676">
        <ele>319</ele>
        <time>2022-07-14T07:29:32Z</time>
      </trkpt>
      <trkpt lat="46.18311" lon="5.37685">
        <ele>320.2</ele>
        <time>2022-07-14T07:29:39Z</time>
      </trkpt>
      <trkpt lat="46.18323" lon="5.3768">
        <ele>320.8</ele>
        <time>2022-07-14T07:29:41Z</time>
      </trkpt>
      <trkpt lat="46.18327" lon="5.37674">
        <ele>321.4</ele>
        <time>2022-07-14T07:29:42Z</time>
      </trkpt>
      <trkpt lat="46.18331" lon="5.37666">
        <ele>321.8</ele>
        <time>2022-07-14T07:29:43Z</time>
      </trkpt>
      <trkpt lat="46.18334" lon="5.37648">
        <ele>322.2</ele>
        <time>2022-07-14T07:29:45Z</time>
      </trkpt>
      <trkpt lat="46.18338" lon="5.37602">
        <ele>322.4</ele>
        <time>2022-07-14T07:29:49Z</time>
      </trkpt>
      <trkpt lat="46.1834" lon="5.37578">
        <ele>322.4</ele>
        <time>2022-07-14T07:29:51Z</time>
      </trkpt>
      <trkpt lat="46.18339" lon="5.37554">
        <ele>322</ele>
        <time>2022-07-14T07:29:53Z</time>
      </trkpt>
      <trkpt lat="46.18337" lon="5.37542">
        <ele>321.4</ele>
        <time>2022-07-14T07:29:54Z</time>
      </trkpt>
      <trkpt lat="46.18333" lon="5.37517">
        <ele>320.8</ele>
        <time>2022-07-14T07:29:56Z</time>
      </trkpt>
      <trkpt lat="46.1833" lon="5.3748">
        <ele>320.4</ele>
        <time>2022-07-14T07:29:59Z</time>
      </trkpt>
      <trkpt lat="46.1833" lon="5.37467">
        <ele>320.2</ele>
        <time>2022-07-14T07:30:00Z</time>
      </trkpt>
      <trkpt lat="46.18334" lon="5.3743">
        <ele>320</ele>
        <time>2022-07-14T07:30:03Z</time>
      </trkpt>
      <trkpt lat="46.18339" lon="5.37406">
        <ele>319.8</ele>
        <time>2022-07-14T07:30:05Z</time>
      </trkpt>
      <trkpt lat="46.18349" lon="5.3737">
        <ele>319.2</ele>
        <time>2022-07-14T07:30:08Z</time>
      </trkpt>
      <trkpt lat="46.18361" lon="5.37334">
        <ele>318.2</ele>
        <time>2022-07-14T07:30:11Z</time>
      </trkpt>
      <trkpt lat="46.1837" lon="5.37298">
        <ele>317.4</ele>
        <time>2022-07-14T07:30:14Z</time>
      </trkpt>
      <trkpt lat="46.18372" lon="5.37284">
        <ele>317</ele>
        <time>2022-07-14T07:30:15Z</time>
      </trkpt>
      <trkpt lat="46.18377" lon="5.37213">
        <ele>316.2</ele>
        <time>2022-07-14T07:30:20Z</time>
      </trkpt>
      <trkpt lat="46.18375" lon="5.37165">
        <ele>316.4</ele>
        <time>2022-07-14T07:30:24Z</time>
      </trkpt>
      <trkpt lat="46.18364" lon="5.37122">
        <ele>317.2</ele>
        <time>2022-07-14T07:30:29Z</time>
      </trkpt>
      <trkpt lat="46.18356" lon="5.37104">
        <ele>317.6</ele>
        <time>2022-07-14T07:30:31Z</time>
      </trkpt>
      <trkpt lat="46.18347" lon="5.37084">
        <ele>318.6</ele>
        <time>2022-07-14T07:30:34Z</time>
      </trkpt>
      <trkpt lat="46.18337" lon="5.37059">
        <ele>320</ele>
        <time>2022-07-14T07:30:38Z</time>
      </trkpt>
      <trkpt lat="46.18335" lon="5.37052">
        <ele>320.4</ele>
        <time>2022-07-14T07:30:39Z</time>
      </trkpt>
      <trkpt lat="46.18332" lon="5.37041">
        <ele>321.2</ele>
        <time>2022-07-14T07:30:41Z</time>
      </trkpt>
      <trkpt lat="46.1833" lon="5.37029">
        <ele>322.2</ele>
        <time>2022-07-14T07:30:43Z</time>
      </trkpt>
      <trkpt lat="46.18327" lon="5.37017">
        <ele>323.2</ele>
        <time>2022-07-14T07:30:45Z</time>
      </trkpt>
      <trkpt lat="46.18326" lon="5.37011">
        <ele>323.4</ele>
        <time>2022-07-14T07:30:46Z</time>
      </trkpt>
      <trkpt lat="46.18323" lon="5.36998">
        <ele>324</ele>
        <time>2022-07-14T07:30:48Z</time>
      </trkpt>
      <trkpt lat="46.18319" lon="5.36985">
        <ele>324.6</ele>
        <time>2022-07-14T07:30:50Z</time>
      </trkpt>
      <trkpt lat="46.18315" lon="5.36972">
        <ele>325.2</ele>
        <time>2022-07-14T07:30:52Z</time>
      </trkpt>
      <trkpt lat="46.18313" lon="5.3696">
        <ele>325.8</ele>
        <time>2022-07-14T07:30:54Z</time>
      </trkpt>
      <trkpt lat="46.18314" lon="5.36946">
        <ele>326.4</ele>
        <time>2022-07-14T07:30:56Z</time>
      </trkpt>
      <trkpt lat="46.18315" lon="5.36939">
        <ele>326.6</ele>
        <time>2022-07-14T07:30:57Z</time>
      </trkpt>
      <trkpt lat="46.18317" lon="5.36933">
        <ele>326.8</ele>
        <time>2022-07-14T07:30:58Z</time>
      </trkpt>
      <trkpt lat="46.1832" lon="5.36928">
        <ele>327</ele>
        <time>2022-07-14T07:30:59Z</time>
      </trkpt>
      <trkpt lat="46.18324" lon="5.36922">
        <ele>327</ele>
        <time>2022-07-14T07:31:00Z</time>
      </trkpt>
      <trkpt lat="46.18335" lon="5.36909">
        <ele>327.8</ele>
        <time>2022-07-14T07:31:03Z</time>
      </trkpt>
      <trkpt lat="46.18339" lon="5.36906">
        <ele>328.2</ele>
        <time>2022-07-14T07:31:04Z</time>
      </trkpt>
      <trkpt lat="46.18344" lon="5.36904">
        <ele>328.4</ele>
        <time>2022-07-14T07:31:05Z</time>
      </trkpt>
      <trkpt lat="46.1836" lon="5.36895">
        <ele>329.2</ele>
        <time>2022-07-14T07:31:09Z</time>
      </trkpt>
      <trkpt lat="46.18362" lon="5.36893">
        <ele>329.4</ele>
        <time>2022-07-14T07:31:10Z</time>
      </trkpt>
      <trkpt lat="46.18372" lon="5.36887">
        <ele>329.6</ele>
        <time>2022-07-14T07:31:12Z</time>
      </trkpt>
      <trkpt lat="46.18378" lon="5.36887">
        <ele>330.4</ele>
        <time>2022-07-14T07:31:13Z</time>
      </trkpt>
      <trkpt lat="46.18393" lon="5.36881">
        <ele>331.4</ele>
        <time>2022-07-14T07:31:16Z</time>
      </trkpt>
      <trkpt lat="46.18405" lon="5.36875">
        <ele>331.6</ele>
        <time>2022-07-14T07:31:18Z</time>
      </trkpt>
      <trkpt lat="46.18409" lon="5.36872">
        <ele>331.8</ele>
        <time>2022-07-14T07:31:19Z</time>
      </trkpt>
      <trkpt lat="46.18442" lon="5.36855">
        <ele>331.8</ele>
        <time>2022-07-14T07:31:24Z</time>
      </trkpt>
      <trkpt lat="46.18483" lon="5.36833">
        <ele>330.2</ele>
        <time>2022-07-14T07:31:30Z</time>
      </trkpt>
      <trkpt lat="46.18514" lon="5.36813">
        <ele>329.2</ele>
        <time>2022-07-14T07:31:35Z</time>
      </trkpt>
      <trkpt lat="46.18531" lon="5.36799">
        <ele>328.6</ele>
        <time>2022-07-14T07:31:37Z</time>
      </trkpt>
      <trkpt lat="46.18551" lon="5.36782">
        <ele>328.4</ele>
        <time>2022-07-14T07:31:40Z</time>
      </trkpt>
      <trkpt lat="46.18564" lon="5.36771">
        <ele>328.2</ele>
        <time>2022-07-14T07:31:42Z</time>
      </trkpt>
      <trkpt lat="46.18575" lon="5.3676">
        <ele>328.2</ele>
        <time>2022-07-14T07:31:44Z</time>
      </trkpt>
      <trkpt lat="46.18582" lon="5.36752">
        <ele>328.2</ele>
        <time>2022-07-14T07:31:45Z</time>
      </trkpt>
      <trkpt lat="46.18587" lon="5.36743">
        <ele>328.2</ele>
        <time>2022-07-14T07:31:46Z</time>
      </trkpt>
      <trkpt lat="46.18611" lon="5.36686">
        <ele>328</ele>
        <time>2022-07-14T07:31:52Z</time>
      </trkpt>
      <trkpt lat="46.18628" lon="5.36629">
        <ele>327</ele>
        <time>2022-07-14T07:31:57Z</time>
      </trkpt>
      <trkpt lat="46.18632" lon="5.36617">
        <ele>326.8</ele>
        <time>2022-07-14T07:31:58Z</time>
      </trkpt>
      <trkpt lat="46.18642" lon="5.36581">
        <ele>325.6</ele>
        <time>2022-07-14T07:32:01Z</time>
      </trkpt>
      <trkpt lat="46.18654" lon="5.36545">
        <ele>324.4</ele>
        <time>2022-07-14T07:32:04Z</time>
      </trkpt>
      <trkpt lat="46.18658" lon="5.36533">
        <ele>324.2</ele>
        <time>2022-07-14T07:32:05Z</time>
      </trkpt>
      <trkpt lat="46.18668" lon="5.36511">
        <ele>323.8</ele>
        <time>2022-07-14T07:32:07Z</time>
      </trkpt>
      <trkpt lat="46.1868" lon="5.36493">
        <ele>323.4</ele>
        <time>2022-07-14T07:32:09Z</time>
      </trkpt>
      <trkpt lat="46.18687" lon="5.36485">
        <ele>323.4</ele>
        <time>2022-07-14T07:32:10Z</time>
      </trkpt>
      <trkpt lat="46.18715" lon="5.36461">
        <ele>323.2</ele>
        <time>2022-07-14T07:32:14Z</time>
      </trkpt>
      <trkpt lat="46.18729" lon="5.36457">
        <ele>323.4</ele>
        <time>2022-07-14T07:32:16Z</time>
      </trkpt>
      <trkpt lat="46.18737" lon="5.36457">
        <ele>323.2</ele>
        <time>2022-07-14T07:32:17Z</time>
      </trkpt>
      <trkpt lat="46.18792" lon="5.36452">
        <ele>323.8</ele>
        <time>2022-07-14T07:32:24Z</time>
      </trkpt>
      <trkpt lat="46.188" lon="5.36452">
        <ele>324</ele>
        <time>2022-07-14T07:32:25Z</time>
      </trkpt>
      <trkpt lat="46.18858" lon="5.36447">
        <ele>323</ele>
        <time>2022-07-14T07:32:32Z</time>
      </trkpt>
      <trkpt lat="46.18866" lon="5.36446">
        <ele>322.8</ele>
        <time>2022-07-14T07:32:33Z</time>
      </trkpt>
      <trkpt lat="46.18883" lon="5.36446">
        <ele>322.6</ele>
        <time>2022-07-14T07:32:35Z</time>
      </trkpt>
      <trkpt lat="46.18916" lon="5.36449">
        <ele>321.8</ele>
        <time>2022-07-14T07:32:39Z</time>
      </trkpt>
      <trkpt lat="46.18957" lon="5.36455">
        <ele>321.4</ele>
        <time>2022-07-14T07:32:44Z</time>
      </trkpt>
      <trkpt lat="46.19012" lon="5.36458">
        <ele>321.4</ele>
        <time>2022-07-14T07:32:51Z</time>
      </trkpt>
      <trkpt lat="46.19034" lon="5.36458">
        <ele>321.4</ele>
        <time>2022-07-14T07:32:54Z</time>
      </trkpt>
      <trkpt lat="46.19048" lon="5.36458">
        <ele>321.8</ele>
        <time>2022-07-14T07:32:56Z</time>
      </trkpt>
      <trkpt lat="46.19074" lon="5.36458">
        <ele>322.6</ele>
        <time>2022-07-14T07:33:00Z</time>
      </trkpt>
      <trkpt lat="46.19082" lon="5.36462">
        <ele>322.8</ele>
        <time>2022-07-14T07:33:01Z</time>
      </trkpt>
      <trkpt lat="46.19085" lon="5.36468">
        <ele>323</ele>
        <time>2022-07-14T07:33:02Z</time>
      </trkpt>
      <trkpt lat="46.19087" lon="5.36478">
        <ele>323</ele>
        <time>2022-07-14T07:33:03Z</time>
      </trkpt>
      <trkpt lat="46.1909" lon="5.3652">
        <ele>323.4</ele>
        <time>2022-07-14T07:33:07Z</time>
      </trkpt>
      <trkpt lat="46.1909" lon="5.3653">
        <ele>323.4</ele>
        <time>2022-07-14T07:33:08Z</time>
      </trkpt>
      <trkpt lat="46.19091" lon="5.3654">
        <ele>323.2</ele>
        <time>2022-07-14T07:33:09Z</time>
      </trkpt>
      <trkpt lat="46.19096" lon="5.36547">
        <ele>323.2</ele>
        <time>2022-07-14T07:33:10Z</time>
      </trkpt>
      <trkpt lat="46.19101" lon="5.36553">
        <ele>323.2</ele>
        <time>2022-07-14T07:33:11Z</time>
      </trkpt>
      <trkpt lat="46.19114" lon="5.36561">
        <ele>323</ele>
        <time>2022-07-14T07:33:13Z</time>
      </trkpt>
      <trkpt lat="46.19153" lon="5.36584">
        <ele>322.8</ele>
        <time>2022-07-14T07:33:19Z</time>
      </trkpt>
      <trkpt lat="46.19209" lon="5.3661">
        <ele>322.6</ele>
        <time>2022-07-14T07:33:27Z</time>
      </trkpt>
      <trkpt lat="46.19246" lon="5.36619">
        <ele>322.4</ele>
        <time>2022-07-14T07:33:32Z</time>
      </trkpt>
      <trkpt lat="46.19274" lon="5.36616">
        <ele>322</ele>
        <time>2022-07-14T07:33:36Z</time>
      </trkpt>
      <trkpt lat="46.19282" lon="5.36617">
        <ele>322</ele>
        <time>2022-07-14T07:33:37Z</time>
      </trkpt>
      <trkpt lat="46.19297" lon="5.36623">
        <ele>321.8</ele>
        <time>2022-07-14T07:33:39Z</time>
      </trkpt>
      <trkpt lat="46.19319" lon="5.36636">
        <ele>321.6</ele>
        <time>2022-07-14T07:33:42Z</time>
      </trkpt>
      <trkpt lat="46.1937" lon="5.36672">
        <ele>321</ele>
        <time>2022-07-14T07:33:49Z</time>
      </trkpt>
      <trkpt lat="46.19416" lon="5.36695">
        <ele>320.8</ele>
        <time>2022-07-14T07:33:55Z</time>
      </trkpt>
      <trkpt lat="46.19475" lon="5.36709">
        <ele>321.2</ele>
        <time>2022-07-14T07:34:03Z</time>
      </trkpt>
      <trkpt lat="46.19532" lon="5.36722">
        <ele>321.6</ele>
        <time>2022-07-14T07:34:11Z</time>
      </trkpt>
      <trkpt lat="46.19541" lon="5.36724">
        <ele>322</ele>
        <time>2022-07-14T07:34:12Z</time>
      </trkpt>
      <trkpt lat="46.19594" lon="5.36734">
        <ele>321.8</ele>
        <time>2022-07-14T07:34:19Z</time>
      </trkpt>
      <trkpt lat="46.19648" lon="5.36746">
        <ele>322</ele>
        <time>2022-07-14T07:34:26Z</time>
      </trkpt>
      <trkpt lat="46.19702" lon="5.36758">
        <ele>322.2</ele>
        <time>2022-07-14T07:34:33Z</time>
      </trkpt>
      <trkpt lat="46.1974" lon="5.36755">
        <ele>322.4</ele>
        <time>2022-07-14T07:34:38Z</time>
      </trkpt>
      <trkpt lat="46.19776" lon="5.36742">
        <ele>323</ele>
        <time>2022-07-14T07:34:43Z</time>
      </trkpt>
      <trkpt lat="46.19783" lon="5.36739">
        <ele>323</ele>
        <time>2022-07-14T07:34:44Z</time>
      </trkpt>
      <trkpt lat="46.1982" lon="5.3672">
        <ele>324</ele>
        <time>2022-07-14T07:34:50Z</time>
      </trkpt>
      <trkpt lat="46.19832" lon="5.36717">
        <ele>324.4</ele>
        <time>2022-07-14T07:34:52Z</time>
      </trkpt>
      <trkpt lat="46.19854" lon="5.36722">
        <ele>324.8</ele>
        <time>2022-07-14T07:34:56Z</time>
      </trkpt>
      <trkpt lat="46.19863" lon="5.36727">
        <ele>325</ele>
        <time>2022-07-14T07:34:58Z</time>
      </trkpt>
      <trkpt lat="46.19888" lon="5.36738">
        <ele>326.2</ele>
        <time>2022-07-14T07:35:02Z</time>
      </trkpt>
      <trkpt lat="46.19904" lon="5.36744">
        <ele>327.2</ele>
        <time>2022-07-14T07:35:05Z</time>
      </trkpt>
      <trkpt lat="46.19939" lon="5.36759">
        <ele>328.6</ele>
        <time>2022-07-14T07:35:11Z</time>
      </trkpt>
      <trkpt lat="46.19985" lon="5.36781">
        <ele>328.4</ele>
        <time>2022-07-14T07:35:17Z</time>
      </trkpt>
      <trkpt lat="46.20002" lon="5.36786">
        <ele>327.8</ele>
        <time>2022-07-14T07:35:19Z</time>
      </trkpt>
      <trkpt lat="46.20029" lon="5.36789">
        <ele>327.2</ele>
        <time>2022-07-14T07:35:22Z</time>
      </trkpt>
      <trkpt lat="46.20047" lon="5.36789">
        <ele>326.2</ele>
        <time>2022-07-14T07:35:24Z</time>
      </trkpt>
      <trkpt lat="46.20085" lon="5.36786">
        <ele>325.6</ele>
        <time>2022-07-14T07:35:28Z</time>
      </trkpt>
      <trkpt lat="46.20113" lon="5.36783">
        <ele>325</ele>
        <time>2022-07-14T07:35:31Z</time>
      </trkpt>
      <trkpt lat="46.20161" lon="5.3678">
        <ele>324</ele>
        <time>2022-07-14T07:35:36Z</time>
      </trkpt>
      <trkpt lat="46.20207" lon="5.36774">
        <ele>322.8</ele>
        <time>2022-07-14T07:35:41Z</time>
      </trkpt>
      <trkpt lat="46.20226" lon="5.36772">
        <ele>323.2</ele>
        <time>2022-07-14T07:35:43Z</time>
      </trkpt>
      <trkpt lat="46.20282" lon="5.36766">
        <ele>322.6</ele>
        <time>2022-07-14T07:35:49Z</time>
      </trkpt>
      <trkpt lat="46.20309" lon="5.36764">
        <ele>322.6</ele>
        <time>2022-07-14T07:35:52Z</time>
      </trkpt>
      <trkpt lat="46.20349" lon="5.36765">
        <ele>322.6</ele>
        <time>2022-07-14T07:35:57Z</time>
      </trkpt>
      <trkpt lat="46.20397" lon="5.36752">
        <ele>322.2</ele>
        <time>2022-07-14T07:36:02Z</time>
      </trkpt>
      <trkpt lat="46.20456" lon="5.36728">
        <ele>322.2</ele>
        <time>2022-07-14T07:36:09Z</time>
      </trkpt>
      <trkpt lat="46.20464" lon="5.36724">
        <ele>322</ele>
        <time>2022-07-14T07:36:10Z</time>
      </trkpt>
      <trkpt lat="46.20505" lon="5.36705">
        <ele>321.8</ele>
        <time>2022-07-14T07:36:15Z</time>
      </trkpt>
      <trkpt lat="46.20564" lon="5.36679">
        <ele>321</ele>
        <time>2022-07-14T07:36:22Z</time>
      </trkpt>
      <trkpt lat="46.20572" lon="5.36676">
        <ele>321.4</ele>
        <time>2022-07-14T07:36:23Z</time>
      </trkpt>
      <trkpt lat="46.20632" lon="5.3666">
        <ele>321.4</ele>
        <time>2022-07-14T07:36:30Z</time>
      </trkpt>
      <trkpt lat="46.20694" lon="5.36654">
        <ele>321.4</ele>
        <time>2022-07-14T07:36:37Z</time>
      </trkpt>
      <trkpt lat="46.20702" lon="5.36653">
        <ele>321.4</ele>
        <time>2022-07-14T07:36:38Z</time>
      </trkpt>
      <trkpt lat="46.20759" lon="5.36646">
        <ele>321.4</ele>
        <time>2022-07-14T07:36:45Z</time>
      </trkpt>
      <trkpt lat="46.20817" lon="5.36632">
        <ele>321.6</ele>
        <time>2022-07-14T07:36:52Z</time>
      </trkpt>
      <trkpt lat="46.20844" lon="5.36627">
        <ele>321</ele>
        <time>2022-07-14T07:36:56Z</time>
      </trkpt>
      <trkpt lat="46.20866" lon="5.36623">
        <ele>320.8</ele>
        <time>2022-07-14T07:36:58Z</time>
      </trkpt>
      <trkpt lat="46.20908" lon="5.36618">
        <ele>321</ele>
        <time>2022-07-14T07:37:03Z</time>
      </trkpt>
      <trkpt lat="46.20963" lon="5.36611">
        <ele>322</ele>
        <time>2022-07-14T07:37:10Z</time>
      </trkpt>
      <trkpt lat="46.2098" lon="5.36609">
        <ele>322</ele>
        <time>2022-07-14T07:37:12Z</time>
      </trkpt>
      <trkpt lat="46.2104" lon="5.36605">
        <ele>321.4</ele>
        <time>2022-07-14T07:37:19Z</time>
      </trkpt>
      <trkpt lat="46.21048" lon="5.36603">
        <ele>321.4</ele>
        <time>2022-07-14T07:37:20Z</time>
      </trkpt>
      <trkpt lat="46.21105" lon="5.36585">
        <ele>321.2</ele>
        <time>2022-07-14T07:37:27Z</time>
      </trkpt>
      <trkpt lat="46.21113" lon="5.36582">
        <ele>321.4</ele>
        <time>2022-07-14T07:37:28Z</time>
      </trkpt>
      <trkpt lat="46.21168" lon="5.36559">
        <ele>321.4</ele>
        <time>2022-07-14T07:37:35Z</time>
      </trkpt>
      <trkpt lat="46.21175" lon="5.36555">
        <ele>321.6</ele>
        <time>2022-07-14T07:37:36Z</time>
      </trkpt>
      <trkpt lat="46.21201" lon="5.36534">
        <ele>321.6</ele>
        <time>2022-07-14T07:37:40Z</time>
      </trkpt>
      <trkpt lat="46.21214" lon="5.36525">
        <ele>322</ele>
        <time>2022-07-14T07:37:42Z</time>
      </trkpt>
      <trkpt lat="46.2122" lon="5.36521">
        <ele>322</ele>
        <time>2022-07-14T07:37:43Z</time>
      </trkpt>
      <trkpt lat="46.21227" lon="5.36519">
        <ele>322.4</ele>
        <time>2022-07-14T07:37:44Z</time>
      </trkpt>
      <trkpt lat="46.2124" lon="5.36518">
        <ele>322.8</ele>
        <time>2022-07-14T07:37:46Z</time>
      </trkpt>
      <trkpt lat="46.21253" lon="5.3652">
        <ele>323.2</ele>
        <time>2022-07-14T07:37:48Z</time>
      </trkpt>
      <trkpt lat="46.21284" lon="5.36531">
        <ele>324.8</ele>
        <time>2022-07-14T07:37:53Z</time>
      </trkpt>
      <trkpt lat="46.21296" lon="5.36536">
        <ele>325.2</ele>
        <time>2022-07-14T07:37:55Z</time>
      </trkpt>
      <trkpt lat="46.21311" lon="5.36544">
        <ele>325.8</ele>
        <time>2022-07-14T07:37:58Z</time>
      </trkpt>
      <trkpt lat="46.2134" lon="5.3656">
        <ele>327.4</ele>
        <time>2022-07-14T07:38:03Z</time>
      </trkpt>
      <trkpt lat="46.21345" lon="5.36563">
        <ele>327.6</ele>
        <time>2022-07-14T07:38:04Z</time>
      </trkpt>
      <trkpt lat="46.21378" lon="5.36585">
        <ele>328.6</ele>
        <time>2022-07-14T07:38:10Z</time>
      </trkpt>
      <trkpt lat="46.21406" lon="5.36604">
        <ele>329</ele>
        <time>2022-07-14T07:38:15Z</time>
      </trkpt>
      <trkpt lat="46.21429" lon="5.36617">
        <ele>329.6</ele>
        <time>2022-07-14T07:38:19Z</time>
      </trkpt>
      <trkpt lat="46.21456" lon="5.36635">
        <ele>330.4</ele>
        <time>2022-07-14T07:38:24Z</time>
      </trkpt>
      <trkpt lat="46.21461" lon="5.36639">
        <ele>330.4</ele>
        <time>2022-07-14T07:38:25Z</time>
      </trkpt>
      <trkpt lat="46.2149" lon="5.36661">
        <ele>330.8</ele>
        <time>2022-07-14T07:38:30Z</time>
      </trkpt>
      <trkpt lat="46.21502" lon="5.36671">
        <ele>330.6</ele>
        <time>2022-07-14T07:38:32Z</time>
      </trkpt>
      <trkpt lat="46.21522" lon="5.3669">
        <ele>330.4</ele>
        <time>2022-07-14T07:38:35Z</time>
      </trkpt>
      <trkpt lat="46.21549" lon="5.36715">
        <ele>329.6</ele>
        <time>2022-07-14T07:38:39Z</time>
      </trkpt>
      <trkpt lat="46.21569" lon="5.36736">
        <ele>329</ele>
        <time>2022-07-14T07:38:42Z</time>
      </trkpt>
      <trkpt lat="46.21604" lon="5.36771">
        <ele>328.4</ele>
        <time>2022-07-14T07:38:47Z</time>
      </trkpt>
      <trkpt lat="46.21618" lon="5.36782">
        <ele>328.2</ele>
        <time>2022-07-14T07:38:49Z</time>
      </trkpt>
      <trkpt lat="46.21667" lon="5.36822">
        <ele>327.6</ele>
        <time>2022-07-14T07:38:56Z</time>
      </trkpt>
      <trkpt lat="46.21673" lon="5.36828">
        <ele>327.4</ele>
        <time>2022-07-14T07:38:57Z</time>
      </trkpt>
      <trkpt lat="46.2168" lon="5.36833">
        <ele>327.4</ele>
        <time>2022-07-14T07:38:58Z</time>
      </trkpt>
      <trkpt lat="46.21696" lon="5.36837">
        <ele>327</ele>
        <time>2022-07-14T07:39:00Z</time>
      </trkpt>
      <trkpt lat="46.21721" lon="5.3683">
        <ele>326.4</ele>
        <time>2022-07-14T07:39:03Z</time>
      </trkpt>
      <trkpt lat="46.2175" lon="5.3682">
        <ele>325.4</ele>
        <time>2022-07-14T07:39:07Z</time>
      </trkpt>
      <trkpt lat="46.21763" lon="5.36819">
        <ele>325.2</ele>
        <time>2022-07-14T07:39:08Z</time>
      </trkpt>
      <trkpt lat="46.21807" lon="5.36813">
        <ele>324.6</ele>
        <time>2022-07-14T07:39:13Z</time>
      </trkpt>
      <trkpt lat="46.21831" lon="5.36813">
        <ele>324.4</ele>
        <time>2022-07-14T07:39:16Z</time>
      </trkpt>
      <trkpt lat="46.21839" lon="5.36816">
        <ele>324.2</ele>
        <time>2022-07-14T07:39:17Z</time>
      </trkpt>
      <trkpt lat="46.21879" lon="5.36824">
        <ele>323.6</ele>
        <time>2022-07-14T07:39:22Z</time>
      </trkpt>
      <trkpt lat="46.21937" lon="5.36842">
        <ele>323.6</ele>
        <time>2022-07-14T07:39:30Z</time>
      </trkpt>
      <trkpt lat="46.21968" lon="5.36864">
        <ele>324.4</ele>
        <time>2022-07-14T07:39:35Z</time>
      </trkpt>
      <trkpt lat="46.21996" lon="5.369">
        <ele>324.6</ele>
        <time>2022-07-14T07:39:40Z</time>
      </trkpt>
      <trkpt lat="46.22003" lon="5.36906">
        <ele>324.6</ele>
        <time>2022-07-14T07:39:41Z</time>
      </trkpt>
      <trkpt lat="46.2201" lon="5.36911">
        <ele>324.6</ele>
        <time>2022-07-14T07:39:42Z</time>
      </trkpt>
      <trkpt lat="46.22032" lon="5.36926">
        <ele>324.4</ele>
        <time>2022-07-14T07:39:45Z</time>
      </trkpt>
      <trkpt lat="46.22082" lon="5.36959">
        <ele>323.6</ele>
        <time>2022-07-14T07:39:52Z</time>
      </trkpt>
      <trkpt lat="46.22096" lon="5.36968">
        <ele>323.6</ele>
        <time>2022-07-14T07:39:54Z</time>
      </trkpt>
      <trkpt lat="46.22136" lon="5.3699">
        <ele>324.2</ele>
        <time>2022-07-14T07:40:00Z</time>
      </trkpt>
      <trkpt lat="46.22148" lon="5.36996">
        <ele>324.6</ele>
        <time>2022-07-14T07:40:02Z</time>
      </trkpt>
      <trkpt lat="46.2219" lon="5.37021">
        <ele>325.4</ele>
        <time>2022-07-14T07:40:09Z</time>
      </trkpt>
      <trkpt lat="46.22195" lon="5.37024">
        <ele>325.6</ele>
        <time>2022-07-14T07:40:10Z</time>
      </trkpt>
      <trkpt lat="46.22213" lon="5.37034">
        <ele>325.8</ele>
        <time>2022-07-14T07:40:13Z</time>
      </trkpt>
      <trkpt lat="46.22225" lon="5.37038">
        <ele>325.8</ele>
        <time>2022-07-14T07:40:15Z</time>
      </trkpt>
      <trkpt lat="46.22261" lon="5.37055">
        <ele>326.6</ele>
        <time>2022-07-14T07:40:21Z</time>
      </trkpt>
      <trkpt lat="46.22278" lon="5.37063">
        <ele>327.4</ele>
        <time>2022-07-14T07:40:24Z</time>
      </trkpt>
      <trkpt lat="46.22291" lon="5.37069">
        <ele>327.6</ele>
        <time>2022-07-14T07:40:26Z</time>
      </trkpt>
      <trkpt lat="46.22305" lon="5.37073">
        <ele>328.6</ele>
        <time>2022-07-14T07:40:29Z</time>
      </trkpt>
      <trkpt lat="46.2231" lon="5.37075">
        <ele>328.8</ele>
        <time>2022-07-14T07:40:30Z</time>
      </trkpt>
      <trkpt lat="46.2234" lon="5.37092">
        <ele>329.8</ele>
        <time>2022-07-14T07:40:35Z</time>
      </trkpt>
      <trkpt lat="46.22389" lon="5.37123">
        <ele>329.8</ele>
        <time>2022-07-14T07:40:42Z</time>
      </trkpt>
      <trkpt lat="46.22425" lon="5.37145">
        <ele>329.4</ele>
        <time>2022-07-14T07:40:47Z</time>
      </trkpt>
      <trkpt lat="46.22447" lon="5.3715">
        <ele>328.8</ele>
        <time>2022-07-14T07:40:50Z</time>
      </trkpt>
      <trkpt lat="46.22469" lon="5.37152">
        <ele>329</ele>
        <time>2022-07-14T07:40:53Z</time>
      </trkpt>
      <trkpt lat="46.22515" lon="5.37162">
        <ele>329</ele>
        <time>2022-07-14T07:40:59Z</time>
      </trkpt>
      <trkpt lat="46.22572" lon="5.37191">
        <ele>328.2</ele>
        <time>2022-07-14T07:41:07Z</time>
      </trkpt>
      <trkpt lat="46.22585" lon="5.37196">
        <ele>328.6</ele>
        <time>2022-07-14T07:41:09Z</time>
      </trkpt>
      <trkpt lat="46.22598" lon="5.37197">
        <ele>329</ele>
        <time>2022-07-14T07:41:11Z</time>
      </trkpt>
      <trkpt lat="46.22637" lon="5.37188">
        <ele>329</ele>
        <time>2022-07-14T07:41:16Z</time>
      </trkpt>
      <trkpt lat="46.22672" lon="5.37172">
        <ele>328.2</ele>
        <time>2022-07-14T07:41:21Z</time>
      </trkpt>
      <trkpt lat="46.22679" lon="5.37172">
        <ele>328</ele>
        <time>2022-07-14T07:41:22Z</time>
      </trkpt>
      <trkpt lat="46.22685" lon="5.37174">
        <ele>327.8</ele>
        <time>2022-07-14T07:41:23Z</time>
      </trkpt>
      <trkpt lat="46.22689" lon="5.3718">
        <ele>327.8</ele>
        <time>2022-07-14T07:41:24Z</time>
      </trkpt>
      <trkpt lat="46.2269" lon="5.37188">
        <ele>327.6</ele>
        <time>2022-07-14T07:41:25Z</time>
      </trkpt>
      <trkpt lat="46.22688" lon="5.37198">
        <ele>327.6</ele>
        <time>2022-07-14T07:41:26Z</time>
      </trkpt>
      <trkpt lat="46.22684" lon="5.37221">
        <ele>327.6</ele>
        <time>2022-07-14T07:41:29Z</time>
      </trkpt>
      <trkpt lat="46.22685" lon="5.37228">
        <ele>327.6</ele>
        <time>2022-07-14T07:41:30Z</time>
      </trkpt>
      <trkpt lat="46.22688" lon="5.37236">
        <ele>327.6</ele>
        <time>2022-07-14T07:41:31Z</time>
      </trkpt>
      <trkpt lat="46.22699" lon="5.37252">
        <ele>327.6</ele>
        <time>2022-07-14T07:41:33Z</time>
      </trkpt>
      <trkpt lat="46.22709" lon="5.3726">
        <ele>328</ele>
        <time>2022-07-14T07:41:35Z</time>
      </trkpt>
      <trkpt lat="46.22722" lon="5.37268">
        <ele>328.2</ele>
        <time>2022-07-14T07:41:37Z</time>
      </trkpt>
      <trkpt lat="46.22752" lon="5.37289">
        <ele>329</ele>
        <time>2022-07-14T07:41:42Z</time>
      </trkpt>
      <trkpt lat="46.22771" lon="5.37301">
        <ele>329.8</ele>
        <time>2022-07-14T07:41:45Z</time>
      </trkpt>
      <trkpt lat="46.22814" lon="5.37326">
        <ele>329.6</ele>
        <time>2022-07-14T07:41:51Z</time>
      </trkpt>
      <trkpt lat="46.22859" lon="5.37353">
        <ele>328.2</ele>
        <time>2022-07-14T07:41:57Z</time>
      </trkpt>
      <trkpt lat="46.22867" lon="5.37357">
        <ele>327.8</ele>
        <time>2022-07-14T07:41:58Z</time>
      </trkpt>
      <trkpt lat="46.22919" lon="5.37388">
        <ele>327.2</ele>
        <time>2022-07-14T07:42:05Z</time>
      </trkpt>
      <trkpt lat="46.22926" lon="5.37392">
        <ele>327.2</ele>
        <time>2022-07-14T07:42:06Z</time>
      </trkpt>
      <trkpt lat="46.22972" lon="5.3742">
        <ele>328</ele>
        <time>2022-07-14T07:42:13Z</time>
      </trkpt>
      <trkpt lat="46.23003" lon="5.37437">
        <ele>328.8</ele>
        <time>2022-07-14T07:42:18Z</time>
      </trkpt>
      <trkpt lat="46.23009" lon="5.37441">
        <ele>329.4</ele>
        <time>2022-07-14T07:42:19Z</time>
      </trkpt>
      <trkpt lat="46.23062" lon="5.37473">
        <ele>329.8</ele>
        <time>2022-07-14T07:42:26Z</time>
      </trkpt>
      <trkpt lat="46.23115" lon="5.37504">
        <ele>328.2</ele>
        <time>2022-07-14T07:42:33Z</time>
      </trkpt>
      <trkpt lat="46.23122" lon="5.37508">
        <ele>327.8</ele>
        <time>2022-07-14T07:42:34Z</time>
      </trkpt>
      <trkpt lat="46.23131" lon="5.37513">
        <ele>327.4</ele>
        <time>2022-07-14T07:42:35Z</time>
      </trkpt>
      <trkpt lat="46.23139" lon="5.37518">
        <ele>327.2</ele>
        <time>2022-07-14T07:42:36Z</time>
      </trkpt>
      <trkpt lat="46.23182" lon="5.37545">
        <ele>327.2</ele>
        <time>2022-07-14T07:42:42Z</time>
      </trkpt>
      <trkpt lat="46.23235" lon="5.37577">
        <ele>327.6</ele>
        <time>2022-07-14T07:42:49Z</time>
      </trkpt>
      <trkpt lat="46.2325" lon="5.37586">
        <ele>327.6</ele>
        <time>2022-07-14T07:42:51Z</time>
      </trkpt>
      <trkpt lat="46.23297" lon="5.37615">
        <ele>328.2</ele>
        <time>2022-07-14T07:42:58Z</time>
      </trkpt>
      <trkpt lat="46.2331" lon="5.37623">
        <ele>328.6</ele>
        <time>2022-07-14T07:43:00Z</time>
      </trkpt>
      <trkpt lat="46.23337" lon="5.37639">
        <ele>329.2</ele>
        <time>2022-07-14T07:43:04Z</time>
      </trkpt>
      <trkpt lat="46.23358" lon="5.37652">
        <ele>329.6</ele>
        <time>2022-07-14T07:43:07Z</time>
      </trkpt>
      <trkpt lat="46.23402" lon="5.37677">
        <ele>329.6</ele>
        <time>2022-07-14T07:43:13Z</time>
      </trkpt>
      <trkpt lat="46.23456" lon="5.3771">
        <ele>328.6</ele>
        <time>2022-07-14T07:43:20Z</time>
      </trkpt>
      <trkpt lat="46.23463" lon="5.37715">
        <ele>328.2</ele>
        <time>2022-07-14T07:43:21Z</time>
      </trkpt>
      <trkpt lat="46.23508" lon="5.3774">
        <ele>328.8</ele>
        <time>2022-07-14T07:43:28Z</time>
      </trkpt>
      <trkpt lat="46.23534" lon="5.37756">
        <ele>329.4</ele>
        <time>2022-07-14T07:43:32Z</time>
      </trkpt>
      <trkpt lat="46.23541" lon="5.37761">
        <ele>329.6</ele>
        <time>2022-07-14T07:43:33Z</time>
      </trkpt>
      <trkpt lat="46.23585" lon="5.37787">
        <ele>330</ele>
        <time>2022-07-14T07:43:40Z</time>
      </trkpt>
      <trkpt lat="46.2364" lon="5.3782">
        <ele>330.6</ele>
        <time>2022-07-14T07:43:48Z</time>
      </trkpt>
      <trkpt lat="46.23672" lon="5.37838">
        <ele>330.6</ele>
        <time>2022-07-14T07:43:53Z</time>
      </trkpt>
      <trkpt lat="46.23684" lon="5.37845">
        <ele>330.8</ele>
        <time>2022-07-14T07:43:55Z</time>
      </trkpt>
      <trkpt lat="46.23728" lon="5.37871">
        <ele>331.2</ele>
        <time>2022-07-14T07:44:02Z</time>
      </trkpt>
      <trkpt lat="46.23783" lon="5.37904">
        <ele>330.8</ele>
        <time>2022-07-14T07:44:11Z</time>
      </trkpt>
      <trkpt lat="46.23794" lon="5.37911">
        <ele>330.8</ele>
        <time>2022-07-14T07:44:13Z</time>
      </trkpt>
      <trkpt lat="46.23817" lon="5.37925">
        <ele>331.8</ele>
        <time>2022-07-14T07:44:17Z</time>
      </trkpt>
      <trkpt lat="46.23836" lon="5.37936">
        <ele>332.6</ele>
        <time>2022-07-14T07:44:20Z</time>
      </trkpt>
      <trkpt lat="46.23847" lon="5.37943">
        <ele>332.8</ele>
        <time>2022-07-14T07:44:22Z</time>
      </trkpt>
      <trkpt lat="46.2388" lon="5.37962">
        <ele>333.2</ele>
        <time>2022-07-14T07:44:27Z</time>
      </trkpt>
      <trkpt lat="46.23924" lon="5.37991">
        <ele>334</ele>
        <time>2022-07-14T07:44:35Z</time>
      </trkpt>
      <trkpt lat="46.23944" lon="5.38003">
        <ele>334.2</ele>
        <time>2022-07-14T07:44:38Z</time>
      </trkpt>
      <trkpt lat="46.23949" lon="5.38006">
        <ele>334.2</ele>
        <time>2022-07-14T07:44:39Z</time>
      </trkpt>
      <trkpt lat="46.23993" lon="5.38031">
        <ele>334.2</ele>
        <time>2022-07-14T07:44:45Z</time>
      </trkpt>
      <trkpt lat="46.24043" lon="5.38061">
        <ele>334</ele>
        <time>2022-07-14T07:44:52Z</time>
      </trkpt>
      <trkpt lat="46.24048" lon="5.38064">
        <ele>334</ele>
        <time>2022-07-14T07:44:53Z</time>
      </trkpt>
      <trkpt lat="46.24088" lon="5.38086">
        <ele>334.2</ele>
        <time>2022-07-14T07:44:59Z</time>
      </trkpt>
      <trkpt lat="46.24101" lon="5.38093">
        <ele>335.2</ele>
        <time>2022-07-14T07:45:01Z</time>
      </trkpt>
      <trkpt lat="46.24132" lon="5.38113">
        <ele>336.4</ele>
        <time>2022-07-14T07:45:06Z</time>
      </trkpt>
      <trkpt lat="46.24184" lon="5.38143">
        <ele>337</ele>
        <time>2022-07-14T07:45:14Z</time>
      </trkpt>
      <trkpt lat="46.24194" lon="5.3815">
        <ele>337.6</ele>
        <time>2022-07-14T07:45:16Z</time>
      </trkpt>
      <trkpt lat="46.24202" lon="5.38155">
        <ele>338</ele>
        <time>2022-07-14T07:45:17Z</time>
      </trkpt>
      <trkpt lat="46.24238" lon="5.38178">
        <ele>338.8</ele>
        <time>2022-07-14T07:45:23Z</time>
      </trkpt>
      <trkpt lat="46.24257" lon="5.38187">
        <ele>339.2</ele>
        <time>2022-07-14T07:45:26Z</time>
      </trkpt>
      <trkpt lat="46.24293" lon="5.38208">
        <ele>339.8</ele>
        <time>2022-07-14T07:45:32Z</time>
      </trkpt>
      <trkpt lat="46.24303" lon="5.38214">
        <ele>340.2</ele>
        <time>2022-07-14T07:45:34Z</time>
      </trkpt>
      <trkpt lat="46.24333" lon="5.3823">
        <ele>341.2</ele>
        <time>2022-07-14T07:45:39Z</time>
      </trkpt>
      <trkpt lat="46.24343" lon="5.38238">
        <ele>341.8</ele>
        <time>2022-07-14T07:45:41Z</time>
      </trkpt>
      <trkpt lat="46.24364" lon="5.38252">
        <ele>342.4</ele>
        <time>2022-07-14T07:45:45Z</time>
      </trkpt>
      <trkpt lat="46.2437" lon="5.38256">
        <ele>342.8</ele>
        <time>2022-07-14T07:45:46Z</time>
      </trkpt>
      <trkpt lat="46.2438" lon="5.38261">
        <ele>343</ele>
        <time>2022-07-14T07:45:48Z</time>
      </trkpt>
      <trkpt lat="46.24391" lon="5.38267">
        <ele>343.4</ele>
        <time>2022-07-14T07:45:50Z</time>
      </trkpt>
      <trkpt lat="46.24408" lon="5.38277">
        <ele>344.6</ele>
        <time>2022-07-14T07:45:53Z</time>
      </trkpt>
      <trkpt lat="46.24417" lon="5.38283">
        <ele>345.2</ele>
        <time>2022-07-14T07:45:55Z</time>
      </trkpt>
      <trkpt lat="46.24431" lon="5.38291">
        <ele>345.6</ele>
        <time>2022-07-14T07:45:57Z</time>
      </trkpt>
      <trkpt lat="46.2446" lon="5.38309">
        <ele>346.8</ele>
        <time>2022-07-14T07:46:03Z</time>
      </trkpt>
      <trkpt lat="46.24468" lon="5.38316">
        <ele>347.2</ele>
        <time>2022-07-14T07:46:05Z</time>
      </trkpt>
      <trkpt lat="46.24483" lon="5.38328">
        <ele>347.8</ele>
        <time>2022-07-14T07:46:08Z</time>
      </trkpt>
      <trkpt lat="46.24505" lon="5.38348">
        <ele>349</ele>
        <time>2022-07-14T07:46:13Z</time>
      </trkpt>
      <trkpt lat="46.24508" lon="5.38352">
        <ele>349.2</ele>
        <time>2022-07-14T07:46:14Z</time>
      </trkpt>
      <trkpt lat="46.24524" lon="5.38373">
        <ele>350</ele>
        <time>2022-07-14T07:46:18Z</time>
      </trkpt>
      <trkpt lat="46.24527" lon="5.38377">
        <ele>350</ele>
        <time>2022-07-14T07:46:19Z</time>
      </trkpt>
      <trkpt lat="46.24536" lon="5.38394">
        <ele>350.6</ele>
        <time>2022-07-14T07:46:22Z</time>
      </trkpt>
      <trkpt lat="46.24543" lon="5.38407">
        <ele>351</ele>
        <time>2022-07-14T07:46:24Z</time>
      </trkpt>
      <trkpt lat="46.24562" lon="5.38452">
        <ele>352</ele>
        <time>2022-07-14T07:46:31Z</time>
      </trkpt>
      <trkpt lat="46.24564" lon="5.38459">
        <ele>352.2</ele>
        <time>2022-07-14T07:46:32Z</time>
      </trkpt>
      <trkpt lat="46.24575" lon="5.38494">
        <ele>353.4</ele>
        <time>2022-07-14T07:46:37Z</time>
      </trkpt>
      <trkpt lat="46.2458" lon="5.38515">
        <ele>353.8</ele>
        <time>2022-07-14T07:46:40Z</time>
      </trkpt>
      <trkpt lat="46.24583" lon="5.38529">
        <ele>354.6</ele>
        <time>2022-07-14T07:46:42Z</time>
      </trkpt>
      <trkpt lat="46.24588" lon="5.38567">
        <ele>355.6</ele>
        <time>2022-07-14T07:46:47Z</time>
      </trkpt>
      <trkpt lat="46.24588" lon="5.38575">
        <ele>355.8</ele>
        <time>2022-07-14T07:46:48Z</time>
      </trkpt>
      <trkpt lat="46.24589" lon="5.38613">
        <ele>356.8</ele>
        <time>2022-07-14T07:46:53Z</time>
      </trkpt>
      <trkpt lat="46.24589" lon="5.38628">
        <ele>357.2</ele>
        <time>2022-07-14T07:46:55Z</time>
      </trkpt>
      <trkpt lat="46.24589" lon="5.3864">
        <ele>357.6</ele>
        <time>2022-07-14T07:46:56Z</time>
      </trkpt>
      <trkpt lat="46.24588" lon="5.38647">
        <ele>357.8</ele>
        <time>2022-07-14T07:46:57Z</time>
      </trkpt>
      <trkpt lat="46.24587" lon="5.38665">
        <ele>358.4</ele>
        <time>2022-07-14T07:47:00Z</time>
      </trkpt>
      <trkpt lat="46.24587" lon="5.3868">
        <ele>359</ele>
        <time>2022-07-14T07:47:02Z</time>
      </trkpt>
      <trkpt lat="46.24588" lon="5.38709">
        <ele>360</ele>
        <time>2022-07-14T07:47:06Z</time>
      </trkpt>
      <trkpt lat="46.24588" lon="5.38724">
        <ele>360.4</ele>
        <time>2022-07-14T07:47:08Z</time>
      </trkpt>
      <trkpt lat="46.2459" lon="5.38739">
        <ele>361</ele>
        <time>2022-07-14T07:47:10Z</time>
      </trkpt>
      <trkpt lat="46.2459" lon="5.38745">
        <ele>361.2</ele>
        <time>2022-07-14T07:47:11Z</time>
      </trkpt>
      <trkpt lat="46.24597" lon="5.38779">
        <ele>362</ele>
        <time>2022-07-14T07:47:16Z</time>
      </trkpt>
      <trkpt lat="46.24602" lon="5.38793">
        <ele>362.6</ele>
        <time>2022-07-14T07:47:18Z</time>
      </trkpt>
      <trkpt lat="46.24611" lon="5.38811">
        <ele>363.2</ele>
        <time>2022-07-14T07:47:21Z</time>
      </trkpt>
      <trkpt lat="46.24618" lon="5.38823">
        <ele>363.6</ele>
        <time>2022-07-14T07:47:23Z</time>
      </trkpt>
      <trkpt lat="46.24622" lon="5.38828">
        <ele>364.2</ele>
        <time>2022-07-14T07:47:24Z</time>
      </trkpt>
      <trkpt lat="46.24627" lon="5.38835">
        <ele>364.4</ele>
        <time>2022-07-14T07:47:25Z</time>
      </trkpt>
      <trkpt lat="46.24634" lon="5.38844">
        <ele>364.6</ele>
        <time>2022-07-14T07:47:27Z</time>
      </trkpt>
      <trkpt lat="46.24641" lon="5.38851">
        <ele>364.8</ele>
        <time>2022-07-14T07:47:29Z</time>
      </trkpt>
      <trkpt lat="46.24644" lon="5.38854">
        <ele>365.2</ele>
        <time>2022-07-14T07:47:30Z</time>
      </trkpt>
      <trkpt lat="46.24651" lon="5.38862">
        <ele>365.8</ele>
        <time>2022-07-14T07:47:32Z</time>
      </trkpt>
      <trkpt lat="46.24663" lon="5.3887">
        <ele>366.6</ele>
        <time>2022-07-14T07:47:35Z</time>
      </trkpt>
      <trkpt lat="46.24689" lon="5.38893">
        <ele>367.6</ele>
        <time>2022-07-14T07:47:41Z</time>
      </trkpt>
      <trkpt lat="46.24694" lon="5.38897">
        <ele>367.8</ele>
        <time>2022-07-14T07:47:42Z</time>
      </trkpt>
      <trkpt lat="46.24718" lon="5.38917">
        <ele>368.8</ele>
        <time>2022-07-14T07:47:47Z</time>
      </trkpt>
      <trkpt lat="46.24723" lon="5.38921">
        <ele>369</ele>
        <time>2022-07-14T07:47:48Z</time>
      </trkpt>
      <trkpt lat="46.2474" lon="5.38937">
        <ele>370</ele>
        <time>2022-07-14T07:47:52Z</time>
      </trkpt>
      <trkpt lat="46.24753" lon="5.3895">
        <ele>370.6</ele>
        <time>2022-07-14T07:47:55Z</time>
      </trkpt>
      <trkpt lat="46.24767" lon="5.3897">
        <ele>371.2</ele>
        <time>2022-07-14T07:47:59Z</time>
      </trkpt>
      <trkpt lat="46.2478" lon="5.38992">
        <ele>372</ele>
        <time>2022-07-14T07:48:03Z</time>
      </trkpt>
      <trkpt lat="46.24785" lon="5.39004">
        <ele>372.6</ele>
        <time>2022-07-14T07:48:05Z</time>
      </trkpt>
      <trkpt lat="46.24788" lon="5.3901">
        <ele>372.8</ele>
        <time>2022-07-14T07:48:06Z</time>
      </trkpt>
      <trkpt lat="46.24795" lon="5.39029">
        <ele>373.2</ele>
        <time>2022-07-14T07:48:09Z</time>
      </trkpt>
      <trkpt lat="46.24803" lon="5.39049">
        <ele>373.8</ele>
        <time>2022-07-14T07:48:12Z</time>
      </trkpt>
      <trkpt lat="46.24815" lon="5.39079">
        <ele>374.4</ele>
        <time>2022-07-14T07:48:16Z</time>
      </trkpt>
      <trkpt lat="46.24824" lon="5.391">
        <ele>375</ele>
        <time>2022-07-14T07:48:19Z</time>
      </trkpt>
      <trkpt lat="46.24846" lon="5.39154">
        <ele>375.6</ele>
        <time>2022-07-14T07:48:26Z</time>
      </trkpt>
      <trkpt lat="46.24872" lon="5.39216">
        <ele>375.2</ele>
        <time>2022-07-14T07:48:34Z</time>
      </trkpt>
      <trkpt lat="46.249" lon="5.39278">
        <ele>374.8</ele>
        <time>2022-07-14T07:48:42Z</time>
      </trkpt>
      <trkpt lat="46.24918" lon="5.39324">
        <ele>374.6</ele>
        <time>2022-07-14T07:48:47Z</time>
      </trkpt>
      <trkpt lat="46.2493" lon="5.39382">
        <ele>373.2</ele>
        <time>2022-07-14T07:48:52Z</time>
      </trkpt>
      <trkpt lat="46.24934" lon="5.3942">
        <ele>371.6</ele>
        <time>2022-07-14T07:48:55Z</time>
      </trkpt>
      <trkpt lat="46.24937" lon="5.39446">
        <ele>370.8</ele>
        <time>2022-07-14T07:48:57Z</time>
      </trkpt>
      <trkpt lat="46.24938" lon="5.3946">
        <ele>370.4</ele>
        <time>2022-07-14T07:48:58Z</time>
      </trkpt>
      <trkpt lat="46.24943" lon="5.39518">
        <ele>369</ele>
        <time>2022-07-14T07:49:02Z</time>
      </trkpt>
      <trkpt lat="46.24946" lon="5.39548">
        <ele>368</ele>
        <time>2022-07-14T07:49:04Z</time>
      </trkpt>
      <trkpt lat="46.24948" lon="5.39579">
        <ele>366.8</ele>
        <time>2022-07-14T07:49:06Z</time>
      </trkpt>
      <trkpt lat="46.24952" lon="5.39626">
        <ele>365</ele>
        <time>2022-07-14T07:49:09Z</time>
      </trkpt>
      <trkpt lat="46.24956" lon="5.39658">
        <ele>364</ele>
        <time>2022-07-14T07:49:11Z</time>
      </trkpt>
      <trkpt lat="46.24957" lon="5.39674">
        <ele>363.6</ele>
        <time>2022-07-14T07:49:12Z</time>
      </trkpt>
      <trkpt lat="46.2496" lon="5.39706">
        <ele>362.2</ele>
        <time>2022-07-14T07:49:14Z</time>
      </trkpt>
      <trkpt lat="46.24963" lon="5.39736">
        <ele>360.6</ele>
        <time>2022-07-14T07:49:16Z</time>
      </trkpt>
      <trkpt lat="46.24968" lon="5.39767">
        <ele>359.2</ele>
        <time>2022-07-14T07:49:18Z</time>
      </trkpt>
      <trkpt lat="46.24973" lon="5.39797">
        <ele>358</ele>
        <time>2022-07-14T07:49:20Z</time>
      </trkpt>
      <trkpt lat="46.24978" lon="5.39827">
        <ele>357.6</ele>
        <time>2022-07-14T07:49:22Z</time>
      </trkpt>
      <trkpt lat="46.24982" lon="5.3984">
        <ele>357</ele>
        <time>2022-07-14T07:49:23Z</time>
      </trkpt>
      <trkpt lat="46.24987" lon="5.39854">
        <ele>356.6</ele>
        <time>2022-07-14T07:49:24Z</time>
      </trkpt>
      <trkpt lat="46.25" lon="5.3988">
        <ele>356.2</ele>
        <time>2022-07-14T07:49:26Z</time>
      </trkpt>
      <trkpt lat="46.25008" lon="5.39892">
        <ele>355.6</ele>
        <time>2022-07-14T07:49:27Z</time>
      </trkpt>
      <trkpt lat="46.25022" lon="5.39918">
        <ele>354.4</ele>
        <time>2022-07-14T07:49:29Z</time>
      </trkpt>
      <trkpt lat="46.25036" lon="5.39944">
        <ele>353.6</ele>
        <time>2022-07-14T07:49:31Z</time>
      </trkpt>
      <trkpt lat="46.25043" lon="5.39956">
        <ele>353</ele>
        <time>2022-07-14T07:49:32Z</time>
      </trkpt>
      <trkpt lat="46.25061" lon="5.39978">
        <ele>352.4</ele>
        <time>2022-07-14T07:49:34Z</time>
      </trkpt>
      <trkpt lat="46.25071" lon="5.39987">
        <ele>352</ele>
        <time>2022-07-14T07:49:35Z</time>
      </trkpt>
      <trkpt lat="46.25081" lon="5.39996">
        <ele>351.6</ele>
        <time>2022-07-14T07:49:36Z</time>
      </trkpt>
      <trkpt lat="46.25111" lon="5.40021">
        <ele>350.4</ele>
        <time>2022-07-14T07:49:39Z</time>
      </trkpt>
      <trkpt lat="46.25151" lon="5.4005">
        <ele>349.4</ele>
        <time>2022-07-14T07:49:43Z</time>
      </trkpt>
      <trkpt lat="46.25162" lon="5.40056">
        <ele>348.2</ele>
        <time>2022-07-14T07:49:44Z</time>
      </trkpt>
      <trkpt lat="46.25195" lon="5.40071">
        <ele>347</ele>
        <time>2022-07-14T07:49:47Z</time>
      </trkpt>
      <trkpt lat="46.25206" lon="5.40075">
        <ele>346.2</ele>
        <time>2022-07-14T07:49:48Z</time>
      </trkpt>
      <trkpt lat="46.25218" lon="5.40079">
        <ele>345.8</ele>
        <time>2022-07-14T07:49:49Z</time>
      </trkpt>
      <trkpt lat="46.25239" lon="5.40082">
        <ele>344.8</ele>
        <time>2022-07-14T07:49:51Z</time>
      </trkpt>
      <trkpt lat="46.25251" lon="5.40081">
        <ele>344.4</ele>
        <time>2022-07-14T07:49:52Z</time>
      </trkpt>
      <trkpt lat="46.25276" lon="5.40079">
        <ele>343.6</ele>
        <time>2022-07-14T07:49:54Z</time>
      </trkpt>
      <trkpt lat="46.25317" lon="5.4008">
        <ele>342.2</ele>
        <time>2022-07-14T07:49:57Z</time>
      </trkpt>
      <trkpt lat="46.25317" lon="5.4008">
        <ele>341</ele>
        <time>2022-07-14T07:49:58Z</time>
      </trkpt>
      <trkpt lat="46.25343" lon="5.4009">
        <ele>340</ele>
        <time>2022-07-14T07:50:00Z</time>
      </trkpt>
      <trkpt lat="46.25364" lon="5.40105">
        <ele>339</ele>
        <time>2022-07-14T07:50:02Z</time>
      </trkpt>
      <trkpt lat="46.25391" lon="5.40129">
        <ele>337.6</ele>
        <time>2022-07-14T07:50:05Z</time>
      </trkpt>
      <trkpt lat="46.25421" lon="5.40157">
        <ele>336.4</ele>
        <time>2022-07-14T07:50:08Z</time>
      </trkpt>
      <trkpt lat="46.25439" lon="5.40175">
        <ele>335.4</ele>
        <time>2022-07-14T07:50:10Z</time>
      </trkpt>
      <trkpt lat="46.25476" lon="5.4021">
        <ele>333.8</ele>
        <time>2022-07-14T07:50:14Z</time>
      </trkpt>
      <trkpt lat="46.25487" lon="5.40221">
        <ele>333.4</ele>
        <time>2022-07-14T07:50:15Z</time>
      </trkpt>
      <trkpt lat="46.25495" lon="5.40229">
        <ele>332.6</ele>
        <time>2022-07-14T07:50:16Z</time>
      </trkpt>
      <trkpt lat="46.25524" lon="5.40259">
        <ele>331.4</ele>
        <time>2022-07-14T07:50:19Z</time>
      </trkpt>
      <trkpt lat="46.25538" lon="5.40283">
        <ele>330.6</ele>
        <time>2022-07-14T07:50:21Z</time>
      </trkpt>
      <trkpt lat="46.25544" lon="5.40297">
        <ele>330.2</ele>
        <time>2022-07-14T07:50:22Z</time>
      </trkpt>
      <trkpt lat="46.25552" lon="5.40325">
        <ele>329</ele>
        <time>2022-07-14T07:50:24Z</time>
      </trkpt>
      <trkpt lat="46.25557" lon="5.40355">
        <ele>328</ele>
        <time>2022-07-14T07:50:26Z</time>
      </trkpt>
      <trkpt lat="46.25557" lon="5.40367">
        <ele>327.6</ele>
        <time>2022-07-14T07:50:27Z</time>
      </trkpt>
      <trkpt lat="46.25556" lon="5.40381">
        <ele>327</ele>
        <time>2022-07-14T07:50:28Z</time>
      </trkpt>
      <trkpt lat="46.25552" lon="5.40412">
        <ele>325.2</ele>
        <time>2022-07-14T07:50:30Z</time>
      </trkpt>
      <trkpt lat="46.25545" lon="5.40436">
        <ele>324.2</ele>
        <time>2022-07-14T07:50:32Z</time>
      </trkpt>
      <trkpt lat="46.25537" lon="5.40465">
        <ele>323.2</ele>
        <time>2022-07-14T07:50:34Z</time>
      </trkpt>
      <trkpt lat="46.25534" lon="5.40478">
        <ele>323</ele>
        <time>2022-07-14T07:50:35Z</time>
      </trkpt>
      <trkpt lat="46.25531" lon="5.40491">
        <ele>322.8</ele>
        <time>2022-07-14T07:50:36Z</time>
      </trkpt>
      <trkpt lat="46.25523" lon="5.40514">
        <ele>322.2</ele>
        <time>2022-07-14T07:50:38Z</time>
      </trkpt>
      <trkpt lat="46.25521" lon="5.40525">
        <ele>322.2</ele>
        <time>2022-07-14T07:50:39Z</time>
      </trkpt>
      <trkpt lat="46.25521" lon="5.40536">
        <ele>322</ele>
        <time>2022-07-14T07:50:40Z</time>
      </trkpt>
      <trkpt lat="46.25523" lon="5.40544">
        <ele>322</ele>
        <time>2022-07-14T07:50:41Z</time>
      </trkpt>
      <trkpt lat="46.25526" lon="5.40566">
        <ele>322</ele>
        <time>2022-07-14T07:50:43Z</time>
      </trkpt>
      <trkpt lat="46.25529" lon="5.4059">
        <ele>322</ele>
        <time>2022-07-14T07:50:46Z</time>
      </trkpt>
      <trkpt lat="46.25534" lon="5.40601">
        <ele>322.2</ele>
        <time>2022-07-14T07:50:48Z</time>
      </trkpt>
      <trkpt lat="46.25536" lon="5.40607">
        <ele>322.4</ele>
        <time>2022-07-14T07:50:49Z</time>
      </trkpt>
      <trkpt lat="46.25537" lon="5.40612">
        <ele>322.4</ele>
        <time>2022-07-14T07:50:50Z</time>
      </trkpt>
      <trkpt lat="46.2554" lon="5.40635">
        <ele>322.6</ele>
        <time>2022-07-14T07:50:53Z</time>
      </trkpt>
      <trkpt lat="46.25549" lon="5.40675">
        <ele>322.4</ele>
        <time>2022-07-14T07:50:57Z</time>
      </trkpt>
      <trkpt lat="46.2556" lon="5.40728">
        <ele>321.2</ele>
        <time>2022-07-14T07:51:02Z</time>
      </trkpt>
      <trkpt lat="46.25562" lon="5.40736">
        <ele>321</ele>
        <time>2022-07-14T07:51:03Z</time>
      </trkpt>
      <trkpt lat="46.25566" lon="5.40747">
        <ele>320.8</ele>
        <time>2022-07-14T07:51:04Z</time>
      </trkpt>
      <trkpt lat="46.25569" lon="5.40754">
        <ele>320.8</ele>
        <time>2022-07-14T07:51:05Z</time>
      </trkpt>
      <trkpt lat="46.25579" lon="5.40765">
        <ele>320.8</ele>
        <time>2022-07-14T07:51:07Z</time>
      </trkpt>
      <trkpt lat="46.25595" lon="5.40777">
        <ele>321.2</ele>
        <time>2022-07-14T07:51:10Z</time>
      </trkpt>
      <trkpt lat="46.25605" lon="5.40786">
        <ele>321.4</ele>
        <time>2022-07-14T07:51:12Z</time>
      </trkpt>
      <trkpt lat="46.25619" lon="5.40801">
        <ele>322.2</ele>
        <time>2022-07-14T07:51:15Z</time>
      </trkpt>
      <trkpt lat="46.25625" lon="5.40808">
        <ele>322.2</ele>
        <time>2022-07-14T07:51:16Z</time>
      </trkpt>
      <trkpt lat="46.25631" lon="5.40822">
        <ele>322.6</ele>
        <time>2022-07-14T07:51:18Z</time>
      </trkpt>
      <trkpt lat="46.25633" lon="5.40837">
        <ele>322.8</ele>
        <time>2022-07-14T07:51:20Z</time>
      </trkpt>
      <trkpt lat="46.25632" lon="5.40843">
        <ele>323.2</ele>
        <time>2022-07-14T07:51:21Z</time>
      </trkpt>
      <trkpt lat="46.25631" lon="5.40866">
        <ele>324.6</ele>
        <time>2022-07-14T07:51:24Z</time>
      </trkpt>
      <trkpt lat="46.25629" lon="5.40884">
        <ele>324.8</ele>
        <time>2022-07-14T07:51:26Z</time>
      </trkpt>
      <trkpt lat="46.25628" lon="5.40893">
        <ele>325.2</ele>
        <time>2022-07-14T07:51:28Z</time>
      </trkpt>
      <trkpt lat="46.25628" lon="5.4091">
        <ele>325.6</ele>
        <time>2022-07-14T07:51:30Z</time>
      </trkpt>
      <trkpt lat="46.25627" lon="5.40927">
        <ele>326.2</ele>
        <time>2022-07-14T07:51:32Z</time>
      </trkpt>
      <trkpt lat="46.25627" lon="5.40942">
        <ele>326.4</ele>
        <time>2022-07-14T07:51:34Z</time>
      </trkpt>
      <trkpt lat="46.25627" lon="5.40949">
        <ele>326.4</ele>
        <time>2022-07-14T07:51:35Z</time>
      </trkpt>
      <trkpt lat="46.25626" lon="5.4096">
        <ele>326.4</ele>
        <time>2022-07-14T07:51:36Z</time>
      </trkpt>
      <trkpt lat="46.2563" lon="5.40978">
        <ele>326.4</ele>
        <time>2022-07-14T07:51:38Z</time>
      </trkpt>
      <trkpt lat="46.25647" lon="5.41015">
        <ele>326</ele>
        <time>2022-07-14T07:51:42Z</time>
      </trkpt>
      <trkpt lat="46.25651" lon="5.41024">
        <ele>325.8</ele>
        <time>2022-07-14T07:51:43Z</time>
      </trkpt>
      <trkpt lat="46.25659" lon="5.41045">
        <ele>325</ele>
        <time>2022-07-14T07:51:45Z</time>
      </trkpt>
      <trkpt lat="46.25661" lon="5.41056">
        <ele>324.8</ele>
        <time>2022-07-14T07:51:46Z</time>
      </trkpt>
      <trkpt lat="46.25664" lon="5.41067">
        <ele>324.6</ele>
        <time>2022-07-14T07:51:47Z</time>
      </trkpt>
      <trkpt lat="46.25671" lon="5.41098">
        <ele>323.4</ele>
        <time>2022-07-14T07:51:50Z</time>
      </trkpt>
      <trkpt lat="46.25674" lon="5.41108">
        <ele>323.4</ele>
        <time>2022-07-14T07:51:51Z</time>
      </trkpt>
      <trkpt lat="46.25682" lon="5.41124">
        <ele>323.2</ele>
        <time>2022-07-14T07:51:53Z</time>
      </trkpt>
      <trkpt lat="46.25689" lon="5.41133">
        <ele>323</ele>
        <time>2022-07-14T07:51:54Z</time>
      </trkpt>
      <trkpt lat="46.25734" lon="5.41182">
        <ele>322.6</ele>
        <time>2022-07-14T07:52:01Z</time>
      </trkpt>
      <trkpt lat="46.25745" lon="5.41201">
        <ele>322.4</ele>
        <time>2022-07-14T07:52:03Z</time>
      </trkpt>
      <trkpt lat="46.25749" lon="5.41211">
        <ele>322.4</ele>
        <time>2022-07-14T07:52:04Z</time>
      </trkpt>
      <trkpt lat="46.25753" lon="5.41223">
        <ele>322</ele>
        <time>2022-07-14T07:52:05Z</time>
      </trkpt>
      <trkpt lat="46.25757" lon="5.41247">
        <ele>321.2</ele>
        <time>2022-07-14T07:52:07Z</time>
      </trkpt>
      <trkpt lat="46.25758" lon="5.41259">
        <ele>320.8</ele>
        <time>2022-07-14T07:52:08Z</time>
      </trkpt>
      <trkpt lat="46.25757" lon="5.41295">
        <ele>320</ele>
        <time>2022-07-14T07:52:11Z</time>
      </trkpt>
      <trkpt lat="46.25755" lon="5.41317">
        <ele>319.6</ele>
        <time>2022-07-14T07:52:13Z</time>
      </trkpt>
      <trkpt lat="46.2575" lon="5.41379">
        <ele>319.8</ele>
        <time>2022-07-14T07:52:19Z</time>
      </trkpt>
      <trkpt lat="46.25751" lon="5.41397">
        <ele>320.2</ele>
        <time>2022-07-14T07:52:21Z</time>
      </trkpt>
      <trkpt lat="46.25754" lon="5.41414">
        <ele>320.6</ele>
        <time>2022-07-14T07:52:23Z</time>
      </trkpt>
      <trkpt lat="46.25759" lon="5.41428">
        <ele>321.2</ele>
        <time>2022-07-14T07:52:25Z</time>
      </trkpt>
      <trkpt lat="46.2576" lon="5.41432">
        <ele>321.4</ele>
        <time>2022-07-14T07:52:26Z</time>
      </trkpt>
      <trkpt lat="46.25763" lon="5.41439">
        <ele>322</ele>
        <time>2022-07-14T07:52:27Z</time>
      </trkpt>
      <trkpt lat="46.25766" lon="5.41444">
        <ele>322.2</ele>
        <time>2022-07-14T07:52:28Z</time>
      </trkpt>
      <trkpt lat="46.25769" lon="5.41447">
        <ele>322.6</ele>
        <time>2022-07-14T07:52:29Z</time>
      </trkpt>
      <trkpt lat="46.25777" lon="5.41456">
        <ele>323.6</ele>
        <time>2022-07-14T07:52:31Z</time>
      </trkpt>
      <trkpt lat="46.25785" lon="5.41462">
        <ele>324.4</ele>
        <time>2022-07-14T07:52:33Z</time>
      </trkpt>
      <trkpt lat="46.2579" lon="5.41465">
        <ele>324.8</ele>
        <time>2022-07-14T07:52:34Z</time>
      </trkpt>
      <trkpt lat="46.25807" lon="5.41473">
        <ele>326.2</ele>
        <time>2022-07-14T07:52:38Z</time>
      </trkpt>
      <trkpt lat="46.25819" lon="5.41477">
        <ele>327.2</ele>
        <time>2022-07-14T07:52:41Z</time>
      </trkpt>
      <trkpt lat="46.25827" lon="5.4148">
        <ele>327.6</ele>
        <time>2022-07-14T07:52:43Z</time>
      </trkpt>
      <trkpt lat="46.25831" lon="5.41482">
        <ele>327.8</ele>
        <time>2022-07-14T07:52:44Z</time>
      </trkpt>
      <trkpt lat="46.25835" lon="5.41483">
        <ele>328.4</ele>
        <time>2022-07-14T07:52:45Z</time>
      </trkpt>
      <trkpt lat="46.25843" lon="5.41486">
        <ele>328.8</ele>
        <time>2022-07-14T07:52:47Z</time>
      </trkpt>
      <trkpt lat="46.25855" lon="5.41492">
        <ele>329.2</ele>
        <time>2022-07-14T07:52:50Z</time>
      </trkpt>
      <trkpt lat="46.25863" lon="5.41496">
        <ele>329.4</ele>
        <time>2022-07-14T07:52:52Z</time>
      </trkpt>
      <trkpt lat="46.25884" lon="5.41509">
        <ele>330.6</ele>
        <time>2022-07-14T07:52:57Z</time>
      </trkpt>
      <trkpt lat="46.25896" lon="5.41518">
        <ele>331.2</ele>
        <time>2022-07-14T07:53:01Z</time>
      </trkpt>
      <trkpt lat="46.25903" lon="5.41523">
        <ele>331.6</ele>
        <time>2022-07-14T07:53:03Z</time>
      </trkpt>
      <trkpt lat="46.25916" lon="5.41533">
        <ele>333</ele>
        <time>2022-07-14T07:53:07Z</time>
      </trkpt>
      <trkpt lat="46.25923" lon="5.41538">
        <ele>333.6</ele>
        <time>2022-07-14T07:53:09Z</time>
      </trkpt>
      <trkpt lat="46.25932" lon="5.41543">
        <ele>334</ele>
        <time>2022-07-14T07:53:12Z</time>
      </trkpt>
      <trkpt lat="46.25946" lon="5.41546">
        <ele>335.4</ele>
        <time>2022-07-14T07:53:16Z</time>
      </trkpt>
      <trkpt lat="46.25968" lon="5.41547">
        <ele>336.4</ele>
        <time>2022-07-14T07:53:22Z</time>
      </trkpt>
      <trkpt lat="46.25972" lon="5.41547">
        <ele>336.8</ele>
        <time>2022-07-14T07:53:23Z</time>
      </trkpt>
      <trkpt lat="46.25984" lon="5.41554">
        <ele>337.4</ele>
        <time>2022-07-14T07:53:27Z</time>
      </trkpt>
      <trkpt lat="46.25986" lon="5.41558">
        <ele>337.8</ele>
        <time>2022-07-14T07:53:28Z</time>
      </trkpt>
      <trkpt lat="46.25987" lon="5.4157">
        <ele>338.8</ele>
        <time>2022-07-14T07:53:31Z</time>
      </trkpt>
      <trkpt lat="46.25984" lon="5.41588">
        <ele>340</ele>
        <time>2022-07-14T07:53:35Z</time>
      </trkpt>
      <trkpt lat="46.2598" lon="5.41602">
        <ele>340.6</ele>
        <time>2022-07-14T07:53:38Z</time>
      </trkpt>
      <trkpt lat="46.25974" lon="5.41619">
        <ele>341</ele>
        <time>2022-07-14T07:53:42Z</time>
      </trkpt>
      <trkpt lat="46.2597" lon="5.41626">
        <ele>341.4</ele>
        <time>2022-07-14T07:53:44Z</time>
      </trkpt>
      <trkpt lat="46.25961" lon="5.4164">
        <ele>342</ele>
        <time>2022-07-14T07:53:48Z</time>
      </trkpt>
      <trkpt lat="46.25958" lon="5.41648">
        <ele>342.4</ele>
        <time>2022-07-14T07:53:50Z</time>
      </trkpt>
      <trkpt lat="46.25959" lon="5.41664">
        <ele>343.2</ele>
        <time>2022-07-14T07:53:53Z</time>
      </trkpt>
      <trkpt lat="46.25961" lon="5.41677">
        <ele>343.4</ele>
        <time>2022-07-14T07:53:55Z</time>
      </trkpt>
      <trkpt lat="46.25965" lon="5.41704">
        <ele>343.8</ele>
        <time>2022-07-14T07:53:59Z</time>
      </trkpt>
      <trkpt lat="46.25968" lon="5.41718">
        <ele>344</ele>
        <time>2022-07-14T07:54:01Z</time>
      </trkpt>
      <trkpt lat="46.2597" lon="5.41725">
        <ele>344.2</ele>
        <time>2022-07-14T07:54:02Z</time>
      </trkpt>
      <trkpt lat="46.2597" lon="5.41732">
        <ele>344.4</ele>
        <time>2022-07-14T07:54:03Z</time>
      </trkpt>
      <trkpt lat="46.25973" lon="5.41751">
        <ele>344.8</ele>
        <time>2022-07-14T07:54:06Z</time>
      </trkpt>
      <trkpt lat="46.25974" lon="5.41757">
        <ele>344.8</ele>
        <time>2022-07-14T07:54:07Z</time>
      </trkpt>
      <trkpt lat="46.25976" lon="5.41777">
        <ele>345.2</ele>
        <time>2022-07-14T07:54:10Z</time>
      </trkpt>
      <trkpt lat="46.25978" lon="5.41791">
        <ele>345.6</ele>
        <time>2022-07-14T07:54:12Z</time>
      </trkpt>
      <trkpt lat="46.25982" lon="5.41804">
        <ele>346.4</ele>
        <time>2022-07-14T07:54:14Z</time>
      </trkpt>
      <trkpt lat="46.25987" lon="5.41834">
        <ele>347.2</ele>
        <time>2022-07-14T07:54:18Z</time>
      </trkpt>
      <trkpt lat="46.25989" lon="5.41849">
        <ele>347.4</ele>
        <time>2022-07-14T07:54:20Z</time>
      </trkpt>
      <trkpt lat="46.25992" lon="5.41865">
        <ele>347.4</ele>
        <time>2022-07-14T07:54:22Z</time>
      </trkpt>
      <trkpt lat="46.25994" lon="5.41873">
        <ele>347.4</ele>
        <time>2022-07-14T07:54:23Z</time>
      </trkpt>
      <trkpt lat="46.26002" lon="5.41907">
        <ele>346.8</ele>
        <time>2022-07-14T07:54:27Z</time>
      </trkpt>
      <trkpt lat="46.26006" lon="5.41915">
        <ele>346.4</ele>
        <time>2022-07-14T07:54:28Z</time>
      </trkpt>
      <trkpt lat="46.26021" lon="5.41939">
        <ele>345.4</ele>
        <time>2022-07-14T07:54:31Z</time>
      </trkpt>
      <trkpt lat="46.2603" lon="5.41955">
        <ele>344.8</ele>
        <time>2022-07-14T07:54:33Z</time>
      </trkpt>
      <trkpt lat="46.26045" lon="5.41979">
        <ele>344</ele>
        <time>2022-07-14T07:54:35Z</time>
      </trkpt>
      <trkpt lat="46.2606" lon="5.42001">
        <ele>342.8</ele>
        <time>2022-07-14T07:54:38Z</time>
      </trkpt>
      <trkpt lat="46.26083" lon="5.42031">
        <ele>341.8</ele>
        <time>2022-07-14T07:54:41Z</time>
      </trkpt>
      <trkpt lat="46.2609" lon="5.42038">
        <ele>340.8</ele>
        <time>2022-07-14T07:54:42Z</time>
      </trkpt>
      <trkpt lat="46.26099" lon="5.42049">
        <ele>340.6</ele>
        <time>2022-07-14T07:54:43Z</time>
      </trkpt>
      <trkpt lat="46.26116" lon="5.42067">
        <ele>339.4</ele>
        <time>2022-07-14T07:54:45Z</time>
      </trkpt>
      <trkpt lat="46.26132" lon="5.42082">
        <ele>338.6</ele>
        <time>2022-07-14T07:54:47Z</time>
      </trkpt>
      <trkpt lat="46.26144" lon="5.42091">
        <ele>338</ele>
        <time>2022-07-14T07:54:48Z</time>
      </trkpt>
      <trkpt lat="46.26165" lon="5.42104">
        <ele>336.8</ele>
        <time>2022-07-14T07:54:50Z</time>
      </trkpt>
      <trkpt lat="46.26175" lon="5.4211">
        <ele>335.6</ele>
        <time>2022-07-14T07:54:51Z</time>
      </trkpt>
      <trkpt lat="46.26186" lon="5.42116">
        <ele>334</ele>
        <time>2022-07-14T07:54:52Z</time>
      </trkpt>
      <trkpt lat="46.26197" lon="5.42123">
        <ele>333.4</ele>
        <time>2022-07-14T07:54:53Z</time>
      </trkpt>
      <trkpt lat="46.26207" lon="5.42134">
        <ele>332.8</ele>
        <time>2022-07-14T07:54:54Z</time>
      </trkpt>
      <trkpt lat="46.26212" lon="5.42145">
        <ele>332.6</ele>
        <time>2022-07-14T07:54:55Z</time>
      </trkpt>
      <trkpt lat="46.26217" lon="5.4216">
        <ele>332</ele>
        <time>2022-07-14T07:54:56Z</time>
      </trkpt>
      <trkpt lat="46.26218" lon="5.42181">
        <ele>331.6</ele>
        <time>2022-07-14T07:54:57Z</time>
      </trkpt>
      <trkpt lat="46.26217" lon="5.42199">
        <ele>329.8</ele>
        <time>2022-07-14T07:54:58Z</time>
      </trkpt>
      <trkpt lat="46.26217" lon="5.42216">
        <ele>328.2</ele>
        <time>2022-07-14T07:54:59Z</time>
      </trkpt>
      <trkpt lat="46.26219" lon="5.42251">
        <ele>326.4</ele>
        <time>2022-07-14T07:55:01Z</time>
      </trkpt>
      <trkpt lat="46.26221" lon="5.42284">
        <ele>325.4</ele>
        <time>2022-07-14T07:55:03Z</time>
      </trkpt>
      <trkpt lat="46.26224" lon="5.42316">
        <ele>324.4</ele>
        <time>2022-07-14T07:55:05Z</time>
      </trkpt>
      <trkpt lat="46.26226" lon="5.42331">
        <ele>323.8</ele>
        <time>2022-07-14T07:55:06Z</time>
      </trkpt>
      <trkpt lat="46.26235" lon="5.42371">
        <ele>322.8</ele>
        <time>2022-07-14T07:55:09Z</time>
      </trkpt>
      <trkpt lat="46.26255" lon="5.42417">
        <ele>322.4</ele>
        <time>2022-07-14T07:55:13Z</time>
      </trkpt>
      <trkpt lat="46.26284" lon="5.42462">
        <ele>322.2</ele>
        <time>2022-07-14T07:55:18Z</time>
      </trkpt>
      <trkpt lat="46.26306" lon="5.42482">
        <ele>321.6</ele>
        <time>2022-07-14T07:55:21Z</time>
      </trkpt>
      <trkpt lat="46.26321" lon="5.42494">
        <ele>321.2</ele>
        <time>2022-07-14T07:55:23Z</time>
      </trkpt>
      <trkpt lat="46.26331" lon="5.42514">
        <ele>321</ele>
        <time>2022-07-14T07:55:25Z</time>
      </trkpt>
      <trkpt lat="46.26336" lon="5.42548">
        <ele>320.6</ele>
        <time>2022-07-14T07:55:28Z</time>
      </trkpt>
      <trkpt lat="46.26337" lon="5.42557">
        <ele>320.4</ele>
        <time>2022-07-14T07:55:29Z</time>
      </trkpt>
      <trkpt lat="46.26337" lon="5.42574">
        <ele>320.2</ele>
        <time>2022-07-14T07:55:32Z</time>
      </trkpt>
      <trkpt lat="46.26338" lon="5.42577">
        <ele>320</ele>
        <time>2022-07-14T07:55:35Z</time>
      </trkpt>
      <trkpt lat="46.26339" lon="5.42581">
        <ele>320</ele>
        <time>2022-07-14T07:55:37Z</time>
      </trkpt>
      <trkpt lat="46.26344" lon="5.42582">
        <ele>320</ele>
        <time>2022-07-14T07:55:39Z</time>
      </trkpt>
      <trkpt lat="46.26363" lon="5.42582">
        <ele>320</ele>
        <time>2022-07-14T07:55:43Z</time>
      </trkpt>
      <trkpt lat="46.264" lon="5.4259">
        <ele>320</ele>
        <time>2022-07-14T07:55:49Z</time>
      </trkpt>
      <trkpt lat="46.2641" lon="5.42593">
        <ele>320.2</ele>
        <time>2022-07-14T07:55:51Z</time>
      </trkpt>
      <trkpt lat="46.26417" lon="5.426">
        <ele>320.2</ele>
        <time>2022-07-14T07:55:53Z</time>
      </trkpt>
      <trkpt lat="46.26414" lon="5.42622">
        <ele>320.2</ele>
        <time>2022-07-14T07:55:55Z</time>
      </trkpt>
      <trkpt lat="46.26411" lon="5.42694">
        <ele>319.8</ele>
        <time>2022-07-14T07:56:03Z</time>
      </trkpt>
      <trkpt lat="46.26411" lon="5.4272">
        <ele>319.6</ele>
        <time>2022-07-14T07:56:06Z</time>
      </trkpt>
      <trkpt lat="46.26416" lon="5.42756">
        <ele>319.4</ele>
        <time>2022-07-14T07:56:10Z</time>
      </trkpt>
      <trkpt lat="46.26418" lon="5.42764">
        <ele>319.2</ele>
        <time>2022-07-14T07:56:11Z</time>
      </trkpt>
      <trkpt lat="46.26432" lon="5.42805">
        <ele>318.8</ele>
        <time>2022-07-14T07:56:16Z</time>
      </trkpt>
      <trkpt lat="46.26435" lon="5.42815">
        <ele>318.8</ele>
        <time>2022-07-14T07:56:17Z</time>
      </trkpt>
      <trkpt lat="46.26442" lon="5.42849">
        <ele>318.6</ele>
        <time>2022-07-14T07:56:21Z</time>
      </trkpt>
      <trkpt lat="46.26446" lon="5.4288">
        <ele>318.8</ele>
        <time>2022-07-14T07:56:24Z</time>
      </trkpt>
      <trkpt lat="46.26446" lon="5.42899">
        <ele>319</ele>
        <time>2022-07-14T07:56:26Z</time>
      </trkpt>
      <trkpt lat="46.26447" lon="5.42962">
        <ele>319</ele>
        <time>2022-07-14T07:56:33Z</time>
      </trkpt>
      <trkpt lat="46.26447" lon="5.42979">
        <ele>319.2</ele>
        <time>2022-07-14T07:56:35Z</time>
      </trkpt>
      <trkpt lat="46.26448" lon="5.42996">
        <ele>319.4</ele>
        <time>2022-07-14T07:56:37Z</time>
      </trkpt>
      <trkpt lat="46.26448" lon="5.43004">
        <ele>319.4</ele>
        <time>2022-07-14T07:56:38Z</time>
      </trkpt>
      <trkpt lat="46.26448" lon="5.43029">
        <ele>320.2</ele>
        <time>2022-07-14T07:56:41Z</time>
      </trkpt>
      <trkpt lat="46.26451" lon="5.43042">
        <ele>320.8</ele>
        <time>2022-07-14T07:56:43Z</time>
      </trkpt>
      <trkpt lat="46.26459" lon="5.43051">
        <ele>321.2</ele>
        <time>2022-07-14T07:56:45Z</time>
      </trkpt>
      <trkpt lat="46.26464" lon="5.43053">
        <ele>321.4</ele>
        <time>2022-07-14T07:56:46Z</time>
      </trkpt>
      <trkpt lat="46.26482" lon="5.43057">
        <ele>322</ele>
        <time>2022-07-14T07:56:49Z</time>
      </trkpt>
      <trkpt lat="46.26487" lon="5.43057">
        <ele>322.4</ele>
        <time>2022-07-14T07:56:50Z</time>
      </trkpt>
      <trkpt lat="46.26526" lon="5.43063">
        <ele>322.8</ele>
        <time>2022-07-14T07:56:56Z</time>
      </trkpt>
      <trkpt lat="46.26572" lon="5.43071">
        <ele>322.8</ele>
        <time>2022-07-14T07:57:03Z</time>
      </trkpt>
      <trkpt lat="46.26598" lon="5.43077">
        <ele>323</ele>
        <time>2022-07-14T07:57:07Z</time>
      </trkpt>
      <trkpt lat="46.26635" lon="5.43085">
        <ele>323.4</ele>
        <time>2022-07-14T07:57:13Z</time>
      </trkpt>
      <trkpt lat="46.26659" lon="5.43093">
        <ele>324.2</ele>
        <time>2022-07-14T07:57:17Z</time>
      </trkpt>
      <trkpt lat="46.26675" lon="5.431">
        <ele>324.8</ele>
        <time>2022-07-14T07:57:20Z</time>
      </trkpt>
      <trkpt lat="46.26686" lon="5.43107">
        <ele>325.4</ele>
        <time>2022-07-14T07:57:23Z</time>
      </trkpt>
      <trkpt lat="46.26693" lon="5.43113">
        <ele>325.8</ele>
        <time>2022-07-14T07:57:25Z</time>
      </trkpt>
      <trkpt lat="46.26699" lon="5.43117">
        <ele>326.6</ele>
        <time>2022-07-14T07:57:27Z</time>
      </trkpt>
      <trkpt lat="46.26708" lon="5.43125">
        <ele>328.2</ele>
        <time>2022-07-14T07:57:30Z</time>
      </trkpt>
      <trkpt lat="46.2671" lon="5.43126">
        <ele>328.4</ele>
        <time>2022-07-14T07:57:31Z</time>
      </trkpt>
      <trkpt lat="46.26719" lon="5.43132">
        <ele>329.4</ele>
        <time>2022-07-14T07:57:34Z</time>
      </trkpt>
      <trkpt lat="46.26732" lon="5.43142">
        <ele>330.6</ele>
        <time>2022-07-14T07:57:39Z</time>
      </trkpt>
      <trkpt lat="46.26735" lon="5.43143">
        <ele>330.8</ele>
        <time>2022-07-14T07:57:40Z</time>
      </trkpt>
      <trkpt lat="46.26742" lon="5.43149">
        <ele>331.8</ele>
        <time>2022-07-14T07:57:43Z</time>
      </trkpt>
      <trkpt lat="46.26754" lon="5.43159">
        <ele>333</ele>
        <time>2022-07-14T07:57:48Z</time>
      </trkpt>
      <trkpt lat="46.26758" lon="5.43162">
        <ele>333.6</ele>
        <time>2022-07-14T07:57:50Z</time>
      </trkpt>
      <trkpt lat="46.26763" lon="5.43167">
        <ele>334</ele>
        <time>2022-07-14T07:57:52Z</time>
      </trkpt>
      <trkpt lat="46.26774" lon="5.43174">
        <ele>335</ele>
        <time>2022-07-14T07:57:56Z</time>
      </trkpt>
      <trkpt lat="46.26781" lon="5.43179">
        <ele>335.8</ele>
        <time>2022-07-14T07:57:59Z</time>
      </trkpt>
      <trkpt lat="46.26784" lon="5.43181">
        <ele>336.2</ele>
        <time>2022-07-14T07:58:00Z</time>
      </trkpt>
      <trkpt lat="46.26799" lon="5.43195">
        <ele>337.2</ele>
        <time>2022-07-14T07:58:05Z</time>
      </trkpt>
      <trkpt lat="46.26802" lon="5.43198">
        <ele>337.2</ele>
        <time>2022-07-14T07:58:06Z</time>
      </trkpt>
      <trkpt lat="46.26805" lon="5.43203">
        <ele>337.2</ele>
        <time>2022-07-14T07:58:07Z</time>
      </trkpt>
      <trkpt lat="46.2682" lon="5.43232">
        <ele>338</ele>
        <time>2022-07-14T07:58:13Z</time>
      </trkpt>
      <trkpt lat="46.26833" lon="5.43264">
        <ele>338.4</ele>
        <time>2022-07-14T07:58:19Z</time>
      </trkpt>
      <trkpt lat="46.26838" lon="5.43273">
        <ele>338.6</ele>
        <time>2022-07-14T07:58:21Z</time>
      </trkpt>
      <trkpt lat="46.26859" lon="5.43302">
        <ele>339.6</ele>
        <time>2022-07-14T07:58:27Z</time>
      </trkpt>
      <trkpt lat="46.26865" lon="5.43309">
        <ele>339.6</ele>
        <time>2022-07-14T07:58:28Z</time>
      </trkpt>
      <trkpt lat="46.26889" lon="5.43339">
        <ele>339.2</ele>
        <time>2022-07-14T07:58:33Z</time>
      </trkpt>
      <trkpt lat="46.26918" lon="5.43379">
        <ele>338.8</ele>
        <time>2022-07-14T07:58:38Z</time>
      </trkpt>
      <trkpt lat="46.26932" lon="5.43398">
        <ele>338.4</ele>
        <time>2022-07-14T07:58:40Z</time>
      </trkpt>
      <trkpt lat="46.26959" lon="5.43432">
        <ele>337</ele>
        <time>2022-07-14T07:58:44Z</time>
      </trkpt>
      <trkpt lat="46.26966" lon="5.43439">
        <ele>337</ele>
        <time>2022-07-14T07:58:45Z</time>
      </trkpt>
      <trkpt lat="46.26987" lon="5.43457">
        <ele>336</ele>
        <time>2022-07-14T07:58:48Z</time>
      </trkpt>
      <trkpt lat="46.27002" lon="5.43467">
        <ele>335.8</ele>
        <time>2022-07-14T07:58:50Z</time>
      </trkpt>
      <trkpt lat="46.27052" lon="5.43494">
        <ele>335.4</ele>
        <time>2022-07-14T07:58:56Z</time>
      </trkpt>
      <trkpt lat="46.2706" lon="5.43497">
        <ele>335.4</ele>
        <time>2022-07-14T07:58:57Z</time>
      </trkpt>
      <trkpt lat="46.27108" lon="5.4351">
        <ele>336.2</ele>
        <time>2022-07-14T07:59:04Z</time>
      </trkpt>
      <trkpt lat="46.27162" lon="5.43521">
        <ele>336.6</ele>
        <time>2022-07-14T07:59:11Z</time>
      </trkpt>
      <trkpt lat="46.27186" lon="5.43525">
        <ele>336.2</ele>
        <time>2022-07-14T07:59:14Z</time>
      </trkpt>
      <trkpt lat="46.2724" lon="5.4353">
        <ele>335.4</ele>
        <time>2022-07-14T07:59:20Z</time>
      </trkpt>
      <trkpt lat="46.27249" lon="5.43532">
        <ele>335</ele>
        <time>2022-07-14T07:59:21Z</time>
      </trkpt>
      <trkpt lat="46.27287" lon="5.43543">
        <ele>333.6</ele>
        <time>2022-07-14T07:59:25Z</time>
      </trkpt>
      <trkpt lat="46.27297" lon="5.43547">
        <ele>333</ele>
        <time>2022-07-14T07:59:26Z</time>
      </trkpt>
      <trkpt lat="46.27306" lon="5.43551">
        <ele>332.4</ele>
        <time>2022-07-14T07:59:27Z</time>
      </trkpt>
      <trkpt lat="46.27358" lon="5.43573">
        <ele>331.8</ele>
        <time>2022-07-14T07:59:33Z</time>
      </trkpt>
      <trkpt lat="46.27392" lon="5.43585">
        <ele>332</ele>
        <time>2022-07-14T07:59:37Z</time>
      </trkpt>
      <trkpt lat="46.27401" lon="5.43587">
        <ele>332.2</ele>
        <time>2022-07-14T07:59:38Z</time>
      </trkpt>
      <trkpt lat="46.27455" lon="5.43592">
        <ele>331.8</ele>
        <time>2022-07-14T07:59:44Z</time>
      </trkpt>
      <trkpt lat="46.27473" lon="5.43592">
        <ele>331.8</ele>
        <time>2022-07-14T07:59:46Z</time>
      </trkpt>
      <trkpt lat="46.2753" lon="5.43592">
        <ele>332.4</ele>
        <time>2022-07-14T07:59:53Z</time>
      </trkpt>
      <trkpt lat="46.27584" lon="5.43593">
        <ele>333</ele>
        <time>2022-07-14T08:00:00Z</time>
      </trkpt>
      <trkpt lat="46.27592" lon="5.43592">
        <ele>333</ele>
        <time>2022-07-14T08:00:01Z</time>
      </trkpt>
      <trkpt lat="46.27643" lon="5.43592">
        <ele>333</ele>
        <time>2022-07-14T08:00:07Z</time>
      </trkpt>
      <trkpt lat="46.27699" lon="5.43597">
        <ele>331.8</ele>
        <time>2022-07-14T08:00:13Z</time>
      </trkpt>
      <trkpt lat="46.27716" lon="5.436">
        <ele>331.4</ele>
        <time>2022-07-14T08:00:15Z</time>
      </trkpt>
      <trkpt lat="46.27756" lon="5.43606">
        <ele>331.2</ele>
        <time>2022-07-14T08:00:20Z</time>
      </trkpt>
      <trkpt lat="46.27804" lon="5.43605">
        <ele>331.8</ele>
        <time>2022-07-14T08:00:26Z</time>
      </trkpt>
      <trkpt lat="46.27818" lon="5.43606">
        <ele>332.6</ele>
        <time>2022-07-14T08:00:29Z</time>
      </trkpt>
      <trkpt lat="46.27865" lon="5.43609">
        <ele>333.6</ele>
        <time>2022-07-14T08:00:35Z</time>
      </trkpt>
      <trkpt lat="46.27873" lon="5.43609">
        <ele>333.8</ele>
        <time>2022-07-14T08:00:36Z</time>
      </trkpt>
      <trkpt lat="46.27922" lon="5.43614">
        <ele>334</ele>
        <time>2022-07-14T08:00:43Z</time>
      </trkpt>
      <trkpt lat="46.27974" lon="5.43623">
        <ele>334.6</ele>
        <time>2022-07-14T08:00:51Z</time>
      </trkpt>
      <trkpt lat="46.27986" lon="5.43623">
        <ele>335</ele>
        <time>2022-07-14T08:00:53Z</time>
      </trkpt>
      <trkpt lat="46.28007" lon="5.4362">
        <ele>335.6</ele>
        <time>2022-07-14T08:00:56Z</time>
      </trkpt>
      <trkpt lat="46.28049" lon="5.43616">
        <ele>335.4</ele>
        <time>2022-07-14T08:01:01Z</time>
      </trkpt>
      <trkpt lat="46.28093" lon="5.43613">
        <ele>333.8</ele>
        <time>2022-07-14T08:01:06Z</time>
      </trkpt>
      <trkpt lat="46.28128" lon="5.43607">
        <ele>332.8</ele>
        <time>2022-07-14T08:01:10Z</time>
      </trkpt>
      <trkpt lat="46.28186" lon="5.43598">
        <ele>331.8</ele>
        <time>2022-07-14T08:01:17Z</time>
      </trkpt>
      <trkpt lat="46.28221" lon="5.43595">
        <ele>332</ele>
        <time>2022-07-14T08:01:21Z</time>
      </trkpt>
      <trkpt lat="46.28277" lon="5.43594">
        <ele>332</ele>
        <time>2022-07-14T08:01:27Z</time>
      </trkpt>
      <trkpt lat="46.28285" lon="5.43594">
        <ele>332</ele>
        <time>2022-07-14T08:01:29Z</time>
      </trkpt>
      <trkpt lat="46.28344" lon="5.43598">
        <ele>332</ele>
        <time>2022-07-14T08:01:36Z</time>
      </trkpt>
      <trkpt lat="46.28388" lon="5.43608">
        <ele>332.6</ele>
        <time>2022-07-14T08:01:42Z</time>
      </trkpt>
      <trkpt lat="46.28426" lon="5.43615">
        <ele>334</ele>
        <time>2022-07-14T08:01:47Z</time>
      </trkpt>
      <trkpt lat="46.28459" lon="5.43619">
        <ele>334.4</ele>
        <time>2022-07-14T08:01:51Z</time>
      </trkpt>
      <trkpt lat="46.28516" lon="5.43626">
        <ele>333.6</ele>
        <time>2022-07-14T08:01:58Z</time>
      </trkpt>
      <trkpt lat="46.28531" lon="5.43627">
        <ele>333.6</ele>
        <time>2022-07-14T08:02:00Z</time>
      </trkpt>
      <trkpt lat="46.28569" lon="5.43623">
        <ele>333.4</ele>
        <time>2022-07-14T08:02:05Z</time>
      </trkpt>
      <trkpt lat="46.28612" lon="5.43592">
        <ele>333.4</ele>
        <time>2022-07-14T08:02:11Z</time>
      </trkpt>
      <trkpt lat="46.2862" lon="5.43587">
        <ele>333.4</ele>
        <time>2022-07-14T08:02:12Z</time>
      </trkpt>
      <trkpt lat="46.28635" lon="5.43583">
        <ele>333.6</ele>
        <time>2022-07-14T08:02:14Z</time>
      </trkpt>
      <trkpt lat="46.28665" lon="5.43586">
        <ele>334</ele>
        <time>2022-07-14T08:02:18Z</time>
      </trkpt>
      <trkpt lat="46.28725" lon="5.436">
        <ele>334.8</ele>
        <time>2022-07-14T08:02:26Z</time>
      </trkpt>
      <trkpt lat="46.28732" lon="5.43603">
        <ele>335.2</ele>
        <time>2022-07-14T08:02:27Z</time>
      </trkpt>
      <trkpt lat="46.28766" lon="5.43619">
        <ele>335.6</ele>
        <time>2022-07-14T08:02:32Z</time>
      </trkpt>
      <trkpt lat="46.28823" lon="5.43641">
        <ele>334.6</ele>
        <time>2022-07-14T08:02:39Z</time>
      </trkpt>
      <trkpt lat="46.28839" lon="5.43644">
        <ele>333.8</ele>
        <time>2022-07-14T08:02:41Z</time>
      </trkpt>
      <trkpt lat="46.28885" lon="5.43653">
        <ele>333.6</ele>
        <time>2022-07-14T08:02:47Z</time>
      </trkpt>
      <trkpt lat="46.28923" lon="5.43662">
        <ele>332.8</ele>
        <time>2022-07-14T08:02:52Z</time>
      </trkpt>
      <trkpt lat="46.28953" lon="5.43669">
        <ele>331.8</ele>
        <time>2022-07-14T08:02:56Z</time>
      </trkpt>
      <trkpt lat="46.28965" lon="5.43672">
        <ele>331.8</ele>
        <time>2022-07-14T08:02:58Z</time>
      </trkpt>
      <trkpt lat="46.2897" lon="5.43673">
        <ele>331.8</ele>
        <time>2022-07-14T08:02:59Z</time>
      </trkpt>
      <trkpt lat="46.28974" lon="5.43681">
        <ele>331.8</ele>
        <time>2022-07-14T08:03:01Z</time>
      </trkpt>
      <trkpt lat="46.28972" lon="5.43703">
        <ele>332.2</ele>
        <time>2022-07-14T08:03:05Z</time>
      </trkpt>
      <trkpt lat="46.28963" lon="5.43741">
        <ele>332.8</ele>
        <time>2022-07-14T08:03:11Z</time>
      </trkpt>
      <trkpt lat="46.28951" lon="5.43785">
        <ele>333.8</ele>
        <time>2022-07-14T08:03:18Z</time>
      </trkpt>
      <trkpt lat="46.2895" lon="5.43791">
        <ele>334</ele>
        <time>2022-07-14T08:03:19Z</time>
      </trkpt>
      <trkpt lat="46.28946" lon="5.43809">
        <ele>335</ele>
        <time>2022-07-14T08:03:22Z</time>
      </trkpt>
      <trkpt lat="46.28946" lon="5.43815">
        <ele>335.4</ele>
        <time>2022-07-14T08:03:23Z</time>
      </trkpt>
      <trkpt lat="46.28947" lon="5.4382">
        <ele>335.6</ele>
        <time>2022-07-14T08:03:24Z</time>
      </trkpt>
      <trkpt lat="46.28949" lon="5.43831">
        <ele>336.2</ele>
        <time>2022-07-14T08:03:26Z</time>
      </trkpt>
      <trkpt lat="46.28955" lon="5.43837">
        <ele>336.6</ele>
        <time>2022-07-14T08:03:28Z</time>
      </trkpt>
      <trkpt lat="46.28967" lon="5.43843">
        <ele>338</ele>
        <time>2022-07-14T08:03:31Z</time>
      </trkpt>
      <trkpt lat="46.28976" lon="5.43846">
        <ele>338.6</ele>
        <time>2022-07-14T08:03:33Z</time>
      </trkpt>
      <trkpt lat="46.28981" lon="5.43848">
        <ele>338.6</ele>
        <time>2022-07-14T08:03:34Z</time>
      </trkpt>
      <trkpt lat="46.29003" lon="5.43861">
        <ele>338.8</ele>
        <time>2022-07-14T08:03:38Z</time>
      </trkpt>
      <trkpt lat="46.29015" lon="5.43867">
        <ele>338.8</ele>
        <time>2022-07-14T08:03:40Z</time>
      </trkpt>
      <trkpt lat="46.29028" lon="5.43869">
        <ele>338.6</ele>
        <time>2022-07-14T08:03:42Z</time>
      </trkpt>
      <trkpt lat="46.29061" lon="5.43868">
        <ele>338.2</ele>
        <time>2022-07-14T08:03:47Z</time>
      </trkpt>
      <trkpt lat="46.29067" lon="5.43866">
        <ele>338.2</ele>
        <time>2022-07-14T08:03:48Z</time>
      </trkpt>
      <trkpt lat="46.29073" lon="5.43863">
        <ele>338.2</ele>
        <time>2022-07-14T08:03:49Z</time>
      </trkpt>
      <trkpt lat="46.29093" lon="5.43853">
        <ele>338</ele>
        <time>2022-07-14T08:03:52Z</time>
      </trkpt>
      <trkpt lat="46.29125" lon="5.43851">
        <ele>337.4</ele>
        <time>2022-07-14T08:03:56Z</time>
      </trkpt>
      <trkpt lat="46.29136" lon="5.43853">
        <ele>337.2</ele>
        <time>2022-07-14T08:03:57Z</time>
      </trkpt>
      <trkpt lat="46.29153" lon="5.43858">
        <ele>337</ele>
        <time>2022-07-14T08:04:00Z</time>
      </trkpt>
      <trkpt lat="46.2916" lon="5.43862">
        <ele>336.8</ele>
        <time>2022-07-14T08:04:01Z</time>
      </trkpt>
      <trkpt lat="46.29167" lon="5.43867">
        <ele>336.6</ele>
        <time>2022-07-14T08:04:02Z</time>
      </trkpt>
      <trkpt lat="46.29219" lon="5.43904">
        <ele>336.4</ele>
        <time>2022-07-14T08:04:10Z</time>
      </trkpt>
      <trkpt lat="46.29226" lon="5.4391">
        <ele>336.4</ele>
        <time>2022-07-14T08:04:11Z</time>
      </trkpt>
      <trkpt lat="46.29236" lon="5.43926">
        <ele>336.4</ele>
        <time>2022-07-14T08:04:13Z</time>
      </trkpt>
      <trkpt lat="46.2924" lon="5.43934">
        <ele>336.2</ele>
        <time>2022-07-14T08:04:14Z</time>
      </trkpt>
      <trkpt lat="46.29244" lon="5.43943">
        <ele>336</ele>
        <time>2022-07-14T08:04:15Z</time>
      </trkpt>
      <trkpt lat="46.29255" lon="5.43956">
        <ele>335.8</ele>
        <time>2022-07-14T08:04:17Z</time>
      </trkpt>
      <trkpt lat="46.29261" lon="5.43962">
        <ele>335.8</ele>
        <time>2022-07-14T08:04:18Z</time>
      </trkpt>
      <trkpt lat="46.29307" lon="5.44002">
        <ele>335.8</ele>
        <time>2022-07-14T08:04:25Z</time>
      </trkpt>
      <trkpt lat="46.29355" lon="5.44039">
        <ele>336.2</ele>
        <time>2022-07-14T08:04:32Z</time>
      </trkpt>
      <trkpt lat="46.29361" lon="5.44044">
        <ele>336.2</ele>
        <time>2022-07-14T08:04:33Z</time>
      </trkpt>
      <trkpt lat="46.29375" lon="5.44054">
        <ele>336.4</ele>
        <time>2022-07-14T08:04:35Z</time>
      </trkpt>
      <trkpt lat="46.29395" lon="5.44066">
        <ele>336.6</ele>
        <time>2022-07-14T08:04:38Z</time>
      </trkpt>
      <trkpt lat="46.29406" lon="5.4408">
        <ele>337</ele>
        <time>2022-07-14T08:04:40Z</time>
      </trkpt>
      <trkpt lat="46.2941" lon="5.44089">
        <ele>337</ele>
        <time>2022-07-14T08:04:41Z</time>
      </trkpt>
      <trkpt lat="46.29426" lon="5.44143">
        <ele>337.6</ele>
        <time>2022-07-14T08:04:47Z</time>
      </trkpt>
      <trkpt lat="46.29431" lon="5.44161">
        <ele>338.2</ele>
        <time>2022-07-14T08:04:49Z</time>
      </trkpt>
      <trkpt lat="46.2944" lon="5.44176">
        <ele>338.6</ele>
        <time>2022-07-14T08:04:51Z</time>
      </trkpt>
      <trkpt lat="46.29468" lon="5.44204">
        <ele>339</ele>
        <time>2022-07-14T08:04:56Z</time>
      </trkpt>
      <trkpt lat="46.29491" lon="5.44223">
        <ele>339.2</ele>
        <time>2022-07-14T08:05:00Z</time>
      </trkpt>
      <trkpt lat="46.29527" lon="5.4425">
        <ele>339.6</ele>
        <time>2022-07-14T08:05:06Z</time>
      </trkpt>
      <trkpt lat="46.29545" lon="5.44265">
        <ele>340</ele>
        <time>2022-07-14T08:05:09Z</time>
      </trkpt>
      <trkpt lat="46.29575" lon="5.44292">
        <ele>340.2</ele>
        <time>2022-07-14T08:05:14Z</time>
      </trkpt>
      <trkpt lat="46.29581" lon="5.44297">
        <ele>340.2</ele>
        <time>2022-07-14T08:05:15Z</time>
      </trkpt>
      <trkpt lat="46.29593" lon="5.44308">
        <ele>340.4</ele>
        <time>2022-07-14T08:05:17Z</time>
      </trkpt>
      <trkpt lat="46.2961" lon="5.44324">
        <ele>340.6</ele>
        <time>2022-07-14T08:05:20Z</time>
      </trkpt>
      <trkpt lat="46.29656" lon="5.44368">
        <ele>341.2</ele>
        <time>2022-07-14T08:05:28Z</time>
      </trkpt>
      <trkpt lat="46.29669" lon="5.4438">
        <ele>341.2</ele>
        <time>2022-07-14T08:05:30Z</time>
      </trkpt>
      <trkpt lat="46.29706" lon="5.44417">
        <ele>341</ele>
        <time>2022-07-14T08:05:35Z</time>
      </trkpt>
      <trkpt lat="46.29744" lon="5.44456">
        <ele>339</ele>
        <time>2022-07-14T08:05:40Z</time>
      </trkpt>
      <trkpt lat="46.29766" lon="5.44478">
        <ele>338.8</ele>
        <time>2022-07-14T08:05:43Z</time>
      </trkpt>
      <trkpt lat="46.29799" lon="5.4451">
        <ele>338.8</ele>
        <time>2022-07-14T08:05:48Z</time>
      </trkpt>
      <trkpt lat="46.29826" lon="5.44538">
        <ele>339.4</ele>
        <time>2022-07-14T08:05:53Z</time>
      </trkpt>
      <trkpt lat="46.29841" lon="5.44552">
        <ele>340.6</ele>
        <time>2022-07-14T08:05:56Z</time>
      </trkpt>
      <trkpt lat="46.29852" lon="5.44558">
        <ele>341.2</ele>
        <time>2022-07-14T08:05:58Z</time>
      </trkpt>
      <trkpt lat="46.29864" lon="5.44563">
        <ele>341.8</ele>
        <time>2022-07-14T08:06:00Z</time>
      </trkpt>
      <trkpt lat="46.29881" lon="5.44577">
        <ele>342.8</ele>
        <time>2022-07-14T08:06:03Z</time>
      </trkpt>
      <trkpt lat="46.2989" lon="5.44592">
        <ele>343</ele>
        <time>2022-07-14T08:06:05Z</time>
      </trkpt>
      <trkpt lat="46.29898" lon="5.44609">
        <ele>343</ele>
        <time>2022-07-14T08:06:07Z</time>
      </trkpt>
      <trkpt lat="46.29908" lon="5.44634">
        <ele>342.8</ele>
        <time>2022-07-14T08:06:10Z</time>
      </trkpt>
      <trkpt lat="46.29913" lon="5.4464">
        <ele>342.8</ele>
        <time>2022-07-14T08:06:11Z</time>
      </trkpt>
      <trkpt lat="46.29919" lon="5.44643">
        <ele>342.6</ele>
        <time>2022-07-14T08:06:12Z</time>
      </trkpt>
      <trkpt lat="46.29926" lon="5.44644">
        <ele>342.6</ele>
        <time>2022-07-14T08:06:13Z</time>
      </trkpt>
      <trkpt lat="46.29933" lon="5.44642">
        <ele>342.4</ele>
        <time>2022-07-14T08:06:14Z</time>
      </trkpt>
      <trkpt lat="46.29947" lon="5.44634">
        <ele>342</ele>
        <time>2022-07-14T08:06:16Z</time>
      </trkpt>
      <trkpt lat="46.29954" lon="5.4463">
        <ele>341.8</ele>
        <time>2022-07-14T08:06:17Z</time>
      </trkpt>
      <trkpt lat="46.29963" lon="5.44627">
        <ele>341.4</ele>
        <time>2022-07-14T08:06:18Z</time>
      </trkpt>
      <trkpt lat="46.2998" lon="5.44624">
        <ele>341.2</ele>
        <time>2022-07-14T08:06:20Z</time>
      </trkpt>
      <trkpt lat="46.29989" lon="5.44624">
        <ele>341</ele>
        <time>2022-07-14T08:06:21Z</time>
      </trkpt>
      <trkpt lat="46.30008" lon="5.44625">
        <ele>340.4</ele>
        <time>2022-07-14T08:06:23Z</time>
      </trkpt>
      <trkpt lat="46.30018" lon="5.44627">
        <ele>339.4</ele>
        <time>2022-07-14T08:06:24Z</time>
      </trkpt>
      <trkpt lat="46.30028" lon="5.44629">
        <ele>338.6</ele>
        <time>2022-07-14T08:06:25Z</time>
      </trkpt>
      <trkpt lat="46.30048" lon="5.44634">
        <ele>337.6</ele>
        <time>2022-07-14T08:06:27Z</time>
      </trkpt>
      <trkpt lat="46.30058" lon="5.44637">
        <ele>337.4</ele>
        <time>2022-07-14T08:06:28Z</time>
      </trkpt>
      <trkpt lat="46.30067" lon="5.44641">
        <ele>336.8</ele>
        <time>2022-07-14T08:06:29Z</time>
      </trkpt>
      <trkpt lat="46.30077" lon="5.44644">
        <ele>335.8</ele>
        <time>2022-07-14T08:06:30Z</time>
      </trkpt>
      <trkpt lat="46.30087" lon="5.44648">
        <ele>334.2</ele>
        <time>2022-07-14T08:06:31Z</time>
      </trkpt>
      <trkpt lat="46.30096" lon="5.44652">
        <ele>332.8</ele>
        <time>2022-07-14T08:06:32Z</time>
      </trkpt>
      <trkpt lat="46.30122" lon="5.44664">
        <ele>331.6</ele>
        <time>2022-07-14T08:06:35Z</time>
      </trkpt>
      <trkpt lat="46.30131" lon="5.44668">
        <ele>331.2</ele>
        <time>2022-07-14T08:06:36Z</time>
      </trkpt>
      <trkpt lat="46.30166" lon="5.44681">
        <ele>330.8</ele>
        <time>2022-07-14T08:06:40Z</time>
      </trkpt>
      <trkpt lat="46.30181" lon="5.44677">
        <ele>330.6</ele>
        <time>2022-07-14T08:06:42Z</time>
      </trkpt>
      <trkpt lat="46.30185" lon="5.44666">
        <ele>330.8</ele>
        <time>2022-07-14T08:06:44Z</time>
      </trkpt>
      <trkpt lat="46.3019" lon="5.44636">
        <ele>331.2</ele>
        <time>2022-07-14T08:06:48Z</time>
      </trkpt>
      <trkpt lat="46.30196" lon="5.44621">
        <ele>331</ele>
        <time>2022-07-14T08:06:50Z</time>
      </trkpt>
      <trkpt lat="46.30204" lon="5.44606">
        <ele>331</ele>
        <time>2022-07-14T08:06:52Z</time>
      </trkpt>
      <trkpt lat="46.3023" lon="5.44569">
        <ele>330.6</ele>
        <time>2022-07-14T08:06:57Z</time>
      </trkpt>
      <trkpt lat="46.30255" lon="5.44533">
        <ele>330.4</ele>
        <time>2022-07-14T08:07:02Z</time>
      </trkpt>
      <trkpt lat="46.3027" lon="5.44502">
        <ele>330.8</ele>
        <time>2022-07-14T08:07:06Z</time>
      </trkpt>
      <trkpt lat="46.30273" lon="5.44494">
        <ele>330.8</ele>
        <time>2022-07-14T08:07:07Z</time>
      </trkpt>
      <trkpt lat="46.30278" lon="5.4448">
        <ele>331</ele>
        <time>2022-07-14T08:07:09Z</time>
      </trkpt>
      <trkpt lat="46.30281" lon="5.44467">
        <ele>331.2</ele>
        <time>2022-07-14T08:07:11Z</time>
      </trkpt>
      <trkpt lat="46.30285" lon="5.44457">
        <ele>331.6</ele>
        <time>2022-07-14T08:07:14Z</time>
      </trkpt>
      <trkpt lat="46.30286" lon="5.44454">
        <ele>331.6</ele>
        <time>2022-07-14T08:07:15Z</time>
      </trkpt>
      <trkpt lat="46.30291" lon="5.4443">
        <ele>332.4</ele>
        <time>2022-07-14T08:07:20Z</time>
      </trkpt>
      <trkpt lat="46.30294" lon="5.44406">
        <ele>332.6</ele>
        <time>2022-07-14T08:07:24Z</time>
      </trkpt>
      <trkpt lat="46.30296" lon="5.44403">
        <ele>332.6</ele>
        <time>2022-07-14T08:07:25Z</time>
      </trkpt>
      <trkpt lat="46.30302" lon="5.44396">
        <ele>333</ele>
        <time>2022-07-14T08:07:27Z</time>
      </trkpt>
      <trkpt lat="46.30302" lon="5.44384">
        <ele>333.2</ele>
        <time>2022-07-14T08:07:29Z</time>
      </trkpt>
      <trkpt lat="46.30306" lon="5.44363">
        <ele>333.2</ele>
        <time>2022-07-14T08:07:32Z</time>
      </trkpt>
      <trkpt lat="46.30308" lon="5.44356">
        <ele>333.2</ele>
        <time>2022-07-14T08:07:33Z</time>
      </trkpt>
      <trkpt lat="46.30311" lon="5.44349">
        <ele>333.2</ele>
        <time>2022-07-14T08:07:34Z</time>
      </trkpt>
      <trkpt lat="46.30319" lon="5.44316">
        <ele>333.2</ele>
        <time>2022-07-14T08:07:38Z</time>
      </trkpt>
      <trkpt lat="46.30325" lon="5.44293">
        <ele>333.2</ele>
        <time>2022-07-14T08:07:41Z</time>
      </trkpt>
      <trkpt lat="46.30332" lon="5.44283">
        <ele>333</ele>
        <time>2022-07-14T08:07:43Z</time>
      </trkpt>
      <trkpt lat="46.30342" lon="5.44279">
        <ele>333</ele>
        <time>2022-07-14T08:07:45Z</time>
      </trkpt>
      <trkpt lat="46.30347" lon="5.44279">
        <ele>332.8</ele>
        <time>2022-07-14T08:07:46Z</time>
      </trkpt>
      <trkpt lat="46.30383" lon="5.44281">
        <ele>333</ele>
        <time>2022-07-14T08:07:52Z</time>
      </trkpt>
      <trkpt lat="46.30388" lon="5.44278">
        <ele>333</ele>
        <time>2022-07-14T08:07:53Z</time>
      </trkpt>
      <trkpt lat="46.30392" lon="5.44273">
        <ele>333</ele>
        <time>2022-07-14T08:07:54Z</time>
      </trkpt>
      <trkpt lat="46.30394" lon="5.44265">
        <ele>333.2</ele>
        <time>2022-07-14T08:07:55Z</time>
      </trkpt>
      <trkpt lat="46.30395" lon="5.44256">
        <ele>333.2</ele>
        <time>2022-07-14T08:07:56Z</time>
      </trkpt>
      <trkpt lat="46.30399" lon="5.4421">
        <ele>333.6</ele>
        <time>2022-07-14T08:08:01Z</time>
      </trkpt>
      <trkpt lat="46.30402" lon="5.44193">
        <ele>333.6</ele>
        <time>2022-07-14T08:08:03Z</time>
      </trkpt>
      <trkpt lat="46.30411" lon="5.44147">
        <ele>334</ele>
        <time>2022-07-14T08:08:08Z</time>
      </trkpt>
      <trkpt lat="46.30422" lon="5.4408">
        <ele>334</ele>
        <time>2022-07-14T08:08:15Z</time>
      </trkpt>
      <trkpt lat="46.3043" lon="5.44023">
        <ele>334</ele>
        <time>2022-07-14T08:08:22Z</time>
      </trkpt>
      <trkpt lat="46.30435" lon="5.44012">
        <ele>334.2</ele>
        <time>2022-07-14T08:08:24Z</time>
      </trkpt>
      <trkpt lat="46.30439" lon="5.4401">
        <ele>334.2</ele>
        <time>2022-07-14T08:08:25Z</time>
      </trkpt>
      <trkpt lat="46.30447" lon="5.44011">
        <ele>334.2</ele>
        <time>2022-07-14T08:08:26Z</time>
      </trkpt>
      <trkpt lat="46.30453" lon="5.44013">
        <ele>334.4</ele>
        <time>2022-07-14T08:08:28Z</time>
      </trkpt>
      <trkpt lat="46.30494" lon="5.44025">
        <ele>334.6</ele>
        <time>2022-07-14T08:08:34Z</time>
      </trkpt>
      <trkpt lat="46.305" lon="5.44027">
        <ele>334.8</ele>
        <time>2022-07-14T08:08:35Z</time>
      </trkpt>
      <trkpt lat="46.30551" lon="5.44038">
        <ele>335.6</ele>
        <time>2022-07-14T08:08:43Z</time>
      </trkpt>
      <trkpt lat="46.30557" lon="5.44039">
        <ele>336.4</ele>
        <time>2022-07-14T08:08:44Z</time>
      </trkpt>
      <trkpt lat="46.30586" lon="5.44042">
        <ele>337.4</ele>
        <time>2022-07-14T08:08:49Z</time>
      </trkpt>
      <trkpt lat="46.30599" lon="5.44043">
        <ele>337.4</ele>
        <time>2022-07-14T08:08:51Z</time>
      </trkpt>
      <trkpt lat="46.30635" lon="5.44048">
        <ele>338.4</ele>
        <time>2022-07-14T08:08:57Z</time>
      </trkpt>
      <trkpt lat="46.30653" lon="5.44052">
        <ele>338.8</ele>
        <time>2022-07-14T08:09:00Z</time>
      </trkpt>
      <trkpt lat="46.30698" lon="5.44053">
        <ele>339.2</ele>
        <time>2022-07-14T08:09:07Z</time>
      </trkpt>
      <trkpt lat="46.30745" lon="5.44038">
        <ele>338.8</ele>
        <time>2022-07-14T08:09:13Z</time>
      </trkpt>
      <trkpt lat="46.308" lon="5.44023">
        <ele>337.8</ele>
        <time>2022-07-14T08:09:19Z</time>
      </trkpt>
      <trkpt lat="46.3083" lon="5.44025">
        <ele>336.6</ele>
        <time>2022-07-14T08:09:22Z</time>
      </trkpt>
      <trkpt lat="46.3084" lon="5.44028">
        <ele>336.4</ele>
        <time>2022-07-14T08:09:23Z</time>
      </trkpt>
      <trkpt lat="46.3086" lon="5.44033">
        <ele>335.6</ele>
        <time>2022-07-14T08:09:25Z</time>
      </trkpt>
      <trkpt lat="46.30884" lon="5.4404">
        <ele>334.2</ele>
        <time>2022-07-14T08:09:28Z</time>
      </trkpt>
      <trkpt lat="46.30893" lon="5.44044">
        <ele>333.8</ele>
        <time>2022-07-14T08:09:29Z</time>
      </trkpt>
      <trkpt lat="46.30914" lon="5.44055">
        <ele>333.6</ele>
        <time>2022-07-14T08:09:31Z</time>
      </trkpt>
      <trkpt lat="46.3097" lon="5.44092">
        <ele>333.6</ele>
        <time>2022-07-14T08:09:38Z</time>
      </trkpt>
      <trkpt lat="46.31019" lon="5.44128">
        <ele>335.2</ele>
        <time>2022-07-14T08:09:45Z</time>
      </trkpt>
      <trkpt lat="46.31026" lon="5.44133">
        <ele>335.2</ele>
        <time>2022-07-14T08:09:46Z</time>
      </trkpt>
      <trkpt lat="46.31059" lon="5.44161">
        <ele>336.2</ele>
        <time>2022-07-14T08:09:51Z</time>
      </trkpt>
      <trkpt lat="46.31066" lon="5.44167">
        <ele>336.6</ele>
        <time>2022-07-14T08:09:52Z</time>
      </trkpt>
      <trkpt lat="46.31098" lon="5.44195">
        <ele>337.4</ele>
        <time>2022-07-14T08:09:57Z</time>
      </trkpt>
      <trkpt lat="46.31117" lon="5.44211">
        <ele>337.8</ele>
        <time>2022-07-14T08:10:00Z</time>
      </trkpt>
      <trkpt lat="46.31165" lon="5.44254">
        <ele>338.6</ele>
        <time>2022-07-14T08:10:07Z</time>
      </trkpt>
      <trkpt lat="46.31178" lon="5.44266">
        <ele>338.8</ele>
        <time>2022-07-14T08:10:09Z</time>
      </trkpt>
      <trkpt lat="46.31213" lon="5.44286">
        <ele>338.8</ele>
        <time>2022-07-14T08:10:14Z</time>
      </trkpt>
      <trkpt lat="46.31257" lon="5.44303">
        <ele>339.8</ele>
        <time>2022-07-14T08:10:20Z</time>
      </trkpt>
      <trkpt lat="46.31264" lon="5.44306">
        <ele>339.8</ele>
        <time>2022-07-14T08:10:21Z</time>
      </trkpt>
      <trkpt lat="46.31316" lon="5.44327">
        <ele>340.4</ele>
        <time>2022-07-14T08:10:28Z</time>
      </trkpt>
      <trkpt lat="46.3134" lon="5.44337">
        <ele>340.6</ele>
        <time>2022-07-14T08:10:31Z</time>
      </trkpt>
      <trkpt lat="46.31396" lon="5.4436">
        <ele>340.4</ele>
        <time>2022-07-14T08:10:38Z</time>
      </trkpt>
      <trkpt lat="46.31413" lon="5.44366">
        <ele>340.2</ele>
        <time>2022-07-14T08:10:40Z</time>
      </trkpt>
      <trkpt lat="46.31472" lon="5.4439">
        <ele>339.6</ele>
        <time>2022-07-14T08:10:47Z</time>
      </trkpt>
      <trkpt lat="46.3148" lon="5.44393">
        <ele>339.4</ele>
        <time>2022-07-14T08:10:48Z</time>
      </trkpt>
      <trkpt lat="46.31536" lon="5.44413">
        <ele>338.8</ele>
        <time>2022-07-14T08:10:54Z</time>
      </trkpt>
      <trkpt lat="46.31544" lon="5.44415">
        <ele>338.8</ele>
        <time>2022-07-14T08:10:55Z</time>
      </trkpt>
      <trkpt lat="46.31544" lon="5.44415">
        <ele>338.8</ele>
        <time>2022-07-14T08:10:56Z</time>
      </trkpt>
      <trkpt lat="46.31598" lon="5.44424">
        <ele>338.6</ele>
        <time>2022-07-14T08:11:02Z</time>
      </trkpt>
      <trkpt lat="46.31614" lon="5.44425">
        <ele>338.6</ele>
        <time>2022-07-14T08:11:04Z</time>
      </trkpt>
      <trkpt lat="46.31673" lon="5.4443">
        <ele>338.8</ele>
        <time>2022-07-14T08:11:11Z</time>
      </trkpt>
      <trkpt lat="46.31689" lon="5.44431">
        <ele>338.8</ele>
        <time>2022-07-14T08:11:13Z</time>
      </trkpt>
      <trkpt lat="46.31748" lon="5.44433">
        <ele>339.2</ele>
        <time>2022-07-14T08:11:20Z</time>
      </trkpt>
      <trkpt lat="46.31765" lon="5.44434">
        <ele>339.2</ele>
        <time>2022-07-14T08:11:22Z</time>
      </trkpt>
      <trkpt lat="46.31825" lon="5.44437">
        <ele>339.2</ele>
        <time>2022-07-14T08:11:29Z</time>
      </trkpt>
      <trkpt lat="46.31851" lon="5.44438">
        <ele>339.2</ele>
        <time>2022-07-14T08:11:32Z</time>
      </trkpt>
      <trkpt lat="46.31913" lon="5.44442">
        <ele>339.8</ele>
        <time>2022-07-14T08:11:39Z</time>
      </trkpt>
      <trkpt lat="46.31922" lon="5.44442">
        <ele>339.6</ele>
        <time>2022-07-14T08:11:40Z</time>
      </trkpt>
      <trkpt lat="46.31977" lon="5.44446">
        <ele>339.4</ele>
        <time>2022-07-14T08:11:46Z</time>
      </trkpt>
      <trkpt lat="46.32015" lon="5.44448">
        <ele>339.2</ele>
        <time>2022-07-14T08:11:50Z</time>
      </trkpt>
      <trkpt lat="46.32074" lon="5.44451">
        <ele>339</ele>
        <time>2022-07-14T08:11:56Z</time>
      </trkpt>
      <trkpt lat="46.32096" lon="5.44452">
        <ele>339</ele>
        <time>2022-07-14T08:11:59Z</time>
      </trkpt>
      <trkpt lat="46.32158" lon="5.44453">
        <ele>338.4</ele>
        <time>2022-07-14T08:12:05Z</time>
      </trkpt>
      <trkpt lat="46.32186" lon="5.44455">
        <ele>338.2</ele>
        <time>2022-07-14T08:12:08Z</time>
      </trkpt>
      <trkpt lat="46.32223" lon="5.44457">
        <ele>338</ele>
        <time>2022-07-14T08:12:12Z</time>
      </trkpt>
      <trkpt lat="46.32265" lon="5.44461">
        <ele>337.8</ele>
        <time>2022-07-14T08:12:17Z</time>
      </trkpt>
      <trkpt lat="46.32323" lon="5.44467">
        <ele>338.2</ele>
        <time>2022-07-14T08:12:24Z</time>
      </trkpt>
      <trkpt lat="46.3233" lon="5.44468">
        <ele>338.2</ele>
        <time>2022-07-14T08:12:25Z</time>
      </trkpt>
      <trkpt lat="46.32348" lon="5.44471">
        <ele>339</ele>
        <time>2022-07-14T08:12:28Z</time>
      </trkpt>
      <trkpt lat="46.32351" lon="5.44471">
        <ele>339.2</ele>
        <time>2022-07-14T08:12:29Z</time>
      </trkpt>
      <trkpt lat="46.32354" lon="5.44472">
        <ele>340.2</ele>
        <time>2022-07-14T08:12:32Z</time>
      </trkpt>
      <trkpt lat="46.32354" lon="5.44472">
        <ele>340.6</ele>
        <time>2022-07-14T08:12:33Z</time>
      </trkpt>
      <trkpt lat="46.32358" lon="5.44471">
        <ele>342.2</ele>
        <time>2022-07-14T08:14:55Z</time>
      </trkpt>
      <trkpt lat="46.32364" lon="5.44471">
        <ele>342.2</ele>
        <time>2022-07-14T08:14:57Z</time>
      </trkpt>
      <trkpt lat="46.32384" lon="5.44471">
        <ele>342.4</ele>
        <time>2022-07-14T08:15:01Z</time>
      </trkpt>
      <trkpt lat="46.32421" lon="5.44472">
        <ele>341.8</ele>
        <time>2022-07-14T08:15:07Z</time>
      </trkpt>
      <trkpt lat="46.32449" lon="5.44474">
        <ele>341.2</ele>
        <time>2022-07-14T08:15:11Z</time>
      </trkpt>
      <trkpt lat="46.32471" lon="5.44475">
        <ele>341.2</ele>
        <time>2022-07-14T08:15:14Z</time>
      </trkpt>
      <trkpt lat="46.32528" lon="5.44482">
        <ele>341</ele>
        <time>2022-07-14T08:15:22Z</time>
      </trkpt>
      <trkpt lat="46.32534" lon="5.44483">
        <ele>341</ele>
        <time>2022-07-14T08:15:23Z</time>
      </trkpt>
      <trkpt lat="46.32594" lon="5.44493">
        <ele>341.2</ele>
        <time>2022-07-14T08:15:32Z</time>
      </trkpt>
      <trkpt lat="46.32601" lon="5.44495">
        <ele>341.2</ele>
        <time>2022-07-14T08:15:33Z</time>
      </trkpt>
      <trkpt lat="46.32645" lon="5.44504">
        <ele>341.2</ele>
        <time>2022-07-14T08:15:39Z</time>
      </trkpt>
      <trkpt lat="46.32698" lon="5.44505">
        <ele>341.2</ele>
        <time>2022-07-14T08:15:46Z</time>
      </trkpt>
      <trkpt lat="46.32743" lon="5.44492">
        <ele>340.6</ele>
        <time>2022-07-14T08:15:52Z</time>
      </trkpt>
      <trkpt lat="46.3275" lon="5.4449">
        <ele>340.4</ele>
        <time>2022-07-14T08:15:53Z</time>
      </trkpt>
      <trkpt lat="46.32802" lon="5.44468">
        <ele>340.4</ele>
        <time>2022-07-14T08:16:00Z</time>
      </trkpt>
      <trkpt lat="46.32809" lon="5.44465">
        <ele>340.4</ele>
        <time>2022-07-14T08:16:01Z</time>
      </trkpt>
      <trkpt lat="46.32857" lon="5.4444">
        <ele>340.6</ele>
        <time>2022-07-14T08:16:07Z</time>
      </trkpt>
      <trkpt lat="46.32908" lon="5.44428">
        <ele>339.2</ele>
        <time>2022-07-14T08:16:13Z</time>
      </trkpt>
      <trkpt lat="46.32916" lon="5.44426">
        <ele>339</ele>
        <time>2022-07-14T08:16:14Z</time>
      </trkpt>
      <trkpt lat="46.32964" lon="5.44414">
        <ele>339.2</ele>
        <time>2022-07-14T08:16:20Z</time>
      </trkpt>
      <trkpt lat="46.32972" lon="5.44411">
        <ele>339.2</ele>
        <time>2022-07-14T08:16:21Z</time>
      </trkpt>
      <trkpt lat="46.33002" lon="5.44398">
        <ele>339.2</ele>
        <time>2022-07-14T08:16:25Z</time>
      </trkpt>
      <trkpt lat="46.33039" lon="5.4438">
        <ele>339.2</ele>
        <time>2022-07-14T08:16:30Z</time>
      </trkpt>
      <trkpt lat="46.33047" lon="5.44377">
        <ele>339.2</ele>
        <time>2022-07-14T08:16:31Z</time>
      </trkpt>
      <trkpt lat="46.33062" lon="5.44377">
        <ele>339.2</ele>
        <time>2022-07-14T08:16:33Z</time>
      </trkpt>
      <trkpt lat="46.33115" lon="5.44382">
        <ele>339</ele>
        <time>2022-07-14T08:16:40Z</time>
      </trkpt>
      <trkpt lat="46.33128" lon="5.4439">
        <ele>338.8</ele>
        <time>2022-07-14T08:16:42Z</time>
      </trkpt>
      <trkpt lat="46.33135" lon="5.44397">
        <ele>339</ele>
        <time>2022-07-14T08:16:43Z</time>
      </trkpt>
      <trkpt lat="46.33142" lon="5.44406">
        <ele>338.8</ele>
        <time>2022-07-14T08:16:44Z</time>
      </trkpt>
      <trkpt lat="46.33148" lon="5.44426">
        <ele>338.6</ele>
        <time>2022-07-14T08:16:46Z</time>
      </trkpt>
      <trkpt lat="46.33155" lon="5.44482">
        <ele>338.2</ele>
        <time>2022-07-14T08:16:51Z</time>
      </trkpt>
      <trkpt lat="46.33156" lon="5.44493">
        <ele>338.2</ele>
        <time>2022-07-14T08:16:52Z</time>
      </trkpt>
      <trkpt lat="46.33158" lon="5.44504">
        <ele>338.2</ele>
        <time>2022-07-14T08:16:53Z</time>
      </trkpt>
      <trkpt lat="46.33164" lon="5.44523">
        <ele>338.2</ele>
        <time>2022-07-14T08:16:55Z</time>
      </trkpt>
      <trkpt lat="46.33175" lon="5.44543">
        <ele>338.4</ele>
        <time>2022-07-14T08:16:58Z</time>
      </trkpt>
      <trkpt lat="46.33194" lon="5.4458">
        <ele>339.4</ele>
        <time>2022-07-14T08:17:03Z</time>
      </trkpt>
      <trkpt lat="46.33196" lon="5.44586">
        <ele>339.8</ele>
        <time>2022-07-14T08:17:04Z</time>
      </trkpt>
      <trkpt lat="46.33201" lon="5.44598">
        <ele>340.8</ele>
        <time>2022-07-14T08:17:06Z</time>
      </trkpt>
      <trkpt lat="46.33212" lon="5.44619">
        <ele>342.2</ele>
        <time>2022-07-14T08:17:10Z</time>
      </trkpt>
      <trkpt lat="46.33215" lon="5.44623">
        <ele>342.4</ele>
        <time>2022-07-14T08:17:11Z</time>
      </trkpt>
      <trkpt lat="46.33222" lon="5.44631">
        <ele>343.4</ele>
        <time>2022-07-14T08:17:13Z</time>
      </trkpt>
      <trkpt lat="46.33228" lon="5.44639">
        <ele>344.2</ele>
        <time>2022-07-14T08:17:15Z</time>
      </trkpt>
      <trkpt lat="46.33231" lon="5.44643">
        <ele>344.2</ele>
        <time>2022-07-14T08:17:16Z</time>
      </trkpt>
      <trkpt lat="46.33234" lon="5.44647">
        <ele>344.6</ele>
        <time>2022-07-14T08:17:17Z</time>
      </trkpt>
      <trkpt lat="46.33245" lon="5.44658">
        <ele>345.8</ele>
        <time>2022-07-14T08:17:20Z</time>
      </trkpt>
      <trkpt lat="46.3326" lon="5.44672">
        <ele>347.2</ele>
        <time>2022-07-14T08:17:24Z</time>
      </trkpt>
      <trkpt lat="46.33268" lon="5.44682">
        <ele>347.6</ele>
        <time>2022-07-14T08:17:26Z</time>
      </trkpt>
      <trkpt lat="46.33282" lon="5.44698">
        <ele>348.4</ele>
        <time>2022-07-14T08:17:30Z</time>
      </trkpt>
      <trkpt lat="46.33297" lon="5.44716">
        <ele>349.4</ele>
        <time>2022-07-14T08:17:34Z</time>
      </trkpt>
      <trkpt lat="46.33301" lon="5.4472">
        <ele>349.6</ele>
        <time>2022-07-14T08:17:35Z</time>
      </trkpt>
      <trkpt lat="46.33313" lon="5.44736">
        <ele>350.6</ele>
        <time>2022-07-14T08:17:39Z</time>
      </trkpt>
      <trkpt lat="46.33323" lon="5.44748">
        <ele>351.6</ele>
        <time>2022-07-14T08:17:42Z</time>
      </trkpt>
      <trkpt lat="46.33337" lon="5.44766">
        <ele>352.4</ele>
        <time>2022-07-14T08:17:46Z</time>
      </trkpt>
      <trkpt lat="46.33347" lon="5.44782">
        <ele>352.8</ele>
        <time>2022-07-14T08:17:49Z</time>
      </trkpt>
      <trkpt lat="46.33363" lon="5.44808">
        <ele>353.4</ele>
        <time>2022-07-14T08:17:54Z</time>
      </trkpt>
      <trkpt lat="46.33373" lon="5.44827">
        <ele>353.8</ele>
        <time>2022-07-14T08:17:57Z</time>
      </trkpt>
      <trkpt lat="46.33385" lon="5.4485">
        <ele>354.4</ele>
        <time>2022-07-14T08:18:02Z</time>
      </trkpt>
      <trkpt lat="46.33388" lon="5.44854">
        <ele>354.4</ele>
        <time>2022-07-14T08:18:03Z</time>
      </trkpt>
      <trkpt lat="46.33394" lon="5.44863">
        <ele>355</ele>
        <time>2022-07-14T08:18:05Z</time>
      </trkpt>
      <trkpt lat="46.33403" lon="5.44876">
        <ele>356</ele>
        <time>2022-07-14T08:18:08Z</time>
      </trkpt>
      <trkpt lat="46.33417" lon="5.44894">
        <ele>357</ele>
        <time>2022-07-14T08:18:12Z</time>
      </trkpt>
      <trkpt lat="46.33419" lon="5.44897">
        <ele>357.4</ele>
        <time>2022-07-14T08:18:13Z</time>
      </trkpt>
      <trkpt lat="46.33444" lon="5.44925">
        <ele>358.2</ele>
        <time>2022-07-14T08:18:19Z</time>
      </trkpt>
      <trkpt lat="46.33451" lon="5.4493">
        <ele>358.2</ele>
        <time>2022-07-14T08:18:20Z</time>
      </trkpt>
      <trkpt lat="46.33462" lon="5.44936">
        <ele>358.2</ele>
        <time>2022-07-14T08:18:22Z</time>
      </trkpt>
      <trkpt lat="46.33469" lon="5.44937">
        <ele>358.2</ele>
        <time>2022-07-14T08:18:23Z</time>
      </trkpt>
      <trkpt lat="46.33504" lon="5.44933">
        <ele>357.4</ele>
        <time>2022-07-14T08:18:27Z</time>
      </trkpt>
      <trkpt lat="46.33535" lon="5.4493">
        <ele>355.8</ele>
        <time>2022-07-14T08:18:30Z</time>
      </trkpt>
      <trkpt lat="46.33553" lon="5.44927">
        <ele>354.8</ele>
        <time>2022-07-14T08:18:32Z</time>
      </trkpt>
      <trkpt lat="46.33575" lon="5.44928">
        <ele>353.8</ele>
        <time>2022-07-14T08:18:34Z</time>
      </trkpt>
      <trkpt lat="46.33584" lon="5.44932">
        <ele>353.6</ele>
        <time>2022-07-14T08:18:35Z</time>
      </trkpt>
      <trkpt lat="46.33603" lon="5.44945">
        <ele>352.8</ele>
        <time>2022-07-14T08:18:37Z</time>
      </trkpt>
      <trkpt lat="46.33621" lon="5.4496">
        <ele>352.4</ele>
        <time>2022-07-14T08:18:39Z</time>
      </trkpt>
      <trkpt lat="46.33649" lon="5.44983">
        <ele>351.6</ele>
        <time>2022-07-14T08:18:42Z</time>
      </trkpt>
      <trkpt lat="46.33658" lon="5.4499">
        <ele>351</ele>
        <time>2022-07-14T08:18:43Z</time>
      </trkpt>
      <trkpt lat="46.33677" lon="5.45002">
        <ele>350.6</ele>
        <time>2022-07-14T08:18:45Z</time>
      </trkpt>
      <trkpt lat="46.33706" lon="5.45017">
        <ele>349.4</ele>
        <time>2022-07-14T08:18:48Z</time>
      </trkpt>
      <trkpt lat="46.33762" lon="5.45043">
        <ele>348.6</ele>
        <time>2022-07-14T08:18:54Z</time>
      </trkpt>
      <trkpt lat="46.33773" lon="5.45048">
        <ele>348.4</ele>
        <time>2022-07-14T08:18:55Z</time>
      </trkpt>
      <trkpt lat="46.33801" lon="5.45062">
        <ele>348</ele>
        <time>2022-07-14T08:18:58Z</time>
      </trkpt>
      <trkpt lat="46.33856" lon="5.45089">
        <ele>347.6</ele>
        <time>2022-07-14T08:19:04Z</time>
      </trkpt>
      <trkpt lat="46.33865" lon="5.45093">
        <ele>347.6</ele>
        <time>2022-07-14T08:19:05Z</time>
      </trkpt>
      <trkpt lat="46.33883" lon="5.45102">
        <ele>347.4</ele>
        <time>2022-07-14T08:19:07Z</time>
      </trkpt>
      <trkpt lat="46.33891" lon="5.45106">
        <ele>347.4</ele>
        <time>2022-07-14T08:19:08Z</time>
      </trkpt>
      <trkpt lat="46.3395" lon="5.45134">
        <ele>346.6</ele>
        <time>2022-07-14T08:19:15Z</time>
      </trkpt>
      <trkpt lat="46.33958" lon="5.45137">
        <ele>346.6</ele>
        <time>2022-07-14T08:19:16Z</time>
      </trkpt>
      <trkpt lat="46.34011" lon="5.45156">
        <ele>347</ele>
        <time>2022-07-14T08:19:23Z</time>
      </trkpt>
      <trkpt lat="46.34044" lon="5.45163">
        <ele>348.2</ele>
        <time>2022-07-14T08:19:28Z</time>
      </trkpt>
      <trkpt lat="46.34051" lon="5.45166">
        <ele>348.4</ele>
        <time>2022-07-14T08:19:29Z</time>
      </trkpt>
      <trkpt lat="46.34073" lon="5.45176">
        <ele>349.6</ele>
        <time>2022-07-14T08:19:33Z</time>
      </trkpt>
      <trkpt lat="46.34103" lon="5.4519">
        <ele>350.2</ele>
        <time>2022-07-14T08:19:38Z</time>
      </trkpt>
      <trkpt lat="46.34109" lon="5.45192">
        <ele>350.6</ele>
        <time>2022-07-14T08:19:39Z</time>
      </trkpt>
      <trkpt lat="46.3412" lon="5.45196">
        <ele>351</ele>
        <time>2022-07-14T08:19:41Z</time>
      </trkpt>
      <trkpt lat="46.34135" lon="5.45204">
        <ele>351.8</ele>
        <time>2022-07-14T08:19:44Z</time>
      </trkpt>
      <trkpt lat="46.34139" lon="5.45206">
        <ele>352</ele>
        <time>2022-07-14T08:19:45Z</time>
      </trkpt>
      <trkpt lat="46.34149" lon="5.45211">
        <ele>353</ele>
        <time>2022-07-14T08:19:47Z</time>
      </trkpt>
      <trkpt lat="46.34167" lon="5.45219">
        <ele>354</ele>
        <time>2022-07-14T08:19:51Z</time>
      </trkpt>
      <trkpt lat="46.34177" lon="5.45224">
        <ele>354.6</ele>
        <time>2022-07-14T08:19:53Z</time>
      </trkpt>
      <trkpt lat="46.34191" lon="5.45231">
        <ele>355.2</ele>
        <time>2022-07-14T08:19:56Z</time>
      </trkpt>
      <trkpt lat="46.3422" lon="5.45245">
        <ele>356.2</ele>
        <time>2022-07-14T08:20:02Z</time>
      </trkpt>
      <trkpt lat="46.34245" lon="5.45257">
        <ele>357.4</ele>
        <time>2022-07-14T08:20:07Z</time>
      </trkpt>
      <trkpt lat="46.34248" lon="5.45259">
        <ele>357.8</ele>
        <time>2022-07-14T08:20:08Z</time>
      </trkpt>
      <trkpt lat="46.34283" lon="5.45274">
        <ele>358.8</ele>
        <time>2022-07-14T08:20:15Z</time>
      </trkpt>
      <trkpt lat="46.34292" lon="5.45278">
        <ele>359.2</ele>
        <time>2022-07-14T08:20:17Z</time>
      </trkpt>
      <trkpt lat="46.343" lon="5.45281">
        <ele>359.6</ele>
        <time>2022-07-14T08:20:19Z</time>
      </trkpt>
      <trkpt lat="46.34304" lon="5.45282">
        <ele>359.8</ele>
        <time>2022-07-14T08:20:20Z</time>
      </trkpt>
      <trkpt lat="46.34312" lon="5.45285">
        <ele>360.6</ele>
        <time>2022-07-14T08:20:22Z</time>
      </trkpt>
      <trkpt lat="46.34315" lon="5.45286">
        <ele>360.8</ele>
        <time>2022-07-14T08:20:23Z</time>
      </trkpt>
      <trkpt lat="46.34319" lon="5.45287">
        <ele>361.4</ele>
        <time>2022-07-14T08:20:24Z</time>
      </trkpt>
      <trkpt lat="46.34326" lon="5.45288">
        <ele>362</ele>
        <time>2022-07-14T08:20:26Z</time>
      </trkpt>
      <trkpt lat="46.34333" lon="5.4529">
        <ele>363</ele>
        <time>2022-07-14T08:20:28Z</time>
      </trkpt>
      <trkpt lat="46.34347" lon="5.45292">
        <ele>364</ele>
        <time>2022-07-14T08:20:32Z</time>
      </trkpt>
      <trkpt lat="46.34356" lon="5.45296">
        <ele>365</ele>
        <time>2022-07-14T08:20:35Z</time>
      </trkpt>
      <trkpt lat="46.3436" lon="5.45297">
        <ele>365.4</ele>
        <time>2022-07-14T08:20:36Z</time>
      </trkpt>
      <trkpt lat="46.34367" lon="5.453">
        <ele>366.6</ele>
        <time>2022-07-14T08:20:38Z</time>
      </trkpt>
      <trkpt lat="46.34387" lon="5.45308">
        <ele>367.6</ele>
        <time>2022-07-14T08:20:43Z</time>
      </trkpt>
      <trkpt lat="46.34395" lon="5.45312">
        <ele>367.8</ele>
        <time>2022-07-14T08:20:45Z</time>
      </trkpt>
      <trkpt lat="46.3441" lon="5.45321">
        <ele>368.8</ele>
        <time>2022-07-14T08:20:49Z</time>
      </trkpt>
      <trkpt lat="46.34422" lon="5.45329">
        <ele>369</ele>
        <time>2022-07-14T08:20:52Z</time>
      </trkpt>
      <trkpt lat="46.34449" lon="5.45344">
        <ele>369.2</ele>
        <time>2022-07-14T08:20:58Z</time>
      </trkpt>
      <trkpt lat="46.34456" lon="5.45347">
        <ele>369.2</ele>
        <time>2022-07-14T08:21:01Z</time>
      </trkpt>
      <trkpt lat="46.3446" lon="5.45346">
        <ele>368.8</ele>
        <time>2022-07-14T08:21:05Z</time>
      </trkpt>
      <trkpt lat="46.34474" lon="5.45345">
        <ele>368.6</ele>
        <time>2022-07-14T08:21:09Z</time>
      </trkpt>
      <trkpt lat="46.34487" lon="5.45344">
        <ele>368.2</ele>
        <time>2022-07-14T08:21:11Z</time>
      </trkpt>
      <trkpt lat="46.34494" lon="5.45345">
        <ele>368</ele>
        <time>2022-07-14T08:21:12Z</time>
      </trkpt>
      <trkpt lat="46.34509" lon="5.45349">
        <ele>367.8</ele>
        <time>2022-07-14T08:21:14Z</time>
      </trkpt>
      <trkpt lat="46.34531" lon="5.45358">
        <ele>366.6</ele>
        <time>2022-07-14T08:21:17Z</time>
      </trkpt>
      <trkpt lat="46.34544" lon="5.45364">
        <ele>365.4</ele>
        <time>2022-07-14T08:21:19Z</time>
      </trkpt>
      <trkpt lat="46.34563" lon="5.45371">
        <ele>364</ele>
        <time>2022-07-14T08:21:22Z</time>
      </trkpt>
      <trkpt lat="46.34578" lon="5.45377">
        <ele>363.8</ele>
        <time>2022-07-14T08:21:25Z</time>
      </trkpt>
      <trkpt lat="46.34586" lon="5.45383">
        <ele>363.8</ele>
        <time>2022-07-14T08:21:27Z</time>
      </trkpt>
      <trkpt lat="46.34591" lon="5.45393">
        <ele>364.2</ele>
        <time>2022-07-14T08:21:31Z</time>
      </trkpt>
      <trkpt lat="46.34591" lon="5.45394">
        <ele>364.2</ele>
        <time>2022-07-14T08:21:35Z</time>
      </trkpt>
      <trkpt lat="46.34592" lon="5.45401">
        <ele>364.2</ele>
        <time>2022-07-14T08:21:44Z</time>
      </trkpt>
      <trkpt lat="46.34591" lon="5.45425">
        <ele>364.4</ele>
        <time>2022-07-14T08:21:50Z</time>
      </trkpt>
      <trkpt lat="46.34587" lon="5.45455">
        <ele>364.4</ele>
        <time>2022-07-14T08:21:54Z</time>
      </trkpt>
      <trkpt lat="46.3458" lon="5.45496">
        <ele>364.6</ele>
        <time>2022-07-14T08:21:58Z</time>
      </trkpt>
      <trkpt lat="46.34569" lon="5.45567">
        <ele>364</ele>
        <time>2022-07-14T08:22:04Z</time>
      </trkpt>
      <trkpt lat="46.34561" lon="5.45621">
        <ele>362.8</ele>
        <time>2022-07-14T08:22:09Z</time>
      </trkpt>
      <trkpt lat="46.3456" lon="5.45631">
        <ele>362.8</ele>
        <time>2022-07-14T08:22:10Z</time>
      </trkpt>
      <trkpt lat="46.34561" lon="5.45641">
        <ele>362.8</ele>
        <time>2022-07-14T08:22:11Z</time>
      </trkpt>
      <trkpt lat="46.34569" lon="5.45654">
        <ele>362.8</ele>
        <time>2022-07-14T08:22:13Z</time>
      </trkpt>
      <trkpt lat="46.3458" lon="5.45656">
        <ele>363</ele>
        <time>2022-07-14T08:22:15Z</time>
      </trkpt>
      <trkpt lat="46.34613" lon="5.45648">
        <ele>364</ele>
        <time>2022-07-14T08:22:20Z</time>
      </trkpt>
      <trkpt lat="46.34667" lon="5.4564">
        <ele>364.8</ele>
        <time>2022-07-14T08:22:27Z</time>
      </trkpt>
      <trkpt lat="46.34676" lon="5.4564">
        <ele>364.8</ele>
        <time>2022-07-14T08:22:28Z</time>
      </trkpt>
      <trkpt lat="46.34719" lon="5.45644">
        <ele>364.4</ele>
        <time>2022-07-14T08:22:33Z</time>
      </trkpt>
      <trkpt lat="46.34758" lon="5.45647">
        <ele>362.8</ele>
        <time>2022-07-14T08:22:37Z</time>
      </trkpt>
      <trkpt lat="46.34777" lon="5.45646">
        <ele>362</ele>
        <time>2022-07-14T08:22:39Z</time>
      </trkpt>
      <trkpt lat="46.34795" lon="5.45646">
        <ele>361.2</ele>
        <time>2022-07-14T08:22:41Z</time>
      </trkpt>
      <trkpt lat="46.3483" lon="5.45651">
        <ele>360.8</ele>
        <time>2022-07-14T08:22:45Z</time>
      </trkpt>
      <trkpt lat="46.3489" lon="5.45663">
        <ele>360.6</ele>
        <time>2022-07-14T08:22:52Z</time>
      </trkpt>
      <trkpt lat="46.34898" lon="5.45665">
        <ele>360.6</ele>
        <time>2022-07-14T08:22:53Z</time>
      </trkpt>
      <trkpt lat="46.34921" lon="5.45671">
        <ele>360.4</ele>
        <time>2022-07-14T08:22:56Z</time>
      </trkpt>
      <trkpt lat="46.34939" lon="5.45672">
        <ele>360.4</ele>
        <time>2022-07-14T08:22:58Z</time>
      </trkpt>
      <trkpt lat="46.35" lon="5.45669">
        <ele>360.2</ele>
        <time>2022-07-14T08:23:05Z</time>
      </trkpt>
      <trkpt lat="46.35018" lon="5.45669">
        <ele>360.2</ele>
        <time>2022-07-14T08:23:07Z</time>
      </trkpt>
      <trkpt lat="46.35078" lon="5.45669">
        <ele>359.2</ele>
        <time>2022-07-14T08:23:14Z</time>
      </trkpt>
      <trkpt lat="46.35123" lon="5.45669">
        <ele>358.8</ele>
        <time>2022-07-14T08:23:19Z</time>
      </trkpt>
      <trkpt lat="46.35154" lon="5.45676">
        <ele>359</ele>
        <time>2022-07-14T08:23:23Z</time>
      </trkpt>
      <trkpt lat="46.35162" lon="5.45676">
        <ele>358.8</ele>
        <time>2022-07-14T08:23:24Z</time>
      </trkpt>
      <trkpt lat="46.35169" lon="5.45673">
        <ele>358.8</ele>
        <time>2022-07-14T08:23:25Z</time>
      </trkpt>
      <trkpt lat="46.35183" lon="5.45664">
        <ele>358.6</ele>
        <time>2022-07-14T08:23:27Z</time>
      </trkpt>
      <trkpt lat="46.35204" lon="5.45651">
        <ele>358.2</ele>
        <time>2022-07-14T08:23:30Z</time>
      </trkpt>
      <trkpt lat="46.35211" lon="5.45648">
        <ele>358</ele>
        <time>2022-07-14T08:23:31Z</time>
      </trkpt>
      <trkpt lat="46.35218" lon="5.45647">
        <ele>358</ele>
        <time>2022-07-14T08:23:32Z</time>
      </trkpt>
      <trkpt lat="46.35264" lon="5.45633">
        <ele>357</ele>
        <time>2022-07-14T08:23:38Z</time>
      </trkpt>
      <trkpt lat="46.3528" lon="5.45625">
        <ele>356.4</ele>
        <time>2022-07-14T08:23:40Z</time>
      </trkpt>
      <trkpt lat="46.35294" lon="5.45614">
        <ele>355.8</ele>
        <time>2022-07-14T08:23:42Z</time>
      </trkpt>
      <trkpt lat="46.35328" lon="5.45591">
        <ele>355.4</ele>
        <time>2022-07-14T08:23:47Z</time>
      </trkpt>
      <trkpt lat="46.35356" lon="5.45576">
        <ele>356.2</ele>
        <time>2022-07-14T08:23:52Z</time>
      </trkpt>
      <trkpt lat="46.35361" lon="5.45574">
        <ele>356.6</ele>
        <time>2022-07-14T08:23:53Z</time>
      </trkpt>
      <trkpt lat="46.35367" lon="5.45573">
        <ele>357</ele>
        <time>2022-07-14T08:23:54Z</time>
      </trkpt>
      <trkpt lat="46.35374" lon="5.45571">
        <ele>357.6</ele>
        <time>2022-07-14T08:23:56Z</time>
      </trkpt>
      <trkpt lat="46.3538" lon="5.45569">
        <ele>358</ele>
        <time>2022-07-14T08:23:58Z</time>
      </trkpt>
      <trkpt lat="46.35398" lon="5.45566">
        <ele>359</ele>
        <time>2022-07-14T08:24:03Z</time>
      </trkpt>
      <trkpt lat="46.35409" lon="5.45562">
        <ele>360.4</ele>
        <time>2022-07-14T08:24:06Z</time>
      </trkpt>
      <trkpt lat="46.35418" lon="5.45554">
        <ele>361</ele>
        <time>2022-07-14T08:24:09Z</time>
      </trkpt>
      <trkpt lat="46.35421" lon="5.45551">
        <ele>361.6</ele>
        <time>2022-07-14T08:24:10Z</time>
      </trkpt>
      <trkpt lat="46.35431" lon="5.45539">
        <ele>362.6</ele>
        <time>2022-07-14T08:24:14Z</time>
      </trkpt>
      <trkpt lat="46.35433" lon="5.45536">
        <ele>363</ele>
        <time>2022-07-14T08:24:15Z</time>
      </trkpt>
      <trkpt lat="46.35435" lon="5.45528">
        <ele>363.8</ele>
        <time>2022-07-14T08:24:17Z</time>
      </trkpt>
      <trkpt lat="46.35434" lon="5.45518">
        <ele>364.8</ele>
        <time>2022-07-14T08:24:19Z</time>
      </trkpt>
      <trkpt lat="46.35434" lon="5.45513">
        <ele>365.2</ele>
        <time>2022-07-14T08:24:20Z</time>
      </trkpt>
      <trkpt lat="46.35429" lon="5.45496">
        <ele>366.4</ele>
        <time>2022-07-14T08:24:24Z</time>
      </trkpt>
      <trkpt lat="46.35429" lon="5.45487">
        <ele>366.8</ele>
        <time>2022-07-14T08:24:26Z</time>
      </trkpt>
      <trkpt lat="46.35429" lon="5.45478">
        <ele>367.4</ele>
        <time>2022-07-14T08:24:28Z</time>
      </trkpt>
      <trkpt lat="46.35429" lon="5.45456">
        <ele>368.6</ele>
        <time>2022-07-14T08:24:32Z</time>
      </trkpt>
      <trkpt lat="46.35432" lon="5.45448">
        <ele>369.4</ele>
        <time>2022-07-14T08:24:34Z</time>
      </trkpt>
      <trkpt lat="46.35439" lon="5.45445">
        <ele>369.8</ele>
        <time>2022-07-14T08:24:36Z</time>
      </trkpt>
      <trkpt lat="46.35442" lon="5.45445">
        <ele>369.8</ele>
        <time>2022-07-14T08:24:37Z</time>
      </trkpt>
      <trkpt lat="46.35462" lon="5.45446">
        <ele>370.2</ele>
        <time>2022-07-14T08:24:41Z</time>
      </trkpt>
      <trkpt lat="46.35468" lon="5.45446">
        <ele>370.2</ele>
        <time>2022-07-14T08:24:42Z</time>
      </trkpt>
      <trkpt lat="46.355" lon="5.45446">
        <ele>369.8</ele>
        <time>2022-07-14T08:24:47Z</time>
      </trkpt>
      <trkpt lat="46.35506" lon="5.45446">
        <ele>369.6</ele>
        <time>2022-07-14T08:24:48Z</time>
      </trkpt>
      <trkpt lat="46.35545" lon="5.45451">
        <ele>369.4</ele>
        <time>2022-07-14T08:24:54Z</time>
      </trkpt>
      <trkpt lat="46.3557" lon="5.45456">
        <ele>369.2</ele>
        <time>2022-07-14T08:24:57Z</time>
      </trkpt>
      <trkpt lat="46.35599" lon="5.45466">
        <ele>368.8</ele>
        <time>2022-07-14T08:25:02Z</time>
      </trkpt>
      <trkpt lat="46.35656" lon="5.4549">
        <ele>368.2</ele>
        <time>2022-07-14T08:25:10Z</time>
      </trkpt>
      <trkpt lat="46.35669" lon="5.45503">
        <ele>367.8</ele>
        <time>2022-07-14T08:25:12Z</time>
      </trkpt>
      <trkpt lat="46.35675" lon="5.45511">
        <ele>367.6</ele>
        <time>2022-07-14T08:25:13Z</time>
      </trkpt>
      <trkpt lat="46.35681" lon="5.4552">
        <ele>367.4</ele>
        <time>2022-07-14T08:25:14Z</time>
      </trkpt>
      <trkpt lat="46.35698" lon="5.45551">
        <ele>366.6</ele>
        <time>2022-07-14T08:25:17Z</time>
      </trkpt>
      <trkpt lat="46.35705" lon="5.45561">
        <ele>366</ele>
        <time>2022-07-14T08:25:18Z</time>
      </trkpt>
      <trkpt lat="46.35712" lon="5.45569">
        <ele>365.6</ele>
        <time>2022-07-14T08:25:19Z</time>
      </trkpt>
      <trkpt lat="46.3572" lon="5.45576">
        <ele>365.2</ele>
        <time>2022-07-14T08:25:20Z</time>
      </trkpt>
      <trkpt lat="46.35742" lon="5.45601">
        <ele>364</ele>
        <time>2022-07-14T08:25:23Z</time>
      </trkpt>
      <trkpt lat="46.35761" lon="5.45629">
        <ele>362.8</ele>
        <time>2022-07-14T08:25:26Z</time>
      </trkpt>
      <trkpt lat="46.35773" lon="5.45647">
        <ele>362</ele>
        <time>2022-07-14T08:25:28Z</time>
      </trkpt>
      <trkpt lat="46.35787" lon="5.4566">
        <ele>361.8</ele>
        <time>2022-07-14T08:25:30Z</time>
      </trkpt>
      <trkpt lat="46.35795" lon="5.45665">
        <ele>361.8</ele>
        <time>2022-07-14T08:25:31Z</time>
      </trkpt>
      <trkpt lat="46.35817" lon="5.45672">
        <ele>362</ele>
        <time>2022-07-14T08:25:34Z</time>
      </trkpt>
      <trkpt lat="46.35824" lon="5.45672">
        <ele>362.2</ele>
        <time>2022-07-14T08:25:35Z</time>
      </trkpt>
      <trkpt lat="46.3585" lon="5.45666">
        <ele>363.2</ele>
        <time>2022-07-14T08:25:39Z</time>
      </trkpt>
      <trkpt lat="46.35856" lon="5.45664">
        <ele>363.2</ele>
        <time>2022-07-14T08:25:40Z</time>
      </trkpt>
      <trkpt lat="46.35874" lon="5.45658">
        <ele>364.2</ele>
        <time>2022-07-14T08:25:43Z</time>
      </trkpt>
      <trkpt lat="46.3588" lon="5.45656">
        <ele>365.4</ele>
        <time>2022-07-14T08:25:44Z</time>
      </trkpt>
      <trkpt lat="46.35898" lon="5.4565">
        <ele>366.6</ele>
        <time>2022-07-14T08:25:47Z</time>
      </trkpt>
      <trkpt lat="46.3591" lon="5.45646">
        <ele>367.8</ele>
        <time>2022-07-14T08:25:49Z</time>
      </trkpt>
      <trkpt lat="46.3596" lon="5.45637">
        <ele>368.6</ele>
        <time>2022-07-14T08:25:56Z</time>
      </trkpt>
      <trkpt lat="46.35997" lon="5.45639">
        <ele>368.8</ele>
        <time>2022-07-14T08:26:02Z</time>
      </trkpt>
      <trkpt lat="46.36016" lon="5.45641">
        <ele>369.4</ele>
        <time>2022-07-14T08:26:05Z</time>
      </trkpt>
      <trkpt lat="46.36071" lon="5.45644">
        <ele>369.4</ele>
        <time>2022-07-14T08:26:13Z</time>
      </trkpt>
      <trkpt lat="46.36093" lon="5.45644">
        <ele>369.2</ele>
        <time>2022-07-14T08:26:16Z</time>
      </trkpt>
      <trkpt lat="46.3615" lon="5.45644">
        <ele>369.2</ele>
        <time>2022-07-14T08:26:24Z</time>
      </trkpt>
      <trkpt lat="46.3617" lon="5.45644">
        <ele>369.4</ele>
        <time>2022-07-14T08:26:27Z</time>
      </trkpt>
      <trkpt lat="46.3623" lon="5.45644">
        <ele>369.4</ele>
        <time>2022-07-14T08:26:36Z</time>
      </trkpt>
      <trkpt lat="46.36282" lon="5.45649">
        <ele>370</ele>
        <time>2022-07-14T08:26:44Z</time>
      </trkpt>
      <trkpt lat="46.36308" lon="5.45651">
        <ele>371.2</ele>
        <time>2022-07-14T08:26:48Z</time>
      </trkpt>
      <trkpt lat="46.3634" lon="5.45653">
        <ele>372</ele>
        <time>2022-07-14T08:26:53Z</time>
      </trkpt>
      <trkpt lat="46.3637" lon="5.45652">
        <ele>372.2</ele>
        <time>2022-07-14T08:26:58Z</time>
      </trkpt>
      <trkpt lat="46.36394" lon="5.45646">
        <ele>372.2</ele>
        <time>2022-07-14T08:27:01Z</time>
      </trkpt>
      <trkpt lat="46.36428" lon="5.45629">
        <ele>372.2</ele>
        <time>2022-07-14T08:27:06Z</time>
      </trkpt>
      <trkpt lat="46.36476" lon="5.45615">
        <ele>372.2</ele>
        <time>2022-07-14T08:27:13Z</time>
      </trkpt>
      <trkpt lat="46.36518" lon="5.45613">
        <ele>372.2</ele>
        <time>2022-07-14T08:27:19Z</time>
      </trkpt>
      <trkpt lat="46.36578" lon="5.45619">
        <ele>373.2</ele>
        <time>2022-07-14T08:27:28Z</time>
      </trkpt>
      <trkpt lat="46.36591" lon="5.45618">
        <ele>373.2</ele>
        <time>2022-07-14T08:27:30Z</time>
      </trkpt>
      <trkpt lat="46.36632" lon="5.45612">
        <ele>373.4</ele>
        <time>2022-07-14T08:27:36Z</time>
      </trkpt>
      <trkpt lat="46.36676" lon="5.45604">
        <ele>374.2</ele>
        <time>2022-07-14T08:27:43Z</time>
      </trkpt>
      <trkpt lat="46.36682" lon="5.45602">
        <ele>374.2</ele>
        <time>2022-07-14T08:27:44Z</time>
      </trkpt>
      <trkpt lat="46.36711" lon="5.45599">
        <ele>375.4</ele>
        <time>2022-07-14T08:27:49Z</time>
      </trkpt>
      <trkpt lat="46.36717" lon="5.45598">
        <ele>375.6</ele>
        <time>2022-07-14T08:27:50Z</time>
      </trkpt>
      <trkpt lat="46.36729" lon="5.45597">
        <ele>376.4</ele>
        <time>2022-07-14T08:27:52Z</time>
      </trkpt>
      <trkpt lat="46.36786" lon="5.45594">
        <ele>377.6</ele>
        <time>2022-07-14T08:28:01Z</time>
      </trkpt>
      <trkpt lat="46.36792" lon="5.45593">
        <ele>377.6</ele>
        <time>2022-07-14T08:28:02Z</time>
      </trkpt>
      <trkpt lat="46.36831" lon="5.45593">
        <ele>378.2</ele>
        <time>2022-07-14T08:28:08Z</time>
      </trkpt>
      <trkpt lat="46.36883" lon="5.45598">
        <ele>378.6</ele>
        <time>2022-07-14T08:28:16Z</time>
      </trkpt>
      <trkpt lat="46.36938" lon="5.45605">
        <ele>378.8</ele>
        <time>2022-07-14T08:28:23Z</time>
      </trkpt>
      <trkpt lat="46.36943" lon="5.45606">
        <ele>379</ele>
        <time>2022-07-14T08:28:24Z</time>
      </trkpt>
      <trkpt lat="46.36993" lon="5.45624">
        <ele>379.6</ele>
        <time>2022-07-14T08:28:32Z</time>
      </trkpt>
      <trkpt lat="46.36999" lon="5.45628">
        <ele>379.6</ele>
        <time>2022-07-14T08:28:33Z</time>
      </trkpt>
      <trkpt lat="46.3705" lon="5.45647">
        <ele>379.6</ele>
        <time>2022-07-14T08:28:41Z</time>
      </trkpt>
      <trkpt lat="46.37102" lon="5.45649">
        <ele>380.4</ele>
        <time>2022-07-14T08:28:49Z</time>
      </trkpt>
      <trkpt lat="46.37109" lon="5.4565">
        <ele>380.4</ele>
        <time>2022-07-14T08:28:50Z</time>
      </trkpt>
      <trkpt lat="46.37159" lon="5.45647">
        <ele>381.2</ele>
        <time>2022-07-14T08:28:58Z</time>
      </trkpt>
      <trkpt lat="46.37166" lon="5.45646">
        <ele>381.6</ele>
        <time>2022-07-14T08:28:59Z</time>
      </trkpt>
      <trkpt lat="46.37209" lon="5.45644">
        <ele>382.6</ele>
        <time>2022-07-14T08:29:06Z</time>
      </trkpt>
      <trkpt lat="46.37221" lon="5.45643">
        <ele>382.6</ele>
        <time>2022-07-14T08:29:08Z</time>
      </trkpt>
      <trkpt lat="46.3727" lon="5.45639">
        <ele>383.8</ele>
        <time>2022-07-14T08:29:16Z</time>
      </trkpt>
      <trkpt lat="46.37287" lon="5.45637">
        <ele>384.2</ele>
        <time>2022-07-14T08:29:19Z</time>
      </trkpt>
      <trkpt lat="46.3731" lon="5.45637">
        <ele>384.8</ele>
        <time>2022-07-14T08:29:23Z</time>
      </trkpt>
      <trkpt lat="46.37336" lon="5.45636">
        <ele>385.2</ele>
        <time>2022-07-14T08:29:27Z</time>
      </trkpt>
      <trkpt lat="46.37354" lon="5.45636">
        <ele>385.8</ele>
        <time>2022-07-14T08:29:31Z</time>
      </trkpt>
      <trkpt lat="46.37393" lon="5.45639">
        <ele>386.8</ele>
        <time>2022-07-14T08:29:38Z</time>
      </trkpt>
      <trkpt lat="46.37421" lon="5.4564">
        <ele>387.8</ele>
        <time>2022-07-14T08:29:43Z</time>
      </trkpt>
      <trkpt lat="46.37437" lon="5.45638">
        <ele>388.2</ele>
        <time>2022-07-14T08:29:46Z</time>
      </trkpt>
      <trkpt lat="46.37454" lon="5.45635">
        <ele>389.2</ele>
        <time>2022-07-14T08:29:49Z</time>
      </trkpt>
      <trkpt lat="46.37465" lon="5.45631">
        <ele>389.4</ele>
        <time>2022-07-14T08:29:51Z</time>
      </trkpt>
      <trkpt lat="46.3748" lon="5.45624">
        <ele>389.8</ele>
        <time>2022-07-14T08:29:54Z</time>
      </trkpt>
      <trkpt lat="46.375" lon="5.45613">
        <ele>390.4</ele>
        <time>2022-07-14T08:29:58Z</time>
      </trkpt>
      <trkpt lat="46.3752" lon="5.45604">
        <ele>391.4</ele>
        <time>2022-07-14T08:30:02Z</time>
      </trkpt>
      <trkpt lat="46.37524" lon="5.45601">
        <ele>392</ele>
        <time>2022-07-14T08:30:03Z</time>
      </trkpt>
      <trkpt lat="46.37534" lon="5.45597">
        <ele>392.6</ele>
        <time>2022-07-14T08:30:05Z</time>
      </trkpt>
      <trkpt lat="46.37557" lon="5.4559">
        <ele>394</ele>
        <time>2022-07-14T08:30:10Z</time>
      </trkpt>
      <trkpt lat="46.37571" lon="5.45588">
        <ele>394.6</ele>
        <time>2022-07-14T08:30:13Z</time>
      </trkpt>
      <trkpt lat="46.37575" lon="5.45588">
        <ele>395</ele>
        <time>2022-07-14T08:30:14Z</time>
      </trkpt>
      <trkpt lat="46.3758" lon="5.45588">
        <ele>395.2</ele>
        <time>2022-07-14T08:30:15Z</time>
      </trkpt>
      <trkpt lat="46.376" lon="5.45587">
        <ele>395.8</ele>
        <time>2022-07-14T08:30:19Z</time>
      </trkpt>
      <trkpt lat="46.37621" lon="5.45587">
        <ele>397</ele>
        <time>2022-07-14T08:30:23Z</time>
      </trkpt>
      <trkpt lat="46.37626" lon="5.45588">
        <ele>397.2</ele>
        <time>2022-07-14T08:30:24Z</time>
      </trkpt>
      <trkpt lat="46.37646" lon="5.45588">
        <ele>398</ele>
        <time>2022-07-14T08:30:27Z</time>
      </trkpt>
      <trkpt lat="46.37681" lon="5.45588">
        <ele>399</ele>
        <time>2022-07-14T08:30:34Z</time>
      </trkpt>
      <trkpt lat="46.37703" lon="5.45589">
        <ele>399.2</ele>
        <time>2022-07-14T08:30:38Z</time>
      </trkpt>
      <trkpt lat="46.37734" lon="5.45591">
        <ele>400.4</ele>
        <time>2022-07-14T08:30:44Z</time>
      </trkpt>
      <trkpt lat="46.37744" lon="5.45592">
        <ele>400.8</ele>
        <time>2022-07-14T08:30:46Z</time>
      </trkpt>
      <trkpt lat="46.37763" lon="5.45593">
        <ele>401.4</ele>
        <time>2022-07-14T08:30:50Z</time>
      </trkpt>
      <trkpt lat="46.37781" lon="5.45594">
        <ele>402.2</ele>
        <time>2022-07-14T08:30:54Z</time>
      </trkpt>
      <trkpt lat="46.3779" lon="5.45594">
        <ele>402.4</ele>
        <time>2022-07-14T08:30:56Z</time>
      </trkpt>
      <trkpt lat="46.37812" lon="5.45595">
        <ele>403.4</ele>
        <time>2022-07-14T08:31:01Z</time>
      </trkpt>
      <trkpt lat="46.37816" lon="5.45595">
        <ele>403.8</ele>
        <time>2022-07-14T08:31:02Z</time>
      </trkpt>
      <trkpt lat="46.37825" lon="5.45596">
        <ele>404.4</ele>
        <time>2022-07-14T08:31:04Z</time>
      </trkpt>
      <trkpt lat="46.37844" lon="5.45598">
        <ele>405.8</ele>
        <time>2022-07-14T08:31:08Z</time>
      </trkpt>
      <trkpt lat="46.37858" lon="5.45598">
        <ele>406.2</ele>
        <time>2022-07-14T08:31:11Z</time>
      </trkpt>
      <trkpt lat="46.37875" lon="5.45598">
        <ele>407.2</ele>
        <time>2022-07-14T08:31:15Z</time>
      </trkpt>
      <trkpt lat="46.37892" lon="5.45597">
        <ele>408.2</ele>
        <time>2022-07-14T08:31:19Z</time>
      </trkpt>
      <trkpt lat="46.37897" lon="5.45596">
        <ele>408.6</ele>
        <time>2022-07-14T08:31:20Z</time>
      </trkpt>
      <trkpt lat="46.37911" lon="5.45592">
        <ele>409</ele>
        <time>2022-07-14T08:31:23Z</time>
      </trkpt>
      <trkpt lat="46.37927" lon="5.45587">
        <ele>409.2</ele>
        <time>2022-07-14T08:31:25Z</time>
      </trkpt>
      <trkpt lat="46.3793" lon="5.45587">
        <ele>409.4</ele>
        <time>2022-07-14T08:31:26Z</time>
      </trkpt>
      <trkpt lat="46.37969" lon="5.45584">
        <ele>410</ele>
        <time>2022-07-14T08:31:33Z</time>
      </trkpt>
      <trkpt lat="46.38021" lon="5.45589">
        <ele>409.4</ele>
        <time>2022-07-14T08:31:40Z</time>
      </trkpt>
      <trkpt lat="46.38068" lon="5.45601">
        <ele>409.2</ele>
        <time>2022-07-14T08:31:46Z</time>
      </trkpt>
      <trkpt lat="46.38099" lon="5.45608">
        <ele>409</ele>
        <time>2022-07-14T08:31:50Z</time>
      </trkpt>
      <trkpt lat="46.38133" lon="5.45616">
        <ele>408.4</ele>
        <time>2022-07-14T08:31:54Z</time>
      </trkpt>
      <trkpt lat="46.38142" lon="5.45617">
        <ele>407.8</ele>
        <time>2022-07-14T08:31:55Z</time>
      </trkpt>
      <trkpt lat="46.38183" lon="5.45621">
        <ele>407</ele>
        <time>2022-07-14T08:31:59Z</time>
      </trkpt>
      <trkpt lat="46.38194" lon="5.45622">
        <ele>406.8</ele>
        <time>2022-07-14T08:32:00Z</time>
      </trkpt>
      <trkpt lat="46.38204" lon="5.45623">
        <ele>405.6</ele>
        <time>2022-07-14T08:32:01Z</time>
      </trkpt>
      <trkpt lat="46.38225" lon="5.45625">
        <ele>404.6</ele>
        <time>2022-07-14T08:32:03Z</time>
      </trkpt>
      <trkpt lat="46.38257" lon="5.45628">
        <ele>403.4</ele>
        <time>2022-07-14T08:32:06Z</time>
      </trkpt>
      <trkpt lat="46.38301" lon="5.45632">
        <ele>402.4</ele>
        <time>2022-07-14T08:32:10Z</time>
      </trkpt>
      <trkpt lat="46.38344" lon="5.45639">
        <ele>401.4</ele>
        <time>2022-07-14T08:32:14Z</time>
      </trkpt>
      <trkpt lat="46.38356" lon="5.4564">
        <ele>401.2</ele>
        <time>2022-07-14T08:32:15Z</time>
      </trkpt>
      <trkpt lat="46.38408" lon="5.45653">
        <ele>399.6</ele>
        <time>2022-07-14T08:32:20Z</time>
      </trkpt>
      <trkpt lat="46.38421" lon="5.45656">
        <ele>399.4</ele>
        <time>2022-07-14T08:32:21Z</time>
      </trkpt>
      <trkpt lat="46.38443" lon="5.45659">
        <ele>398.4</ele>
        <time>2022-07-14T08:32:23Z</time>
      </trkpt>
      <trkpt lat="46.38488" lon="5.45661">
        <ele>397.6</ele>
        <time>2022-07-14T08:32:27Z</time>
      </trkpt>
      <trkpt lat="46.385" lon="5.45661">
        <ele>397.4</ele>
        <time>2022-07-14T08:32:28Z</time>
      </trkpt>
      <trkpt lat="46.38536" lon="5.45659">
        <ele>396.2</ele>
        <time>2022-07-14T08:32:31Z</time>
      </trkpt>
      <trkpt lat="46.38561" lon="5.45655">
        <ele>395.2</ele>
        <time>2022-07-14T08:32:33Z</time>
      </trkpt>
      <trkpt lat="46.38573" lon="5.45652">
        <ele>394</ele>
        <time>2022-07-14T08:32:34Z</time>
      </trkpt>
      <trkpt lat="46.38597" lon="5.45647">
        <ele>393</ele>
        <time>2022-07-14T08:32:36Z</time>
      </trkpt>
      <trkpt lat="46.38621" lon="5.45642">
        <ele>391.8</ele>
        <time>2022-07-14T08:32:38Z</time>
      </trkpt>
      <trkpt lat="46.38655" lon="5.45636">
        <ele>391</ele>
        <time>2022-07-14T08:32:41Z</time>
      </trkpt>
      <trkpt lat="46.38677" lon="5.45635">
        <ele>390.8</ele>
        <time>2022-07-14T08:32:43Z</time>
      </trkpt>
      <trkpt lat="46.38709" lon="5.45638">
        <ele>390.8</ele>
        <time>2022-07-14T08:32:46Z</time>
      </trkpt>
      <trkpt lat="46.38763" lon="5.45642">
        <ele>391</ele>
        <time>2022-07-14T08:32:51Z</time>
      </trkpt>
      <trkpt lat="46.38774" lon="5.45644">
        <ele>391</ele>
        <time>2022-07-14T08:32:52Z</time>
      </trkpt>
      <trkpt lat="46.38828" lon="5.45654">
        <ele>391.2</ele>
        <time>2022-07-14T08:32:57Z</time>
      </trkpt>
      <trkpt lat="46.38838" lon="5.45654">
        <ele>391.2</ele>
        <time>2022-07-14T08:32:59Z</time>
      </trkpt>
      <trkpt lat="46.3887" lon="5.45651">
        <ele>391.8</ele>
        <time>2022-07-14T08:33:02Z</time>
      </trkpt>
      <trkpt lat="46.38879" lon="5.4565">
        <ele>391.8</ele>
        <time>2022-07-14T08:33:03Z</time>
      </trkpt>
      <trkpt lat="46.38926" lon="5.45651">
        <ele>392.2</ele>
        <time>2022-07-14T08:33:08Z</time>
      </trkpt>
      <trkpt lat="46.38983" lon="5.45659">
        <ele>392.4</ele>
        <time>2022-07-14T08:33:14Z</time>
      </trkpt>
      <trkpt lat="46.3904" lon="5.45651">
        <ele>391.6</ele>
        <time>2022-07-14T08:33:20Z</time>
      </trkpt>
      <trkpt lat="46.39085" lon="5.4564">
        <ele>390.8</ele>
        <time>2022-07-14T08:33:25Z</time>
      </trkpt>
      <trkpt lat="46.3912" lon="5.45629">
        <ele>390.4</ele>
        <time>2022-07-14T08:33:29Z</time>
      </trkpt>
      <trkpt lat="46.39147" lon="5.45619">
        <ele>389.6</ele>
        <time>2022-07-14T08:33:32Z</time>
      </trkpt>
      <trkpt lat="46.39192" lon="5.45605">
        <ele>388.4</ele>
        <time>2022-07-14T08:33:37Z</time>
      </trkpt>
      <trkpt lat="46.39225" lon="5.45596">
        <ele>387.6</ele>
        <time>2022-07-14T08:33:41Z</time>
      </trkpt>
      <trkpt lat="46.39241" lon="5.45589">
        <ele>387.6</ele>
        <time>2022-07-14T08:33:43Z</time>
      </trkpt>
      <trkpt lat="46.39288" lon="5.45569">
        <ele>388.4</ele>
        <time>2022-07-14T08:33:49Z</time>
      </trkpt>
      <trkpt lat="46.39302" lon="5.45563">
        <ele>388.4</ele>
        <time>2022-07-14T08:33:51Z</time>
      </trkpt>
      <trkpt lat="46.39316" lon="5.45556">
        <ele>388.2</ele>
        <time>2022-07-14T08:33:53Z</time>
      </trkpt>
      <trkpt lat="46.3932" lon="5.45552">
        <ele>388.2</ele>
        <time>2022-07-14T08:33:54Z</time>
      </trkpt>
      <trkpt lat="46.39332" lon="5.45539">
        <ele>388.2</ele>
        <time>2022-07-14T08:33:55Z</time>
      </trkpt>
      <trkpt lat="46.39339" lon="5.45528">
        <ele>388.2</ele>
        <time>2022-07-14T08:33:57Z</time>
      </trkpt>
      <trkpt lat="46.39362" lon="5.4548">
        <ele>388.8</ele>
        <time>2022-07-14T08:34:03Z</time>
      </trkpt>
      <trkpt lat="46.39365" lon="5.45475">
        <ele>388.8</ele>
        <time>2022-07-14T08:34:04Z</time>
      </trkpt>
      <trkpt lat="46.39379" lon="5.45455">
        <ele>389.6</ele>
        <time>2022-07-14T08:34:07Z</time>
      </trkpt>
      <trkpt lat="46.39383" lon="5.4545">
        <ele>390</ele>
        <time>2022-07-14T08:34:08Z</time>
      </trkpt>
      <trkpt lat="46.39389" lon="5.45438">
        <ele>390.8</ele>
        <time>2022-07-14T08:34:10Z</time>
      </trkpt>
      <trkpt lat="46.39391" lon="5.45432">
        <ele>391</ele>
        <time>2022-07-14T08:34:11Z</time>
      </trkpt>
      <trkpt lat="46.39392" lon="5.45425">
        <ele>391.6</ele>
        <time>2022-07-14T08:34:12Z</time>
      </trkpt>
      <trkpt lat="46.39391" lon="5.45418">
        <ele>391.8</ele>
        <time>2022-07-14T08:34:13Z</time>
      </trkpt>
      <trkpt lat="46.39389" lon="5.45403">
        <ele>392.4</ele>
        <time>2022-07-14T08:34:15Z</time>
      </trkpt>
      <trkpt lat="46.39389" lon="5.45395">
        <ele>393</ele>
        <time>2022-07-14T08:34:16Z</time>
      </trkpt>
      <trkpt lat="46.39387" lon="5.45388">
        <ele>393.6</ele>
        <time>2022-07-14T08:34:17Z</time>
      </trkpt>
      <trkpt lat="46.39381" lon="5.45375">
        <ele>394</ele>
        <time>2022-07-14T08:34:19Z</time>
      </trkpt>
      <trkpt lat="46.39376" lon="5.4537">
        <ele>394</ele>
        <time>2022-07-14T08:34:20Z</time>
      </trkpt>
      <trkpt lat="46.39371" lon="5.45365">
        <ele>394</ele>
        <time>2022-07-14T08:34:21Z</time>
      </trkpt>
      <trkpt lat="46.39355" lon="5.45353">
        <ele>394.2</ele>
        <time>2022-07-14T08:34:24Z</time>
      </trkpt>
      <trkpt lat="46.39329" lon="5.45333">
        <ele>393.2</ele>
        <time>2022-07-14T08:34:28Z</time>
      </trkpt>
      <trkpt lat="46.39322" lon="5.45327">
        <ele>392.8</ele>
        <time>2022-07-14T08:34:29Z</time>
      </trkpt>
      <trkpt lat="46.39316" lon="5.45322">
        <ele>392.6</ele>
        <time>2022-07-14T08:34:30Z</time>
      </trkpt>
      <trkpt lat="46.3931" lon="5.45311">
        <ele>391.8</ele>
        <time>2022-07-14T08:34:32Z</time>
      </trkpt>
      <trkpt lat="46.39311" lon="5.45307">
        <ele>391.4</ele>
        <time>2022-07-14T08:34:33Z</time>
      </trkpt>
      <trkpt lat="46.39315" lon="5.45305">
        <ele>391</ele>
        <time>2022-07-14T08:34:34Z</time>
      </trkpt>
      <trkpt lat="46.39321" lon="5.45303">
        <ele>390.8</ele>
        <time>2022-07-14T08:34:35Z</time>
      </trkpt>
      <trkpt lat="46.39329" lon="5.453">
        <ele>390.2</ele>
        <time>2022-07-14T08:34:36Z</time>
      </trkpt>
      <trkpt lat="46.39344" lon="5.45293">
        <ele>388.8</ele>
        <time>2022-07-14T08:34:38Z</time>
      </trkpt>
      <trkpt lat="46.39368" lon="5.4528">
        <ele>387.8</ele>
        <time>2022-07-14T08:34:41Z</time>
      </trkpt>
      <trkpt lat="46.39385" lon="5.45271">
        <ele>386.8</ele>
        <time>2022-07-14T08:34:43Z</time>
      </trkpt>
      <trkpt lat="46.39394" lon="5.45265">
        <ele>386.6</ele>
        <time>2022-07-14T08:34:44Z</time>
      </trkpt>
      <trkpt lat="46.39411" lon="5.45253">
        <ele>385.4</ele>
        <time>2022-07-14T08:34:46Z</time>
      </trkpt>
      <trkpt lat="46.39421" lon="5.45248">
        <ele>384.4</ele>
        <time>2022-07-14T08:34:47Z</time>
      </trkpt>
      <trkpt lat="46.39431" lon="5.45244">
        <ele>383.4</ele>
        <time>2022-07-14T08:34:48Z</time>
      </trkpt>
      <trkpt lat="46.39441" lon="5.45239">
        <ele>382.8</ele>
        <time>2022-07-14T08:34:49Z</time>
      </trkpt>
      <trkpt lat="46.39472" lon="5.45223">
        <ele>381.2</ele>
        <time>2022-07-14T08:34:52Z</time>
      </trkpt>
      <trkpt lat="46.39491" lon="5.45214">
        <ele>379.8</ele>
        <time>2022-07-14T08:34:54Z</time>
      </trkpt>
      <trkpt lat="46.39505" lon="5.45209">
        <ele>378.8</ele>
        <time>2022-07-14T08:34:55Z</time>
      </trkpt>
      <trkpt lat="46.39527" lon="5.452">
        <ele>376.8</ele>
        <time>2022-07-14T08:34:57Z</time>
      </trkpt>
      <trkpt lat="46.39549" lon="5.45195">
        <ele>376</ele>
        <time>2022-07-14T08:34:59Z</time>
      </trkpt>
      <trkpt lat="46.39561" lon="5.45194">
        <ele>375.8</ele>
        <time>2022-07-14T08:35:00Z</time>
      </trkpt>
      <trkpt lat="46.39572" lon="5.45195">
        <ele>375</ele>
        <time>2022-07-14T08:35:01Z</time>
      </trkpt>
      <trkpt lat="46.39596" lon="5.452">
        <ele>373.8</ele>
        <time>2022-07-14T08:35:03Z</time>
      </trkpt>
      <trkpt lat="46.3963" lon="5.45214">
        <ele>372</ele>
        <time>2022-07-14T08:35:06Z</time>
      </trkpt>
      <trkpt lat="46.39652" lon="5.45225">
        <ele>370.6</ele>
        <time>2022-07-14T08:35:08Z</time>
      </trkpt>
      <trkpt lat="46.39686" lon="5.45241">
        <ele>369.4</ele>
        <time>2022-07-14T08:35:11Z</time>
      </trkpt>
      <trkpt lat="46.39719" lon="5.45258">
        <ele>368.4</ele>
        <time>2022-07-14T08:35:14Z</time>
      </trkpt>
      <trkpt lat="46.3974" lon="5.45269">
        <ele>367.4</ele>
        <time>2022-07-14T08:35:16Z</time>
      </trkpt>
      <trkpt lat="46.39751" lon="5.45275">
        <ele>367</ele>
        <time>2022-07-14T08:35:17Z</time>
      </trkpt>
      <trkpt lat="46.39784" lon="5.45291">
        <ele>365.4</ele>
        <time>2022-07-14T08:35:20Z</time>
      </trkpt>
      <trkpt lat="46.39795" lon="5.45294">
        <ele>364.8</ele>
        <time>2022-07-14T08:35:21Z</time>
      </trkpt>
      <trkpt lat="46.39806" lon="5.45296">
        <ele>364</ele>
        <time>2022-07-14T08:35:22Z</time>
      </trkpt>
      <trkpt lat="46.39829" lon="5.45298">
        <ele>363.4</ele>
        <time>2022-07-14T08:35:24Z</time>
      </trkpt>
      <trkpt lat="46.39852" lon="5.45296">
        <ele>363</ele>
        <time>2022-07-14T08:35:25Z</time>
      </trkpt>
      <trkpt lat="46.39859" lon="5.45295">
        <ele>362.8</ele>
        <time>2022-07-14T08:35:26Z</time>
      </trkpt>
      <trkpt lat="46.39881" lon="5.45292">
        <ele>361.8</ele>
        <time>2022-07-14T08:35:29Z</time>
      </trkpt>
      <trkpt lat="46.39917" lon="5.45287">
        <ele>360.6</ele>
        <time>2022-07-14T08:35:32Z</time>
      </trkpt>
      <trkpt lat="46.39927" lon="5.45285">
        <ele>360.4</ele>
        <time>2022-07-14T08:35:33Z</time>
      </trkpt>
      <trkpt lat="46.39976" lon="5.45278">
        <ele>359.6</ele>
        <time>2022-07-14T08:35:38Z</time>
      </trkpt>
      <trkpt lat="46.39986" lon="5.45278">
        <ele>359.6</ele>
        <time>2022-07-14T08:35:39Z</time>
      </trkpt>
      <trkpt lat="46.40014" lon="5.45275">
        <ele>359.6</ele>
        <time>2022-07-14T08:35:42Z</time>
      </trkpt>
      <trkpt lat="46.40051" lon="5.45271">
        <ele>359.6</ele>
        <time>2022-07-14T08:35:46Z</time>
      </trkpt>
      <trkpt lat="46.40105" lon="5.45263">
        <ele>359.6</ele>
        <time>2022-07-14T08:35:52Z</time>
      </trkpt>
      <trkpt lat="46.40114" lon="5.45262">
        <ele>359.6</ele>
        <time>2022-07-14T08:35:53Z</time>
      </trkpt>
      <trkpt lat="46.40153" lon="5.45246">
        <ele>360</ele>
        <time>2022-07-14T08:35:58Z</time>
      </trkpt>
      <trkpt lat="46.40169" lon="5.45239">
        <ele>360</ele>
        <time>2022-07-14T08:36:00Z</time>
      </trkpt>
      <trkpt lat="46.40185" lon="5.45236">
        <ele>360</ele>
        <time>2022-07-14T08:36:02Z</time>
      </trkpt>
      <trkpt lat="46.40217" lon="5.4523">
        <ele>360</ele>
        <time>2022-07-14T08:36:06Z</time>
      </trkpt>
      <trkpt lat="46.40225" lon="5.45227">
        <ele>360</ele>
        <time>2022-07-14T08:36:07Z</time>
      </trkpt>
      <trkpt lat="46.4024" lon="5.4522">
        <ele>360</ele>
        <time>2022-07-14T08:36:09Z</time>
      </trkpt>
      <trkpt lat="46.40283" lon="5.45196">
        <ele>360.4</ele>
        <time>2022-07-14T08:36:15Z</time>
      </trkpt>
      <trkpt lat="46.40305" lon="5.45185">
        <ele>360.6</ele>
        <time>2022-07-14T08:36:18Z</time>
      </trkpt>
      <trkpt lat="46.40357" lon="5.45158">
        <ele>360.6</ele>
        <time>2022-07-14T08:36:25Z</time>
      </trkpt>
      <trkpt lat="46.40374" lon="5.45149">
        <ele>360.8</ele>
        <time>2022-07-14T08:36:28Z</time>
      </trkpt>
      <trkpt lat="46.40427" lon="5.45121">
        <ele>361.6</ele>
        <time>2022-07-14T08:36:35Z</time>
      </trkpt>
      <trkpt lat="46.40433" lon="5.45118">
        <ele>361.8</ele>
        <time>2022-07-14T08:36:36Z</time>
      </trkpt>
      <trkpt lat="46.40446" lon="5.45112">
        <ele>362</ele>
        <time>2022-07-14T08:36:38Z</time>
      </trkpt>
      <trkpt lat="46.40476" lon="5.45096">
        <ele>363</ele>
        <time>2022-07-14T08:36:43Z</time>
      </trkpt>
      <trkpt lat="46.40504" lon="5.45081">
        <ele>363.4</ele>
        <time>2022-07-14T08:36:47Z</time>
      </trkpt>
      <trkpt lat="46.40559" lon="5.45053">
        <ele>363.8</ele>
        <time>2022-07-14T08:36:55Z</time>
      </trkpt>
      <trkpt lat="46.40573" lon="5.45045">
        <ele>363.8</ele>
        <time>2022-07-14T08:36:57Z</time>
      </trkpt>
      <trkpt lat="46.4063" lon="5.45014">
        <ele>364</ele>
        <time>2022-07-14T08:37:05Z</time>
      </trkpt>
      <trkpt lat="46.40675" lon="5.44998">
        <ele>364</ele>
        <time>2022-07-14T08:37:11Z</time>
      </trkpt>
      <trkpt lat="46.40713" lon="5.44998">
        <ele>363.6</ele>
        <time>2022-07-14T08:37:16Z</time>
      </trkpt>
      <trkpt lat="46.40757" lon="5.45012">
        <ele>363.6</ele>
        <time>2022-07-14T08:37:22Z</time>
      </trkpt>
      <trkpt lat="46.40791" lon="5.45024">
        <ele>364.2</ele>
        <time>2022-07-14T08:37:26Z</time>
      </trkpt>
      <trkpt lat="46.40815" lon="5.45035">
        <ele>364.4</ele>
        <time>2022-07-14T08:37:30Z</time>
      </trkpt>
      <trkpt lat="46.40867" lon="5.4507">
        <ele>365</ele>
        <time>2022-07-14T08:37:38Z</time>
      </trkpt>
      <trkpt lat="46.40879" lon="5.45079">
        <ele>365.4</ele>
        <time>2022-07-14T08:37:40Z</time>
      </trkpt>
      <trkpt lat="46.40884" lon="5.45084">
        <ele>365.4</ele>
        <time>2022-07-14T08:37:41Z</time>
      </trkpt>
      <trkpt lat="46.40894" lon="5.45093">
        <ele>365.8</ele>
        <time>2022-07-14T08:37:43Z</time>
      </trkpt>
      <trkpt lat="46.40906" lon="5.45104">
        <ele>366.6</ele>
        <time>2022-07-14T08:37:45Z</time>
      </trkpt>
      <trkpt lat="46.40922" lon="5.45117">
        <ele>367.2</ele>
        <time>2022-07-14T08:37:48Z</time>
      </trkpt>
      <trkpt lat="46.40928" lon="5.45122">
        <ele>367.4</ele>
        <time>2022-07-14T08:37:49Z</time>
      </trkpt>
      <trkpt lat="46.40939" lon="5.45132">
        <ele>367.8</ele>
        <time>2022-07-14T08:37:51Z</time>
      </trkpt>
      <trkpt lat="46.40957" lon="5.45144">
        <ele>369</ele>
        <time>2022-07-14T08:37:54Z</time>
      </trkpt>
      <trkpt lat="46.41002" lon="5.45168">
        <ele>369.4</ele>
        <time>2022-07-14T08:38:01Z</time>
      </trkpt>
      <trkpt lat="46.4104" lon="5.45183">
        <ele>370.2</ele>
        <time>2022-07-14T08:38:07Z</time>
      </trkpt>
      <trkpt lat="46.41053" lon="5.45186">
        <ele>370.4</ele>
        <time>2022-07-14T08:38:09Z</time>
      </trkpt>
      <trkpt lat="46.41059" lon="5.45188">
        <ele>370.6</ele>
        <time>2022-07-14T08:38:10Z</time>
      </trkpt>
      <trkpt lat="46.41077" lon="5.45194">
        <ele>371.2</ele>
        <time>2022-07-14T08:38:13Z</time>
      </trkpt>
      <trkpt lat="46.41083" lon="5.45195">
        <ele>371.2</ele>
        <time>2022-07-14T08:38:14Z</time>
      </trkpt>
      <trkpt lat="46.41129" lon="5.45204">
        <ele>372</ele>
        <time>2022-07-14T08:38:21Z</time>
      </trkpt>
      <trkpt lat="46.41135" lon="5.45206">
        <ele>372.2</ele>
        <time>2022-07-14T08:38:22Z</time>
      </trkpt>
      <trkpt lat="46.41169" lon="5.45211">
        <ele>373.4</ele>
        <time>2022-07-14T08:38:27Z</time>
      </trkpt>
      <trkpt lat="46.41191" lon="5.45214">
        <ele>373.6</ele>
        <time>2022-07-14T08:38:30Z</time>
      </trkpt>
      <trkpt lat="46.41228" lon="5.45222">
        <ele>373.6</ele>
        <time>2022-07-14T08:38:35Z</time>
      </trkpt>
      <trkpt lat="46.41243" lon="5.45225">
        <ele>373.8</ele>
        <time>2022-07-14T08:38:37Z</time>
      </trkpt>
      <trkpt lat="46.41297" lon="5.45239">
        <ele>374</ele>
        <time>2022-07-14T08:38:44Z</time>
      </trkpt>
      <trkpt lat="46.41352" lon="5.45252">
        <ele>373.4</ele>
        <time>2022-07-14T08:38:51Z</time>
      </trkpt>
      <trkpt lat="46.41406" lon="5.45263">
        <ele>373.4</ele>
        <time>2022-07-14T08:38:57Z</time>
      </trkpt>
      <trkpt lat="46.41414" lon="5.45266">
        <ele>373.6</ele>
        <time>2022-07-14T08:38:59Z</time>
      </trkpt>
      <trkpt lat="46.41467" lon="5.45279">
        <ele>373.6</ele>
        <time>2022-07-14T08:39:05Z</time>
      </trkpt>
      <trkpt lat="46.41491" lon="5.45286">
        <ele>373.6</ele>
        <time>2022-07-14T08:39:08Z</time>
      </trkpt>
      <trkpt lat="46.41547" lon="5.45299">
        <ele>373.8</ele>
        <time>2022-07-14T08:39:15Z</time>
      </trkpt>
      <trkpt lat="46.41555" lon="5.45301">
        <ele>373.8</ele>
        <time>2022-07-14T08:39:16Z</time>
      </trkpt>
      <trkpt lat="46.41608" lon="5.45314">
        <ele>374.4</ele>
        <time>2022-07-14T08:39:23Z</time>
      </trkpt>
      <trkpt lat="46.4163" lon="5.45319">
        <ele>374.8</ele>
        <time>2022-07-14T08:39:26Z</time>
      </trkpt>
      <trkpt lat="46.41658" lon="5.45325">
        <ele>375.4</ele>
        <time>2022-07-14T08:39:30Z</time>
      </trkpt>
      <trkpt lat="46.41694" lon="5.45335">
        <ele>376</ele>
        <time>2022-07-14T08:39:35Z</time>
      </trkpt>
      <trkpt lat="46.41716" lon="5.4534">
        <ele>376.6</ele>
        <time>2022-07-14T08:39:38Z</time>
      </trkpt>
      <trkpt lat="46.4176" lon="5.4535">
        <ele>377.6</ele>
        <time>2022-07-14T08:39:44Z</time>
      </trkpt>
      <trkpt lat="46.41774" lon="5.45353">
        <ele>377.8</ele>
        <time>2022-07-14T08:39:46Z</time>
      </trkpt>
      <trkpt lat="46.41828" lon="5.45365">
        <ele>378.4</ele>
        <time>2022-07-14T08:39:53Z</time>
      </trkpt>
      <trkpt lat="46.41856" lon="5.45371">
        <ele>378.4</ele>
        <time>2022-07-14T08:39:56Z</time>
      </trkpt>
      <trkpt lat="46.41897" lon="5.45381">
        <ele>378.6</ele>
        <time>2022-07-14T08:40:02Z</time>
      </trkpt>
      <trkpt lat="46.4192" lon="5.45387">
        <ele>378.8</ele>
        <time>2022-07-14T08:40:04Z</time>
      </trkpt>
      <trkpt lat="46.41927" lon="5.45389">
        <ele>378.8</ele>
        <time>2022-07-14T08:40:06Z</time>
      </trkpt>
      <trkpt lat="46.41985" lon="5.45412">
        <ele>378.8</ele>
        <time>2022-07-14T08:40:13Z</time>
      </trkpt>
      <trkpt lat="46.41999" lon="5.45418">
        <ele>378.8</ele>
        <time>2022-07-14T08:40:15Z</time>
      </trkpt>
      <trkpt lat="46.42034" lon="5.45434">
        <ele>379.8</ele>
        <time>2022-07-14T08:40:20Z</time>
      </trkpt>
      <trkpt lat="46.42056" lon="5.45443">
        <ele>380.2</ele>
        <time>2022-07-14T08:40:23Z</time>
      </trkpt>
      <trkpt lat="46.42104" lon="5.45462">
        <ele>380.4</ele>
        <time>2022-07-14T08:40:29Z</time>
      </trkpt>
      <trkpt lat="46.4216" lon="5.45483">
        <ele>379.8</ele>
        <time>2022-07-14T08:40:36Z</time>
      </trkpt>
      <trkpt lat="46.42175" lon="5.45489">
        <ele>379.8</ele>
        <time>2022-07-14T08:40:38Z</time>
      </trkpt>
      <trkpt lat="46.42232" lon="5.45508">
        <ele>379.8</ele>
        <time>2022-07-14T08:40:45Z</time>
      </trkpt>
      <trkpt lat="46.42271" lon="5.45521">
        <ele>379.8</ele>
        <time>2022-07-14T08:40:50Z</time>
      </trkpt>
      <trkpt lat="46.42331" lon="5.4554">
        <ele>380</ele>
        <time>2022-07-14T08:40:58Z</time>
      </trkpt>
      <trkpt lat="46.42369" lon="5.45551">
        <ele>380</ele>
        <time>2022-07-14T08:41:02Z</time>
      </trkpt>
      <trkpt lat="46.42425" lon="5.4557">
        <ele>379</ele>
        <time>2022-07-14T08:41:08Z</time>
      </trkpt>
      <trkpt lat="46.42442" lon="5.45575">
        <ele>378.6</ele>
        <time>2022-07-14T08:41:10Z</time>
      </trkpt>
      <trkpt lat="46.42452" lon="5.45578">
        <ele>378.4</ele>
        <time>2022-07-14T08:41:11Z</time>
      </trkpt>
      <trkpt lat="46.42474" lon="5.45585">
        <ele>377.2</ele>
        <time>2022-07-14T08:41:13Z</time>
      </trkpt>
      <trkpt lat="46.42502" lon="5.45594">
        <ele>376.2</ele>
        <time>2022-07-14T08:41:16Z</time>
      </trkpt>
      <trkpt lat="46.42559" lon="5.45613">
        <ele>375.8</ele>
        <time>2022-07-14T08:41:22Z</time>
      </trkpt>
      <trkpt lat="46.42568" lon="5.45616">
        <ele>375.8</ele>
        <time>2022-07-14T08:41:23Z</time>
      </trkpt>
      <trkpt lat="46.42595" lon="5.45625">
        <ele>375.6</ele>
        <time>2022-07-14T08:41:26Z</time>
      </trkpt>
      <trkpt lat="46.42647" lon="5.45641">
        <ele>375.6</ele>
        <time>2022-07-14T08:41:32Z</time>
      </trkpt>
      <trkpt lat="46.42686" lon="5.45653">
        <ele>376.2</ele>
        <time>2022-07-14T08:41:37Z</time>
      </trkpt>
      <trkpt lat="46.42746" lon="5.45672">
        <ele>377</ele>
        <time>2022-07-14T08:41:45Z</time>
      </trkpt>
      <trkpt lat="46.42754" lon="5.45673">
        <ele>377</ele>
        <time>2022-07-14T08:41:46Z</time>
      </trkpt>
      <trkpt lat="46.42811" lon="5.45682">
        <ele>377.2</ele>
        <time>2022-07-14T08:41:53Z</time>
      </trkpt>
      <trkpt lat="46.42811" lon="5.45682">
        <ele>377.4</ele>
        <time>2022-07-14T08:41:54Z</time>
      </trkpt>
      <trkpt lat="46.42868" lon="5.45683">
        <ele>377</ele>
        <time>2022-07-14T08:42:00Z</time>
      </trkpt>
      <trkpt lat="46.42892" lon="5.45684">
        <ele>376.6</ele>
        <time>2022-07-14T08:42:03Z</time>
      </trkpt>
      <trkpt lat="46.42947" lon="5.45685">
        <ele>375.2</ele>
        <time>2022-07-14T08:42:09Z</time>
      </trkpt>
      <trkpt lat="46.42965" lon="5.45685">
        <ele>374.8</ele>
        <time>2022-07-14T08:42:11Z</time>
      </trkpt>
      <trkpt lat="46.42993" lon="5.45685">
        <ele>374.2</ele>
        <time>2022-07-14T08:42:14Z</time>
      </trkpt>
      <trkpt lat="46.43038" lon="5.45686">
        <ele>373.2</ele>
        <time>2022-07-14T08:42:19Z</time>
      </trkpt>
      <trkpt lat="46.43076" lon="5.45687">
        <ele>372.2</ele>
        <time>2022-07-14T08:42:23Z</time>
      </trkpt>
      <trkpt lat="46.43115" lon="5.45688">
        <ele>371.2</ele>
        <time>2022-07-14T08:42:27Z</time>
      </trkpt>
      <trkpt lat="46.43125" lon="5.45688">
        <ele>371</ele>
        <time>2022-07-14T08:42:28Z</time>
      </trkpt>
      <trkpt lat="46.43185" lon="5.45689">
        <ele>369.6</ele>
        <time>2022-07-14T08:42:34Z</time>
      </trkpt>
      <trkpt lat="46.43197" lon="5.45689">
        <ele>369.4</ele>
        <time>2022-07-14T08:42:35Z</time>
      </trkpt>
      <trkpt lat="46.43255" lon="5.4569">
        <ele>368.6</ele>
        <time>2022-07-14T08:42:41Z</time>
      </trkpt>
      <trkpt lat="46.43283" lon="5.45691">
        <ele>368.6</ele>
        <time>2022-07-14T08:42:44Z</time>
      </trkpt>
      <trkpt lat="46.43337" lon="5.45692">
        <ele>368.6</ele>
        <time>2022-07-14T08:42:50Z</time>
      </trkpt>
      <trkpt lat="46.43365" lon="5.45693">
        <ele>368.6</ele>
        <time>2022-07-14T08:42:53Z</time>
      </trkpt>
      <trkpt lat="46.4342" lon="5.45695">
        <ele>368.4</ele>
        <time>2022-07-14T08:42:59Z</time>
      </trkpt>
      <trkpt lat="46.43458" lon="5.45696">
        <ele>368.4</ele>
        <time>2022-07-14T08:43:03Z</time>
      </trkpt>
      <trkpt lat="46.43515" lon="5.45697">
        <ele>367.8</ele>
        <time>2022-07-14T08:43:09Z</time>
      </trkpt>
      <trkpt lat="46.43543" lon="5.45697">
        <ele>367.8</ele>
        <time>2022-07-14T08:43:12Z</time>
      </trkpt>
      <trkpt lat="46.43605" lon="5.45698">
        <ele>368.2</ele>
        <time>2022-07-14T08:43:19Z</time>
      </trkpt>
      <trkpt lat="46.43614" lon="5.45698">
        <ele>368.2</ele>
        <time>2022-07-14T08:43:20Z</time>
      </trkpt>
      <trkpt lat="46.43674" lon="5.45699">
        <ele>368.4</ele>
        <time>2022-07-14T08:43:27Z</time>
      </trkpt>
      <trkpt lat="46.43683" lon="5.457">
        <ele>368.4</ele>
        <time>2022-07-14T08:43:28Z</time>
      </trkpt>
      <trkpt lat="46.43742" lon="5.45701">
        <ele>368.2</ele>
        <time>2022-07-14T08:43:35Z</time>
      </trkpt>
      <trkpt lat="46.43766" lon="5.45702">
        <ele>368.4</ele>
        <time>2022-07-14T08:43:38Z</time>
      </trkpt>
      <trkpt lat="46.43823" lon="5.45702">
        <ele>369.6</ele>
        <time>2022-07-14T08:43:45Z</time>
      </trkpt>
      <trkpt lat="46.43839" lon="5.45702">
        <ele>369.8</ele>
        <time>2022-07-14T08:43:47Z</time>
      </trkpt>
      <trkpt lat="46.43895" lon="5.45696">
        <ele>369.8</ele>
        <time>2022-07-14T08:43:54Z</time>
      </trkpt>
      <trkpt lat="46.43904" lon="5.45695">
        <ele>369.8</ele>
        <time>2022-07-14T08:43:55Z</time>
      </trkpt>
      <trkpt lat="46.43962" lon="5.45684">
        <ele>369.6</ele>
        <time>2022-07-14T08:44:02Z</time>
      </trkpt>
      <trkpt lat="46.43978" lon="5.45681">
        <ele>369.8</ele>
        <time>2022-07-14T08:44:04Z</time>
      </trkpt>
      <trkpt lat="46.44035" lon="5.45671">
        <ele>369.8</ele>
        <time>2022-07-14T08:44:11Z</time>
      </trkpt>
      <trkpt lat="46.44051" lon="5.45668">
        <ele>369.8</ele>
        <time>2022-07-14T08:44:13Z</time>
      </trkpt>
      <trkpt lat="46.44104" lon="5.45658">
        <ele>370.4</ele>
        <time>2022-07-14T08:44:20Z</time>
      </trkpt>
      <trkpt lat="46.44128" lon="5.45653">
        <ele>370.6</ele>
        <time>2022-07-14T08:44:23Z</time>
      </trkpt>
      <trkpt lat="46.44183" lon="5.45643">
        <ele>371</ele>
        <time>2022-07-14T08:44:30Z</time>
      </trkpt>
      <trkpt lat="46.44214" lon="5.45636">
        <ele>371</ele>
        <time>2022-07-14T08:44:34Z</time>
      </trkpt>
      <trkpt lat="46.44222" lon="5.45635">
        <ele>371</ele>
        <time>2022-07-14T08:44:35Z</time>
      </trkpt>
      <trkpt lat="46.44277" lon="5.4563">
        <ele>371.8</ele>
        <time>2022-07-14T08:44:42Z</time>
      </trkpt>
      <trkpt lat="46.44284" lon="5.4563">
        <ele>372</ele>
        <time>2022-07-14T08:44:43Z</time>
      </trkpt>
      <trkpt lat="46.443" lon="5.45631">
        <ele>372.4</ele>
        <time>2022-07-14T08:44:45Z</time>
      </trkpt>
      <trkpt lat="46.4436" lon="5.45638">
        <ele>373.2</ele>
        <time>2022-07-14T08:44:53Z</time>
      </trkpt>
      <trkpt lat="46.44367" lon="5.45639">
        <ele>373.2</ele>
        <time>2022-07-14T08:44:54Z</time>
      </trkpt>
      <trkpt lat="46.44382" lon="5.45641">
        <ele>373.4</ele>
        <time>2022-07-14T08:44:56Z</time>
      </trkpt>
      <trkpt lat="46.44424" lon="5.45645">
        <ele>374.4</ele>
        <time>2022-07-14T08:45:02Z</time>
      </trkpt>
      <trkpt lat="46.44464" lon="5.45649">
        <ele>375.6</ele>
        <time>2022-07-14T08:45:08Z</time>
      </trkpt>
      <trkpt lat="46.44491" lon="5.45653">
        <ele>376.4</ele>
        <time>2022-07-14T08:45:12Z</time>
      </trkpt>
      <trkpt lat="46.44498" lon="5.45654">
        <ele>376.6</ele>
        <time>2022-07-14T08:45:13Z</time>
      </trkpt>
      <trkpt lat="46.4455" lon="5.45669">
        <ele>377.4</ele>
        <time>2022-07-14T08:45:20Z</time>
      </trkpt>
      <trkpt lat="46.44592" lon="5.45683">
        <ele>377</ele>
        <time>2022-07-14T08:45:26Z</time>
      </trkpt>
      <trkpt lat="46.44612" lon="5.45689">
        <ele>376.6</ele>
        <time>2022-07-14T08:45:28Z</time>
      </trkpt>
      <trkpt lat="46.44672" lon="5.45709">
        <ele>375.8</ele>
        <time>2022-07-14T08:45:35Z</time>
      </trkpt>
      <trkpt lat="46.44725" lon="5.45731">
        <ele>375.8</ele>
        <time>2022-07-14T08:45:42Z</time>
      </trkpt>
      <trkpt lat="46.4474" lon="5.45739">
        <ele>376</ele>
        <time>2022-07-14T08:45:44Z</time>
      </trkpt>
      <trkpt lat="46.44797" lon="5.4577">
        <ele>376.8</ele>
        <time>2022-07-14T08:45:52Z</time>
      </trkpt>
      <trkpt lat="46.44811" lon="5.45778">
        <ele>377</ele>
        <time>2022-07-14T08:45:54Z</time>
      </trkpt>
      <trkpt lat="46.44861" lon="5.45806">
        <ele>377.6</ele>
        <time>2022-07-14T08:46:01Z</time>
      </trkpt>
      <trkpt lat="46.44868" lon="5.45811">
        <ele>377.8</ele>
        <time>2022-07-14T08:46:02Z</time>
      </trkpt>
      <trkpt lat="46.44905" lon="5.45832">
        <ele>378</ele>
        <time>2022-07-14T08:46:07Z</time>
      </trkpt>
      <trkpt lat="46.44961" lon="5.45865">
        <ele>377.6</ele>
        <time>2022-07-14T08:46:14Z</time>
      </trkpt>
      <trkpt lat="46.45002" lon="5.45888">
        <ele>377</ele>
        <time>2022-07-14T08:46:19Z</time>
      </trkpt>
      <trkpt lat="46.4501" lon="5.45894">
        <ele>376.6</ele>
        <time>2022-07-14T08:46:20Z</time>
      </trkpt>
      <trkpt lat="46.45018" lon="5.459">
        <ele>376</ele>
        <time>2022-07-14T08:46:21Z</time>
      </trkpt>
      <trkpt lat="46.45044" lon="5.45915">
        <ele>375.4</ele>
        <time>2022-07-14T08:46:24Z</time>
      </trkpt>
      <trkpt lat="46.4508" lon="5.45934">
        <ele>374.6</ele>
        <time>2022-07-14T08:46:28Z</time>
      </trkpt>
      <trkpt lat="46.45097" lon="5.45942">
        <ele>374.4</ele>
        <time>2022-07-14T08:46:30Z</time>
      </trkpt>
      <trkpt lat="46.4513" lon="5.45962">
        <ele>374.2</ele>
        <time>2022-07-14T08:46:34Z</time>
      </trkpt>
      <trkpt lat="46.45165" lon="5.45991">
        <ele>374.4</ele>
        <time>2022-07-14T08:46:39Z</time>
      </trkpt>
      <trkpt lat="46.45193" lon="5.46008">
        <ele>375.4</ele>
        <time>2022-07-14T08:46:43Z</time>
      </trkpt>
      <trkpt lat="46.45206" lon="5.46018">
        <ele>376</ele>
        <time>2022-07-14T08:46:45Z</time>
      </trkpt>
      <trkpt lat="46.45223" lon="5.46034">
        <ele>376.6</ele>
        <time>2022-07-14T08:46:48Z</time>
      </trkpt>
      <trkpt lat="46.45228" lon="5.46039">
        <ele>376.8</ele>
        <time>2022-07-14T08:46:49Z</time>
      </trkpt>
      <trkpt lat="46.45233" lon="5.46042">
        <ele>376.8</ele>
        <time>2022-07-14T08:46:50Z</time>
      </trkpt>
      <trkpt lat="46.45243" lon="5.46042">
        <ele>377.4</ele>
        <time>2022-07-14T08:46:52Z</time>
      </trkpt>
      <trkpt lat="46.45248" lon="5.46037">
        <ele>377.8</ele>
        <time>2022-07-14T08:46:53Z</time>
      </trkpt>
      <trkpt lat="46.45255" lon="5.46023">
        <ele>378.2</ele>
        <time>2022-07-14T08:46:55Z</time>
      </trkpt>
      <trkpt lat="46.4527" lon="5.45985">
        <ele>378.8</ele>
        <time>2022-07-14T08:46:59Z</time>
      </trkpt>
      <trkpt lat="46.45274" lon="5.45974">
        <ele>379</ele>
        <time>2022-07-14T08:47:00Z</time>
      </trkpt>
      <trkpt lat="46.45288" lon="5.45912">
        <ele>377.8</ele>
        <time>2022-07-14T08:47:05Z</time>
      </trkpt>
      <trkpt lat="46.45299" lon="5.45873">
        <ele>376.2</ele>
        <time>2022-07-14T08:47:08Z</time>
      </trkpt>
      <trkpt lat="46.45311" lon="5.45835">
        <ele>375</ele>
        <time>2022-07-14T08:47:11Z</time>
      </trkpt>
      <trkpt lat="46.45315" lon="5.45822">
        <ele>374.2</ele>
        <time>2022-07-14T08:47:12Z</time>
      </trkpt>
      <trkpt lat="46.45321" lon="5.45797">
        <ele>373.6</ele>
        <time>2022-07-14T08:47:14Z</time>
      </trkpt>
      <trkpt lat="46.45325" lon="5.45772">
        <ele>373.2</ele>
        <time>2022-07-14T08:47:16Z</time>
      </trkpt>
      <trkpt lat="46.45329" lon="5.45747">
        <ele>372.6</ele>
        <time>2022-07-14T08:47:18Z</time>
      </trkpt>
      <trkpt lat="46.45337" lon="5.45687">
        <ele>372.4</ele>
        <time>2022-07-14T08:47:23Z</time>
      </trkpt>
      <trkpt lat="46.45345" lon="5.4564">
        <ele>372.4</ele>
        <time>2022-07-14T08:47:27Z</time>
      </trkpt>
      <trkpt lat="46.45354" lon="5.45619">
        <ele>372.6</ele>
        <time>2022-07-14T08:47:29Z</time>
      </trkpt>
      <trkpt lat="46.45366" lon="5.45604">
        <ele>372.4</ele>
        <time>2022-07-14T08:47:31Z</time>
      </trkpt>
      <trkpt lat="46.45373" lon="5.456">
        <ele>372.2</ele>
        <time>2022-07-14T08:47:32Z</time>
      </trkpt>
      <trkpt lat="46.45381" lon="5.45597">
        <ele>372.4</ele>
        <time>2022-07-14T08:47:33Z</time>
      </trkpt>
      <trkpt lat="46.45397" lon="5.45596">
        <ele>372.4</ele>
        <time>2022-07-14T08:47:35Z</time>
      </trkpt>
      <trkpt lat="46.45404" lon="5.45597">
        <ele>372.6</ele>
        <time>2022-07-14T08:47:36Z</time>
      </trkpt>
      <trkpt lat="46.45412" lon="5.456">
        <ele>372.6</ele>
        <time>2022-07-14T08:47:37Z</time>
      </trkpt>
      <trkpt lat="46.45432" lon="5.45614">
        <ele>372.8</ele>
        <time>2022-07-14T08:47:40Z</time>
      </trkpt>
      <trkpt lat="46.45475" lon="5.45649">
        <ele>374.2</ele>
        <time>2022-07-14T08:47:47Z</time>
      </trkpt>
      <trkpt lat="46.45511" lon="5.45672">
        <ele>375.4</ele>
        <time>2022-07-14T08:47:53Z</time>
      </trkpt>
      <trkpt lat="46.45517" lon="5.45676">
        <ele>375.4</ele>
        <time>2022-07-14T08:47:55Z</time>
      </trkpt>
      <trkpt lat="46.45544" lon="5.4569">
        <ele>376.4</ele>
        <time>2022-07-14T08:47:59Z</time>
      </trkpt>
      <trkpt lat="46.45549" lon="5.45692">
        <ele>376.8</ele>
        <time>2022-07-14T08:48:00Z</time>
      </trkpt>
      <trkpt lat="46.45554" lon="5.45695">
        <ele>377</ele>
        <time>2022-07-14T08:48:01Z</time>
      </trkpt>
      <trkpt lat="46.4557" lon="5.457">
        <ele>378</ele>
        <time>2022-07-14T08:48:04Z</time>
      </trkpt>
      <trkpt lat="46.45587" lon="5.45703">
        <ele>379.4</ele>
        <time>2022-07-14T08:48:07Z</time>
      </trkpt>
      <trkpt lat="46.45597" lon="5.45703">
        <ele>379.8</ele>
        <time>2022-07-14T08:48:09Z</time>
      </trkpt>
      <trkpt lat="46.45603" lon="5.45702">
        <ele>380.4</ele>
        <time>2022-07-14T08:48:10Z</time>
      </trkpt>
      <trkpt lat="46.45619" lon="5.45697">
        <ele>381.2</ele>
        <time>2022-07-14T08:48:13Z</time>
      </trkpt>
      <trkpt lat="46.4563" lon="5.45692">
        <ele>381.6</ele>
        <time>2022-07-14T08:48:15Z</time>
      </trkpt>
      <trkpt lat="46.45663" lon="5.45675">
        <ele>382.6</ele>
        <time>2022-07-14T08:48:21Z</time>
      </trkpt>
      <trkpt lat="46.45673" lon="5.45669">
        <ele>382.8</ele>
        <time>2022-07-14T08:48:23Z</time>
      </trkpt>
      <trkpt lat="46.45704" lon="5.4565">
        <ele>384.2</ele>
        <time>2022-07-14T08:48:29Z</time>
      </trkpt>
      <trkpt lat="46.45721" lon="5.4564">
        <ele>385</ele>
        <time>2022-07-14T08:48:32Z</time>
      </trkpt>
      <trkpt lat="46.45726" lon="5.45637">
        <ele>385.2</ele>
        <time>2022-07-14T08:48:33Z</time>
      </trkpt>
      <trkpt lat="46.45774" lon="5.4561">
        <ele>385.4</ele>
        <time>2022-07-14T08:48:41Z</time>
      </trkpt>
      <trkpt lat="46.45826" lon="5.45581">
        <ele>385.2</ele>
        <time>2022-07-14T08:48:49Z</time>
      </trkpt>
      <trkpt lat="46.45879" lon="5.45551">
        <ele>384.4</ele>
        <time>2022-07-14T08:48:56Z</time>
      </trkpt>
      <trkpt lat="46.45888" lon="5.45547">
        <ele>384</ele>
        <time>2022-07-14T08:48:57Z</time>
      </trkpt>
      <trkpt lat="46.45937" lon="5.4552">
        <ele>383</ele>
        <time>2022-07-14T08:49:03Z</time>
      </trkpt>
      <trkpt lat="46.45953" lon="5.4551">
        <ele>382.4</ele>
        <time>2022-07-14T08:49:05Z</time>
      </trkpt>
      <trkpt lat="46.45969" lon="5.45501">
        <ele>381.8</ele>
        <time>2022-07-14T08:49:07Z</time>
      </trkpt>
      <trkpt lat="46.4601" lon="5.45477">
        <ele>380.8</ele>
        <time>2022-07-14T08:49:12Z</time>
      </trkpt>
      <trkpt lat="46.46043" lon="5.45457">
        <ele>379.8</ele>
        <time>2022-07-14T08:49:16Z</time>
      </trkpt>
      <trkpt lat="46.46051" lon="5.45452">
        <ele>379.8</ele>
        <time>2022-07-14T08:49:17Z</time>
      </trkpt>
      <trkpt lat="46.46103" lon="5.45421">
        <ele>379</ele>
        <time>2022-07-14T08:49:23Z</time>
      </trkpt>
      <trkpt lat="46.46111" lon="5.45415">
        <ele>379</ele>
        <time>2022-07-14T08:49:24Z</time>
      </trkpt>
      <trkpt lat="46.46135" lon="5.45401">
        <ele>378.6</ele>
        <time>2022-07-14T08:49:27Z</time>
      </trkpt>
      <trkpt lat="46.46183" lon="5.45367">
        <ele>377.4</ele>
        <time>2022-07-14T08:49:32Z</time>
      </trkpt>
      <trkpt lat="46.46233" lon="5.4533">
        <ele>376.4</ele>
        <time>2022-07-14T08:49:38Z</time>
      </trkpt>
      <trkpt lat="46.46266" lon="5.45306">
        <ele>376.4</ele>
        <time>2022-07-14T08:49:42Z</time>
      </trkpt>
      <trkpt lat="46.46298" lon="5.45279">
        <ele>376.2</ele>
        <time>2022-07-14T08:49:46Z</time>
      </trkpt>
      <trkpt lat="46.4634" lon="5.45246">
        <ele>375.8</ele>
        <time>2022-07-14T08:49:51Z</time>
      </trkpt>
      <trkpt lat="46.46391" lon="5.45217">
        <ele>375.8</ele>
        <time>2022-07-14T08:49:57Z</time>
      </trkpt>
      <trkpt lat="46.464" lon="5.45214">
        <ele>375.6</ele>
        <time>2022-07-14T08:49:58Z</time>
      </trkpt>
      <trkpt lat="46.46417" lon="5.45212">
        <ele>375.6</ele>
        <time>2022-07-14T08:50:00Z</time>
      </trkpt>
      <trkpt lat="46.46451" lon="5.45224">
        <ele>375.6</ele>
        <time>2022-07-14T08:50:04Z</time>
      </trkpt>
      <trkpt lat="46.46474" lon="5.45234">
        <ele>374.8</ele>
        <time>2022-07-14T08:50:07Z</time>
      </trkpt>
    </trkseg>
  </trk>
</gpx>